<?xml version='1.0' encoding='UTF-8'?><gpx version="1.1" creator="JPX - https://github.com/jenetics/jpx" xmlns="http://www.topografix.com/GPX/1/1"><trk><trkseg><trkpt lat="41.5529283" lon="13.0467383"><ele>594.0</ele><time>2026-04-18T07:11:34.321Z</time></trkpt><trkpt lat="41.5529333" lon="13.0468333"><ele>594.0</ele><time>2026-04-18T07:11:40.324Z</time></trkpt><trkpt lat="41.5529367" lon="13.0469383"><ele>594.0</ele><time>2026-04-18T07:11:48.322Z</time></trkpt><trkpt lat="41.5529433" lon="13.0470317"><ele>594.0</ele><time>2026-04-18T07:11:54.324Z</time></trkpt><trkpt lat="41.5529483" lon="13.0469433"><ele>594.0</ele><time>2026-04-18T07:14:10.322Z</time></trkpt><trkpt lat="41.55294" lon="13.04685"><ele>594.0</ele><time>2026-04-18T07:14:13.322Z</time></trkpt><trkpt lat="41.55294" lon="13.046945"><ele>594.0</ele><time>2026-04-18T07:16:52.322Z</time></trkpt><trkpt lat="41.5529533" lon="13.0470517"><ele>594.0</ele><time>2026-04-18T07:16:56.322Z</time></trkpt><trkpt lat="41.552955" lon="13.04714"><ele>594.0</ele><time>2026-04-18T07:17:02.324Z</time></trkpt><trkpt lat="41.5529583" lon="13.0472433"><ele>594.0</ele><time>2026-04-18T07:20:27.321Z</time></trkpt><trkpt lat="41.5529817" lon="13.04735"><ele>594.0</ele><time>2026-04-18T07:20:31.323Z</time></trkpt><trkpt lat="41.5529883" lon="13.0474483"><ele>594.0</ele><time>2026-04-18T07:20:35.323Z</time></trkpt><trkpt lat="41.55299" lon="13.0475467"><ele>594.0</ele><time>2026-04-18T07:20:39.321Z</time></trkpt><trkpt lat="41.5529633" lon="13.0476333"><ele>594.0</ele><time>2026-04-18T07:20:42.323Z</time></trkpt><trkpt lat="41.5529067" lon="13.04771"><ele>592.5714285714286</ele><time>2026-04-18T07:20:45.324Z</time></trkpt><trkpt lat="41.5528517" lon="13.0477617"><ele>591.1428571428572</ele><time>2026-04-18T07:20:48.321Z</time></trkpt><trkpt lat="41.55278" lon="13.0477883"><ele>589.7142857142858</ele><time>2026-04-18T07:20:51.324Z</time></trkpt><trkpt lat="41.5527017" lon="13.04778"><ele>588.2857142857143</ele><time>2026-04-18T07:20:54.322Z</time></trkpt><trkpt lat="41.55264" lon="13.0477583"><ele>586.8571428571429</ele><time>2026-04-18T07:20:57.321Z</time></trkpt><trkpt lat="41.5526017" lon="13.0476817"><ele>585.4285714285714</ele><time>2026-04-18T07:21:01.322Z</time></trkpt><trkpt lat="41.5525633" lon="13.0475983"><ele>584.0</ele><time>2026-04-18T07:21:05.322Z</time></trkpt><trkpt lat="41.5525083" lon="13.0475167"><ele>581.1666666666666</ele><time>2026-04-18T07:21:09.322Z</time></trkpt><trkpt lat="41.5524767" lon="13.0474317"><ele>578.3333333333333</ele><time>2026-04-18T07:21:12.324Z</time></trkpt><trkpt lat="41.5524517" lon="13.04733"><ele>575.5</ele><time>2026-04-18T07:21:15.324Z</time></trkpt><trkpt lat="41.5524233" lon="13.0472383"><ele>572.6666666666666</ele><time>2026-04-18T07:21:18.322Z</time></trkpt><trkpt lat="41.5524017" lon="13.047145"><ele>569.8333333333334</ele><time>2026-04-18T07:21:21.322Z</time></trkpt><trkpt lat="41.5523617" lon="13.04706"><ele>567.0</ele><time>2026-04-18T07:21:24.323Z</time></trkpt><trkpt lat="41.5523033" lon="13.04698"><ele>567.0</ele><time>2026-04-18T07:21:27.321Z</time></trkpt><trkpt lat="41.5522383" lon="13.0469183"><ele>567.0</ele><time>2026-04-18T07:21:30.324Z</time></trkpt><trkpt lat="41.55217" lon="13.046905"><ele>567.0</ele><time>2026-04-18T07:21:33.323Z</time></trkpt><trkpt lat="41.5520917" lon="13.0469333"><ele>567.0</ele><time>2026-04-18T07:21:37.324Z</time></trkpt><trkpt lat="41.55203" lon="13.0469633"><ele>567.0</ele><time>2026-04-18T07:21:40.323Z</time></trkpt><trkpt lat="41.5519683" lon="13.046985"><ele>567.0</ele><time>2026-04-18T07:21:43.322Z</time></trkpt><trkpt lat="41.551885" lon="13.04701"><ele>567.0</ele><time>2026-04-18T07:21:47.324Z</time></trkpt><trkpt lat="41.5518167" lon="13.047045"><ele>567.0</ele><time>2026-04-18T07:21:50.322Z</time></trkpt><trkpt lat="41.5517567" lon="13.0470967"><ele>567.0</ele><time>2026-04-18T07:21:53.321Z</time></trkpt><trkpt lat="41.551705" lon="13.0471483"><ele>567.0</ele><time>2026-04-18T07:21:56.322Z</time></trkpt><trkpt lat="41.5516617" lon="13.04721"><ele>567.0</ele><time>2026-04-18T07:21:59.323Z</time></trkpt><trkpt lat="41.55162" lon="13.0472733"><ele>567.0</ele><time>2026-04-18T07:22:02.321Z</time></trkpt><trkpt lat="41.5515917" lon="13.0473583"><ele>567.0</ele><time>2026-04-18T07:22:06.322Z</time></trkpt><trkpt lat="41.5515733" lon="13.04745"><ele>567.0</ele><time>2026-04-18T07:22:10.322Z</time></trkpt><trkpt lat="41.5515617" lon="13.0475467"><ele>569.1428571428571</ele><time>2026-04-18T07:22:13.323Z</time></trkpt><trkpt lat="41.551555" lon="13.0476583"><ele>571.2857142857142</ele><time>2026-04-18T07:22:17.324Z</time></trkpt><trkpt lat="41.5515533" lon="13.0477533"><ele>573.4285714285714</ele><time>2026-04-18T07:22:20.321Z</time></trkpt><trkpt lat="41.5515433" lon="13.0478383"><ele>575.5714285714286</ele><time>2026-04-18T07:22:23.322Z</time></trkpt><trkpt lat="41.5515233" lon="13.0479183"><ele>577.7142857142857</ele><time>2026-04-18T07:22:26.324Z</time></trkpt><trkpt lat="41.55148" lon="13.04799"><ele>579.8571428571429</ele><time>2026-04-18T07:22:29.321Z</time></trkpt><trkpt lat="41.5514283" lon="13.0480517"><ele>582.0</ele><time>2026-04-18T07:22:32.323Z</time></trkpt><trkpt lat="41.5513867" lon="13.048125"><ele>582.0</ele><time>2026-04-18T07:22:35.324Z</time></trkpt><trkpt lat="41.5513417" lon="13.0481883"><ele>582.0</ele><time>2026-04-18T07:22:38.322Z</time></trkpt><trkpt lat="41.5512883" lon="13.0482433"><ele>582.0</ele><time>2026-04-18T07:22:41.321Z</time></trkpt><trkpt lat="41.5512283" lon="13.0483"><ele>582.0</ele><time>2026-04-18T07:22:44.321Z</time></trkpt><trkpt lat="41.55118" lon="13.048355"><ele>582.0</ele><time>2026-04-18T07:22:47.324Z</time></trkpt><trkpt lat="41.5511333" lon="13.0484183"><ele>582.0</ele><time>2026-04-18T07:22:50.321Z</time></trkpt><trkpt lat="41.5510967" lon="13.0484883"><ele>582.0</ele><time>2026-04-18T07:22:53.322Z</time></trkpt><trkpt lat="41.5510333" lon="13.0485633"><ele>582.5714285714286</ele><time>2026-04-18T07:22:57.324Z</time></trkpt><trkpt lat="41.5509783" lon="13.048625"><ele>583.1428571428571</ele><time>2026-04-18T07:23:00.324Z</time></trkpt><trkpt lat="41.5509267" lon="13.048685"><ele>583.7142857142857</ele><time>2026-04-18T07:23:03.325Z</time></trkpt><trkpt lat="41.5508767" lon="13.0487383"><ele>584.2857142857142</ele><time>2026-04-18T07:23:06.321Z</time></trkpt><trkpt lat="41.5508317" lon="13.0488"><ele>584.8571428571429</ele><time>2026-04-18T07:23:09.323Z</time></trkpt><trkpt lat="41.550785" lon="13.0488683"><ele>585.4285714285713</ele><time>2026-04-18T07:23:12.324Z</time></trkpt><trkpt lat="41.5507317" lon="13.0489367"><ele>586.0</ele><time>2026-04-18T07:23:15.324Z</time></trkpt><trkpt lat="41.5506867" lon="13.0489983"><ele>585.9999999999999</ele><time>2026-04-18T07:23:18.322Z</time></trkpt><trkpt lat="41.5506367" lon="13.0490567"><ele>586.0</ele><time>2026-04-18T07:23:21.321Z</time></trkpt><trkpt lat="41.5505933" lon="13.0491283"><ele>586.0</ele><time>2026-04-18T07:23:24.321Z</time></trkpt><trkpt lat="41.5505467" lon="13.049185"><ele>586.0</ele><time>2026-04-18T07:23:27.324Z</time></trkpt><trkpt lat="41.55049" lon="13.049245"><ele>586.0</ele><time>2026-04-18T07:23:30.324Z</time></trkpt><trkpt lat="41.5504417" lon="13.0493017"><ele>585.9999999999999</ele><time>2026-04-18T07:23:33.322Z</time></trkpt><trkpt lat="41.5503883" lon="13.049355"><ele>586.0</ele><time>2026-04-18T07:23:36.322Z</time></trkpt><trkpt lat="41.5503367" lon="13.0494133"><ele>585.7142857142857</ele><time>2026-04-18T07:23:39.322Z</time></trkpt><trkpt lat="41.550285" lon="13.0494783"><ele>585.4285714285714</ele><time>2026-04-18T07:23:42.323Z</time></trkpt><trkpt lat="41.5502317" lon="13.0495283"><ele>585.1428571428571</ele><time>2026-04-18T07:23:45.324Z</time></trkpt><trkpt lat="41.550175" lon="13.0495683"><ele>584.8571428571429</ele><time>2026-04-18T07:23:48.324Z</time></trkpt><trkpt lat="41.5501217" lon="13.0496267"><ele>584.5714285714286</ele><time>2026-04-18T07:23:51.322Z</time></trkpt><trkpt lat="41.5500717" lon="13.0496833"><ele>584.2857142857142</ele><time>2026-04-18T07:23:54.321Z</time></trkpt><trkpt lat="41.5500167" lon="13.0497583"><ele>584.0</ele><time>2026-04-18T07:23:57.324Z</time></trkpt><trkpt lat="41.5499717" lon="13.0498267"><ele>584.0</ele><time>2026-04-18T07:24:00.324Z</time></trkpt><trkpt lat="41.5499317" lon="13.0499217"><ele>584.0</ele><time>2026-04-18T07:24:04.324Z</time></trkpt><trkpt lat="41.5499133" lon="13.0500033"><ele>584.0</ele><time>2026-04-18T07:24:07.324Z</time></trkpt><trkpt lat="41.5498933" lon="13.0500833"><ele>584.0</ele><time>2026-04-18T07:24:10.321Z</time></trkpt><trkpt lat="41.54988" lon="13.0501683"><ele>584.0</ele><time>2026-04-18T07:24:13.322Z</time></trkpt><trkpt lat="41.5498683" lon="13.0502767"><ele>584.0</ele><time>2026-04-18T07:24:17.322Z</time></trkpt><trkpt lat="41.5498833" lon="13.0503867"><ele>584.0</ele><time>2026-04-18T07:24:21.321Z</time></trkpt><trkpt lat="41.5499067" lon="13.05048"><ele>587.3333333333333</ele><time>2026-04-18T07:24:24.322Z</time></trkpt><trkpt lat="41.5499267" lon="13.0505733"><ele>590.6666666666666</ele><time>2026-04-18T07:24:27.322Z</time></trkpt><trkpt lat="41.5499417" lon="13.0506567"><ele>594.0</ele><time>2026-04-18T07:24:30.322Z</time></trkpt><trkpt lat="41.549975" lon="13.05076"><ele>597.3333333333334</ele><time>2026-04-18T07:24:34.323Z</time></trkpt><trkpt lat="41.550005" lon="13.0508583"><ele>600.6666666666667</ele><time>2026-04-18T07:24:38.324Z</time></trkpt><trkpt lat="41.5500367" lon="13.050955"><ele>604.0</ele><time>2026-04-18T07:24:42.322Z</time></trkpt><trkpt lat="41.5500567" lon="13.0510517"><ele>604.5714285714287</ele><time>2026-04-18T07:24:46.322Z</time></trkpt><trkpt lat="41.5500683" lon="13.0511467"><ele>605.1428571428571</ele><time>2026-04-18T07:24:49.321Z</time></trkpt><trkpt lat="41.550075" lon="13.0512367"><ele>605.7142857142858</ele><time>2026-04-18T07:24:52.321Z</time></trkpt><trkpt lat="41.55008" lon="13.0513333"><ele>606.2857142857143</ele><time>2026-04-18T07:24:55.322Z</time></trkpt><trkpt lat="41.5501017" lon="13.0514217"><ele>606.8571428571429</ele><time>2026-04-18T07:24:58.321Z</time></trkpt><trkpt lat="41.5501233" lon="13.05151"><ele>607.4285714285714</ele><time>2026-04-18T07:25:01.324Z</time></trkpt><trkpt lat="41.5501533" lon="13.0515967"><ele>608.0</ele><time>2026-04-18T07:25:04.322Z</time></trkpt><trkpt lat="41.55018" lon="13.0516783"><ele>608.0</ele><time>2026-04-18T07:25:07.321Z</time></trkpt><trkpt lat="41.55023" lon="13.0517667"><ele>608.0</ele><time>2026-04-18T07:25:11.321Z</time></trkpt><trkpt lat="41.55027" lon="13.051835"><ele>608.0</ele><time>2026-04-18T07:25:14.322Z</time></trkpt><trkpt lat="41.5503133" lon="13.05191"><ele>608.0</ele><time>2026-04-18T07:25:17.322Z</time></trkpt><trkpt lat="41.5503583" lon="13.0519833"><ele>608.0</ele><time>2026-04-18T07:25:20.321Z</time></trkpt><trkpt lat="41.5503983" lon="13.0520567"><ele>608.0</ele><time>2026-04-18T07:25:23.322Z</time></trkpt><trkpt lat="41.550445" lon="13.0521267"><ele>608.0</ele><time>2026-04-18T07:25:26.322Z</time></trkpt><trkpt lat="41.5505033" lon="13.0521983"><ele>611.5714285714286</ele><time>2026-04-18T07:25:29.322Z</time></trkpt><trkpt lat="41.5505617" lon="13.05227"><ele>615.1428571428572</ele><time>2026-04-18T07:25:32.322Z</time></trkpt><trkpt lat="41.5506183" lon="13.05233"><ele>618.7142857142858</ele><time>2026-04-18T07:25:35.322Z</time></trkpt><trkpt lat="41.5506767" lon="13.05237"><ele>622.2857142857142</ele><time>2026-04-18T07:25:38.323Z</time></trkpt><trkpt lat="41.5507417" lon="13.0524133"><ele>625.8571428571429</ele><time>2026-04-18T07:25:41.324Z</time></trkpt><trkpt lat="41.5508083" lon="13.0524533"><ele>629.4285714285714</ele><time>2026-04-18T07:25:44.324Z</time></trkpt><trkpt lat="41.5508783" lon="13.0525117"><ele>633.0</ele><time>2026-04-18T07:25:47.322Z</time></trkpt><trkpt lat="41.5509317" lon="13.0525667"><ele>633.0</ele><time>2026-04-18T07:25:50.323Z</time></trkpt><trkpt lat="41.55098" lon="13.0526333"><ele>633.0</ele><time>2026-04-18T07:25:53.324Z</time></trkpt><trkpt lat="41.5510067" lon="13.0527183"><ele>633.0</ele><time>2026-04-18T07:25:56.325Z</time></trkpt><trkpt lat="41.55102" lon="13.0528167"><ele>633.0</ele><time>2026-04-18T07:26:00.323Z</time></trkpt><trkpt lat="41.5509233" lon="13.0528783"><ele>633.0</ele><time>2026-04-18T07:26:30.323Z</time></trkpt><trkpt lat="41.5508567" lon="13.05291"><ele>633.0</ele><time>2026-04-18T07:26:34.321Z</time></trkpt><trkpt lat="41.5507967" lon="13.0529517"><ele>633.0</ele><time>2026-04-18T07:26:38.323Z</time></trkpt><trkpt lat="41.5507283" lon="13.053005"><ele>633.0</ele><time>2026-04-18T07:26:42.324Z</time></trkpt><trkpt lat="41.5506783" lon="13.0530567"><ele>633.0</ele><time>2026-04-18T07:26:46.322Z</time></trkpt><trkpt lat="41.5506217" lon="13.0531017"><ele>633.0</ele><time>2026-04-18T07:26:50.321Z</time></trkpt><trkpt lat="41.5505567" lon="13.053155"><ele>633.0</ele><time>2026-04-18T07:26:54.323Z</time></trkpt><trkpt lat="41.5504933" lon="13.05323"><ele>633.0</ele><time>2026-04-18T07:26:58.322Z</time></trkpt><trkpt lat="41.550425" lon="13.0532867"><ele>633.3333333333334</ele><time>2026-04-18T07:27:02.323Z</time></trkpt><trkpt lat="41.55035" lon="13.0533233"><ele>633.6666666666666</ele><time>2026-04-18T07:27:06.324Z</time></trkpt><trkpt lat="41.550275" lon="13.0533533"><ele>634.0</ele><time>2026-04-18T07:27:10.322Z</time></trkpt><trkpt lat="41.550185" lon="13.0533683"><ele>634.3333333333333</ele><time>2026-04-18T07:27:14.322Z</time></trkpt><trkpt lat="41.550115" lon="13.0533833"><ele>634.6666666666666</ele><time>2026-04-18T07:27:17.324Z</time></trkpt><trkpt lat="41.5500317" lon="13.0533917"><ele>635.0</ele><time>2026-04-18T07:27:21.323Z</time></trkpt><trkpt lat="41.5499467" lon="13.053395"><ele>634.9999999999999</ele><time>2026-04-18T07:27:25.323Z</time></trkpt><trkpt lat="41.5498767" lon="13.0533933"><ele>635.0</ele><time>2026-04-18T07:27:28.322Z</time></trkpt><trkpt lat="41.5498" lon="13.05339"><ele>635.0</ele><time>2026-04-18T07:27:32.323Z</time></trkpt><trkpt lat="41.5497283" lon="13.05339"><ele>635.0</ele><time>2026-04-18T07:27:36.323Z</time></trkpt><trkpt lat="41.54965" lon="13.05339"><ele>635.0</ele><time>2026-04-18T07:27:40.322Z</time></trkpt><trkpt lat="41.54958" lon="13.053375"><ele>634.9999999999999</ele><time>2026-04-18T07:27:43.323Z</time></trkpt><trkpt lat="41.5495133" lon="13.0533667"><ele>635.0</ele><time>2026-04-18T07:27:46.323Z</time></trkpt><trkpt lat="41.5494367" lon="13.0533567"><ele>635.5</ele><time>2026-04-18T07:27:50.323Z</time></trkpt><trkpt lat="41.5493517" lon="13.0533717"><ele>636.0</ele><time>2026-04-18T07:27:54.322Z</time></trkpt><trkpt lat="41.54928" lon="13.05338"><ele>636.5</ele><time>2026-04-18T07:27:57.322Z</time></trkpt><trkpt lat="41.5492117" lon="13.0533883"><ele>637.0</ele><time>2026-04-18T07:28:00.323Z</time></trkpt><trkpt lat="41.549135" lon="13.0534117"><ele>637.5</ele><time>2026-04-18T07:28:04.323Z</time></trkpt><trkpt lat="41.5490517" lon="13.0534367"><ele>638.0</ele><time>2026-04-18T07:28:08.322Z</time></trkpt><trkpt lat="41.5489717" lon="13.0534667"><ele>638.0</ele><time>2026-04-18T07:28:12.323Z</time></trkpt><trkpt lat="41.54891" lon="13.053505"><ele>638.0</ele><time>2026-04-18T07:28:15.325Z</time></trkpt><trkpt lat="41.548845" lon="13.05356"><ele>638.0</ele><time>2026-04-18T07:28:19.323Z</time></trkpt><trkpt lat="41.54879" lon="13.0536383"><ele>638.0</ele><time>2026-04-18T07:28:23.323Z</time></trkpt><trkpt lat="41.548735" lon="13.053685"><ele>638.0</ele><time>2026-04-18T07:28:26.323Z</time></trkpt><trkpt lat="41.54868" lon="13.0537467"><ele>638.0</ele><time>2026-04-18T07:28:30.323Z</time></trkpt><trkpt lat="41.5486083" lon="13.0538017"><ele>638.0</ele><time>2026-04-18T07:28:34.323Z</time></trkpt><trkpt lat="41.5485467" lon="13.0538617"><ele>638.8571428571429</ele><time>2026-04-18T07:28:37.323Z</time></trkpt><trkpt lat="41.548495" lon="13.0539133"><ele>639.7142857142857</ele><time>2026-04-18T07:28:40.323Z</time></trkpt><trkpt lat="41.5484283" lon="13.053985"><ele>640.5714285714286</ele><time>2026-04-18T07:28:44.323Z</time></trkpt><trkpt lat="41.5483767" lon="13.0540517"><ele>641.4285714285714</ele><time>2026-04-18T07:28:47.324Z</time></trkpt><trkpt lat="41.5483217" lon="13.054135"><ele>642.2857142857142</ele><time>2026-04-18T07:28:51.323Z</time></trkpt><trkpt lat="41.5482867" lon="13.0542067"><ele>643.1428571428571</ele><time>2026-04-18T07:28:54.323Z</time></trkpt><trkpt lat="41.548265" lon="13.0542933"><ele>644.0</ele><time>2026-04-18T07:28:58.323Z</time></trkpt><trkpt lat="41.5482567" lon="13.0543767"><ele>644.0</ele><time>2026-04-18T07:29:01.322Z</time></trkpt><trkpt lat="41.5482483" lon="13.0544633"><ele>644.0</ele><time>2026-04-18T07:29:04.323Z</time></trkpt><trkpt lat="41.5482217" lon="13.054565"><ele>644.0</ele><time>2026-04-18T07:29:07.325Z</time></trkpt><trkpt lat="41.5481933" lon="13.0546517"><ele>644.0</ele><time>2026-04-18T07:29:10.323Z</time></trkpt><trkpt lat="41.548155" lon="13.0547333"><ele>644.0</ele><time>2026-04-18T07:29:14.325Z</time></trkpt><trkpt lat="41.548115" lon="13.05483"><ele>644.0</ele><time>2026-04-18T07:29:18.325Z</time></trkpt><trkpt lat="41.5480883" lon="13.0549083"><ele>644.0</ele><time>2026-04-18T07:29:21.323Z</time></trkpt><trkpt lat="41.5480667" lon="13.05501"><ele>646.4285714285714</ele><time>2026-04-18T07:29:24.323Z</time></trkpt><trkpt lat="41.5480533" lon="13.055105"><ele>648.8571428571429</ele><time>2026-04-18T07:29:27.322Z</time></trkpt><trkpt lat="41.5480417" lon="13.05519"><ele>651.2857142857142</ele><time>2026-04-18T07:29:30.321Z</time></trkpt><trkpt lat="41.548035" lon="13.0552983"><ele>653.7142857142858</ele><time>2026-04-18T07:29:34.322Z</time></trkpt><trkpt lat="41.5480333" lon="13.0553833"><ele>656.1428571428571</ele><time>2026-04-18T07:29:37.324Z</time></trkpt><trkpt lat="41.548045" lon="13.0554867"><ele>658.5714285714286</ele><time>2026-04-18T07:29:41.323Z</time></trkpt><trkpt lat="41.5480533" lon="13.0555817"><ele>661.0</ele><time>2026-04-18T07:29:45.325Z</time></trkpt><trkpt lat="41.5480733" lon="13.0556883"><ele>661.0</ele><time>2026-04-18T07:29:49.323Z</time></trkpt><trkpt lat="41.548095" lon="13.0557717"><ele>661.0</ele><time>2026-04-18T07:29:52.323Z</time></trkpt><trkpt lat="41.5481283" lon="13.0558533"><ele>661.0</ele><time>2026-04-18T07:29:56.322Z</time></trkpt><trkpt lat="41.5481617" lon="13.05595"><ele>661.0</ele><time>2026-04-18T07:30:00.323Z</time></trkpt><trkpt lat="41.54819" lon="13.056045"><ele>661.0</ele><time>2026-04-18T07:30:04.323Z</time></trkpt><trkpt lat="41.5482217" lon="13.056145"><ele>661.0</ele><time>2026-04-18T07:30:08.322Z</time></trkpt><trkpt lat="41.5482433" lon="13.0562267"><ele>661.0</ele><time>2026-04-18T07:30:11.322Z</time></trkpt><trkpt lat="41.548255" lon="13.0563233"><ele>661.2857142857142</ele><time>2026-04-18T07:30:14.324Z</time></trkpt><trkpt lat="41.5482517" lon="13.0564217"><ele>661.5714285714286</ele><time>2026-04-18T07:30:17.322Z</time></trkpt><trkpt lat="41.5482567" lon="13.0565167"><ele>661.8571428571429</ele><time>2026-04-18T07:30:20.324Z</time></trkpt><trkpt lat="41.5482633" lon="13.0566183"><ele>662.1428571428571</ele><time>2026-04-18T07:30:23.325Z</time></trkpt><trkpt lat="41.54826" lon="13.0567083"><ele>662.4285714285714</ele><time>2026-04-18T07:30:26.324Z</time></trkpt><trkpt lat="41.5482517" lon="13.0567967"><ele>662.7142857142857</ele><time>2026-04-18T07:30:29.322Z</time></trkpt><trkpt lat="41.548265" lon="13.0569033"><ele>663.0</ele><time>2026-04-18T07:30:33.323Z</time></trkpt><trkpt lat="41.5483167" lon="13.0569767"><ele>663.0</ele><time>2026-04-18T07:30:37.326Z</time></trkpt><trkpt lat="41.54838" lon="13.0569917"><ele>663.0</ele><time>2026-04-18T07:30:40.325Z</time></trkpt><trkpt lat="41.54845" lon="13.0569333"><ele>663.0</ele><time>2026-04-18T07:30:44.325Z</time></trkpt><trkpt lat="41.5484867" lon="13.05684"><ele>663.0</ele><time>2026-04-18T07:30:48.324Z</time></trkpt><trkpt lat="41.548485" lon="13.05673"><ele>663.0</ele><time>2026-04-18T07:30:52.322Z</time></trkpt><trkpt lat="41.5484633" lon="13.056635"><ele>663.0</ele><time>2026-04-18T07:30:55.322Z</time></trkpt><trkpt lat="41.5484483" lon="13.056545"><ele>663.6666666666666</ele><time>2026-04-18T07:30:58.323Z</time></trkpt><trkpt lat="41.5484417" lon="13.0564567"><ele>664.3333333333334</ele><time>2026-04-18T07:31:01.322Z</time></trkpt><trkpt lat="41.548445" lon="13.056355"><ele>665.0</ele><time>2026-04-18T07:31:04.323Z</time></trkpt><trkpt lat="41.5484517" lon="13.0562533"><ele>665.6666666666667</ele><time>2026-04-18T07:31:08.324Z</time></trkpt><trkpt lat="41.5484617" lon="13.056145"><ele>666.3333333333334</ele><time>2026-04-18T07:31:12.325Z</time></trkpt><trkpt lat="41.5484633" lon="13.056045"><ele>667.0</ele><time>2026-04-18T07:31:16.321Z</time></trkpt><trkpt lat="41.5484717" lon="13.0559283"><ele>667.0000000000001</ele><time>2026-04-18T07:31:20.322Z</time></trkpt><trkpt lat="41.5484833" lon="13.05584"><ele>667.0</ele><time>2026-04-18T07:31:23.322Z</time></trkpt><trkpt lat="41.5484983" lon="13.0557567"><ele>667.0</ele><time>2026-04-18T07:31:26.323Z</time></trkpt><trkpt lat="41.5485367" lon="13.0556617"><ele>667.0</ele><time>2026-04-18T07:31:30.323Z</time></trkpt><trkpt lat="41.5485867" lon="13.0555867"><ele>667.0</ele><time>2026-04-18T07:31:34.322Z</time></trkpt><trkpt lat="41.5486333" lon="13.0555217"><ele>667.0000000000001</ele><time>2026-04-18T07:31:38.321Z</time></trkpt><trkpt lat="41.5486667" lon="13.0554467"><ele>667.0</ele><time>2026-04-18T07:31:42.323Z</time></trkpt><trkpt lat="41.5486983" lon="13.0553567"><ele>666.4285714285714</ele><time>2026-04-18T07:31:46.322Z</time></trkpt><trkpt lat="41.548745" lon="13.0552833"><ele>665.8571428571429</ele><time>2026-04-18T07:31:50.322Z</time></trkpt><trkpt lat="41.5487783" lon="13.0552117"><ele>665.2857142857142</ele><time>2026-04-18T07:31:53.323Z</time></trkpt><trkpt lat="41.5488017" lon="13.0551333"><ele>664.7142857142858</ele><time>2026-04-18T07:31:56.323Z</time></trkpt><trkpt lat="41.5488083" lon="13.055045"><ele>664.1428571428571</ele><time>2026-04-18T07:31:59.322Z</time></trkpt><trkpt lat="41.54885" lon="13.0549533"><ele>663.5714285714286</ele><time>2026-04-18T07:32:02.323Z</time></trkpt><trkpt lat="41.5489083" lon="13.05489"><ele>663.0</ele><time>2026-04-18T07:32:05.323Z</time></trkpt><trkpt lat="41.5489717" lon="13.0548417"><ele>663.0</ele><time>2026-04-18T07:32:08.322Z</time></trkpt><trkpt lat="41.5490417" lon="13.0548"><ele>663.0</ele><time>2026-04-18T07:32:12.323Z</time></trkpt><trkpt lat="41.5491133" lon="13.0548283"><ele>663.0</ele><time>2026-04-18T07:32:16.325Z</time></trkpt><trkpt lat="41.54912" lon="13.0549667"><ele>663.0</ele><time>2026-04-18T07:32:37.322Z</time></trkpt><trkpt lat="41.5490817" lon="13.0550567"><ele>663.0</ele><time>2026-04-18T07:32:41.322Z</time></trkpt><trkpt lat="41.54904" lon="13.0551317"><ele>663.0</ele><time>2026-04-18T07:32:44.324Z</time></trkpt><trkpt lat="41.54899" lon="13.0552183"><ele>666.2857142857142</ele><time>2026-04-18T07:32:48.323Z</time></trkpt><trkpt lat="41.54894" lon="13.055285"><ele>669.5714285714286</ele><time>2026-04-18T07:32:51.323Z</time></trkpt><trkpt lat="41.5489033" lon="13.0553567"><ele>672.8571428571429</ele><time>2026-04-18T07:32:54.323Z</time></trkpt><trkpt lat="41.5488867" lon="13.055445"><ele>676.1428571428571</ele><time>2026-04-18T07:32:58.321Z</time></trkpt><trkpt lat="41.54887" lon="13.05554"><ele>679.4285714285714</ele><time>2026-04-18T07:33:02.322Z</time></trkpt><trkpt lat="41.5488517" lon="13.05563"><ele>682.7142857142857</ele><time>2026-04-18T07:33:05.321Z</time></trkpt><trkpt lat="41.54882" lon="13.0557267"><ele>686.0</ele><time>2026-04-18T07:33:09.323Z</time></trkpt><trkpt lat="41.5488" lon="13.0558133"><ele>687.4285714285714</ele><time>2026-04-18T07:33:12.324Z</time></trkpt><trkpt lat="41.54879" lon="13.0559133"><ele>688.8571428571429</ele><time>2026-04-18T07:33:16.323Z</time></trkpt><trkpt lat="41.5487933" lon="13.056025"><ele>690.2857142857142</ele><time>2026-04-18T07:33:20.323Z</time></trkpt><trkpt lat="41.548805" lon="13.0561083"><ele>691.7142857142858</ele><time>2026-04-18T07:33:23.324Z</time></trkpt><trkpt lat="41.54883" lon="13.0561967"><ele>693.1428571428571</ele><time>2026-04-18T07:33:26.323Z</time></trkpt><trkpt lat="41.5488417" lon="13.05629"><ele>694.5714285714286</ele><time>2026-04-18T07:33:29.321Z</time></trkpt><trkpt lat="41.548885" lon="13.05638"><ele>696.0</ele><time>2026-04-18T07:33:33.323Z</time></trkpt><trkpt lat="41.5489133" lon="13.05646"><ele>696.0</ele><time>2026-04-18T07:33:36.323Z</time></trkpt><trkpt lat="41.548945" lon="13.0565433"><ele>696.0</ele><time>2026-04-18T07:33:39.325Z</time></trkpt><trkpt lat="41.5489833" lon="13.0566133"><ele>696.0</ele><time>2026-04-18T07:33:42.324Z</time></trkpt><trkpt lat="41.5490333" lon="13.056695"><ele>696.0</ele><time>2026-04-18T07:33:46.323Z</time></trkpt><trkpt lat="41.5490667" lon="13.0567667"><ele>696.0</ele><time>2026-04-18T07:33:49.322Z</time></trkpt><trkpt lat="41.54909" lon="13.0568483"><ele>696.0</ele><time>2026-04-18T07:33:52.322Z</time></trkpt><trkpt lat="41.549115" lon="13.0569317"><ele>696.0</ele><time>2026-04-18T07:33:55.326Z</time></trkpt><trkpt lat="41.549135" lon="13.0570183"><ele>696.0</ele><time>2026-04-18T07:33:58.323Z</time></trkpt><trkpt lat="41.5491633" lon="13.0570983"><ele>696.0</ele><time>2026-04-18T07:34:01.322Z</time></trkpt><trkpt lat="41.5491983" lon="13.0571967"><ele>696.0</ele><time>2026-04-18T07:34:05.321Z</time></trkpt><trkpt lat="41.54925" lon="13.0572667"><ele>696.0</ele><time>2026-04-18T07:34:09.322Z</time></trkpt><trkpt lat="41.5493283" lon="13.0572317"><ele>696.0</ele><time>2026-04-18T07:34:12.324Z</time></trkpt><trkpt lat="41.549385" lon="13.05717"><ele>696.0</ele><time>2026-04-18T07:34:16.321Z</time></trkpt><trkpt lat="41.549365" lon="13.05708"><ele>696.0</ele><time>2026-04-18T07:34:22.32Z</time></trkpt><trkpt lat="41.5493283" lon="13.0570067"><ele>696.0</ele><time>2026-04-18T07:34:27.322Z</time></trkpt><trkpt lat="41.5493083" lon="13.0569233"><ele>696.0</ele><time>2026-04-18T07:34:32.322Z</time></trkpt><trkpt lat="41.5493017" lon="13.0568317"><ele>696.0</ele><time>2026-04-18T07:34:39.322Z</time></trkpt><trkpt lat="41.5492817" lon="13.056735"><ele>696.0</ele><time>2026-04-18T07:35:17.32Z</time></trkpt><trkpt lat="41.5492633" lon="13.0566417"><ele>696.0</ele><time>2026-04-18T07:35:21.322Z</time></trkpt><trkpt lat="41.54925" lon="13.056535"><ele>696.0</ele><time>2026-04-18T07:35:25.323Z</time></trkpt><trkpt lat="41.5492567" lon="13.0564383"><ele>696.0</ele><time>2026-04-18T07:35:29.322Z</time></trkpt><trkpt lat="41.5492683" lon="13.05633"><ele>696.0</ele><time>2026-04-18T07:35:33.322Z</time></trkpt><trkpt lat="41.5492883" lon="13.0562467"><ele>696.0</ele><time>2026-04-18T07:35:36.321Z</time></trkpt><trkpt lat="41.5493267" lon="13.0561533"><ele>696.0</ele><time>2026-04-18T07:35:40.323Z</time></trkpt><trkpt lat="41.549375" lon="13.0560767"><ele>696.0</ele><time>2026-04-18T07:35:45.321Z</time></trkpt><trkpt lat="41.5494267" lon="13.0560067"><ele>696.0</ele><time>2026-04-18T07:35:50.322Z</time></trkpt><trkpt lat="41.5494683" lon="13.0559417"><ele>696.0</ele><time>2026-04-18T07:35:54.321Z</time></trkpt><trkpt lat="41.5495167" lon="13.0558867"><ele>696.0</ele><time>2026-04-18T07:35:58.323Z</time></trkpt><trkpt lat="41.5495833" lon="13.0558383"><ele>696.5714285714286</ele><time>2026-04-18T07:36:02.321Z</time></trkpt><trkpt lat="41.5496467" lon="13.05578"><ele>697.1428571428571</ele><time>2026-04-18T07:36:06.322Z</time></trkpt><trkpt lat="41.54971" lon="13.0557267"><ele>697.7142857142858</ele><time>2026-04-18T07:36:10.321Z</time></trkpt><trkpt lat="41.5497767" lon="13.0556867"><ele>698.2857142857142</ele><time>2026-04-18T07:36:14.322Z</time></trkpt><trkpt lat="41.5498483" lon="13.0556517"><ele>698.8571428571429</ele><time>2026-04-18T07:36:18.319Z</time></trkpt><trkpt lat="41.54992" lon="13.0556267"><ele>699.4285714285714</ele><time>2026-04-18T07:36:22.321Z</time></trkpt><trkpt lat="41.5499817" lon="13.0555767"><ele>700.0</ele><time>2026-04-18T07:36:26.322Z</time></trkpt><trkpt lat="41.550045" lon="13.0555517"><ele>700.0</ele><time>2026-04-18T07:36:30.322Z</time></trkpt><trkpt lat="41.5501117" lon="13.055535"><ele>700.0</ele><time>2026-04-18T07:36:34.322Z</time></trkpt><trkpt lat="41.5501833" lon="13.055535"><ele>700.0</ele><time>2026-04-18T07:36:39.322Z</time></trkpt><trkpt lat="41.5502483" lon="13.0555083"><ele>700.0</ele><time>2026-04-18T07:36:45.322Z</time></trkpt><trkpt lat="41.5503133" lon="13.0554783"><ele>700.0</ele><time>2026-04-18T07:36:50.322Z</time></trkpt><trkpt lat="41.5503883" lon="13.0554733"><ele>700.0</ele><time>2026-04-18T07:36:54.322Z</time></trkpt><trkpt lat="41.5504617" lon="13.05548"><ele>700.0</ele><time>2026-04-18T07:36:58.322Z</time></trkpt><trkpt lat="41.5505433" lon="13.055485"><ele>701.0</ele><time>2026-04-18T07:37:02.321Z</time></trkpt><trkpt lat="41.550615" lon="13.0554983"><ele>702.0</ele><time>2026-04-18T07:37:05.322Z</time></trkpt><trkpt lat="41.55069" lon="13.0554883"><ele>703.0</ele><time>2026-04-18T07:37:09.321Z</time></trkpt><trkpt lat="41.55076" lon="13.0554767"><ele>704.0</ele><time>2026-04-18T07:37:13.322Z</time></trkpt><trkpt lat="41.5508233" lon="13.055485"><ele>705.0</ele><time>2026-04-18T07:37:17.32Z</time></trkpt><trkpt lat="41.5508933" lon="13.0554883"><ele>706.0</ele><time>2026-04-18T07:37:21.32Z</time></trkpt><trkpt lat="41.550975" lon="13.055505"><ele>707.0</ele><time>2026-04-18T07:37:24.319Z</time></trkpt><trkpt lat="41.5510417" lon="13.0554967"><ele>707.0</ele><time>2026-04-18T07:37:27.319Z</time></trkpt><trkpt lat="41.5511117" lon="13.0554933"><ele>707.0</ele><time>2026-04-18T07:37:31.32Z</time></trkpt><trkpt lat="41.551175" lon="13.0554867"><ele>707.0</ele><time>2026-04-18T07:37:34.32Z</time></trkpt><trkpt lat="41.5512383" lon="13.0554817"><ele>707.0</ele><time>2026-04-18T07:37:37.32Z</time></trkpt><trkpt lat="41.5513017" lon="13.0554817"><ele>707.0</ele><time>2026-04-18T07:37:41.321Z</time></trkpt><trkpt lat="41.5513733" lon="13.0555267"><ele>707.0</ele><time>2026-04-18T07:37:45.322Z</time></trkpt><trkpt lat="41.5514367" lon="13.0555467"><ele>707.0</ele><time>2026-04-18T07:37:48.322Z</time></trkpt><trkpt lat="41.5515167" lon="13.0555533"><ele>708.2857142857143</ele><time>2026-04-18T07:37:53.322Z</time></trkpt><trkpt lat="41.5515917" lon="13.05557"><ele>709.5714285714286</ele><time>2026-04-18T07:37:57.321Z</time></trkpt><trkpt lat="41.551665" lon="13.0556017"><ele>710.8571428571429</ele><time>2026-04-18T07:38:02.322Z</time></trkpt><trkpt lat="41.5517367" lon="13.0556317"><ele>712.1428571428571</ele><time>2026-04-18T07:38:07.322Z</time></trkpt><trkpt lat="41.5518083" lon="13.0556483"><ele>713.4285714285714</ele><time>2026-04-18T07:38:11.321Z</time></trkpt><trkpt lat="41.5518717" lon="13.0556417"><ele>714.7142857142858</ele><time>2026-04-18T07:38:14.322Z</time></trkpt><trkpt lat="41.5519433" lon="13.0556733"><ele>716.0</ele><time>2026-04-18T07:38:18.322Z</time></trkpt><trkpt lat="41.552015" lon="13.05568"><ele>715.7142857142858</ele><time>2026-04-18T07:38:22.322Z</time></trkpt><trkpt lat="41.5520817" lon="13.0556933"><ele>715.4285714285714</ele><time>2026-04-18T07:38:26.321Z</time></trkpt><trkpt lat="41.5521533" lon="13.0556983"><ele>715.1428571428571</ele><time>2026-04-18T07:38:30.321Z</time></trkpt><trkpt lat="41.5522317" lon="13.0557067"><ele>714.8571428571429</ele><time>2026-04-18T07:38:34.322Z</time></trkpt><trkpt lat="41.552295" lon="13.0557217"><ele>714.5714285714286</ele><time>2026-04-18T07:38:37.322Z</time></trkpt><trkpt lat="41.5523633" lon="13.055735"><ele>714.2857142857143</ele><time>2026-04-18T07:38:41.322Z</time></trkpt><trkpt lat="41.5524467" lon="13.0557383"><ele>714.0</ele><time>2026-04-18T07:38:45.321Z</time></trkpt><trkpt lat="41.552525" lon="13.055755"><ele>714.0</ele><time>2026-04-18T07:38:49.321Z</time></trkpt><trkpt lat="41.5526083" lon="13.0557667"><ele>714.0</ele><time>2026-04-18T07:38:53.322Z</time></trkpt><trkpt lat="41.55268" lon="13.05577"><ele>714.0</ele><time>2026-04-18T07:38:57.322Z</time></trkpt><trkpt lat="41.552745" lon="13.05578"><ele>714.0</ele><time>2026-04-18T07:39:00.321Z</time></trkpt><trkpt lat="41.5528217" lon="13.0557967"><ele>714.0</ele><time>2026-04-18T07:39:04.322Z</time></trkpt><trkpt lat="41.5528967" lon="13.0558333"><ele>714.0</ele><time>2026-04-18T07:39:08.323Z</time></trkpt><trkpt lat="41.5529617" lon="13.05586"><ele>714.0</ele><time>2026-04-18T07:39:12.321Z</time></trkpt><trkpt lat="41.5530433" lon="13.055865"><ele>718.0</ele><time>2026-04-18T07:39:17.321Z</time></trkpt><trkpt lat="41.5531183" lon="13.0558567"><ele>722.0</ele><time>2026-04-18T07:39:21.322Z</time></trkpt><trkpt lat="41.5531883" lon="13.0558583"><ele>726.0</ele><time>2026-04-18T07:39:25.322Z</time></trkpt><trkpt lat="41.553265" lon="13.05589"><ele>730.0</ele><time>2026-04-18T07:39:30.32Z</time></trkpt><trkpt lat="41.553345" lon="13.0559067"><ele>734.0</ele><time>2026-04-18T07:39:33.321Z</time></trkpt><trkpt lat="41.5534133" lon="13.05594"><ele>738.0</ele><time>2026-04-18T07:39:37.322Z</time></trkpt><trkpt lat="41.55348" lon="13.0559467"><ele>742.0</ele><time>2026-04-18T07:39:41.321Z</time></trkpt><trkpt lat="41.5535483" lon="13.0559767"><ele>742.0</ele><time>2026-04-18T07:39:45.322Z</time></trkpt><trkpt lat="41.5536117" lon="13.055985"><ele>742.0</ele><time>2026-04-18T07:39:48.321Z</time></trkpt><trkpt lat="41.5536767" lon="13.0559917"><ele>742.0</ele><time>2026-04-18T07:39:51.323Z</time></trkpt><trkpt lat="41.5537483" lon="13.0559867"><ele>742.0</ele><time>2026-04-18T07:39:56.321Z</time></trkpt><trkpt lat="41.5538217" lon="13.0559933"><ele>742.0</ele><time>2026-04-18T07:40:00.321Z</time></trkpt><trkpt lat="41.5538883" lon="13.0560133"><ele>742.0</ele><time>2026-04-18T07:40:03.321Z</time></trkpt><trkpt lat="41.5539633" lon="13.0560533"><ele>742.0</ele><time>2026-04-18T07:40:07.322Z</time></trkpt><trkpt lat="41.5540183" lon="13.0560967"><ele>741.8333333333334</ele><time>2026-04-18T07:40:11.321Z</time></trkpt><trkpt lat="41.5540833" lon="13.056175"><ele>741.6666666666667</ele><time>2026-04-18T07:40:15.322Z</time></trkpt><trkpt lat="41.5541433" lon="13.0562167"><ele>741.5</ele><time>2026-04-18T07:40:19.322Z</time></trkpt><trkpt lat="41.5542083" lon="13.0562717"><ele>741.3333333333334</ele><time>2026-04-18T07:40:23.322Z</time></trkpt><trkpt lat="41.554275" lon="13.0563283"><ele>741.1666666666666</ele><time>2026-04-18T07:40:28.322Z</time></trkpt><trkpt lat="41.5543467" lon="13.0563717"><ele>741.0</ele><time>2026-04-18T07:40:33.322Z</time></trkpt><trkpt lat="41.5544083" lon="13.0564117"><ele>741.0</ele><time>2026-04-18T07:40:37.322Z</time></trkpt><trkpt lat="41.55446" lon="13.0564617"><ele>741.0</ele><time>2026-04-18T07:40:41.321Z</time></trkpt><trkpt lat="41.5545233" lon="13.05651"><ele>741.0</ele><time>2026-04-18T07:40:45.322Z</time></trkpt><trkpt lat="41.554585" lon="13.0565533"><ele>741.0</ele><time>2026-04-18T07:40:49.322Z</time></trkpt><trkpt lat="41.5546483" lon="13.0566033"><ele>741.0</ele><time>2026-04-18T07:40:53.321Z</time></trkpt><trkpt lat="41.554705" lon="13.056655"><ele>741.0</ele><time>2026-04-18T07:40:56.322Z</time></trkpt><trkpt lat="41.55477" lon="13.056705"><ele>741.0</ele><time>2026-04-18T07:41:00.321Z</time></trkpt><trkpt lat="41.5548317" lon="13.056755"><ele>744.5714285714286</ele><time>2026-04-18T07:41:05.32Z</time></trkpt><trkpt lat="41.554885" lon="13.0568133"><ele>748.1428571428572</ele><time>2026-04-18T07:41:09.322Z</time></trkpt><trkpt lat="41.554945" lon="13.0568733"><ele>751.7142857142858</ele><time>2026-04-18T07:41:13.321Z</time></trkpt><trkpt lat="41.554995" lon="13.0569383"><ele>755.2857142857142</ele><time>2026-04-18T07:41:17.32Z</time></trkpt><trkpt lat="41.555045" lon="13.0570167"><ele>758.8571428571429</ele><time>2026-04-18T07:41:21.322Z</time></trkpt><trkpt lat="41.5550883" lon="13.0570867"><ele>762.4285714285714</ele><time>2026-04-18T07:41:25.322Z</time></trkpt><trkpt lat="41.5551367" lon="13.0571533"><ele>766.0</ele><time>2026-04-18T07:41:29.322Z</time></trkpt><trkpt lat="41.555185" lon="13.0572133"><ele>766.0</ele><time>2026-04-18T07:41:33.322Z</time></trkpt><trkpt lat="41.5552383" lon="13.057285"><ele>766.0</ele><time>2026-04-18T07:41:38.321Z</time></trkpt><trkpt lat="41.5552717" lon="13.0573617"><ele>766.0</ele><time>2026-04-18T07:41:43.321Z</time></trkpt><trkpt lat="41.5553083" lon="13.0574333"><ele>766.0</ele><time>2026-04-18T07:41:48.322Z</time></trkpt><trkpt lat="41.5553817" lon="13.0574683"><ele>766.0</ele><time>2026-04-18T07:41:53.322Z</time></trkpt><trkpt lat="41.555445" lon="13.05742"><ele>766.0</ele><time>2026-04-18T07:41:56.321Z</time></trkpt><trkpt lat="41.555495" lon="13.0573383"><ele>766.0</ele><time>2026-04-18T07:41:59.322Z</time></trkpt><trkpt lat="41.555535" lon="13.057245"><ele>769.2857142857142</ele><time>2026-04-18T07:42:02.322Z</time></trkpt><trkpt lat="41.5555467" lon="13.0571567"><ele>772.5714285714286</ele><time>2026-04-18T07:42:06.322Z</time></trkpt><trkpt lat="41.5555633" lon="13.0570733"><ele>775.8571428571429</ele><time>2026-04-18T07:42:10.322Z</time></trkpt><trkpt lat="41.555555" lon="13.0569783"><ele>779.1428571428571</ele><time>2026-04-18T07:42:15.322Z</time></trkpt><trkpt lat="41.5555517" lon="13.0568817"><ele>782.4285714285714</ele><time>2026-04-18T07:42:19.322Z</time></trkpt><trkpt lat="41.5555567" lon="13.056775"><ele>785.7142857142857</ele><time>2026-04-18T07:42:23.321Z</time></trkpt><trkpt lat="41.5555583" lon="13.0566683"><ele>789.0</ele><time>2026-04-18T07:42:27.325Z</time></trkpt><trkpt lat="41.5555617" lon="13.05657"><ele>789.2857142857142</ele><time>2026-04-18T07:42:31.323Z</time></trkpt><trkpt lat="41.5555567" lon="13.0564633"><ele>789.5714285714286</ele><time>2026-04-18T07:42:35.322Z</time></trkpt><trkpt lat="41.55554" lon="13.05637"><ele>789.8571428571429</ele><time>2026-04-18T07:42:38.323Z</time></trkpt><trkpt lat="41.5555217" lon="13.05627"><ele>790.1428571428571</ele><time>2026-04-18T07:42:41.322Z</time></trkpt><trkpt lat="41.5555117" lon="13.056185"><ele>790.4285714285714</ele><time>2026-04-18T07:42:44.323Z</time></trkpt><trkpt lat="41.5555083" lon="13.056095"><ele>790.7142857142857</ele><time>2026-04-18T07:42:47.322Z</time></trkpt><trkpt lat="41.55549" lon="13.05601"><ele>791.0</ele><time>2026-04-18T07:42:50.324Z</time></trkpt><trkpt lat="41.55547" lon="13.0559133"><ele>791.0</ele><time>2026-04-18T07:42:53.325Z</time></trkpt><trkpt lat="41.5554483" lon="13.0558133"><ele>791.0</ele><time>2026-04-18T07:42:56.323Z</time></trkpt><trkpt lat="41.55543" lon="13.0557217"><ele>791.0</ele><time>2026-04-18T07:42:59.322Z</time></trkpt><trkpt lat="41.55543" lon="13.055635"><ele>791.0</ele><time>2026-04-18T07:43:02.321Z</time></trkpt><trkpt lat="41.5554317" lon="13.05555"><ele>791.0</ele><time>2026-04-18T07:43:05.322Z</time></trkpt><trkpt lat="41.5554183" lon="13.05545"><ele>791.0</ele><time>2026-04-18T07:43:09.322Z</time></trkpt><trkpt lat="41.5553867" lon="13.0553533"><ele>791.0</ele><time>2026-04-18T07:43:13.322Z</time></trkpt><trkpt lat="41.5553717" lon="13.0552567"><ele>787.7142857142857</ele><time>2026-04-18T07:43:17.322Z</time></trkpt><trkpt lat="41.555365" lon="13.0551567"><ele>784.4285714285714</ele><time>2026-04-18T07:43:21.323Z</time></trkpt><trkpt lat="41.5553483" lon="13.05506"><ele>781.1428571428571</ele><time>2026-04-18T07:43:24.321Z</time></trkpt><trkpt lat="41.555325" lon="13.0549783"><ele>777.8571428571429</ele><time>2026-04-18T07:43:27.322Z</time></trkpt><trkpt lat="41.5552967" lon="13.0549017"><ele>774.5714285714286</ele><time>2026-04-18T07:43:30.323Z</time></trkpt><trkpt lat="41.5552683" lon="13.0548117"><ele>771.2857142857142</ele><time>2026-04-18T07:43:34.323Z</time></trkpt><trkpt lat="41.55527" lon="13.0547083"><ele>768.0</ele><time>2026-04-18T07:43:38.322Z</time></trkpt><trkpt lat="41.5552633" lon="13.054615"><ele>767.9999999999999</ele><time>2026-04-18T07:43:41.322Z</time></trkpt><trkpt lat="41.5552483" lon="13.05452"><ele>768.0</ele><time>2026-04-18T07:43:45.321Z</time></trkpt><trkpt lat="41.5552383" lon="13.05442"><ele>768.0</ele><time>2026-04-18T07:43:49.324Z</time></trkpt><trkpt lat="41.55522" lon="13.0543167"><ele>768.0</ele><time>2026-04-18T07:43:53.325Z</time></trkpt><trkpt lat="41.5551917" lon="13.0542233"><ele>768.0</ele><time>2026-04-18T07:43:57.322Z</time></trkpt><trkpt lat="41.555185" lon="13.05413"><ele>767.9999999999999</ele><time>2026-04-18T07:44:01.323Z</time></trkpt><trkpt lat="41.5551567" lon="13.0540533"><ele>768.0</ele><time>2026-04-18T07:44:04.321Z</time></trkpt><trkpt lat="41.5551367" lon="13.05397"><ele>767.9999999999999</ele><time>2026-04-18T07:44:07.323Z</time></trkpt><trkpt lat="41.5550983" lon="13.0539033"><ele>768.0</ele><time>2026-04-18T07:44:10.322Z</time></trkpt><trkpt lat="41.5550733" lon="13.0538017"><ele>768.0</ele><time>2026-04-18T07:44:14.325Z</time></trkpt><trkpt lat="41.5550733" lon="13.053715"><ele>768.0</ele><time>2026-04-18T07:44:18.321Z</time></trkpt><trkpt lat="41.5551067" lon="13.053635"><ele>768.0</ele><time>2026-04-18T07:44:22.324Z</time></trkpt><trkpt lat="41.5551783" lon="13.0536067"><ele>767.9999999999999</ele><time>2026-04-18T07:44:26.324Z</time></trkpt><trkpt lat="41.5552283" lon="13.0536617"><ele>768.0</ele><time>2026-04-18T07:44:32.32Z</time></trkpt><trkpt lat="41.5552667" lon="13.05373"><ele>767.9999999999999</ele><time>2026-04-18T07:44:38.322Z</time></trkpt><trkpt lat="41.5552783" lon="13.0538283"><ele>768.0</ele><time>2026-04-18T07:44:42.321Z</time></trkpt><trkpt lat="41.5552833" lon="13.0539167"><ele>768.0</ele><time>2026-04-18T07:44:45.321Z</time></trkpt><trkpt lat="41.555305" lon="13.0540067"><ele>768.0</ele><time>2026-04-18T07:44:49.323Z</time></trkpt><trkpt lat="41.5553283" lon="13.0540933"><ele>768.0</ele><time>2026-04-18T07:44:52.322Z</time></trkpt><trkpt lat="41.55535" lon="13.0541867"><ele>767.9999999999999</ele><time>2026-04-18T07:44:56.323Z</time></trkpt><trkpt lat="41.5553667" lon="13.0542917"><ele>768.0</ele><time>2026-04-18T07:45:01.322Z</time></trkpt><trkpt lat="41.55538" lon="13.054385"><ele>771.7142857142857</ele><time>2026-04-18T07:45:05.32Z</time></trkpt><trkpt lat="41.5554067" lon="13.0544917"><ele>775.4285714285714</ele><time>2026-04-18T07:45:10.322Z</time></trkpt><trkpt lat="41.5554283" lon="13.0545767"><ele>779.1428571428571</ele><time>2026-04-18T07:45:13.324Z</time></trkpt><trkpt lat="41.5554583" lon="13.0546633"><ele>782.8571428571429</ele><time>2026-04-18T07:45:16.321Z</time></trkpt><trkpt lat="41.5554883" lon="13.0547467"><ele>786.5714285714286</ele><time>2026-04-18T07:45:19.324Z</time></trkpt><trkpt lat="41.5555067" lon="13.0548317"><ele>790.2857142857142</ele><time>2026-04-18T07:45:23.323Z</time></trkpt><trkpt lat="41.5555333" lon="13.0549333"><ele>794.0</ele><time>2026-04-18T07:45:27.325Z</time></trkpt><trkpt lat="41.5555467" lon="13.0550367"><ele>794.5714285714286</ele><time>2026-04-18T07:45:31.323Z</time></trkpt><trkpt lat="41.5555683" lon="13.0551183"><ele>795.1428571428571</ele><time>2026-04-18T07:45:34.321Z</time></trkpt><trkpt lat="41.5555933" lon="13.05522"><ele>795.7142857142858</ele><time>2026-04-18T07:45:38.323Z</time></trkpt><trkpt lat="41.55562" lon="13.0553233"><ele>796.2857142857142</ele><time>2026-04-18T07:45:42.322Z</time></trkpt><trkpt lat="41.5556433" lon="13.0554067"><ele>796.8571428571429</ele><time>2026-04-18T07:45:46.323Z</time></trkpt><trkpt lat="41.5556533" lon="13.0554983"><ele>797.4285714285714</ele><time>2026-04-18T07:45:49.323Z</time></trkpt><trkpt lat="41.5556767" lon="13.05558"><ele>798.0</ele><time>2026-04-18T07:45:52.323Z</time></trkpt><trkpt lat="41.555705" lon="13.055675"><ele>798.0</ele><time>2026-04-18T07:45:56.323Z</time></trkpt><trkpt lat="41.5557367" lon="13.055775"><ele>798.0</ele><time>2026-04-18T07:46:00.322Z</time></trkpt><trkpt lat="41.5557617" lon="13.0558617"><ele>798.0</ele><time>2026-04-18T07:46:03.322Z</time></trkpt><trkpt lat="41.5557833" lon="13.0559733"><ele>798.0</ele><time>2026-04-18T07:46:07.322Z</time></trkpt><trkpt lat="41.5558133" lon="13.0560767"><ele>798.0</ele><time>2026-04-18T07:46:10.322Z</time></trkpt><trkpt lat="41.5558383" lon="13.05618"><ele>798.0</ele><time>2026-04-18T07:46:13.325Z</time></trkpt><trkpt lat="41.5558567" lon="13.0562783"><ele>796.8333333333334</ele><time>2026-04-18T07:46:17.322Z</time></trkpt><trkpt lat="41.555885" lon="13.0563767"><ele>795.6666666666667</ele><time>2026-04-18T07:46:21.321Z</time></trkpt><trkpt lat="41.5559067" lon="13.05648"><ele>794.5</ele><time>2026-04-18T07:46:25.323Z</time></trkpt><trkpt lat="41.5559333" lon="13.056585"><ele>793.3333333333334</ele><time>2026-04-18T07:46:29.323Z</time></trkpt><trkpt lat="41.5559567" lon="13.0566817"><ele>792.1666666666667</ele><time>2026-04-18T07:46:33.321Z</time></trkpt><trkpt lat="41.555975" lon="13.05677"><ele>791.0</ele><time>2026-04-18T07:46:37.323Z</time></trkpt><trkpt lat="41.5559983" lon="13.05688"><ele>790.7142857142857</ele><time>2026-04-18T07:46:41.322Z</time></trkpt><trkpt lat="41.5560067" lon="13.0569683"><ele>790.4285714285714</ele><time>2026-04-18T07:46:44.322Z</time></trkpt><trkpt lat="41.5560133" lon="13.057065"><ele>790.1428571428571</ele><time>2026-04-18T07:46:49.323Z</time></trkpt><trkpt lat="41.5560367" lon="13.05717"><ele>789.8571428571429</ele><time>2026-04-18T07:46:53.321Z</time></trkpt><trkpt lat="41.5560583" lon="13.057265"><ele>789.5714285714286</ele><time>2026-04-18T07:46:56.323Z</time></trkpt><trkpt lat="41.55609" lon="13.0573683"><ele>789.2857142857142</ele><time>2026-04-18T07:46:59.324Z</time></trkpt><trkpt lat="41.5561267" lon="13.0574417"><ele>789.0</ele><time>2026-04-18T07:47:02.323Z</time></trkpt><trkpt lat="41.5561683" lon="13.05753"><ele>793.7142857142857</ele><time>2026-04-18T07:47:05.321Z</time></trkpt><trkpt lat="41.5562133" lon="13.05762"><ele>798.4285714285714</ele><time>2026-04-18T07:47:09.32Z</time></trkpt><trkpt lat="41.5562517" lon="13.0576867"><ele>803.1428571428571</ele><time>2026-04-18T07:47:12.321Z</time></trkpt><trkpt lat="41.5562983" lon="13.0577717"><ele>807.8571428571429</ele><time>2026-04-18T07:47:17.321Z</time></trkpt><trkpt lat="41.5563467" lon="13.0578533"><ele>812.5714285714286</ele><time>2026-04-18T07:47:20.322Z</time></trkpt><trkpt lat="41.55639" lon="13.057925"><ele>817.2857142857142</ele><time>2026-04-18T07:47:23.321Z</time></trkpt><trkpt lat="41.5564283" lon="13.057995"><ele>822.0</ele><time>2026-04-18T07:47:26.32Z</time></trkpt><trkpt lat="41.55648" lon="13.05806"><ele>822.0</ele><time>2026-04-18T07:47:30.32Z</time></trkpt><trkpt lat="41.5565417" lon="13.0581083"><ele>822.0</ele><time>2026-04-18T07:47:33.323Z</time></trkpt><trkpt lat="41.5565983" lon="13.058175"><ele>822.0</ele><time>2026-04-18T07:47:37.322Z</time></trkpt><trkpt lat="41.5566283" lon="13.0582633"><ele>822.0</ele><time>2026-04-18T07:47:41.323Z</time></trkpt><trkpt lat="41.5566167" lon="13.05835"><ele>822.0</ele><time>2026-04-18T07:47:49.322Z</time></trkpt><trkpt lat="41.5565917" lon="13.0584333"><ele>822.0</ele><time>2026-04-18T07:47:53.322Z</time></trkpt><trkpt lat="41.5565833" lon="13.058525"><ele>822.0</ele><time>2026-04-18T07:47:57.322Z</time></trkpt><trkpt lat="41.5565783" lon="13.0586117"><ele>821.4285714285714</ele><time>2026-04-18T07:48:00.321Z</time></trkpt><trkpt lat="41.5565933" lon="13.058705"><ele>820.8571428571429</ele><time>2026-04-18T07:48:02.322Z</time></trkpt><trkpt lat="41.5565833" lon="13.0587883"><ele>820.2857142857142</ele><time>2026-04-18T07:48:05.321Z</time></trkpt><trkpt lat="41.5565717" lon="13.0588933"><ele>819.7142857142858</ele><time>2026-04-18T07:48:09.321Z</time></trkpt><trkpt lat="41.55657" lon="13.059"><ele>819.1428571428572</ele><time>2026-04-18T07:48:13.319Z</time></trkpt><trkpt lat="41.5565683" lon="13.0591"><ele>818.5714285714286</ele><time>2026-04-18T07:48:17.321Z</time></trkpt><trkpt lat="41.556545" lon="13.0591783"><ele>818.0</ele><time>2026-04-18T07:48:20.321Z</time></trkpt><trkpt lat="41.5565267" lon="13.0592783"><ele>818.0</ele><time>2026-04-18T07:48:23.322Z</time></trkpt><trkpt lat="41.55652" lon="13.0593683"><ele>818.0</ele><time>2026-04-18T07:48:26.323Z</time></trkpt><trkpt lat="41.55651" lon="13.0594583"><ele>818.0</ele><time>2026-04-18T07:48:29.322Z</time></trkpt><trkpt lat="41.5564883" lon="13.0595417"><ele>818.0</ele><time>2026-04-18T07:48:33.322Z</time></trkpt><trkpt lat="41.5564767" lon="13.0596267"><ele>818.0</ele><time>2026-04-18T07:48:37.323Z</time></trkpt><trkpt lat="41.556475" lon="13.05973"><ele>818.0</ele><time>2026-04-18T07:48:40.322Z</time></trkpt><trkpt lat="41.5564617" lon="13.059815"><ele>818.0</ele><time>2026-04-18T07:48:43.322Z</time></trkpt><trkpt lat="41.5564267" lon="13.05989"><ele>818.0</ele><time>2026-04-18T07:48:46.322Z</time></trkpt><trkpt lat="41.55638" lon="13.059965"><ele>818.0</ele><time>2026-04-18T07:48:50.321Z</time></trkpt><trkpt lat="41.5563233" lon="13.0600133"><ele>818.0</ele><time>2026-04-18T07:48:54.32Z</time></trkpt><trkpt lat="41.5562667" lon="13.06006"><ele>818.0</ele><time>2026-04-18T07:48:57.323Z</time></trkpt><trkpt lat="41.556205" lon="13.0601017"><ele>818.0</ele><time>2026-04-18T07:49:00.321Z</time></trkpt><trkpt lat="41.5561367" lon="13.060135"><ele>818.0</ele><time>2026-04-18T07:49:03.321Z</time></trkpt><trkpt lat="41.5560683" lon="13.060175"><ele>818.0</ele><time>2026-04-18T07:49:06.322Z</time></trkpt><trkpt lat="41.556005" lon="13.0602133"><ele>818.0</ele><time>2026-04-18T07:49:10.321Z</time></trkpt><trkpt lat="41.5559367" lon="13.0602533"><ele>818.0</ele><time>2026-04-18T07:49:14.321Z</time></trkpt><trkpt lat="41.5558633" lon="13.060295"><ele>818.0</ele><time>2026-04-18T07:49:19.323Z</time></trkpt><trkpt lat="41.555805" lon="13.0603467"><ele>818.0</ele><time>2026-04-18T07:49:22.321Z</time></trkpt><trkpt lat="41.5557333" lon="13.0603917"><ele>818.0</ele><time>2026-04-18T07:49:26.321Z</time></trkpt><trkpt lat="41.5556633" lon="13.0604133"><ele>818.0</ele><time>2026-04-18T07:49:32.321Z</time></trkpt><trkpt lat="41.5556033" lon="13.06038"><ele>818.0</ele><time>2026-04-18T07:49:35.321Z</time></trkpt><trkpt lat="41.5555417" lon="13.0603433"><ele>818.0</ele><time>2026-04-18T07:49:38.323Z</time></trkpt><trkpt lat="41.5554783" lon="13.0602917"><ele>818.0</ele><time>2026-04-18T07:49:42.321Z</time></trkpt><trkpt lat="41.555435" lon="13.0602133"><ele>818.0</ele><time>2026-04-18T07:49:46.323Z</time></trkpt><trkpt lat="41.5553817" lon="13.0601367"><ele>818.0</ele><time>2026-04-18T07:49:50.322Z</time></trkpt><trkpt lat="41.5553283" lon="13.060085"><ele>818.0</ele><time>2026-04-18T07:49:53.321Z</time></trkpt><trkpt lat="41.5552717" lon="13.0600283"><ele>818.0</ele><time>2026-04-18T07:49:56.322Z</time></trkpt><trkpt lat="41.5552167" lon="13.059965"><ele>818.0</ele><time>2026-04-18T07:49:59.32Z</time></trkpt><trkpt lat="41.5551717" lon="13.0599033"><ele>818.0</ele><time>2026-04-18T07:50:02.322Z</time></trkpt><trkpt lat="41.5551017" lon="13.0598583"><ele>818.0</ele><time>2026-04-18T07:50:05.321Z</time></trkpt><trkpt lat="41.5550267" lon="13.059825"><ele>818.0</ele><time>2026-04-18T07:50:08.322Z</time></trkpt><trkpt lat="41.5549567" lon="13.0598083"><ele>818.0</ele><time>2026-04-18T07:50:11.321Z</time></trkpt><trkpt lat="41.5548867" lon="13.0597867"><ele>818.0</ele><time>2026-04-18T07:50:14.322Z</time></trkpt><trkpt lat="41.5548183" lon="13.0597817"><ele>818.0</ele><time>2026-04-18T07:50:17.321Z</time></trkpt><trkpt lat="41.5547617" lon="13.0597333"><ele>818.0</ele><time>2026-04-18T07:50:21.32Z</time></trkpt><trkpt lat="41.5547283" lon="13.0596567"><ele>818.0000000000001</ele><time>2026-04-18T07:50:25.321Z</time></trkpt><trkpt lat="41.5546967" lon="13.0595683"><ele>818.0</ele><time>2026-04-18T07:50:29.32Z</time></trkpt><trkpt lat="41.554665" lon="13.0594633"><ele>818.0</ele><time>2026-04-18T07:50:33.323Z</time></trkpt><trkpt lat="41.5546333" lon="13.0593817"><ele>818.0</ele><time>2026-04-18T07:50:36.321Z</time></trkpt><trkpt lat="41.55461" lon="13.0592867"><ele>818.0000000000001</ele><time>2026-04-18T07:50:40.322Z</time></trkpt><trkpt lat="41.5545767" lon="13.059215"><ele>818.0</ele><time>2026-04-18T07:50:45.325Z</time></trkpt><trkpt lat="41.5545917" lon="13.05909"><ele>815.3333333333334</ele><time>2026-04-18T07:54:07.32Z</time></trkpt><trkpt lat="41.554605" lon="13.0589883"><ele>812.6666666666667</ele><time>2026-04-18T07:54:09.325Z</time></trkpt><trkpt lat="41.5545767" lon="13.0589033"><ele>810.0</ele><time>2026-04-18T07:54:11.322Z</time></trkpt><trkpt lat="41.5545567" lon="13.0587767"><ele>807.3333333333333</ele><time>2026-04-18T07:54:14.321Z</time></trkpt><trkpt lat="41.5545633" lon="13.0586567"><ele>804.6666666666666</ele><time>2026-04-18T07:54:16.322Z</time></trkpt><trkpt lat="41.5545633" lon="13.0585683"><ele>802.0</ele><time>2026-04-18T07:54:18.322Z</time></trkpt><trkpt lat="41.554595" lon="13.0584933"><ele>801.9999999999999</ele><time>2026-04-18T07:54:21.322Z</time></trkpt><trkpt lat="41.55463" lon="13.058395"><ele>802.0</ele><time>2026-04-18T07:54:24.322Z</time></trkpt><trkpt lat="41.5546217" lon="13.0582833"><ele>802.0</ele><time>2026-04-18T07:54:27.322Z</time></trkpt><trkpt lat="41.554595" lon="13.0581783"><ele>802.0</ele><time>2026-04-18T07:54:30.322Z</time></trkpt><trkpt lat="41.5545883" lon="13.0580617"><ele>801.9999999999999</ele><time>2026-04-18T07:54:33.324Z</time></trkpt><trkpt lat="41.554535" lon="13.0579817"><ele>802.0</ele><time>2026-04-18T07:54:35.32Z</time></trkpt><trkpt lat="41.55443" lon="13.057925"><ele>800.6</ele><time>2026-04-18T07:54:37.321Z</time></trkpt><trkpt lat="41.5543467" lon="13.0579083"><ele>799.2</ele><time>2026-04-18T07:54:39.32Z</time></trkpt><trkpt lat="41.554275" lon="13.057895"><ele>797.8</ele><time>2026-04-18T07:54:41.32Z</time></trkpt><trkpt lat="41.5541717" lon="13.0578733"><ele>796.4</ele><time>2026-04-18T07:54:43.32Z</time></trkpt><trkpt lat="41.5540567" lon="13.0578633"><ele>795.0</ele><time>2026-04-18T07:54:45.322Z</time></trkpt><trkpt lat="41.5539733" lon="13.057835"><ele>795.0</ele><time>2026-04-18T07:54:47.322Z</time></trkpt><trkpt lat="41.55389" lon="13.0577983"><ele>795.0</ele><time>2026-04-18T07:54:49.321Z</time></trkpt><trkpt lat="41.55382" lon="13.0577667"><ele>795.0</ele><time>2026-04-18T07:54:51.322Z</time></trkpt><trkpt lat="41.55374" lon="13.0577067"><ele>795.0</ele><time>2026-04-18T07:54:53.321Z</time></trkpt><trkpt lat="41.5536717" lon="13.0576517"><ele>795.0</ele><time>2026-04-18T07:54:56.321Z</time></trkpt><trkpt lat="41.5537083" lon="13.05756"><ele>795.0</ele><time>2026-04-18T07:55:01.322Z</time></trkpt><trkpt lat="41.5537833" lon="13.057515"><ele>791.0</ele><time>2026-04-18T07:55:07.321Z</time></trkpt><trkpt lat="41.55387" lon="13.0574467"><ele>787.0</ele><time>2026-04-18T07:55:09.32Z</time></trkpt><trkpt lat="41.553925" lon="13.0573883"><ele>783.0</ele><time>2026-04-18T07:55:11.321Z</time></trkpt><trkpt lat="41.55393" lon="13.0572683"><ele>779.0</ele><time>2026-04-18T07:55:14.322Z</time></trkpt><trkpt lat="41.5538967" lon="13.057185"><ele>775.0</ele><time>2026-04-18T07:55:16.321Z</time></trkpt><trkpt lat="41.5538283" lon="13.0571717"><ele>771.0</ele><time>2026-04-18T07:55:17.32Z</time></trkpt><trkpt lat="41.5537533" lon="13.0571333"><ele>770.8333333333334</ele><time>2026-04-18T07:55:19.322Z</time></trkpt><trkpt lat="41.553665" lon="13.05715"><ele>770.6666666666667</ele><time>2026-04-18T07:55:21.321Z</time></trkpt><trkpt lat="41.55359" lon="13.0571583"><ele>770.5</ele><time>2026-04-18T07:55:23.321Z</time></trkpt><trkpt lat="41.5535017" lon="13.0571217"><ele>770.3333333333334</ele><time>2026-04-18T07:55:25.321Z</time></trkpt><trkpt lat="41.553425" lon="13.0570883"><ele>770.1666666666667</ele><time>2026-04-18T07:55:26.321Z</time></trkpt><trkpt lat="41.553325" lon="13.0570417"><ele>770.0</ele><time>2026-04-18T07:55:28.321Z</time></trkpt><trkpt lat="41.5532517" lon="13.057025"><ele>770.0000000000001</ele><time>2026-04-18T07:55:30.32Z</time></trkpt><trkpt lat="41.5531883" lon="13.05702"><ele>770.0</ele><time>2026-04-18T07:55:32.321Z</time></trkpt><trkpt lat="41.5530983" lon="13.0570417"><ele>770.0</ele><time>2026-04-18T07:55:35.322Z</time></trkpt><trkpt lat="41.5530383" lon="13.0570733"><ele>770.0</ele><time>2026-04-18T07:55:37.322Z</time></trkpt><trkpt lat="41.552965" lon="13.05711"><ele>770.0000000000001</ele><time>2026-04-18T07:55:39.322Z</time></trkpt><trkpt lat="41.5528667" lon="13.05713"><ele>770.0</ele><time>2026-04-18T07:55:41.322Z</time></trkpt><trkpt lat="41.5527883" lon="13.0571367"><ele>769.5000000000001</ele><time>2026-04-18T07:55:43.322Z</time></trkpt><trkpt lat="41.5526983" lon="13.057095"><ele>769.0</ele><time>2026-04-18T07:55:46.322Z</time></trkpt><trkpt lat="41.5526133" lon="13.0570667"><ele>768.5</ele><time>2026-04-18T07:55:49.321Z</time></trkpt><trkpt lat="41.55255" lon="13.0570183"><ele>768.0</ele><time>2026-04-18T07:55:52.322Z</time></trkpt><trkpt lat="41.5524867" lon="13.0569583"><ele>767.5</ele><time>2026-04-18T07:55:55.32Z</time></trkpt><trkpt lat="41.5524983" lon="13.0568733"><ele>767.0</ele><time>2026-04-18T07:56:00.32Z</time></trkpt><trkpt lat="41.5524583" lon="13.056795"><ele>767.0</ele><time>2026-04-18T07:56:04.321Z</time></trkpt><trkpt lat="41.5524083" lon="13.0567267"><ele>767.0</ele><time>2026-04-18T07:56:06.321Z</time></trkpt><trkpt lat="41.55234" lon="13.056625"><ele>767.0</ele><time>2026-04-18T07:56:08.321Z</time></trkpt><trkpt lat="41.5522717" lon="13.0565333"><ele>767.0</ele><time>2026-04-18T07:56:10.322Z</time></trkpt><trkpt lat="41.5521917" lon="13.0564717"><ele>767.0</ele><time>2026-04-18T07:56:12.321Z</time></trkpt><trkpt lat="41.552095" lon="13.0564267"><ele>761.4000000000001</ele><time>2026-04-18T07:56:14.322Z</time></trkpt><trkpt lat="41.552005" lon="13.0563967"><ele>755.8000000000001</ele><time>2026-04-18T07:56:16.321Z</time></trkpt><trkpt lat="41.551905" lon="13.056365"><ele>750.2</ele><time>2026-04-18T07:56:18.322Z</time></trkpt><trkpt lat="41.55182" lon="13.0563383"><ele>744.6</ele><time>2026-04-18T07:56:20.32Z</time></trkpt><trkpt lat="41.5517233" lon="13.056335"><ele>739.0</ele><time>2026-04-18T07:56:22.321Z</time></trkpt><trkpt lat="41.5516383" lon="13.0563417"><ele>739.0</ele><time>2026-04-18T07:56:24.319Z</time></trkpt><trkpt lat="41.5515417" lon="13.0563317"><ele>739.0</ele><time>2026-04-18T07:56:26.321Z</time></trkpt><trkpt lat="41.55144" lon="13.0563117"><ele>739.0</ele><time>2026-04-18T07:56:28.322Z</time></trkpt><trkpt lat="41.551375" lon="13.0562983"><ele>739.0</ele><time>2026-04-18T07:56:29.322Z</time></trkpt><trkpt lat="41.5512767" lon="13.0562883"><ele>739.0</ele><time>2026-04-18T07:56:31.321Z</time></trkpt><trkpt lat="41.551185" lon="13.0562967"><ele>737.6</ele><time>2026-04-18T07:56:33.322Z</time></trkpt><trkpt lat="41.5511083" lon="13.0563"><ele>736.2</ele><time>2026-04-18T07:56:35.322Z</time></trkpt><trkpt lat="41.5510083" lon="13.0563133"><ele>734.8000000000001</ele><time>2026-04-18T07:56:37.32Z</time></trkpt><trkpt lat="41.55092" lon="13.0563517"><ele>733.4000000000001</ele><time>2026-04-18T07:56:39.322Z</time></trkpt><trkpt lat="41.5508367" lon="13.05642"><ele>732.0</ele><time>2026-04-18T07:56:41.321Z</time></trkpt><trkpt lat="41.5507631" lon="13.0564832"><ele>732.0</ele><time>2026-04-18T07:56:43.321Z</time></trkpt><trkpt lat="41.5506874" lon="13.056526"><ele>732.0</ele><time>2026-04-18T07:56:45.321Z</time></trkpt><trkpt lat="41.5506218" lon="13.0565414"><ele>732.0</ele><time>2026-04-18T07:56:47.321Z</time></trkpt><trkpt lat="41.550553" lon="13.0565682"><ele>732.0</ele><time>2026-04-18T07:56:51.322Z</time></trkpt><trkpt lat="41.550495" lon="13.0565033"><ele>732.0</ele><time>2026-04-18T07:56:57.32Z</time></trkpt><trkpt lat="41.5504683" lon="13.05641"><ele>732.0</ele><time>2026-04-18T07:57:00.32Z</time></trkpt><trkpt lat="41.550475" lon="13.0563233"><ele>732.0</ele><time>2026-04-18T07:57:02.322Z</time></trkpt><trkpt lat="41.5504983" lon="13.056185"><ele>732.0</ele><time>2026-04-18T07:57:05.322Z</time></trkpt><trkpt lat="41.5504683" lon="13.0561067"><ele>732.0</ele><time>2026-04-18T07:57:07.322Z</time></trkpt><trkpt lat="41.5504117" lon="13.0560283"><ele>732.0</ele><time>2026-04-18T07:57:10.32Z</time></trkpt><trkpt lat="41.5503783" lon="13.0559367"><ele>732.0</ele><time>2026-04-18T07:57:12.322Z</time></trkpt><trkpt lat="41.5503433" lon="13.0558517"><ele>732.0</ele><time>2026-04-18T07:57:14.322Z</time></trkpt><trkpt lat="41.55032" lon="13.055765"><ele>732.0</ele><time>2026-04-18T07:57:17.321Z</time></trkpt><trkpt lat="41.5503367" lon="13.0556633"><ele>732.0</ele><time>2026-04-18T07:57:21.32Z</time></trkpt><trkpt lat="41.55035" lon="13.055575"><ele>727.8333333333334</ele><time>2026-04-18T07:57:25.321Z</time></trkpt><trkpt lat="41.5503667" lon="13.05546"><ele>723.6666666666666</ele><time>2026-04-18T07:58:16.322Z</time></trkpt><trkpt lat="41.5504433" lon="13.05543"><ele>719.5</ele><time>2026-04-18T07:58:18.321Z</time></trkpt><trkpt lat="41.5505267" lon="13.0554083"><ele>715.3333333333333</ele><time>2026-04-18T07:58:20.321Z</time></trkpt><trkpt lat="41.55061" lon="13.0553667"><ele>711.1666666666666</ele><time>2026-04-18T07:58:23.322Z</time></trkpt><trkpt lat="41.5506683" lon="13.0553167"><ele>707.0</ele><time>2026-04-18T07:58:25.323Z</time></trkpt><trkpt lat="41.5507233" lon="13.0552733"><ele>707.0</ele><time>2026-04-18T07:58:27.322Z</time></trkpt><trkpt lat="41.550815" lon="13.0552433"><ele>707.0</ele><time>2026-04-18T07:58:30.322Z</time></trkpt><trkpt lat="41.550885" lon="13.0552333"><ele>707.0</ele><time>2026-04-18T07:58:33.321Z</time></trkpt><trkpt lat="41.55095" lon="13.0552133"><ele>707.0</ele><time>2026-04-18T07:58:35.321Z</time></trkpt><trkpt lat="41.5510233" lon="13.0552083"><ele>707.0</ele><time>2026-04-18T07:58:37.322Z</time></trkpt><trkpt lat="41.5510933" lon="13.0551967"><ele>707.0</ele><time>2026-04-18T07:58:39.321Z</time></trkpt><trkpt lat="41.5511917" lon="13.0551483"><ele>708.2857142857143</ele><time>2026-04-18T07:58:42.321Z</time></trkpt><trkpt lat="41.551285" lon="13.05511"><ele>709.5714285714286</ele><time>2026-04-18T07:58:44.321Z</time></trkpt><trkpt lat="41.5513567" lon="13.0550833"><ele>710.8571428571429</ele><time>2026-04-18T07:58:46.322Z</time></trkpt><trkpt lat="41.55142" lon="13.0550517"><ele>712.1428571428571</ele><time>2026-04-18T07:58:48.321Z</time></trkpt><trkpt lat="41.551485" lon="13.0550383"><ele>713.4285714285714</ele><time>2026-04-18T07:58:50.321Z</time></trkpt><trkpt lat="41.5515517" lon="13.0550417"><ele>714.7142857142858</ele><time>2026-04-18T07:58:52.322Z</time></trkpt><trkpt lat="41.5516167" lon="13.0550533"><ele>716.0</ele><time>2026-04-18T07:58:54.32Z</time></trkpt><trkpt lat="41.5517033" lon="13.0550333"><ele>711.7142857142858</ele><time>2026-04-18T07:58:56.321Z</time></trkpt><trkpt lat="41.5517617" lon="13.0549533"><ele>707.4285714285714</ele><time>2026-04-18T07:58:59.321Z</time></trkpt><trkpt lat="41.5517533" lon="13.0548483"><ele>703.1428571428571</ele><time>2026-04-18T07:59:02.322Z</time></trkpt><trkpt lat="41.5517017" lon="13.0547983"><ele>698.8571428571429</ele><time>2026-04-18T07:59:05.322Z</time></trkpt><trkpt lat="41.55163" lon="13.05476"><ele>694.5714285714286</ele><time>2026-04-18T07:59:08.321Z</time></trkpt><trkpt lat="41.5515733" lon="13.0547133"><ele>690.2857142857143</ele><time>2026-04-18T07:59:10.321Z</time></trkpt><trkpt lat="41.5515167" lon="13.054655"><ele>686.0</ele><time>2026-04-18T07:59:12.322Z</time></trkpt><trkpt lat="41.5514667" lon="13.0545733"><ele>686.0</ele><time>2026-04-18T07:59:15.322Z</time></trkpt><trkpt lat="41.5514983" lon="13.0544917"><ele>686.0</ele><time>2026-04-18T07:59:24.322Z</time></trkpt><trkpt lat="41.5514583" lon="13.05437"><ele>686.0</ele><time>2026-04-18T07:59:28.32Z</time></trkpt><trkpt lat="41.551435" lon="13.0542883"><ele>686.0</ele><time>2026-04-18T07:59:30.322Z</time></trkpt><trkpt lat="41.55138" lon="13.0542017"><ele>686.0</ele><time>2026-04-18T07:59:33.322Z</time></trkpt><trkpt lat="41.551385" lon="13.0541117"><ele>686.0</ele><time>2026-04-18T07:59:43.321Z</time></trkpt><trkpt lat="41.55137" lon="13.0540217"><ele>683.1428571428571</ele><time>2026-04-18T07:59:46.322Z</time></trkpt><trkpt lat="41.55136" lon="13.05393"><ele>680.2857142857142</ele><time>2026-04-18T07:59:49.322Z</time></trkpt><trkpt lat="41.5513833" lon="13.053825"><ele>677.4285714285714</ele><time>2026-04-18T07:59:54.32Z</time></trkpt><trkpt lat="41.5513748" lon="13.0537396"><ele>674.5714285714286</ele><time>2026-04-18T07:59:58.319Z</time></trkpt><trkpt lat="41.5513158" lon="13.0537041"><ele>671.7142857142857</ele><time>2026-04-18T08:00:02.32Z</time></trkpt><trkpt lat="41.5512979" lon="13.0536194"><ele>668.8571428571429</ele><time>2026-04-18T08:00:13.32Z</time></trkpt><trkpt lat="41.5512582" lon="13.053545"><ele>666.0</ele><time>2026-04-18T08:00:19.32Z</time></trkpt><trkpt lat="41.5512068" lon="13.0534571"><ele>662.3333333333334</ele><time>2026-04-18T08:00:23.318Z</time></trkpt><trkpt lat="41.5511446" lon="13.0534074"><ele>658.6666666666666</ele><time>2026-04-18T08:00:27.323Z</time></trkpt><trkpt lat="41.5511077" lon="13.0533389"><ele>655.0</ele><time>2026-04-18T08:00:31.323Z</time></trkpt><trkpt lat="41.5511066" lon="13.0532439"><ele>651.3333333333333</ele><time>2026-04-18T08:00:39.321Z</time></trkpt><trkpt lat="41.5510487" lon="13.0531163"><ele>647.6666666666666</ele><time>2026-04-18T08:00:51.322Z</time></trkpt><trkpt lat="41.551021" lon="13.0530337"><ele>644.0</ele><time>2026-04-18T08:00:53.323Z</time></trkpt><trkpt lat="41.5509744" lon="13.0529331"><ele>641.8000000000001</ele><time>2026-04-18T08:00:55.324Z</time></trkpt><trkpt lat="41.5509079" lon="13.052872"><ele>639.6</ele><time>2026-04-18T08:00:58.324Z</time></trkpt><trkpt lat="41.5509126" lon="13.0527432"><ele>637.4</ele><time>2026-04-18T08:01:35.322Z</time></trkpt><trkpt lat="41.5510383" lon="13.0527417"><ele>635.2</ele><time>2026-04-18T08:03:28.32Z</time></trkpt><trkpt lat="41.5509333" lon="13.0527017"><ele>633.0</ele><time>2026-04-18T08:05:07.322Z</time></trkpt><trkpt lat="41.5508833" lon="13.05279"><ele>633.0</ele><time>2026-04-18T08:05:11.322Z</time></trkpt><trkpt lat="41.5508267" lon="13.052845"><ele>633.0</ele><time>2026-04-18T08:05:15.321Z</time></trkpt><trkpt lat="41.5507633" lon="13.052865"><ele>633.0</ele><time>2026-04-18T08:05:19.322Z</time></trkpt><trkpt lat="41.5506883" lon="13.0529067"><ele>633.0</ele><time>2026-04-18T08:05:23.322Z</time></trkpt><trkpt lat="41.5506167" lon="13.0529483"><ele>633.0</ele><time>2026-04-18T08:05:27.323Z</time></trkpt><trkpt lat="41.55055" lon="13.053"><ele>633.0</ele><time>2026-04-18T08:05:31.322Z</time></trkpt><trkpt lat="41.5504983" lon="13.0530533"><ele>633.0</ele><time>2026-04-18T08:05:35.322Z</time></trkpt><trkpt lat="41.5504567" lon="13.0531233"><ele>633.0</ele><time>2026-04-18T08:05:39.321Z</time></trkpt><trkpt lat="41.5503917" lon="13.0531683"><ele>633.0</ele><time>2026-04-18T08:05:44.322Z</time></trkpt><trkpt lat="41.55033" lon="13.0531917"><ele>633.0</ele><time>2026-04-18T08:05:48.322Z</time></trkpt><trkpt lat="41.55027" lon="13.0532333"><ele>633.0</ele><time>2026-04-18T08:05:51.322Z</time></trkpt><trkpt lat="41.5501933" lon="13.0532533"><ele>633.0</ele><time>2026-04-18T08:05:54.323Z</time></trkpt><trkpt lat="41.5501233" lon="13.0532683"><ele>633.0</ele><time>2026-04-18T08:05:58.321Z</time></trkpt><trkpt lat="41.5500583" lon="13.0532767"><ele>633.0</ele><time>2026-04-18T08:06:02.321Z</time></trkpt><trkpt lat="41.5499917" lon="13.0532883"><ele>633.3333333333334</ele><time>2026-04-18T08:06:05.321Z</time></trkpt><trkpt lat="41.5499183" lon="13.0533133"><ele>633.6666666666666</ele><time>2026-04-18T08:06:09.323Z</time></trkpt><trkpt lat="41.5498417" lon="13.0533433"><ele>634.0</ele><time>2026-04-18T08:06:12.321Z</time></trkpt><trkpt lat="41.5497733" lon="13.0533433"><ele>634.3333333333333</ele><time>2026-04-18T08:06:17.322Z</time></trkpt><trkpt lat="41.5496967" lon="13.053325"><ele>634.6666666666666</ele><time>2026-04-18T08:06:22.323Z</time></trkpt><trkpt lat="41.54962" lon="13.0533317"><ele>635.0</ele><time>2026-04-18T08:06:26.322Z</time></trkpt><trkpt lat="41.5495417" lon="13.05332"><ele>635.4285714285713</ele><time>2026-04-18T08:06:31.323Z</time></trkpt><trkpt lat="41.5494717" lon="13.0533267"><ele>635.8571428571429</ele><time>2026-04-18T08:06:35.322Z</time></trkpt><trkpt lat="41.54941" lon="13.0533483"><ele>636.2857142857142</ele><time>2026-04-18T08:06:39.323Z</time></trkpt><trkpt lat="41.5493383" lon="13.05337"><ele>636.7142857142857</ele><time>2026-04-18T08:06:43.322Z</time></trkpt><trkpt lat="41.5492667" lon="13.0533833"><ele>637.1428571428571</ele><time>2026-04-18T08:06:46.322Z</time></trkpt><trkpt lat="41.5491917" lon="13.0534083"><ele>637.5714285714286</ele><time>2026-04-18T08:06:50.323Z</time></trkpt><trkpt lat="41.549125" lon="13.05343"><ele>638.0</ele><time>2026-04-18T08:06:54.322Z</time></trkpt><trkpt lat="41.5490617" lon="13.0534467"><ele>638.0</ele><time>2026-04-18T08:06:57.322Z</time></trkpt><trkpt lat="41.549" lon="13.053475"><ele>638.0</ele><time>2026-04-18T08:07:00.323Z</time></trkpt><trkpt lat="41.5489317" lon="13.053525"><ele>638.0</ele><time>2026-04-18T08:07:04.322Z</time></trkpt><trkpt lat="41.548875" lon="13.0535733"><ele>638.0</ele><time>2026-04-18T08:07:08.322Z</time></trkpt><trkpt lat="41.54881" lon="13.05362"><ele>638.0</ele><time>2026-04-18T08:07:14.321Z</time></trkpt><trkpt lat="41.5487467" lon="13.0536533"><ele>638.0</ele><time>2026-04-18T08:07:17.322Z</time></trkpt><trkpt lat="41.5486683" lon="13.0536667"><ele>638.0</ele><time>2026-04-18T08:07:19.322Z</time></trkpt><trkpt lat="41.54859" lon="13.0537333"><ele>639.0</ele><time>2026-04-18T08:07:23.321Z</time></trkpt><trkpt lat="41.548545" lon="13.0537933"><ele>640.0</ele><time>2026-04-18T08:07:25.321Z</time></trkpt><trkpt lat="41.548505" lon="13.0538583"><ele>641.0</ele><time>2026-04-18T08:07:27.323Z</time></trkpt><trkpt lat="41.548455" lon="13.0539383"><ele>642.0</ele><time>2026-04-18T08:07:30.322Z</time></trkpt><trkpt lat="41.5484117" lon="13.0540417"><ele>643.0</ele><time>2026-04-18T08:07:33.323Z</time></trkpt><trkpt lat="41.5483717" lon="13.0541367"><ele>644.0</ele><time>2026-04-18T08:07:36.322Z</time></trkpt><trkpt lat="41.5483283" lon="13.0542317"><ele>644.0</ele><time>2026-04-18T08:07:39.323Z</time></trkpt><trkpt lat="41.5483083" lon="13.054335"><ele>644.0</ele><time>2026-04-18T08:07:42.321Z</time></trkpt><trkpt lat="41.54829" lon="13.054455"><ele>644.0</ele><time>2026-04-18T08:07:45.323Z</time></trkpt><trkpt lat="41.5482667" lon="13.054545"><ele>644.0</ele><time>2026-04-18T08:07:48.322Z</time></trkpt><trkpt lat="41.5482567" lon="13.054655"><ele>644.0</ele><time>2026-04-18T08:07:52.321Z</time></trkpt><trkpt lat="41.54823" lon="13.054755"><ele>644.0</ele><time>2026-04-18T08:07:56.323Z</time></trkpt><trkpt lat="41.5482017" lon="13.0548333"><ele>644.0</ele><time>2026-04-18T08:07:59.322Z</time></trkpt><trkpt lat="41.5481667" lon="13.0549317"><ele>644.0</ele><time>2026-04-18T08:08:03.323Z</time></trkpt><trkpt lat="41.548145" lon="13.055015"><ele>644.0</ele><time>2026-04-18T08:08:06.324Z</time></trkpt><trkpt lat="41.5481317" lon="13.0551167"><ele>644.0</ele><time>2026-04-18T08:08:10.324Z</time></trkpt><trkpt lat="41.54813" lon="13.0552083"><ele>644.0</ele><time>2026-04-18T08:08:31.323Z</time></trkpt><trkpt lat="41.54813" lon="13.0553083"><ele>644.0</ele><time>2026-04-18T08:08:36.321Z</time></trkpt><trkpt lat="41.548115" lon="13.0554"><ele>644.0</ele><time>2026-04-18T08:08:40.322Z</time></trkpt><trkpt lat="41.5481017" lon="13.0554933"><ele>646.4285714285714</ele><time>2026-04-18T08:08:44.321Z</time></trkpt><trkpt lat="41.548115" lon="13.055595"><ele>648.8571428571429</ele><time>2026-04-18T08:08:48.324Z</time></trkpt><trkpt lat="41.5481333" lon="13.055685"><ele>651.2857142857142</ele><time>2026-04-18T08:08:52.323Z</time></trkpt><trkpt lat="41.5481383" lon="13.0557833"><ele>653.7142857142858</ele><time>2026-04-18T08:08:56.323Z</time></trkpt><trkpt lat="41.5481667" lon="13.055885"><ele>656.1428571428571</ele><time>2026-04-18T08:09:00.322Z</time></trkpt><trkpt lat="41.54819" lon="13.0559733"><ele>658.5714285714286</ele><time>2026-04-18T08:09:04.32Z</time></trkpt><trkpt lat="41.5482083" lon="13.0560583"><ele>661.0</ele><time>2026-04-18T08:09:08.322Z</time></trkpt><trkpt lat="41.5482367" lon="13.05614"><ele>661.3333333333334</ele><time>2026-04-18T08:09:12.322Z</time></trkpt><trkpt lat="41.5482667" lon="13.0562417"><ele>661.6666666666667</ele><time>2026-04-18T08:09:16.321Z</time></trkpt><trkpt lat="41.5482917" lon="13.0563267"><ele>662.0</ele><time>2026-04-18T08:09:19.323Z</time></trkpt><trkpt lat="41.5483133" lon="13.056435"><ele>662.3333333333334</ele><time>2026-04-18T08:09:23.322Z</time></trkpt><trkpt lat="41.5483267" lon="13.0565217"><ele>662.6666666666666</ele><time>2026-04-18T08:09:26.32Z</time></trkpt><trkpt lat="41.5483333" lon="13.0566317"><ele>663.0</ele><time>2026-04-18T08:09:30.321Z</time></trkpt><trkpt lat="41.5483383" lon="13.05673"><ele>662.9999999999999</ele><time>2026-04-18T08:09:33.325Z</time></trkpt><trkpt lat="41.5483283" lon="13.056815"><ele>663.0</ele><time>2026-04-18T08:09:36.322Z</time></trkpt><trkpt lat="41.54833" lon="13.05691"><ele>663.0</ele><time>2026-04-18T08:09:40.324Z</time></trkpt><trkpt lat="41.54836" lon="13.0570033"><ele>663.0</ele><time>2026-04-18T08:09:44.324Z</time></trkpt><trkpt lat="41.5484233" lon="13.0570233"><ele>663.0</ele><time>2026-04-18T08:09:48.322Z</time></trkpt><trkpt lat="41.54848" lon="13.0569683"><ele>662.9999999999999</ele><time>2026-04-18T08:09:52.322Z</time></trkpt><trkpt lat="41.5485017" lon="13.05688"><ele>663.0</ele><time>2026-04-18T08:09:56.321Z</time></trkpt><trkpt lat="41.5484967" lon="13.0567917"><ele>663.0</ele><time>2026-04-18T08:09:59.322Z</time></trkpt><trkpt lat="41.5484883" lon="13.0567017"><ele>663.0</ele><time>2026-04-18T08:10:02.322Z</time></trkpt><trkpt lat="41.5484817" lon="13.0565967"><ele>663.0</ele><time>2026-04-18T08:10:06.321Z</time></trkpt><trkpt lat="41.5484717" lon="13.0564917"><ele>663.0</ele><time>2026-04-18T08:10:10.32Z</time></trkpt><trkpt lat="41.54847" lon="13.056405"><ele>663.0</ele><time>2026-04-18T08:10:13.324Z</time></trkpt><trkpt lat="41.5484717" lon="13.05632"><ele>663.0</ele><time>2026-04-18T08:10:16.324Z</time></trkpt><trkpt lat="41.5484183" lon="13.0561983"><ele>662.6666666666666</ele><time>2026-04-18T08:12:59.322Z</time></trkpt><trkpt lat="41.548455" lon="13.0561233"><ele>662.3333333333334</ele><time>2026-04-18T08:13:02.321Z</time></trkpt><trkpt lat="41.5484783" lon="13.0560333"><ele>662.0</ele><time>2026-04-18T08:13:05.323Z</time></trkpt><trkpt lat="41.5485033" lon="13.0559283"><ele>661.6666666666667</ele><time>2026-04-18T08:13:08.322Z</time></trkpt><trkpt lat="41.5485117" lon="13.055815"><ele>661.3333333333334</ele><time>2026-04-18T08:13:11.323Z</time></trkpt><trkpt lat="41.5485317" lon="13.0557"><ele>661.0</ele><time>2026-04-18T08:13:14.322Z</time></trkpt><trkpt lat="41.5485767" lon="13.0556183"><ele>661.0</ele><time>2026-04-18T08:13:17.322Z</time></trkpt><trkpt lat="41.5486183" lon="13.0555417"><ele>661.0</ele><time>2026-04-18T08:13:20.321Z</time></trkpt><trkpt lat="41.5486683" lon="13.0554767"><ele>661.0</ele><time>2026-04-18T08:13:23.322Z</time></trkpt><trkpt lat="41.54871" lon="13.0554083"><ele>661.0</ele><time>2026-04-18T08:13:26.322Z</time></trkpt><trkpt lat="41.548755" lon="13.0553217"><ele>661.0</ele><time>2026-04-18T08:13:29.322Z</time></trkpt><trkpt lat="41.548805" lon="13.05523"><ele>661.0</ele><time>2026-04-18T08:13:32.322Z</time></trkpt><trkpt lat="41.5488433" lon="13.0551333"><ele>661.3333333333334</ele><time>2026-04-18T08:13:35.321Z</time></trkpt><trkpt lat="41.548885" lon="13.0550417"><ele>661.6666666666667</ele><time>2026-04-18T08:13:38.321Z</time></trkpt><trkpt lat="41.548935" lon="13.05495"><ele>662.0</ele><time>2026-04-18T08:13:41.323Z</time></trkpt><trkpt lat="41.5489767" lon="13.0548683"><ele>662.3333333333334</ele><time>2026-04-18T08:13:44.323Z</time></trkpt><trkpt lat="41.5490517" lon="13.0548517"><ele>662.6666666666666</ele><time>2026-04-18T08:13:49.321Z</time></trkpt><trkpt lat="41.5490867" lon="13.0549217"><ele>663.0</ele><time>2026-04-18T08:13:52.323Z</time></trkpt><trkpt lat="41.549065" lon="13.0550217"><ele>666.8333333333334</ele><time>2026-04-18T08:13:56.323Z</time></trkpt><trkpt lat="41.5490133" lon="13.0551"><ele>670.6666666666666</ele><time>2026-04-18T08:13:59.32Z</time></trkpt><trkpt lat="41.54896" lon="13.055175"><ele>674.5</ele><time>2026-04-18T08:14:02.324Z</time></trkpt><trkpt lat="41.548905" lon="13.0552617"><ele>678.3333333333333</ele><time>2026-04-18T08:14:05.32Z</time></trkpt><trkpt lat="41.5488717" lon="13.055335"><ele>682.1666666666666</ele><time>2026-04-18T08:14:08.322Z</time></trkpt><trkpt lat="41.5488483" lon="13.0554267"><ele>686.0</ele><time>2026-04-18T08:14:11.32Z</time></trkpt><trkpt lat="41.54882" lon="13.0555267"><ele>686.0</ele><time>2026-04-18T08:14:14.322Z</time></trkpt><trkpt lat="41.5487967" lon="13.0556367"><ele>686.0</ele><time>2026-04-18T08:14:17.321Z</time></trkpt><trkpt lat="41.548795" lon="13.0557467"><ele>686.0</ele><time>2026-04-18T08:14:20.322Z</time></trkpt><trkpt lat="41.5487933" lon="13.0558517"><ele>686.0</ele><time>2026-04-18T08:14:23.322Z</time></trkpt><trkpt lat="41.5488033" lon="13.0559517"><ele>686.0</ele><time>2026-04-18T08:14:26.32Z</time></trkpt><trkpt lat="41.5488083" lon="13.0560533"><ele>686.0</ele><time>2026-04-18T08:14:29.322Z</time></trkpt><trkpt lat="41.5487983" lon="13.0561633"><ele>687.6666666666666</ele><time>2026-04-18T08:14:32.321Z</time></trkpt><trkpt lat="41.54881" lon="13.0562717"><ele>689.3333333333333</ele><time>2026-04-18T08:14:36.323Z</time></trkpt><trkpt lat="41.5488483" lon="13.0563733"><ele>691.0</ele><time>2026-04-18T08:14:40.322Z</time></trkpt><trkpt lat="41.5488933" lon="13.056465"><ele>692.6666666666666</ele><time>2026-04-18T08:14:44.323Z</time></trkpt><trkpt lat="41.54894" lon="13.05653"><ele>694.3333333333334</ele><time>2026-04-18T08:14:47.323Z</time></trkpt><trkpt lat="41.54898" lon="13.0566033"><ele>696.0</ele><time>2026-04-18T08:14:50.323Z</time></trkpt><trkpt lat="41.5490133" lon="13.05668"><ele>696.0</ele><time>2026-04-18T08:14:53.324Z</time></trkpt><trkpt lat="41.5490467" lon="13.0567617"><ele>696.0</ele><time>2026-04-18T08:14:56.322Z</time></trkpt><trkpt lat="41.5490767" lon="13.0568417"><ele>696.0</ele><time>2026-04-18T08:14:59.325Z</time></trkpt><trkpt lat="41.5490967" lon="13.0569283"><ele>696.0</ele><time>2026-04-18T08:15:02.324Z</time></trkpt><trkpt lat="41.5491233" lon="13.0570133"><ele>696.0</ele><time>2026-04-18T08:15:05.323Z</time></trkpt><trkpt lat="41.5491583" lon="13.0570883"><ele>696.0</ele><time>2026-04-18T08:15:08.324Z</time></trkpt><trkpt lat="41.5491917" lon="13.0571633"><ele>696.0</ele><time>2026-04-18T08:15:11.322Z</time></trkpt><trkpt lat="41.54922" lon="13.05727"><ele>696.0</ele><time>2026-04-18T08:15:15.325Z</time></trkpt><trkpt lat="41.549235" lon="13.0573517"><ele>696.0</ele><time>2026-04-18T08:15:18.323Z</time></trkpt><trkpt lat="41.5492617" lon="13.0574367"><ele>696.0</ele><time>2026-04-18T08:15:21.322Z</time></trkpt><trkpt lat="41.5492867" lon="13.0575267"><ele>696.0</ele><time>2026-04-18T08:15:24.322Z</time></trkpt><trkpt lat="41.5493517" lon="13.0575983"><ele>696.0</ele><time>2026-04-18T08:15:28.323Z</time></trkpt><trkpt lat="41.5494233" lon="13.057595"><ele>696.0</ele><time>2026-04-18T08:15:31.325Z</time></trkpt><trkpt lat="41.5494817" lon="13.05753"><ele>696.0</ele><time>2026-04-18T08:15:34.324Z</time></trkpt><trkpt lat="41.5494917" lon="13.05743"><ele>696.0</ele><time>2026-04-18T08:15:37.325Z</time></trkpt><trkpt lat="41.5494683" lon="13.057315"><ele>696.0</ele><time>2026-04-18T08:15:40.324Z</time></trkpt><trkpt lat="41.5494367" lon="13.05721"><ele>696.0</ele><time>2026-04-18T08:15:43.323Z</time></trkpt><trkpt lat="41.5494067" lon="13.057125"><ele>696.0</ele><time>2026-04-18T08:15:46.325Z</time></trkpt><trkpt lat="41.5493783" lon="13.0570467"><ele>696.0</ele><time>2026-04-18T08:15:49.321Z</time></trkpt><trkpt lat="41.549365" lon="13.056955"><ele>696.0</ele><time>2026-04-18T08:15:52.323Z</time></trkpt><trkpt lat="41.5493317" lon="13.0568733"><ele>696.0</ele><time>2026-04-18T08:15:55.323Z</time></trkpt><trkpt lat="41.5493067" lon="13.0567733"><ele>696.0</ele><time>2026-04-18T08:15:59.321Z</time></trkpt><trkpt lat="41.54929" lon="13.05668"><ele>696.0</ele><time>2026-04-18T08:16:02.324Z</time></trkpt><trkpt lat="41.5492683" lon="13.0565983"><ele>696.0</ele><time>2026-04-18T08:16:05.323Z</time></trkpt><trkpt lat="41.5492633" lon="13.0564933"><ele>696.0</ele><time>2026-04-18T08:16:09.322Z</time></trkpt><trkpt lat="41.5492683" lon="13.056405"><ele>696.0</ele><time>2026-04-18T08:16:12.321Z</time></trkpt><trkpt lat="41.5493017" lon="13.0563067"><ele>696.0</ele><time>2026-04-18T08:16:16.323Z</time></trkpt><trkpt lat="41.5493233" lon="13.056215"><ele>696.0</ele><time>2026-04-18T08:16:20.322Z</time></trkpt><trkpt lat="41.5493733" lon="13.05614"><ele>696.0</ele><time>2026-04-18T08:16:24.323Z</time></trkpt><trkpt lat="41.5494283" lon="13.0560633"><ele>696.0</ele><time>2026-04-18T08:16:28.323Z</time></trkpt><trkpt lat="41.5494683" lon="13.055995"><ele>696.0</ele><time>2026-04-18T08:16:31.326Z</time></trkpt><trkpt lat="41.549525" lon="13.0559233"><ele>696.0</ele><time>2026-04-18T08:16:34.322Z</time></trkpt><trkpt lat="41.549585" lon="13.0558583"><ele>696.0</ele><time>2026-04-18T08:16:37.323Z</time></trkpt><trkpt lat="41.54963" lon="13.05579"><ele>696.0</ele><time>2026-04-18T08:16:40.324Z</time></trkpt><trkpt lat="41.54968" lon="13.0557383"><ele>696.0</ele><time>2026-04-18T08:16:43.323Z</time></trkpt><trkpt lat="41.5497433" lon="13.0556917"><ele>696.5714285714286</ele><time>2026-04-18T08:16:47.323Z</time></trkpt><trkpt lat="41.5498117" lon="13.055665"><ele>697.1428571428571</ele><time>2026-04-18T08:16:51.323Z</time></trkpt><trkpt lat="41.5498867" lon="13.0556383"><ele>697.7142857142858</ele><time>2026-04-18T08:16:54.323Z</time></trkpt><trkpt lat="41.5499483" lon="13.05562"><ele>698.2857142857142</ele><time>2026-04-18T08:16:57.323Z</time></trkpt><trkpt lat="41.5500183" lon="13.0555817"><ele>698.8571428571429</ele><time>2026-04-18T08:17:01.322Z</time></trkpt><trkpt lat="41.55008" lon="13.0555517"><ele>699.4285714285714</ele><time>2026-04-18T08:17:04.323Z</time></trkpt><trkpt lat="41.5501417" lon="13.0555133"><ele>700.0</ele><time>2026-04-18T08:17:07.323Z</time></trkpt><trkpt lat="41.5501983" lon="13.05547"><ele>700.0</ele><time>2026-04-18T08:17:11.322Z</time></trkpt><trkpt lat="41.550275" lon="13.0554483"><ele>700.0</ele><time>2026-04-18T08:17:15.323Z</time></trkpt><trkpt lat="41.5503467" lon="13.0554433"><ele>700.0</ele><time>2026-04-18T08:17:19.323Z</time></trkpt><trkpt lat="41.5504183" lon="13.055445"><ele>700.0</ele><time>2026-04-18T08:17:23.321Z</time></trkpt><trkpt lat="41.550495" lon="13.0554483"><ele>700.0</ele><time>2026-04-18T08:17:28.321Z</time></trkpt><trkpt lat="41.5505767" lon="13.055455"><ele>700.0</ele><time>2026-04-18T08:17:32.322Z</time></trkpt><trkpt lat="41.5506517" lon="13.0554617"><ele>701.0</ele><time>2026-04-18T08:17:36.322Z</time></trkpt><trkpt lat="41.55073" lon="13.0554617"><ele>702.0</ele><time>2026-04-18T08:17:40.321Z</time></trkpt><trkpt lat="41.550805" lon="13.0554467"><ele>703.0</ele><time>2026-04-18T08:17:44.322Z</time></trkpt><trkpt lat="41.5508817" lon="13.055445"><ele>704.0</ele><time>2026-04-18T08:17:48.323Z</time></trkpt><trkpt lat="41.55095" lon="13.055425"><ele>705.0</ele><time>2026-04-18T08:17:52.322Z</time></trkpt><trkpt lat="41.5510133" lon="13.0554183"><ele>706.0</ele><time>2026-04-18T08:17:55.323Z</time></trkpt><trkpt lat="41.5510933" lon="13.05542"><ele>707.0</ele><time>2026-04-18T08:17:58.322Z</time></trkpt><trkpt lat="41.551165" lon="13.0554717"><ele>708.2857142857143</ele><time>2026-04-18T08:18:01.323Z</time></trkpt><trkpt lat="41.5512283" lon="13.0554883"><ele>709.5714285714286</ele><time>2026-04-18T08:18:04.322Z</time></trkpt><trkpt lat="41.5513117" lon="13.055505"><ele>710.8571428571429</ele><time>2026-04-18T08:18:08.322Z</time></trkpt><trkpt lat="41.5513917" lon="13.0555317"><ele>712.1428571428571</ele><time>2026-04-18T08:18:12.322Z</time></trkpt><trkpt lat="41.5514533" lon="13.05555"><ele>713.4285714285714</ele><time>2026-04-18T08:18:15.322Z</time></trkpt><trkpt lat="41.55152" lon="13.0555483"><ele>714.7142857142858</ele><time>2026-04-18T08:18:18.322Z</time></trkpt><trkpt lat="41.5515833" lon="13.05555"><ele>716.0</ele><time>2026-04-18T08:18:21.322Z</time></trkpt><trkpt lat="41.55165" lon="13.055565"><ele>716.0000000000001</ele><time>2026-04-18T08:18:24.323Z</time></trkpt><trkpt lat="41.55171" lon="13.0555917"><ele>716.0</ele><time>2026-04-18T08:18:27.323Z</time></trkpt><trkpt lat="41.5517717" lon="13.055615"><ele>716.0</ele><time>2026-04-18T08:18:30.321Z</time></trkpt><trkpt lat="41.55185" lon="13.0556033"><ele>716.0</ele><time>2026-04-18T08:18:34.321Z</time></trkpt><trkpt lat="41.5519233" lon="13.0556167"><ele>716.0</ele><time>2026-04-18T08:18:38.322Z</time></trkpt><trkpt lat="41.5519867" lon="13.0556283"><ele>716.0000000000001</ele><time>2026-04-18T08:18:41.323Z</time></trkpt><trkpt lat="41.5520633" lon="13.0556483"><ele>716.0</ele><time>2026-04-18T08:18:45.323Z</time></trkpt><trkpt lat="41.5521283" lon="13.0556517"><ele>715.7142857142858</ele><time>2026-04-18T08:18:48.322Z</time></trkpt><trkpt lat="41.552195" lon="13.0556717"><ele>715.4285714285714</ele><time>2026-04-18T08:18:52.322Z</time></trkpt><trkpt lat="41.5522633" lon="13.055695"><ele>715.1428571428571</ele><time>2026-04-18T08:18:55.323Z</time></trkpt><trkpt lat="41.5523267" lon="13.0557"><ele>714.8571428571429</ele><time>2026-04-18T08:18:58.322Z</time></trkpt><trkpt lat="41.5523967" lon="13.055725"><ele>714.5714285714286</ele><time>2026-04-18T08:19:03.322Z</time></trkpt><trkpt lat="41.55247" lon="13.055725"><ele>714.2857142857143</ele><time>2026-04-18T08:19:07.322Z</time></trkpt><trkpt lat="41.5525333" lon="13.05573"><ele>714.0</ele><time>2026-04-18T08:19:11.321Z</time></trkpt><trkpt lat="41.5526" lon="13.055745"><ele>714.0</ele><time>2026-04-18T08:19:14.322Z</time></trkpt><trkpt lat="41.5526667" lon="13.0557467"><ele>714.0</ele><time>2026-04-18T08:19:17.324Z</time></trkpt><trkpt lat="41.552785" lon="13.0557383"><ele>714.0</ele><time>2026-04-18T08:19:51.321Z</time></trkpt><trkpt lat="41.5528517" lon="13.0557567"><ele>714.0</ele><time>2026-04-18T08:19:55.323Z</time></trkpt><trkpt lat="41.5529133" lon="13.05578"><ele>714.0</ele><time>2026-04-18T08:19:59.322Z</time></trkpt><trkpt lat="41.552985" lon="13.0557883"><ele>714.0</ele><time>2026-04-18T08:20:04.323Z</time></trkpt><trkpt lat="41.5530617" lon="13.05579"><ele>718.6666666666666</ele><time>2026-04-18T08:20:07.323Z</time></trkpt><trkpt lat="41.5531317" lon="13.055825"><ele>723.3333333333334</ele><time>2026-04-18T08:20:11.322Z</time></trkpt><trkpt lat="41.5532" lon="13.055865"><ele>728.0</ele><time>2026-04-18T08:20:14.322Z</time></trkpt><trkpt lat="41.553265" lon="13.0558917"><ele>732.6666666666667</ele><time>2026-04-18T08:20:17.322Z</time></trkpt><trkpt lat="41.55333" lon="13.0559183"><ele>737.3333333333334</ele><time>2026-04-18T08:20:20.322Z</time></trkpt><trkpt lat="41.55341" lon="13.0559467"><ele>742.0</ele><time>2026-04-18T08:20:23.322Z</time></trkpt><trkpt lat="41.5534917" lon="13.05597"><ele>742.0</ele><time>2026-04-18T08:20:27.323Z</time></trkpt><trkpt lat="41.5535717" lon="13.0559817"><ele>742.0</ele><time>2026-04-18T08:20:31.323Z</time></trkpt><trkpt lat="41.55364" lon="13.0559767"><ele>742.0</ele><time>2026-04-18T08:20:34.321Z</time></trkpt><trkpt lat="41.5537083" lon="13.0559717"><ele>742.0</ele><time>2026-04-18T08:20:37.322Z</time></trkpt><trkpt lat="41.553795" lon="13.05598"><ele>742.0</ele><time>2026-04-18T08:20:41.322Z</time></trkpt><trkpt lat="41.5538817" lon="13.0559867"><ele>742.0</ele><time>2026-04-18T08:20:44.322Z</time></trkpt><trkpt lat="41.5539483" lon="13.0560233"><ele>741.8571428571429</ele><time>2026-04-18T08:20:48.322Z</time></trkpt><trkpt lat="41.5540133" lon="13.0560583"><ele>741.7142857142858</ele><time>2026-04-18T08:20:52.321Z</time></trkpt><trkpt lat="41.554075" lon="13.0561133"><ele>741.5714285714286</ele><time>2026-04-18T08:20:56.322Z</time></trkpt><trkpt lat="41.5541267" lon="13.0561667"><ele>741.4285714285714</ele><time>2026-04-18T08:20:59.322Z</time></trkpt><trkpt lat="41.554185" lon="13.056235"><ele>741.2857142857143</ele><time>2026-04-18T08:21:02.322Z</time></trkpt><trkpt lat="41.55425" lon="13.056305"><ele>741.1428571428571</ele><time>2026-04-18T08:21:06.322Z</time></trkpt><trkpt lat="41.55431" lon="13.0563467"><ele>741.0</ele><time>2026-04-18T08:21:09.322Z</time></trkpt><trkpt lat="41.5543783" lon="13.056385"><ele>741.0</ele><time>2026-04-18T08:21:13.323Z</time></trkpt><trkpt lat="41.554435" lon="13.05643"><ele>741.0</ele><time>2026-04-18T08:21:16.321Z</time></trkpt><trkpt lat="41.554505" lon="13.0565"><ele>741.0</ele><time>2026-04-18T08:21:20.322Z</time></trkpt><trkpt lat="41.5545617" lon="13.05654"><ele>741.0</ele><time>2026-04-18T08:21:23.323Z</time></trkpt><trkpt lat="41.5546133" lon="13.056595"><ele>741.0</ele><time>2026-04-18T08:21:26.321Z</time></trkpt><trkpt lat="41.5546633" lon="13.056655"><ele>741.0</ele><time>2026-04-18T08:21:29.322Z</time></trkpt><trkpt lat="41.55473" lon="13.0567167"><ele>741.0</ele><time>2026-04-18T08:21:33.323Z</time></trkpt><trkpt lat="41.5547917" lon="13.056775"><ele>744.5714285714286</ele><time>2026-04-18T08:21:37.322Z</time></trkpt><trkpt lat="41.55486" lon="13.0568267"><ele>748.1428571428572</ele><time>2026-04-18T08:21:41.322Z</time></trkpt><trkpt lat="41.55492" lon="13.056875"><ele>751.7142857142858</ele><time>2026-04-18T08:21:45.321Z</time></trkpt><trkpt lat="41.5549733" lon="13.056935"><ele>755.2857142857142</ele><time>2026-04-18T08:21:49.321Z</time></trkpt><trkpt lat="41.5550217" lon="13.057"><ele>758.8571428571429</ele><time>2026-04-18T08:21:52.321Z</time></trkpt><trkpt lat="41.5550717" lon="13.0570617"><ele>762.4285714285714</ele><time>2026-04-18T08:21:55.321Z</time></trkpt><trkpt lat="41.5551117" lon="13.0571317"><ele>766.0</ele><time>2026-04-18T08:21:59.322Z</time></trkpt><trkpt lat="41.55516" lon="13.05722"><ele>766.0</ele><time>2026-04-18T08:22:04.321Z</time></trkpt><trkpt lat="41.5552" lon="13.057285"><ele>766.0</ele><time>2026-04-18T08:22:07.321Z</time></trkpt><trkpt lat="41.555245" lon="13.0573567"><ele>766.0</ele><time>2026-04-18T08:22:11.322Z</time></trkpt><trkpt lat="41.5552883" lon="13.0574267"><ele>766.0</ele><time>2026-04-18T08:22:16.322Z</time></trkpt><trkpt lat="41.55535" lon="13.0574617"><ele>766.0</ele><time>2026-04-18T08:22:21.323Z</time></trkpt><trkpt lat="41.5554067" lon="13.057415"><ele>766.0</ele><time>2026-04-18T08:22:24.322Z</time></trkpt><trkpt lat="41.55545" lon="13.0573417"><ele>766.0</ele><time>2026-04-18T08:22:29.32Z</time></trkpt><trkpt lat="41.5554833" lon="13.0572467"><ele>769.2857142857142</ele><time>2026-04-18T08:22:32.322Z</time></trkpt><trkpt lat="41.55551" lon="13.057165"><ele>772.5714285714286</ele><time>2026-04-18T08:22:34.321Z</time></trkpt><trkpt lat="41.5555383" lon="13.0570867"><ele>775.8571428571429</ele><time>2026-04-18T08:22:36.321Z</time></trkpt><trkpt lat="41.55556" lon="13.0569783"><ele>779.1428571428571</ele><time>2026-04-18T08:22:39.321Z</time></trkpt><trkpt lat="41.5555783" lon="13.0568683"><ele>782.4285714285714</ele><time>2026-04-18T08:22:43.321Z</time></trkpt><trkpt lat="41.5555767" lon="13.0567767"><ele>785.7142857142857</ele><time>2026-04-18T08:22:47.32Z</time></trkpt><trkpt lat="41.55557" lon="13.05669"><ele>789.0</ele><time>2026-04-18T08:22:51.321Z</time></trkpt><trkpt lat="41.55558" lon="13.0565917"><ele>789.2857142857142</ele><time>2026-04-18T08:22:54.32Z</time></trkpt><trkpt lat="41.5555867" lon="13.0564867"><ele>789.5714285714286</ele><time>2026-04-18T08:22:57.322Z</time></trkpt><trkpt lat="41.5555933" lon="13.0563883"><ele>789.8571428571429</ele><time>2026-04-18T08:23:00.321Z</time></trkpt><trkpt lat="41.5555817" lon="13.0563"><ele>790.1428571428571</ele><time>2026-04-18T08:23:03.321Z</time></trkpt><trkpt lat="41.5555633" lon="13.0562067"><ele>790.4285714285714</ele><time>2026-04-18T08:23:06.32Z</time></trkpt><trkpt lat="41.5555417" lon="13.05612"><ele>790.7142857142857</ele><time>2026-04-18T08:23:09.323Z</time></trkpt><trkpt lat="41.5555317" lon="13.0560317"><ele>791.0</ele><time>2026-04-18T08:23:12.322Z</time></trkpt><trkpt lat="41.5555083" lon="13.05595"><ele>791.0</ele><time>2026-04-18T08:23:15.322Z</time></trkpt><trkpt lat="41.5554917" lon="13.0558417"><ele>791.0</ele><time>2026-04-18T08:23:19.321Z</time></trkpt><trkpt lat="41.555475" lon="13.0557417"><ele>791.0</ele><time>2026-04-18T08:23:22.323Z</time></trkpt><trkpt lat="41.5554467" lon="13.0556533"><ele>791.0</ele><time>2026-04-18T08:23:25.323Z</time></trkpt><trkpt lat="41.5554367" lon="13.0555533"><ele>791.0</ele><time>2026-04-18T08:23:28.322Z</time></trkpt><trkpt lat="41.555435" lon="13.055465"><ele>791.0</ele><time>2026-04-18T08:23:31.323Z</time></trkpt><trkpt lat="41.555425" lon="13.055375"><ele>791.0</ele><time>2026-04-18T08:23:34.321Z</time></trkpt><trkpt lat="41.5554133" lon="13.055275"><ele>792.0</ele><time>2026-04-18T08:23:38.322Z</time></trkpt><trkpt lat="41.5554033" lon="13.0551883"><ele>793.0</ele><time>2026-04-18T08:23:41.322Z</time></trkpt><trkpt lat="41.55538" lon="13.0551083"><ele>794.0</ele><time>2026-04-18T08:23:44.323Z</time></trkpt><trkpt lat="41.55536" lon="13.0550167"><ele>795.0</ele><time>2026-04-18T08:23:47.323Z</time></trkpt><trkpt lat="41.555345" lon="13.05493"><ele>796.0</ele><time>2026-04-18T08:23:50.321Z</time></trkpt><trkpt lat="41.5553167" lon="13.0548333"><ele>797.0</ele><time>2026-04-18T08:23:54.321Z</time></trkpt><trkpt lat="41.55531" lon="13.05474"><ele>798.0</ele><time>2026-04-18T08:23:57.321Z</time></trkpt><trkpt lat="41.5552783" lon="13.0546433"><ele>793.7142857142857</ele><time>2026-04-18T08:24:01.322Z</time></trkpt><trkpt lat="41.5552633" lon="13.0545483"><ele>789.4285714285714</ele><time>2026-04-18T08:24:04.321Z</time></trkpt><trkpt lat="41.5552567" lon="13.054455"><ele>785.1428571428571</ele><time>2026-04-18T08:24:07.322Z</time></trkpt><trkpt lat="41.5552367" lon="13.0543567"><ele>780.8571428571429</ele><time>2026-04-18T08:24:11.322Z</time></trkpt><trkpt lat="41.5552283" lon="13.0542633"><ele>776.5714285714286</ele><time>2026-04-18T08:24:14.322Z</time></trkpt><trkpt lat="41.55521" lon="13.0541633"><ele>772.2857142857142</ele><time>2026-04-18T08:24:17.321Z</time></trkpt><trkpt lat="41.555195" lon="13.054075"><ele>768.0</ele><time>2026-04-18T08:24:20.322Z</time></trkpt><trkpt lat="41.5551667" lon="13.0539933"><ele>767.9999999999999</ele><time>2026-04-18T08:24:23.322Z</time></trkpt><trkpt lat="41.5551267" lon="13.053915"><ele>768.0</ele><time>2026-04-18T08:24:26.322Z</time></trkpt><trkpt lat="41.5550967" lon="13.053825"><ele>768.0</ele><time>2026-04-18T08:24:29.322Z</time></trkpt><trkpt lat="41.5550817" lon="13.0537183"><ele>768.0</ele><time>2026-04-18T08:24:33.324Z</time></trkpt><trkpt lat="41.5551117" lon="13.0536383"><ele>768.0</ele><time>2026-04-18T08:24:36.323Z</time></trkpt><trkpt lat="41.55517" lon="13.0535933"><ele>767.9999999999999</ele><time>2026-04-18T08:24:39.322Z</time></trkpt><trkpt lat="41.55523" lon="13.0536217"><ele>768.0</ele><time>2026-04-18T08:24:42.322Z</time></trkpt><trkpt lat="41.5552683" lon="13.0536983"><ele>767.9999999999999</ele><time>2026-04-18T08:24:45.324Z</time></trkpt><trkpt lat="41.5552883" lon="13.05378"><ele>768.0</ele><time>2026-04-18T08:24:48.322Z</time></trkpt><trkpt lat="41.5552967" lon="13.0538883"><ele>768.0</ele><time>2026-04-18T08:24:51.324Z</time></trkpt><trkpt lat="41.5553167" lon="13.053985"><ele>768.0</ele><time>2026-04-18T08:24:54.323Z</time></trkpt><trkpt lat="41.55534" lon="13.054075"><ele>768.0</ele><time>2026-04-18T08:24:57.322Z</time></trkpt><trkpt lat="41.5553583" lon="13.0541683"><ele>767.9999999999999</ele><time>2026-04-18T08:25:00.321Z</time></trkpt><trkpt lat="41.5553767" lon="13.0542567"><ele>768.0</ele><time>2026-04-18T08:25:03.322Z</time></trkpt><trkpt lat="41.555395" lon="13.0543533"><ele>771.7142857142857</ele><time>2026-04-18T08:25:06.322Z</time></trkpt><trkpt lat="41.5554283" lon="13.054435"><ele>775.4285714285714</ele><time>2026-04-18T08:25:09.321Z</time></trkpt><trkpt lat="41.555465" lon="13.05451"><ele>779.1428571428571</ele><time>2026-04-18T08:25:12.322Z</time></trkpt><trkpt lat="41.555505" lon="13.054595"><ele>782.8571428571429</ele><time>2026-04-18T08:25:15.323Z</time></trkpt><trkpt lat="41.5555233" lon="13.05468"><ele>786.5714285714286</ele><time>2026-04-18T08:25:18.321Z</time></trkpt><trkpt lat="41.5555533" lon="13.0547783"><ele>790.2857142857142</ele><time>2026-04-18T08:25:22.321Z</time></trkpt><trkpt lat="41.5555667" lon="13.0548667"><ele>794.0</ele><time>2026-04-18T08:25:25.322Z</time></trkpt><trkpt lat="41.5555917" lon="13.0549767"><ele>794.5714285714286</ele><time>2026-04-18T08:25:29.321Z</time></trkpt><trkpt lat="41.5556083" lon="13.0550783"><ele>795.1428571428571</ele><time>2026-04-18T08:25:32.322Z</time></trkpt><trkpt lat="41.5556267" lon="13.05516"><ele>795.7142857142858</ele><time>2026-04-18T08:25:35.322Z</time></trkpt><trkpt lat="41.5556517" lon="13.05524"><ele>796.2857142857142</ele><time>2026-04-18T08:25:38.321Z</time></trkpt><trkpt lat="41.5556783" lon="13.0553167"><ele>796.8571428571429</ele><time>2026-04-18T08:25:41.322Z</time></trkpt><trkpt lat="41.5557083" lon="13.0553917"><ele>797.4285714285714</ele><time>2026-04-18T08:25:44.323Z</time></trkpt><trkpt lat="41.5557217" lon="13.0554767"><ele>798.0</ele><time>2026-04-18T08:25:47.323Z</time></trkpt><trkpt lat="41.5557517" lon="13.055555"><ele>798.0</ele><time>2026-04-18T08:25:50.321Z</time></trkpt><trkpt lat="41.55577" lon="13.05564"><ele>798.0</ele><time>2026-04-18T08:25:53.322Z</time></trkpt><trkpt lat="41.555785" lon="13.05573"><ele>798.0</ele><time>2026-04-18T08:25:56.322Z</time></trkpt><trkpt lat="41.55581" lon="13.05583"><ele>798.0</ele><time>2026-04-18T08:25:59.322Z</time></trkpt><trkpt lat="41.5558183" lon="13.055935"><ele>798.0</ele><time>2026-04-18T08:26:02.322Z</time></trkpt><trkpt lat="41.55584" lon="13.0560183"><ele>798.0</ele><time>2026-04-18T08:26:05.322Z</time></trkpt><trkpt lat="41.55587" lon="13.0561083"><ele>798.0</ele><time>2026-04-18T08:26:08.322Z</time></trkpt><trkpt lat="41.55589" lon="13.0561933"><ele>797.0</ele><time>2026-04-18T08:26:11.322Z</time></trkpt><trkpt lat="41.5559033" lon="13.056285"><ele>796.0</ele><time>2026-04-18T08:26:14.322Z</time></trkpt><trkpt lat="41.5559267" lon="13.0563733"><ele>795.0</ele><time>2026-04-18T08:26:17.32Z</time></trkpt><trkpt lat="41.5559367" lon="13.0564817"><ele>794.0</ele><time>2026-04-18T08:26:20.321Z</time></trkpt><trkpt lat="41.5559633" lon="13.0565717"><ele>793.0</ele><time>2026-04-18T08:26:23.321Z</time></trkpt><trkpt lat="41.5559883" lon="13.0566717"><ele>792.0</ele><time>2026-04-18T08:26:26.322Z</time></trkpt><trkpt lat="41.55602" lon="13.0567633"><ele>791.0</ele><time>2026-04-18T08:26:29.321Z</time></trkpt><trkpt lat="41.5560417" lon="13.05686"><ele>790.6666666666667</ele><time>2026-04-18T08:26:33.322Z</time></trkpt><trkpt lat="41.5560683" lon="13.0569617"><ele>790.3333333333334</ele><time>2026-04-18T08:26:37.321Z</time></trkpt><trkpt lat="41.5560767" lon="13.0570767"><ele>790.0</ele><time>2026-04-18T08:26:41.32Z</time></trkpt><trkpt lat="41.5560967" lon="13.05717"><ele>789.6666666666667</ele><time>2026-04-18T08:26:44.321Z</time></trkpt><trkpt lat="41.55611" lon="13.057275"><ele>789.3333333333334</ele><time>2026-04-18T08:26:47.321Z</time></trkpt><trkpt lat="41.5561367" lon="13.057365"><ele>789.0</ele><time>2026-04-18T08:26:50.321Z</time></trkpt><trkpt lat="41.556175" lon="13.0574483"><ele>794.5</ele><time>2026-04-18T08:26:53.322Z</time></trkpt><trkpt lat="41.556215" lon="13.0575333"><ele>800.0</ele><time>2026-04-18T08:26:57.322Z</time></trkpt><trkpt lat="41.5562667" lon="13.057615"><ele>805.5</ele><time>2026-04-18T08:27:01.321Z</time></trkpt><trkpt lat="41.5563067" lon="13.05768"><ele>811.0</ele><time>2026-04-18T08:27:04.322Z</time></trkpt><trkpt lat="41.5563533" lon="13.057765"><ele>816.5</ele><time>2026-04-18T08:27:08.322Z</time></trkpt><trkpt lat="41.5563917" lon="13.0578633"><ele>822.0</ele><time>2026-04-18T08:27:11.322Z</time></trkpt><trkpt lat="41.5564283" lon="13.057955"><ele>822.0</ele><time>2026-04-18T08:27:15.322Z</time></trkpt><trkpt lat="41.5564833" lon="13.05803"><ele>822.0</ele><time>2026-04-18T08:27:19.322Z</time></trkpt><trkpt lat="41.5565567" lon="13.0580917"><ele>822.0</ele><time>2026-04-18T08:27:23.322Z</time></trkpt><trkpt lat="41.55661" lon="13.0581383"><ele>822.0</ele><time>2026-04-18T08:27:29.321Z</time></trkpt><trkpt lat="41.55662" lon="13.0582267"><ele>822.0</ele><time>2026-04-18T08:27:34.321Z</time></trkpt><trkpt lat="41.5566" lon="13.058325"><ele>822.0</ele><time>2026-04-18T08:27:41.322Z</time></trkpt><trkpt lat="41.5565867" lon="13.0584267"><ele>822.0</ele><time>2026-04-18T08:27:44.321Z</time></trkpt><trkpt lat="41.5565717" lon="13.0585217"><ele>821.4285714285714</ele><time>2026-04-18T08:27:47.322Z</time></trkpt><trkpt lat="41.55657" lon="13.0586167"><ele>820.8571428571429</ele><time>2026-04-18T08:27:52.321Z</time></trkpt><trkpt lat="41.5565717" lon="13.0587233"><ele>820.2857142857142</ele><time>2026-04-18T08:27:56.322Z</time></trkpt><trkpt lat="41.55659" lon="13.0588233"><ele>819.7142857142858</ele><time>2026-04-18T08:28:00.321Z</time></trkpt><trkpt lat="41.556595" lon="13.0589083"><ele>819.1428571428572</ele><time>2026-04-18T08:28:03.322Z</time></trkpt><trkpt lat="41.556595" lon="13.058995"><ele>818.5714285714286</ele><time>2026-04-18T08:28:06.321Z</time></trkpt><trkpt lat="41.5565733" lon="13.0590867"><ele>818.0</ele><time>2026-04-18T08:28:10.321Z</time></trkpt><trkpt lat="41.5565483" lon="13.0591967"><ele>818.0</ele><time>2026-04-18T08:28:14.322Z</time></trkpt><trkpt lat="41.5565433" lon="13.0592867"><ele>818.0</ele><time>2026-04-18T08:28:16.321Z</time></trkpt><trkpt lat="41.556535" lon="13.0593833"><ele>818.0</ele><time>2026-04-18T08:28:20.321Z</time></trkpt><trkpt lat="41.55654" lon="13.0594683"><ele>818.0</ele><time>2026-04-18T08:28:23.32Z</time></trkpt><trkpt lat="41.55653" lon="13.05957"><ele>818.0</ele><time>2026-04-18T08:28:27.322Z</time></trkpt><trkpt lat="41.556515" lon="13.0596683"><ele>818.0</ele><time>2026-04-18T08:28:32.322Z</time></trkpt><trkpt lat="41.5564783" lon="13.0597383"><ele>818.0</ele><time>2026-04-18T08:28:35.321Z</time></trkpt><trkpt lat="41.55643" lon="13.0598233"><ele>818.0</ele><time>2026-04-18T08:28:39.322Z</time></trkpt><trkpt lat="41.5563867" lon="13.0598867"><ele>818.0</ele><time>2026-04-18T08:28:42.323Z</time></trkpt><trkpt lat="41.556335" lon="13.05995"><ele>818.0</ele><time>2026-04-18T08:28:45.323Z</time></trkpt><trkpt lat="41.5562667" lon="13.0599917"><ele>818.0</ele><time>2026-04-18T08:28:48.323Z</time></trkpt><trkpt lat="41.5561967" lon="13.0600267"><ele>818.0</ele><time>2026-04-18T08:28:51.322Z</time></trkpt><trkpt lat="41.5561333" lon="13.0600567"><ele>818.0</ele><time>2026-04-18T08:28:55.322Z</time></trkpt><trkpt lat="41.556075" lon="13.0600967"><ele>818.0</ele><time>2026-04-18T08:28:59.322Z</time></trkpt><trkpt lat="41.55601" lon="13.060135"><ele>818.0</ele><time>2026-04-18T08:29:03.323Z</time></trkpt><trkpt lat="41.5559483" lon="13.0602033"><ele>818.0</ele><time>2026-04-18T08:29:07.322Z</time></trkpt><trkpt lat="41.5558917" lon="13.0602567"><ele>818.0</ele><time>2026-04-18T08:29:10.323Z</time></trkpt><trkpt lat="41.5558317" lon="13.0603017"><ele>818.0</ele><time>2026-04-18T08:29:13.323Z</time></trkpt><trkpt lat="41.5557617" lon="13.0603217"><ele>818.0</ele><time>2026-04-18T08:29:17.323Z</time></trkpt><trkpt lat="41.555695" lon="13.0603417"><ele>818.0</ele><time>2026-04-18T08:29:22.32Z</time></trkpt><trkpt lat="41.55563" lon="13.060335"><ele>818.0</ele><time>2026-04-18T08:29:29.321Z</time></trkpt><trkpt lat="41.555555" lon="13.0602967"><ele>818.0</ele><time>2026-04-18T08:29:33.322Z</time></trkpt><trkpt lat="41.5554883" lon="13.06028"><ele>818.0</ele><time>2026-04-18T08:29:37.323Z</time></trkpt><trkpt lat="41.5554267" lon="13.0602333"><ele>818.0</ele><time>2026-04-18T08:29:42.322Z</time></trkpt><trkpt lat="41.5553717" lon="13.06019"><ele>818.0</ele><time>2026-04-18T08:29:45.322Z</time></trkpt><trkpt lat="41.55531" lon="13.06014"><ele>818.0</ele><time>2026-04-18T08:29:48.322Z</time></trkpt><trkpt lat="41.5552583" lon="13.060085"><ele>818.0</ele><time>2026-04-18T08:29:51.323Z</time></trkpt><trkpt lat="41.5551933" lon="13.0600283"><ele>818.0</ele><time>2026-04-18T08:29:55.323Z</time></trkpt><trkpt lat="41.5551217" lon="13.0599783"><ele>818.0</ele><time>2026-04-18T08:29:58.322Z</time></trkpt><trkpt lat="41.5550567" lon="13.0599217"><ele>818.0</ele><time>2026-04-18T08:30:01.323Z</time></trkpt><trkpt lat="41.5549917" lon="13.0598917"><ele>818.0</ele><time>2026-04-18T08:30:04.323Z</time></trkpt><trkpt lat="41.554925" lon="13.0598517"><ele>818.0</ele><time>2026-04-18T08:30:08.322Z</time></trkpt><trkpt lat="41.554865" lon="13.0598233"><ele>818.0</ele><time>2026-04-18T08:30:12.322Z</time></trkpt><trkpt lat="41.5548017" lon="13.05976"><ele>818.0</ele><time>2026-04-18T08:30:16.323Z</time></trkpt><trkpt lat="41.5547717" lon="13.059685"><ele>818.0</ele><time>2026-04-18T08:30:19.323Z</time></trkpt><trkpt lat="41.554725" lon="13.0596067"><ele>818.0</ele><time>2026-04-18T08:30:22.322Z</time></trkpt><trkpt lat="41.554695" lon="13.0595283"><ele>818.0</ele><time>2026-04-18T08:30:25.322Z</time></trkpt><trkpt lat="41.5546633" lon="13.0594433"><ele>818.0</ele><time>2026-04-18T08:30:28.321Z</time></trkpt><trkpt lat="41.554625" lon="13.0593733"><ele>818.0</ele><time>2026-04-18T08:30:30.322Z</time></trkpt><trkpt lat="41.5545817" lon="13.059305"><ele>818.0</ele><time>2026-04-18T08:30:32.323Z</time></trkpt><trkpt lat="41.5545367" lon="13.0592267"><ele>818.0</ele><time>2026-04-18T08:30:35.323Z</time></trkpt><trkpt lat="41.5544733" lon="13.05915"><ele>818.0</ele><time>2026-04-18T08:30:38.322Z</time></trkpt><trkpt lat="41.5544" lon="13.059105"><ele>817.7142857142857</ele><time>2026-04-18T08:30:41.322Z</time></trkpt><trkpt lat="41.5543317" lon="13.0591"><ele>817.4285714285714</ele><time>2026-04-18T08:30:44.322Z</time></trkpt><trkpt lat="41.5542617" lon="13.059105"><ele>817.1428571428571</ele><time>2026-04-18T08:30:47.323Z</time></trkpt><trkpt lat="41.5541833" lon="13.05914"><ele>816.8571428571429</ele><time>2026-04-18T08:30:50.323Z</time></trkpt><trkpt lat="41.5541267" lon="13.0591983"><ele>816.5714285714287</ele><time>2026-04-18T08:30:53.322Z</time></trkpt><trkpt lat="41.5540817" lon="13.0592867"><ele>816.2857142857143</ele><time>2026-04-18T08:30:57.322Z</time></trkpt><trkpt lat="41.554045" lon="13.0593717"><ele>816.0</ele><time>2026-04-18T08:31:00.322Z</time></trkpt><trkpt lat="41.554035" lon="13.05947"><ele>818.0</ele><time>2026-04-18T08:31:03.323Z</time></trkpt><trkpt lat="41.554035" lon="13.05959"><ele>820.0</ele><time>2026-04-18T08:31:06.322Z</time></trkpt><trkpt lat="41.5540383" lon="13.059695"><ele>822.0</ele><time>2026-04-18T08:31:09.323Z</time></trkpt><trkpt lat="41.5540733" lon="13.059795"><ele>824.0</ele><time>2026-04-18T08:31:12.323Z</time></trkpt><trkpt lat="41.5540967" lon="13.0598883"><ele>826.0</ele><time>2026-04-18T08:31:15.323Z</time></trkpt><trkpt lat="41.554115" lon="13.0599883"><ele>828.0</ele><time>2026-04-18T08:31:18.322Z</time></trkpt><trkpt lat="41.5541367" lon="13.06009"><ele>828.6666666666666</ele><time>2026-04-18T08:31:21.323Z</time></trkpt><trkpt lat="41.55418" lon="13.0601933"><ele>829.3333333333333</ele><time>2026-04-18T08:31:24.322Z</time></trkpt><trkpt lat="41.5541917" lon="13.0602983"><ele>830.0</ele><time>2026-04-18T08:31:28.323Z</time></trkpt><trkpt lat="41.55421" lon="13.060385"><ele>830.6666666666666</ele><time>2026-04-18T08:31:31.323Z</time></trkpt><trkpt lat="41.5542683" lon="13.06043"><ele>831.3333333333333</ele><time>2026-04-18T08:31:36.322Z</time></trkpt><trkpt lat="41.55435" lon="13.0603933"><ele>832.0</ele><time>2026-04-18T08:31:39.323Z</time></trkpt><trkpt lat="41.5544133" lon="13.0603383"><ele>832.0</ele><time>2026-04-18T08:31:42.322Z</time></trkpt><trkpt lat="41.5544683" lon="13.0602667"><ele>832.0</ele><time>2026-04-18T08:31:45.322Z</time></trkpt><trkpt lat="41.5545317" lon="13.0601867"><ele>832.0</ele><time>2026-04-18T08:31:48.323Z</time></trkpt><trkpt lat="41.5545817" lon="13.0601317"><ele>832.0</ele><time>2026-04-18T08:31:50.322Z</time></trkpt><trkpt lat="41.5546417" lon="13.0600767"><ele>832.0</ele><time>2026-04-18T08:31:53.322Z</time></trkpt><trkpt lat="41.5547067" lon="13.06007"><ele>832.0</ele><time>2026-04-18T08:31:56.322Z</time></trkpt><trkpt lat="41.5547767" lon="13.0601133"><ele>832.0</ele><time>2026-04-18T08:31:59.322Z</time></trkpt><trkpt lat="41.5548233" lon="13.0601917"><ele>831.7142857142857</ele><time>2026-04-18T08:32:02.323Z</time></trkpt><trkpt lat="41.55488" lon="13.0602733"><ele>831.4285714285714</ele><time>2026-04-18T08:32:05.322Z</time></trkpt><trkpt lat="41.5549383" lon="13.06033"><ele>831.1428571428571</ele><time>2026-04-18T08:32:08.322Z</time></trkpt><trkpt lat="41.554985" lon="13.0604033"><ele>830.8571428571429</ele><time>2026-04-18T08:32:12.322Z</time></trkpt><trkpt lat="41.5550267" lon="13.0604667"><ele>830.5714285714287</ele><time>2026-04-18T08:32:15.322Z</time></trkpt><trkpt lat="41.5550717" lon="13.0605283"><ele>830.2857142857143</ele><time>2026-04-18T08:32:18.322Z</time></trkpt><trkpt lat="41.5551183" lon="13.0606017"><ele>830.0</ele><time>2026-04-18T08:32:22.322Z</time></trkpt><trkpt lat="41.55517" lon="13.0606833"><ele>830.0</ele><time>2026-04-18T08:32:26.322Z</time></trkpt><trkpt lat="41.55521" lon="13.0607533"><ele>830.0</ele><time>2026-04-18T08:32:30.323Z</time></trkpt><trkpt lat="41.555255" lon="13.06082"><ele>830.0</ele><time>2026-04-18T08:32:35.322Z</time></trkpt><trkpt lat="41.5553183" lon="13.06086"><ele>830.0</ele><time>2026-04-18T08:32:39.323Z</time></trkpt><trkpt lat="41.5553817" lon="13.0608917"><ele>830.0</ele><time>2026-04-18T08:32:42.321Z</time></trkpt><trkpt lat="41.5554567" lon="13.060915"><ele>830.0</ele><time>2026-04-18T08:32:46.321Z</time></trkpt><trkpt lat="41.5555333" lon="13.060905"><ele>830.0</ele><time>2026-04-18T08:32:50.322Z</time></trkpt><trkpt lat="41.5556167" lon="13.060915"><ele>831.7142857142858</ele><time>2026-04-18T08:32:54.323Z</time></trkpt><trkpt lat="41.5556867" lon="13.0609117"><ele>833.4285714285714</ele><time>2026-04-18T08:32:57.323Z</time></trkpt><trkpt lat="41.555755" lon="13.0609167"><ele>835.1428571428571</ele><time>2026-04-18T08:33:00.322Z</time></trkpt><trkpt lat="41.5558217" lon="13.0609483"><ele>836.8571428571429</ele><time>2026-04-18T08:33:03.323Z</time></trkpt><trkpt lat="41.55589" lon="13.06098"><ele>838.5714285714286</ele><time>2026-04-18T08:33:06.322Z</time></trkpt><trkpt lat="41.5559583" lon="13.061"><ele>840.2857142857143</ele><time>2026-04-18T08:33:09.322Z</time></trkpt><trkpt lat="41.55604" lon="13.061015"><ele>842.0</ele><time>2026-04-18T08:33:13.321Z</time></trkpt><trkpt lat="41.5561033" lon="13.0610067"><ele>842.0000000000001</ele><time>2026-04-18T08:33:16.323Z</time></trkpt><trkpt lat="41.5561833" lon="13.06099"><ele>842.0</ele><time>2026-04-18T08:33:20.322Z</time></trkpt><trkpt lat="41.5562417" lon="13.060955"><ele>842.0</ele><time>2026-04-18T08:33:23.322Z</time></trkpt><trkpt lat="41.55632" lon="13.0609167"><ele>842.0</ele><time>2026-04-18T08:33:27.322Z</time></trkpt><trkpt lat="41.556395" lon="13.0608683"><ele>842.0000000000001</ele><time>2026-04-18T08:33:30.322Z</time></trkpt><trkpt lat="41.5564517" lon="13.0608267"><ele>842.0</ele><time>2026-04-18T08:33:32.321Z</time></trkpt><trkpt lat="41.5565233" lon="13.0607767"><ele>840.8571428571429</ele><time>2026-04-18T08:33:35.322Z</time></trkpt><trkpt lat="41.5565817" lon="13.0607417"><ele>839.7142857142858</ele><time>2026-04-18T08:33:38.321Z</time></trkpt><trkpt lat="41.5566433" lon="13.0606867"><ele>838.5714285714287</ele><time>2026-04-18T08:33:43.322Z</time></trkpt><trkpt lat="41.556695" lon="13.0606383"><ele>837.4285714285714</ele><time>2026-04-18T08:33:47.321Z</time></trkpt><trkpt lat="41.5567567" lon="13.060585"><ele>836.2857142857142</ele><time>2026-04-18T08:33:51.322Z</time></trkpt><trkpt lat="41.556825" lon="13.06054"><ele>835.1428571428572</ele><time>2026-04-18T08:33:54.322Z</time></trkpt><trkpt lat="41.5568833" lon="13.06049"><ele>834.0</ele><time>2026-04-18T08:33:57.322Z</time></trkpt><trkpt lat="41.55695" lon="13.06044"><ele>834.0</ele><time>2026-04-18T08:34:00.321Z</time></trkpt><trkpt lat="41.55702" lon="13.0603683"><ele>834.0</ele><time>2026-04-18T08:34:03.323Z</time></trkpt><trkpt lat="41.55707" lon="13.060315"><ele>834.0</ele><time>2026-04-18T08:34:05.322Z</time></trkpt><trkpt lat="41.55712" lon="13.0602333"><ele>834.0</ele><time>2026-04-18T08:34:09.321Z</time></trkpt><trkpt lat="41.5571567" lon="13.0601583"><ele>834.0</ele><time>2026-04-18T08:34:13.323Z</time></trkpt><trkpt lat="41.5572033" lon="13.060085"><ele>834.0</ele><time>2026-04-18T08:34:16.322Z</time></trkpt><trkpt lat="41.5572583" lon="13.060005"><ele>836.6666666666666</ele><time>2026-04-18T08:34:19.323Z</time></trkpt><trkpt lat="41.5573117" lon="13.05992"><ele>839.3333333333333</ele><time>2026-04-18T08:34:23.322Z</time></trkpt><trkpt lat="41.5573617" lon="13.059835"><ele>842.0</ele><time>2026-04-18T08:34:26.322Z</time></trkpt><trkpt lat="41.5574033" lon="13.0597467"><ele>844.6666666666666</ele><time>2026-04-18T08:34:30.322Z</time></trkpt><trkpt lat="41.5574417" lon="13.0596483"><ele>847.3333333333333</ele><time>2026-04-18T08:34:33.323Z</time></trkpt><trkpt lat="41.5574783" lon="13.05955"><ele>850.0</ele><time>2026-04-18T08:34:36.322Z</time></trkpt><trkpt lat="41.5575183" lon="13.0594683"><ele>850.0</ele><time>2026-04-18T08:34:39.322Z</time></trkpt><trkpt lat="41.55756" lon="13.0594033"><ele>850.0</ele><time>2026-04-18T08:34:42.322Z</time></trkpt><trkpt lat="41.5576167" lon="13.0593417"><ele>850.0</ele><time>2026-04-18T08:34:46.322Z</time></trkpt><trkpt lat="41.557685" lon="13.0592933"><ele>850.0</ele><time>2026-04-18T08:34:51.322Z</time></trkpt><trkpt lat="41.5577433" lon="13.0592383"><ele>850.0</ele><time>2026-04-18T08:34:56.321Z</time></trkpt><trkpt lat="41.5578083" lon="13.0591817"><ele>850.0</ele><time>2026-04-18T08:35:00.321Z</time></trkpt><trkpt lat="41.557865" lon="13.059135"><ele>850.0</ele><time>2026-04-18T08:35:04.322Z</time></trkpt><trkpt lat="41.5579233" lon="13.0590817"><ele>850.2857142857142</ele><time>2026-04-18T08:35:08.32Z</time></trkpt><trkpt lat="41.5579833" lon="13.0590517"><ele>850.5714285714286</ele><time>2026-04-18T08:35:11.321Z</time></trkpt><trkpt lat="41.558055" lon="13.0590183"><ele>850.8571428571429</ele><time>2026-04-18T08:35:14.321Z</time></trkpt><trkpt lat="41.5581233" lon="13.058985"><ele>851.1428571428571</ele><time>2026-04-18T08:35:17.321Z</time></trkpt><trkpt lat="41.5581817" lon="13.0589317"><ele>851.4285714285714</ele><time>2026-04-18T08:35:20.321Z</time></trkpt><trkpt lat="41.55824" lon="13.0588667"><ele>851.7142857142857</ele><time>2026-04-18T08:35:23.321Z</time></trkpt><trkpt lat="41.5582817" lon="13.0587983"><ele>852.0</ele><time>2026-04-18T08:35:26.322Z</time></trkpt><trkpt lat="41.5583367" lon="13.0587317"><ele>852.0</ele><time>2026-04-18T08:35:30.322Z</time></trkpt><trkpt lat="41.558395" lon="13.0586917"><ele>852.0</ele><time>2026-04-18T08:35:33.322Z</time></trkpt><trkpt lat="41.55848" lon="13.0587"><ele>852.0</ele><time>2026-04-18T08:35:37.324Z</time></trkpt><trkpt lat="41.55855" lon="13.0587533"><ele>852.0</ele><time>2026-04-18T08:35:41.323Z</time></trkpt><trkpt lat="41.558585" lon="13.0588283"><ele>852.0</ele><time>2026-04-18T08:35:45.322Z</time></trkpt><trkpt lat="41.55855" lon="13.0589017"><ele>852.0</ele><time>2026-04-18T08:35:58.324Z</time></trkpt><trkpt lat="41.5586133" lon="13.0589933"><ele>852.0</ele><time>2026-04-18T08:36:35.321Z</time></trkpt><trkpt lat="41.5586056" lon="13.0589073"><ele>852.0</ele><time>2026-04-18T08:37:23.322Z</time></trkpt><trkpt lat="41.5585285" lon="13.058898"><ele>852.0</ele><time>2026-04-18T08:38:37.323Z</time></trkpt><trkpt lat="41.558596" lon="13.058879"><ele>852.0</ele><time>2026-04-18T08:38:57.321Z</time></trkpt><trkpt lat="41.5586037" lon="13.0587741"><ele>852.0</ele><time>2026-04-18T08:38:59.322Z</time></trkpt><trkpt lat="41.5586029" lon="13.0586524"><ele>852.0</ele><time>2026-04-18T08:39:01.322Z</time></trkpt><trkpt lat="41.5585936" lon="13.0585489"><ele>852.0</ele><time>2026-04-18T08:39:03.32Z</time></trkpt><trkpt lat="41.5585658" lon="13.0584607"><ele>852.0</ele><time>2026-04-18T08:39:05.322Z</time></trkpt><trkpt lat="41.5585226" lon="13.0583667"><ele>852.0</ele><time>2026-04-18T08:39:07.322Z</time></trkpt><trkpt lat="41.5584488" lon="13.0582971"><ele>852.0</ele><time>2026-04-18T08:39:09.322Z</time></trkpt><trkpt lat="41.5583477" lon="13.0582706"><ele>852.0</ele><time>2026-04-18T08:39:11.321Z</time></trkpt><trkpt lat="41.5582438" lon="13.0582695"><ele>852.4000000000001</ele><time>2026-04-18T08:39:13.322Z</time></trkpt><trkpt lat="41.5581351" lon="13.0582701"><ele>852.8000000000001</ele><time>2026-04-18T08:39:15.323Z</time></trkpt><trkpt lat="41.5580259" lon="13.0582723"><ele>853.2</ele><time>2026-04-18T08:39:17.319Z</time></trkpt><trkpt lat="41.5579271" lon="13.0582834"><ele>853.6</ele><time>2026-04-18T08:39:19.322Z</time></trkpt><trkpt lat="41.5578151" lon="13.0582752"><ele>854.0</ele><time>2026-04-18T08:39:21.321Z</time></trkpt><trkpt lat="41.5577051" lon="13.0582574"><ele>854.0000000000001</ele><time>2026-04-18T08:39:23.321Z</time></trkpt><trkpt lat="41.5576092" lon="13.0582259"><ele>854.0</ele><time>2026-04-18T08:39:25.323Z</time></trkpt><trkpt lat="41.5575167" lon="13.0581766"><ele>854.0</ele><time>2026-04-18T08:39:27.321Z</time></trkpt><trkpt lat="41.5574573" lon="13.0581046"><ele>854.0</ele><time>2026-04-18T08:39:29.32Z</time></trkpt><trkpt lat="41.5574035" lon="13.0580506"><ele>854.0000000000001</ele><time>2026-04-18T08:39:31.321Z</time></trkpt><trkpt lat="41.557353" lon="13.0579967"><ele>854.0</ele><time>2026-04-18T08:39:33.321Z</time></trkpt><trkpt lat="41.5572826" lon="13.0579227"><ele>854.0</ele><time>2026-04-18T08:39:36.336Z</time></trkpt><trkpt lat="41.5572165" lon="13.0578266"><ele>854.0</ele><time>2026-04-18T08:39:38.322Z</time></trkpt><trkpt lat="41.5571702" lon="13.0577675"><ele>854.0</ele><time>2026-04-18T08:39:40.321Z</time></trkpt><trkpt lat="41.5571163" lon="13.0577141"><ele>854.0</ele><time>2026-04-18T08:39:42.321Z</time></trkpt><trkpt lat="41.5570609" lon="13.0576627"><ele>854.0</ele><time>2026-04-18T08:39:44.321Z</time></trkpt><trkpt lat="41.5570043" lon="13.0576028"><ele>854.0</ele><time>2026-04-18T08:39:46.321Z</time></trkpt><trkpt lat="41.5569612" lon="13.0575246"><ele>854.0</ele><time>2026-04-18T08:39:48.321Z</time></trkpt><trkpt lat="41.5569111" lon="13.0574441"><ele>850.6666666666667</ele><time>2026-04-18T08:39:50.321Z</time></trkpt><trkpt lat="41.55686" lon="13.0573515"><ele>847.3333333333334</ele><time>2026-04-18T08:39:52.321Z</time></trkpt><trkpt lat="41.5568146" lon="13.0572588"><ele>844.0</ele><time>2026-04-18T08:39:54.322Z</time></trkpt><trkpt lat="41.5567832" lon="13.0571646"><ele>840.6666666666667</ele><time>2026-04-18T08:39:56.322Z</time></trkpt><trkpt lat="41.5567474" lon="13.0570888"><ele>837.3333333333334</ele><time>2026-04-18T08:39:58.321Z</time></trkpt><trkpt lat="41.5567121" lon="13.0570148"><ele>834.0</ele><time>2026-04-18T08:40:00.32Z</time></trkpt><trkpt lat="41.5566676" lon="13.0569283"><ele>834.0</ele><time>2026-04-18T08:40:02.321Z</time></trkpt><trkpt lat="41.5566324" lon="13.0568465"><ele>834.0</ele><time>2026-04-18T08:40:04.321Z</time></trkpt><trkpt lat="41.5565981" lon="13.0567363"><ele>834.0</ele><time>2026-04-18T08:40:07.322Z</time></trkpt><trkpt lat="41.5565739" lon="13.0566504"><ele>834.0</ele><time>2026-04-18T08:40:09.322Z</time></trkpt><trkpt lat="41.5565408" lon="13.05655"><ele>834.0</ele><time>2026-04-18T08:40:11.322Z</time></trkpt><trkpt lat="41.5565196" lon="13.0564596"><ele>834.0</ele><time>2026-04-18T08:40:13.322Z</time></trkpt><trkpt lat="41.5565127" lon="13.0563629"><ele>834.8333333333334</ele><time>2026-04-18T08:40:15.323Z</time></trkpt><trkpt lat="41.5564948" lon="13.0562752"><ele>835.6666666666667</ele><time>2026-04-18T08:40:17.322Z</time></trkpt><trkpt lat="41.5564431" lon="13.056171"><ele>836.5</ele><time>2026-04-18T08:40:19.321Z</time></trkpt><trkpt lat="41.5563976" lon="13.0560698"><ele>837.3333333333334</ele><time>2026-04-18T08:40:21.322Z</time></trkpt><trkpt lat="41.5563765" lon="13.0559807"><ele>838.1666666666667</ele><time>2026-04-18T08:40:23.32Z</time></trkpt><trkpt lat="41.5563533" lon="13.0558843"><ele>839.0</ele><time>2026-04-18T08:40:25.322Z</time></trkpt><trkpt lat="41.5563384" lon="13.0557927"><ele>838.5000000000001</ele><time>2026-04-18T08:40:27.322Z</time></trkpt><trkpt lat="41.5563065" lon="13.0557126"><ele>838.0</ele><time>2026-04-18T08:40:29.321Z</time></trkpt><trkpt lat="41.5562541" lon="13.0556061"><ele>837.5</ele><time>2026-04-18T08:40:31.321Z</time></trkpt><trkpt lat="41.5562167" lon="13.05551"><ele>837.0</ele><time>2026-04-18T08:40:33.322Z</time></trkpt><trkpt lat="41.5561967" lon="13.0554117"><ele>836.5000000000001</ele><time>2026-04-18T08:40:35.321Z</time></trkpt><trkpt lat="41.5561667" lon="13.0552917"><ele>836.0</ele><time>2026-04-18T08:40:37.322Z</time></trkpt><trkpt lat="41.5561333" lon="13.0551767"><ele>828.4</ele><time>2026-04-18T08:40:39.322Z</time></trkpt><trkpt lat="41.5561" lon="13.0550633"><ele>820.8</ele><time>2026-04-18T08:40:41.32Z</time></trkpt><trkpt lat="41.55606" lon="13.054945"><ele>813.1999999999999</ele><time>2026-04-18T08:40:43.321Z</time></trkpt><trkpt lat="41.55602" lon="13.0548317"><ele>805.5999999999999</ele><time>2026-04-18T08:40:45.322Z</time></trkpt><trkpt lat="41.55599" lon="13.054715"><ele>798.0</ele><time>2026-04-18T08:40:47.321Z</time></trkpt><trkpt lat="41.5559717" lon="13.0545767"><ele>797.2</ele><time>2026-04-18T08:40:49.321Z</time></trkpt><trkpt lat="41.5559283" lon="13.0544517"><ele>796.4</ele><time>2026-04-18T08:40:51.322Z</time></trkpt><trkpt lat="41.5558817" lon="13.0543233"><ele>795.6</ele><time>2026-04-18T08:40:53.321Z</time></trkpt><trkpt lat="41.55584" lon="13.0542183"><ele>794.8000000000001</ele><time>2026-04-18T08:40:55.322Z</time></trkpt><trkpt lat="41.5557817" lon="13.0540983"><ele>794.0</ele><time>2026-04-18T08:40:57.322Z</time></trkpt><trkpt lat="41.5557333" lon="13.0540017"><ele>790.0000000000001</ele><time>2026-04-18T08:40:59.32Z</time></trkpt><trkpt lat="41.55567" lon="13.053895"><ele>786.0</ele><time>2026-04-18T08:41:01.321Z</time></trkpt><trkpt lat="41.5556267" lon="13.0537833"><ele>782.0</ele><time>2026-04-18T08:41:03.322Z</time></trkpt><trkpt lat="41.555585" lon="13.0537017"><ele>778.0</ele><time>2026-04-18T08:41:05.321Z</time></trkpt><trkpt lat="41.55554" lon="13.0536417"><ele>774.0000000000001</ele><time>2026-04-18T08:41:07.322Z</time></trkpt><trkpt lat="41.5554917" lon="13.0535617"><ele>770.0</ele><time>2026-04-18T08:41:10.321Z</time></trkpt><trkpt lat="41.5554433" lon="13.0534967"><ele>770.0000000000001</ele><time>2026-04-18T08:41:14.322Z</time></trkpt><trkpt lat="41.555395" lon="13.0534333"><ele>770.0</ele><time>2026-04-18T08:41:57.322Z</time></trkpt><trkpt lat="41.55533" lon="13.053335"><ele>770.0</ele><time>2026-04-18T08:41:58.32Z</time></trkpt><trkpt lat="41.55526" lon="13.0532583"><ele>770.0</ele><time>2026-04-18T08:42:02.321Z</time></trkpt><trkpt lat="41.555175" lon="13.0532067"><ele>770.0000000000001</ele><time>2026-04-18T08:42:05.322Z</time></trkpt><trkpt lat="41.5551283" lon="13.053125"><ele>770.0</ele><time>2026-04-18T08:42:08.321Z</time></trkpt><trkpt lat="41.5551033" lon="13.0530433"><ele>766.3333333333334</ele><time>2026-04-18T08:42:13.321Z</time></trkpt><trkpt lat="41.5550917" lon="13.052955"><ele>762.6666666666667</ele><time>2026-04-18T08:42:16.321Z</time></trkpt><trkpt lat="41.5550617" lon="13.052835"><ele>759.0</ele><time>2026-04-18T08:42:19.321Z</time></trkpt><trkpt lat="41.555025" lon="13.05273"><ele>755.3333333333334</ele><time>2026-04-18T08:42:21.321Z</time></trkpt><trkpt lat="41.5549817" lon="13.0526467"><ele>751.6666666666667</ele><time>2026-04-18T08:42:23.321Z</time></trkpt><trkpt lat="41.554925" lon="13.0525817"><ele>748.0</ele><time>2026-04-18T08:42:25.322Z</time></trkpt><trkpt lat="41.5548733" lon="13.05253"><ele>748.0</ele><time>2026-04-18T08:42:27.321Z</time></trkpt><trkpt lat="41.554805" lon="13.05246"><ele>748.0</ele><time>2026-04-18T08:42:30.323Z</time></trkpt><trkpt lat="41.5547417" lon="13.0524283"><ele>748.0</ele><time>2026-04-18T08:42:33.322Z</time></trkpt><trkpt lat="41.55468" lon="13.05239"><ele>748.0</ele><time>2026-04-18T08:42:38.324Z</time></trkpt><trkpt lat="41.5546967" lon="13.0524717"><ele>748.0</ele><time>2026-04-18T08:43:25.322Z</time></trkpt><trkpt lat="41.5546617" lon="13.0523567"><ele>748.0</ele><time>2026-04-18T08:44:16.322Z</time></trkpt><trkpt lat="41.5545783" lon="13.0522767"><ele>744.6666666666667</ele><time>2026-04-18T08:44:18.323Z</time></trkpt><trkpt lat="41.5545033" lon="13.0522"><ele>741.3333333333334</ele><time>2026-04-18T08:44:20.323Z</time></trkpt><trkpt lat="41.5544433" lon="13.052125"><ele>738.0</ele><time>2026-04-18T08:44:22.323Z</time></trkpt><trkpt lat="41.55439" lon="13.0520583"><ele>734.6666666666666</ele><time>2026-04-18T08:44:24.323Z</time></trkpt><trkpt lat="41.554345" lon="13.0519867"><ele>731.3333333333333</ele><time>2026-04-18T08:44:26.322Z</time></trkpt><trkpt lat="41.55429" lon="13.0519317"><ele>728.0</ele><time>2026-04-18T08:44:28.321Z</time></trkpt><trkpt lat="41.5542" lon="13.051825"><ele>728.0</ele><time>2026-04-18T08:44:30.323Z</time></trkpt><trkpt lat="41.5541417" lon="13.051745"><ele>728.0</ele><time>2026-04-18T08:44:32.323Z</time></trkpt><trkpt lat="41.5540817" lon="13.0516717"><ele>728.0</ele><time>2026-04-18T08:44:34.322Z</time></trkpt><trkpt lat="41.554005" lon="13.0515733"><ele>728.0</ele><time>2026-04-18T08:44:37.322Z</time></trkpt><trkpt lat="41.5539367" lon="13.0515133"><ele>728.0</ele><time>2026-04-18T08:44:39.323Z</time></trkpt><trkpt lat="41.55385" lon="13.05155"><ele>728.0</ele><time>2026-04-18T08:44:42.323Z</time></trkpt><trkpt lat="41.5537833" lon="13.0515767"><ele>723.6666666666666</ele><time>2026-04-18T08:44:44.323Z</time></trkpt><trkpt lat="41.5536983" lon="13.0515867"><ele>719.3333333333333</ele><time>2026-04-18T08:44:46.322Z</time></trkpt><trkpt lat="41.5536333" lon="13.05157"><ele>715.0</ele><time>2026-04-18T08:44:48.321Z</time></trkpt><trkpt lat="41.5535633" lon="13.051535"><ele>710.6666666666666</ele><time>2026-04-18T08:44:50.323Z</time></trkpt><trkpt lat="41.5534967" lon="13.0515"><ele>706.3333333333334</ele><time>2026-04-18T08:44:52.322Z</time></trkpt><trkpt lat="41.5534267" lon="13.0514317"><ele>702.0</ele><time>2026-04-18T08:44:55.321Z</time></trkpt><trkpt lat="41.5533667" lon="13.05136"><ele>702.0000000000001</ele><time>2026-04-18T08:44:58.323Z</time></trkpt><trkpt lat="41.5532883" lon="13.051315"><ele>702.0</ele><time>2026-04-18T08:45:01.325Z</time></trkpt><trkpt lat="41.5532233" lon="13.051335"><ele>702.0</ele><time>2026-04-18T08:45:05.322Z</time></trkpt><trkpt lat="41.5531588" lon="13.0513366"><ele>702.0</ele><time>2026-04-18T08:45:15.322Z</time></trkpt><trkpt lat="41.5530916" lon="13.0512826"><ele>702.0</ele><time>2026-04-18T08:45:33.322Z</time></trkpt><trkpt lat="41.5530285" lon="13.0512881"><ele>702.0000000000001</ele><time>2026-04-18T08:45:42.324Z</time></trkpt><trkpt lat="41.5530854" lon="13.0513754"><ele>702.0</ele><time>2026-04-18T08:46:41.321Z</time></trkpt><trkpt lat="41.5531484" lon="13.0513446"><ele>702.0</ele><time>2026-04-18T08:46:53.322Z</time></trkpt><trkpt lat="41.5531178" lon="13.0512384"><ele>702.0</ele><time>2026-04-18T08:47:05.322Z</time></trkpt><trkpt lat="41.5530615" lon="13.051166"><ele>702.0</ele><time>2026-04-18T08:47:07.323Z</time></trkpt><trkpt lat="41.5529988" lon="13.0511411"><ele>702.0</ele><time>2026-04-18T08:47:09.322Z</time></trkpt><trkpt lat="41.5529259" lon="13.0511217"><ele>702.0</ele><time>2026-04-18T08:47:11.322Z</time></trkpt><trkpt lat="41.5528112" lon="13.0510957"><ele>702.0</ele><time>2026-04-18T08:47:13.323Z</time></trkpt><trkpt lat="41.5527189" lon="13.0510815"><ele>702.0000000000001</ele><time>2026-04-18T08:47:15.323Z</time></trkpt><trkpt lat="41.5526513" lon="13.0510923"><ele>702.0</ele><time>2026-04-18T08:47:16.32Z</time></trkpt><trkpt lat="41.5526006" lon="13.0511456"><ele>702.0</ele><time>2026-04-18T08:47:20.321Z</time></trkpt><trkpt lat="41.5526277" lon="13.0512291"><ele>702.0</ele><time>2026-04-18T08:47:26.322Z</time></trkpt><trkpt lat="41.5526871" lon="13.0512592"><ele>702.0</ele><time>2026-04-18T08:47:36.321Z</time></trkpt><trkpt lat="41.5527544" lon="13.0512479"><ele>702.0000000000001</ele><time>2026-04-18T08:47:42.322Z</time></trkpt><trkpt lat="41.5528209" lon="13.0511963"><ele>702.0</ele><time>2026-04-18T08:47:47.322Z</time></trkpt><trkpt lat="41.5528849" lon="13.0511778"><ele>702.0</ele><time>2026-04-18T08:47:52.321Z</time></trkpt><trkpt lat="41.5529403" lon="13.0512276"><ele>702.0</ele><time>2026-04-18T08:48:05.321Z</time></trkpt><trkpt lat="41.5529486" lon="13.0511416"><ele>702.0</ele><time>2026-04-18T08:49:42.322Z</time></trkpt><trkpt lat="41.5528817" lon="13.0511037"><ele>702.0</ele><time>2026-04-18T08:49:48.322Z</time></trkpt><trkpt lat="41.5528152" lon="13.0511002"><ele>702.0</ele><time>2026-04-18T08:49:52.322Z</time></trkpt><trkpt lat="41.5526842" lon="13.0511324"><ele>702.0</ele><time>2026-04-18T08:50:52.323Z</time></trkpt><trkpt lat="41.5526166" lon="13.0511544"><ele>700.5</ele><time>2026-04-18T08:51:02.32Z</time></trkpt><trkpt lat="41.5525534" lon="13.0511845"><ele>699.0</ele><time>2026-04-18T08:51:08.32Z</time></trkpt><trkpt lat="41.5524688" lon="13.0512077"><ele>697.5</ele><time>2026-04-18T08:51:27.321Z</time></trkpt><trkpt lat="41.5524106" lon="13.0512628"><ele>696.0</ele><time>2026-04-18T08:51:31.322Z</time></trkpt><trkpt lat="41.5523441" lon="13.0512978"><ele>694.5</ele><time>2026-04-18T08:51:34.322Z</time></trkpt><trkpt lat="41.552261" lon="13.0513644"><ele>693.0</ele><time>2026-04-18T08:51:36.322Z</time></trkpt><trkpt lat="41.5521908" lon="13.0514379"><ele>693.0</ele><time>2026-04-18T08:51:38.321Z</time></trkpt><trkpt lat="41.5521192" lon="13.0515152"><ele>693.0</ele><time>2026-04-18T08:51:40.322Z</time></trkpt><trkpt lat="41.5520449" lon="13.0515837"><ele>693.0</ele><time>2026-04-18T08:51:42.322Z</time></trkpt><trkpt lat="41.5519905" lon="13.0517065"><ele>693.0</ele><time>2026-04-18T08:51:45.321Z</time></trkpt><trkpt lat="41.5519841" lon="13.0518202"><ele>693.0</ele><time>2026-04-18T08:51:47.322Z</time></trkpt><trkpt lat="41.5519773" lon="13.0519074"><ele>693.0</ele><time>2026-04-18T08:51:48.321Z</time></trkpt><trkpt lat="41.5519704" lon="13.0520346"><ele>691.3333333333334</ele><time>2026-04-18T08:51:50.322Z</time></trkpt><trkpt lat="41.5519468" lon="13.0521573"><ele>689.6666666666666</ele><time>2026-04-18T08:51:52.321Z</time></trkpt><trkpt lat="41.5519233" lon="13.0522883"><ele>688.0</ele><time>2026-04-18T08:51:54.321Z</time></trkpt><trkpt lat="41.55191" lon="13.052415"><ele>686.3333333333333</ele><time>2026-04-18T08:51:56.322Z</time></trkpt><trkpt lat="41.55191" lon="13.05252"><ele>684.6666666666666</ele><time>2026-04-18T08:51:58.322Z</time></trkpt><trkpt lat="41.551915" lon="13.052625"><ele>683.0</ele><time>2026-04-18T08:52:00.322Z</time></trkpt><trkpt lat="41.551915" lon="13.052745"><ele>680.5999999999999</ele><time>2026-04-18T08:52:02.323Z</time></trkpt><trkpt lat="41.5519283" lon="13.0528933"><ele>678.1999999999999</ele><time>2026-04-18T08:52:04.321Z</time></trkpt><trkpt lat="41.552015" lon="13.05305"><ele>675.8</ele><time>2026-04-18T08:52:06.319Z</time></trkpt><trkpt lat="41.5520433" lon="13.0531833"><ele>673.4</ele><time>2026-04-18T08:52:08.322Z</time></trkpt><trkpt lat="41.5520783" lon="13.05329"><ele>671.0</ele><time>2026-04-18T08:52:10.322Z</time></trkpt><trkpt lat="41.55212" lon="13.0533783"><ele>675.0</ele><time>2026-04-18T08:52:12.32Z</time></trkpt><trkpt lat="41.55216" lon="13.0534867"><ele>679.0</ele><time>2026-04-18T08:52:15.322Z</time></trkpt><trkpt lat="41.5522083" lon="13.0535767"><ele>683.0</ele><time>2026-04-18T08:52:17.322Z</time></trkpt><trkpt lat="41.552235" lon="13.0536533"><ele>687.0</ele><time>2026-04-18T08:52:20.321Z</time></trkpt><trkpt lat="41.5523267" lon="13.0536933"><ele>691.0</ele><time>2026-04-18T08:52:22.32Z</time></trkpt><trkpt lat="41.5523317" lon="13.0536083"><ele>695.0</ele><time>2026-04-18T08:52:31.321Z</time></trkpt><trkpt lat="41.5522645" lon="13.0535569"><ele>695.0000000000001</ele><time>2026-04-18T08:52:38.32Z</time></trkpt><trkpt lat="41.5521998" lon="13.0535127"><ele>695.0</ele><time>2026-04-18T08:52:42.322Z</time></trkpt><trkpt lat="41.5521377" lon="13.0534619"><ele>695.0</ele><time>2026-04-18T08:52:45.321Z</time></trkpt><trkpt lat="41.5520752" lon="13.0534043"><ele>695.0</ele><time>2026-04-18T08:52:47.321Z</time></trkpt><trkpt lat="41.5520269" lon="13.0533366"><ele>695.0</ele><time>2026-04-18T08:52:49.322Z</time></trkpt><trkpt lat="41.5519751" lon="13.0532559"><ele>695.0000000000001</ele><time>2026-04-18T08:52:51.322Z</time></trkpt><trkpt lat="41.5519239" lon="13.0531836"><ele>695.0</ele><time>2026-04-18T08:52:53.319Z</time></trkpt><trkpt lat="41.5518656" lon="13.0531245"><ele>691.0</ele><time>2026-04-18T08:52:56.322Z</time></trkpt><trkpt lat="41.5517942" lon="13.0530611"><ele>687.0</ele><time>2026-04-18T08:53:00.322Z</time></trkpt><trkpt lat="41.5517327" lon="13.0530195"><ele>683.0</ele><time>2026-04-18T08:53:03.323Z</time></trkpt><trkpt lat="41.5516421" lon="13.052987"><ele>679.0</ele><time>2026-04-18T08:53:06.321Z</time></trkpt><trkpt lat="41.5515749" lon="13.0529762"><ele>675.0</ele><time>2026-04-18T08:53:09.321Z</time></trkpt><trkpt lat="41.551504" lon="13.0529386"><ele>671.0</ele><time>2026-04-18T08:53:14.323Z</time></trkpt><trkpt lat="41.5514527" lon="13.0528648"><ele>671.0</ele><time>2026-04-18T08:53:17.322Z</time></trkpt><trkpt lat="41.5513871" lon="13.0528094"><ele>671.0</ele><time>2026-04-18T08:53:20.322Z</time></trkpt><trkpt lat="41.5513214" lon="13.0527712"><ele>671.0</ele><time>2026-04-18T08:53:23.322Z</time></trkpt><trkpt lat="41.5512396" lon="13.0527308"><ele>671.0</ele><time>2026-04-18T08:53:25.322Z</time></trkpt><trkpt lat="41.5511576" lon="13.0527106"><ele>671.0</ele><time>2026-04-18T08:53:27.322Z</time></trkpt><trkpt lat="41.551083" lon="13.052718"><ele>671.0</ele><time>2026-04-18T08:53:29.323Z</time></trkpt><trkpt lat="41.5510139" lon="13.0527321"><ele>664.6666666666666</ele><time>2026-04-18T08:53:33.322Z</time></trkpt><trkpt lat="41.5509714" lon="13.0527946"><ele>658.3333333333333</ele><time>2026-04-18T08:53:44.322Z</time></trkpt><trkpt lat="41.55089" lon="13.05281"><ele>652.0</ele><time>2026-04-18T08:58:44.321Z</time></trkpt><trkpt lat="41.55082" lon="13.0528367"><ele>645.6666666666666</ele><time>2026-04-18T08:58:46.324Z</time></trkpt><trkpt lat="41.5507517" lon="13.0528917"><ele>639.3333333333334</ele><time>2026-04-18T08:58:48.321Z</time></trkpt><trkpt lat="41.5506733" lon="13.0529267"><ele>633.0</ele><time>2026-04-18T08:58:51.322Z</time></trkpt><trkpt lat="41.5506117" lon="13.0529817"><ele>633.0</ele><time>2026-04-18T08:58:54.322Z</time></trkpt><trkpt lat="41.5505483" lon="13.0530633"><ele>633.0</ele><time>2026-04-18T08:58:58.321Z</time></trkpt><trkpt lat="41.5504767" lon="13.05311"><ele>633.0</ele><time>2026-04-18T08:59:02.321Z</time></trkpt><trkpt lat="41.5504183" lon="13.0531467"><ele>633.0</ele><time>2026-04-18T08:59:05.322Z</time></trkpt><trkpt lat="41.5503483" lon="13.0531833"><ele>633.0</ele><time>2026-04-18T08:59:09.323Z</time></trkpt><trkpt lat="41.5502833" lon="13.05323"><ele>633.0</ele><time>2026-04-18T08:59:13.322Z</time></trkpt><trkpt lat="41.5502017" lon="13.05324"><ele>629.5714285714286</ele><time>2026-04-18T08:59:18.322Z</time></trkpt><trkpt lat="41.5501383" lon="13.0532567"><ele>626.1428571428571</ele><time>2026-04-18T08:59:21.322Z</time></trkpt><trkpt lat="41.550065" lon="13.0532567"><ele>622.7142857142858</ele><time>2026-04-18T08:59:26.321Z</time></trkpt><trkpt lat="41.5499867" lon="13.0532717"><ele>619.2857142857142</ele><time>2026-04-18T08:59:30.322Z</time></trkpt><trkpt lat="41.5499183" lon="13.053285"><ele>615.8571428571429</ele><time>2026-04-18T08:59:33.323Z</time></trkpt><trkpt lat="41.5498433" lon="13.05328"><ele>612.4285714285714</ele><time>2026-04-18T08:59:37.322Z</time></trkpt><trkpt lat="41.549775" lon="13.053245"><ele>609.0</ele><time>2026-04-18T08:59:41.322Z</time></trkpt><trkpt lat="41.5497083" lon="13.0532217"><ele>609.0</ele><time>2026-04-18T08:59:44.321Z</time></trkpt><trkpt lat="41.5496317" lon="13.053215"><ele>609.0</ele><time>2026-04-18T08:59:47.321Z</time></trkpt><trkpt lat="41.5495483" lon="13.0531967"><ele>609.0</ele><time>2026-04-18T08:59:50.321Z</time></trkpt><trkpt lat="41.5494733" lon="13.05319"><ele>609.0</ele><time>2026-04-18T08:59:53.322Z</time></trkpt><trkpt lat="41.5493933" lon="13.0531883"><ele>609.0</ele><time>2026-04-18T08:59:56.322Z</time></trkpt><trkpt lat="41.54933" lon="13.0532283"><ele>609.0</ele><time>2026-04-18T09:00:01.322Z</time></trkpt><trkpt lat="41.5492367" lon="13.0532683"><ele>613.8333333333334</ele><time>2026-04-18T09:00:03.321Z</time></trkpt><trkpt lat="41.5491567" lon="13.0532983"><ele>618.6666666666666</ele><time>2026-04-18T09:00:05.322Z</time></trkpt><trkpt lat="41.5490683" lon="13.0533383"><ele>623.5</ele><time>2026-04-18T09:00:08.322Z</time></trkpt><trkpt lat="41.548985" lon="13.05337"><ele>628.3333333333333</ele><time>2026-04-18T09:00:11.323Z</time></trkpt><trkpt lat="41.548925" lon="13.0533967"><ele>633.1666666666666</ele><time>2026-04-18T09:00:13.322Z</time></trkpt><trkpt lat="41.54887" lon="13.05345"><ele>638.0</ele><time>2026-04-18T09:00:16.321Z</time></trkpt><trkpt lat="41.5487933" lon="13.0535033"><ele>638.0</ele><time>2026-04-18T09:00:20.322Z</time></trkpt><trkpt lat="41.5487383" lon="13.0535467"><ele>638.0</ele><time>2026-04-18T09:00:23.322Z</time></trkpt><trkpt lat="41.54868" lon="13.0536233"><ele>638.0</ele><time>2026-04-18T09:00:28.322Z</time></trkpt><trkpt lat="41.54862" lon="13.0536883"><ele>638.0</ele><time>2026-04-18T09:00:32.322Z</time></trkpt><trkpt lat="41.5485483" lon="13.0537433"><ele>638.0</ele><time>2026-04-18T09:00:36.322Z</time></trkpt><trkpt lat="41.5484917" lon="13.0537917"><ele>638.0</ele><time>2026-04-18T09:00:39.321Z</time></trkpt><trkpt lat="41.5484417" lon="13.0538817"><ele>639.0</ele><time>2026-04-18T09:00:42.322Z</time></trkpt><trkpt lat="41.5483817" lon="13.0539583"><ele>640.0</ele><time>2026-04-18T09:00:45.322Z</time></trkpt><trkpt lat="41.5483333" lon="13.0540317"><ele>641.0</ele><time>2026-04-18T09:00:49.322Z</time></trkpt><trkpt lat="41.548285" lon="13.05412"><ele>642.0</ele><time>2026-04-18T09:00:53.322Z</time></trkpt><trkpt lat="41.5482583" lon="13.0542183"><ele>643.0</ele><time>2026-04-18T09:00:57.321Z</time></trkpt><trkpt lat="41.5482467" lon="13.05431"><ele>644.0</ele><time>2026-04-18T09:01:01.321Z</time></trkpt><trkpt lat="41.5482367" lon="13.0543983"><ele>644.0</ele><time>2026-04-18T09:01:05.322Z</time></trkpt><trkpt lat="41.5482367" lon="13.0544867"><ele>644.0</ele><time>2026-04-18T09:01:09.321Z</time></trkpt><trkpt lat="41.5481967" lon="13.0545717"><ele>644.0</ele><time>2026-04-18T09:01:13.321Z</time></trkpt><trkpt lat="41.5481583" lon="13.0546567"><ele>644.0</ele><time>2026-04-18T09:01:17.322Z</time></trkpt><trkpt lat="41.548125" lon="13.0547483"><ele>644.0</ele><time>2026-04-18T09:01:20.322Z</time></trkpt><trkpt lat="41.5480833" lon="13.0548283"><ele>644.0</ele><time>2026-04-18T09:01:23.321Z</time></trkpt><trkpt lat="41.5480417" lon="13.0549367"><ele>646.4285714285714</ele><time>2026-04-18T09:01:26.322Z</time></trkpt><trkpt lat="41.5480167" lon="13.055045"><ele>648.8571428571429</ele><time>2026-04-18T09:01:29.321Z</time></trkpt><trkpt lat="41.548005" lon="13.055135"><ele>651.2857142857142</ele><time>2026-04-18T09:01:32.322Z</time></trkpt><trkpt lat="41.548005" lon="13.0552467"><ele>653.7142857142858</ele><time>2026-04-18T09:01:36.321Z</time></trkpt><trkpt lat="41.54801" lon="13.0553333"><ele>656.1428571428571</ele><time>2026-04-18T09:01:39.322Z</time></trkpt><trkpt lat="41.5480067" lon="13.0554333"><ele>658.5714285714286</ele><time>2026-04-18T09:01:43.322Z</time></trkpt><trkpt lat="41.548015" lon="13.0555217"><ele>661.0</ele><time>2026-04-18T09:01:46.323Z</time></trkpt><trkpt lat="41.5480433" lon="13.0556067"><ele>661.0</ele><time>2026-04-18T09:01:49.321Z</time></trkpt><trkpt lat="41.548065" lon="13.0557067"><ele>661.0</ele><time>2026-04-18T09:01:53.321Z</time></trkpt><trkpt lat="41.54809" lon="13.0558033"><ele>661.0</ele><time>2026-04-18T09:01:57.321Z</time></trkpt><trkpt lat="41.5481133" lon="13.0559033"><ele>661.0</ele><time>2026-04-18T09:02:01.323Z</time></trkpt><trkpt lat="41.5481217" lon="13.0560017"><ele>661.0</ele><time>2026-04-18T09:02:05.322Z</time></trkpt><trkpt lat="41.548145" lon="13.05608"><ele>661.0</ele><time>2026-04-18T09:02:08.323Z</time></trkpt><trkpt lat="41.5481533" lon="13.0561683"><ele>661.0</ele><time>2026-04-18T09:02:11.321Z</time></trkpt><trkpt lat="41.5481617" lon="13.0562567"><ele>661.2857142857142</ele><time>2026-04-18T09:02:14.321Z</time></trkpt><trkpt lat="41.5481617" lon="13.05635"><ele>661.5714285714286</ele><time>2026-04-18T09:02:17.322Z</time></trkpt><trkpt lat="41.54819" lon="13.0564417"><ele>661.8571428571429</ele><time>2026-04-18T09:02:20.321Z</time></trkpt><trkpt lat="41.548215" lon="13.0565267"><ele>662.1428571428571</ele><time>2026-04-18T09:02:23.322Z</time></trkpt><trkpt lat="41.548225" lon="13.0566333"><ele>662.4285714285714</ele><time>2026-04-18T09:02:27.322Z</time></trkpt><trkpt lat="41.5482267" lon="13.05672"><ele>662.7142857142857</ele><time>2026-04-18T09:02:30.321Z</time></trkpt><trkpt lat="41.5482333" lon="13.056805"><ele>663.0</ele><time>2026-04-18T09:02:33.321Z</time></trkpt><trkpt lat="41.5482517" lon="13.0568883"><ele>662.9999999999999</ele><time>2026-04-18T09:02:36.322Z</time></trkpt><trkpt lat="41.5482867" lon="13.05696"><ele>663.0</ele><time>2026-04-18T09:02:39.321Z</time></trkpt><trkpt lat="41.5483617" lon="13.0569917"><ele>663.0</ele><time>2026-04-18T09:02:43.322Z</time></trkpt><trkpt lat="41.548425" lon="13.0569717"><ele>663.0</ele><time>2026-04-18T09:02:46.322Z</time></trkpt><trkpt lat="41.54848" lon="13.0569033"><ele>663.0</ele><time>2026-04-18T09:02:50.321Z</time></trkpt><trkpt lat="41.5484983" lon="13.0568183"><ele>662.9999999999999</ele><time>2026-04-18T09:02:53.322Z</time></trkpt><trkpt lat="41.548495" lon="13.0567333"><ele>663.0</ele><time>2026-04-18T09:02:56.321Z</time></trkpt><trkpt lat="41.5484817" lon="13.05664"><ele>663.5714285714286</ele><time>2026-04-18T09:03:00.321Z</time></trkpt><trkpt lat="41.5484667" lon="13.0565567"><ele>664.1428571428571</ele><time>2026-04-18T09:03:03.321Z</time></trkpt><trkpt lat="41.548465" lon="13.0564517"><ele>664.7142857142858</ele><time>2026-04-18T09:03:07.322Z</time></trkpt><trkpt lat="41.5484533" lon="13.0563583"><ele>665.2857142857142</ele><time>2026-04-18T09:03:11.322Z</time></trkpt><trkpt lat="41.54844" lon="13.05626"><ele>665.8571428571429</ele><time>2026-04-18T09:03:15.321Z</time></trkpt><trkpt lat="41.5484367" lon="13.0561717"><ele>666.4285714285714</ele><time>2026-04-18T09:03:19.322Z</time></trkpt><trkpt lat="41.5484433" lon="13.0560783"><ele>667.0</ele><time>2026-04-18T09:03:23.321Z</time></trkpt><trkpt lat="41.5484533" lon="13.0559933"><ele>667.0</ele><time>2026-04-18T09:03:26.321Z</time></trkpt><trkpt lat="41.5484717" lon="13.0558833"><ele>667.0</ele><time>2026-04-18T09:03:30.321Z</time></trkpt><trkpt lat="41.548505" lon="13.05579"><ele>667.0</ele><time>2026-04-18T09:03:34.322Z</time></trkpt><trkpt lat="41.5485283" lon="13.05569"><ele>667.0</ele><time>2026-04-18T09:03:38.321Z</time></trkpt><trkpt lat="41.5485683" lon="13.055615"><ele>667.0</ele><time>2026-04-18T09:03:42.321Z</time></trkpt><trkpt lat="41.5486267" lon="13.055555"><ele>667.0</ele><time>2026-04-18T09:03:47.321Z</time></trkpt><trkpt lat="41.548675" lon="13.05548"><ele>666.3333333333334</ele><time>2026-04-18T09:03:52.322Z</time></trkpt><trkpt lat="41.5487117" lon="13.0553933"><ele>665.6666666666667</ele><time>2026-04-18T09:03:57.322Z</time></trkpt><trkpt lat="41.54875" lon="13.0553033"><ele>665.0</ele><time>2026-04-18T09:04:02.322Z</time></trkpt><trkpt lat="41.5487867" lon="13.0552233"><ele>664.3333333333334</ele><time>2026-04-18T09:04:05.322Z</time></trkpt><trkpt lat="41.5488333" lon="13.0551467"><ele>663.6666666666666</ele><time>2026-04-18T09:04:08.322Z</time></trkpt><trkpt lat="41.5488667" lon="13.0550333"><ele>663.0</ele><time>2026-04-18T09:04:12.321Z</time></trkpt><trkpt lat="41.54889" lon="13.0549417"><ele>662.9999999999999</ele><time>2026-04-18T09:04:15.322Z</time></trkpt><trkpt lat="41.5489367" lon="13.0548517"><ele>663.0</ele><time>2026-04-18T09:04:19.323Z</time></trkpt><trkpt lat="41.5490133" lon="13.0548467"><ele>663.0</ele><time>2026-04-18T09:04:24.322Z</time></trkpt><trkpt lat="41.5490667" lon="13.0548983"><ele>663.0</ele><time>2026-04-18T09:04:29.322Z</time></trkpt><trkpt lat="41.5490567" lon="13.0549917"><ele>663.0</ele><time>2026-04-18T09:04:34.322Z</time></trkpt><trkpt lat="41.54901" lon="13.055065"><ele>662.9999999999999</ele><time>2026-04-18T09:04:38.321Z</time></trkpt><trkpt lat="41.54897" lon="13.0551433"><ele>663.0</ele><time>2026-04-18T09:04:42.321Z</time></trkpt><trkpt lat="41.548935" lon="13.05523"><ele>666.8333333333334</ele><time>2026-04-18T09:04:47.32Z</time></trkpt><trkpt lat="41.54889" lon="13.0553167"><ele>670.6666666666666</ele><time>2026-04-18T09:04:52.32Z</time></trkpt><trkpt lat="41.5488683" lon="13.0554283"><ele>674.5</ele><time>2026-04-18T09:04:56.322Z</time></trkpt><trkpt lat="41.548845" lon="13.05551"><ele>678.3333333333333</ele><time>2026-04-18T09:04:59.321Z</time></trkpt><trkpt lat="41.5488167" lon="13.055595"><ele>682.1666666666666</ele><time>2026-04-18T09:05:03.322Z</time></trkpt><trkpt lat="41.548795" lon="13.0557067"><ele>686.0</ele><time>2026-04-18T09:05:07.322Z</time></trkpt><trkpt lat="41.548785" lon="13.0558017"><ele>687.4285714285714</ele><time>2026-04-18T09:05:10.321Z</time></trkpt><trkpt lat="41.54878" lon="13.0559033"><ele>688.8571428571429</ele><time>2026-04-18T09:05:13.324Z</time></trkpt><trkpt lat="41.5487767" lon="13.0559933"><ele>690.2857142857142</ele><time>2026-04-18T09:05:16.32Z</time></trkpt><trkpt lat="41.5487917" lon="13.056085"><ele>691.7142857142858</ele><time>2026-04-18T09:05:19.322Z</time></trkpt><trkpt lat="41.5488083" lon="13.0561917"><ele>693.1428571428571</ele><time>2026-04-18T09:05:23.321Z</time></trkpt><trkpt lat="41.5488333" lon="13.05629"><ele>694.5714285714286</ele><time>2026-04-18T09:05:26.321Z</time></trkpt><trkpt lat="41.5488633" lon="13.0563717"><ele>696.0</ele><time>2026-04-18T09:05:29.321Z</time></trkpt><trkpt lat="41.5488933" lon="13.0564767"><ele>696.0</ele><time>2026-04-18T09:05:33.321Z</time></trkpt><trkpt lat="41.548935" lon="13.056565"><ele>696.0</ele><time>2026-04-18T09:05:37.322Z</time></trkpt><trkpt lat="41.5489633" lon="13.0566417"><ele>696.0</ele><time>2026-04-18T09:05:40.32Z</time></trkpt><trkpt lat="41.549" lon="13.0567167"><ele>696.0</ele><time>2026-04-18T09:05:43.32Z</time></trkpt><trkpt lat="41.5490333" lon="13.0568017"><ele>696.0</ele><time>2026-04-18T09:05:46.321Z</time></trkpt><trkpt lat="41.5490783" lon="13.0568933"><ele>696.0</ele><time>2026-04-18T09:05:50.32Z</time></trkpt><trkpt lat="41.5490983" lon="13.056975"><ele>696.0</ele><time>2026-04-18T09:05:53.321Z</time></trkpt><trkpt lat="41.5491333" lon="13.0570567"><ele>696.0</ele><time>2026-04-18T09:05:57.323Z</time></trkpt><trkpt lat="41.5491583" lon="13.057145"><ele>696.0</ele><time>2026-04-18T09:06:01.323Z</time></trkpt><trkpt lat="41.54919" lon="13.0572267"><ele>696.0</ele><time>2026-04-18T09:06:05.323Z</time></trkpt><trkpt lat="41.54922" lon="13.0573033"><ele>696.0</ele><time>2026-04-18T09:06:08.322Z</time></trkpt><trkpt lat="41.5492467" lon="13.0574"><ele>696.0</ele><time>2026-04-18T09:06:12.323Z</time></trkpt><trkpt lat="41.5492833" lon="13.05749"><ele>696.0</ele><time>2026-04-18T09:06:17.323Z</time></trkpt><trkpt lat="41.5493217" lon="13.0575767"><ele>696.0</ele><time>2026-04-18T09:06:21.324Z</time></trkpt><trkpt lat="41.5493917" lon="13.0576067"><ele>696.0</ele><time>2026-04-18T09:06:25.321Z</time></trkpt><trkpt lat="41.5494567" lon="13.0575567"><ele>696.0</ele><time>2026-04-18T09:06:29.322Z</time></trkpt><trkpt lat="41.54948" lon="13.0574467"><ele>696.0</ele><time>2026-04-18T09:06:33.323Z</time></trkpt><trkpt lat="41.54948" lon="13.0573617"><ele>696.0</ele><time>2026-04-18T09:06:36.322Z</time></trkpt><trkpt lat="41.54947" lon="13.0572667"><ele>696.0</ele><time>2026-04-18T09:06:39.322Z</time></trkpt><trkpt lat="41.5494517" lon="13.057185"><ele>696.0</ele><time>2026-04-18T09:06:42.323Z</time></trkpt><trkpt lat="41.5494083" lon="13.057085"><ele>696.0</ele><time>2026-04-18T09:06:46.324Z</time></trkpt><trkpt lat="41.5493817" lon="13.0569833"><ele>696.0</ele><time>2026-04-18T09:06:50.324Z</time></trkpt><trkpt lat="41.5493617" lon="13.0569017"><ele>696.0</ele><time>2026-04-18T09:06:53.323Z</time></trkpt><trkpt lat="41.549335" lon="13.0567983"><ele>696.0</ele><time>2026-04-18T09:06:57.323Z</time></trkpt><trkpt lat="41.5493167" lon="13.0566983"><ele>696.0</ele><time>2026-04-18T09:07:01.323Z</time></trkpt><trkpt lat="41.549305" lon="13.0566133"><ele>696.0</ele><time>2026-04-18T09:07:04.322Z</time></trkpt><trkpt lat="41.5492833" lon="13.056525"><ele>696.0</ele><time>2026-04-18T09:07:08.322Z</time></trkpt><trkpt lat="41.5492783" lon="13.0564383"><ele>696.0</ele><time>2026-04-18T09:07:12.322Z</time></trkpt><trkpt lat="41.549305" lon="13.05635"><ele>696.0</ele><time>2026-04-18T09:07:17.322Z</time></trkpt><trkpt lat="41.5493367" lon="13.056265"><ele>696.0</ele><time>2026-04-18T09:07:21.323Z</time></trkpt><trkpt lat="41.549375" lon="13.0561917"><ele>696.0</ele><time>2026-04-18T09:07:26.322Z</time></trkpt><trkpt lat="41.5494133" lon="13.0561017"><ele>696.0</ele><time>2026-04-18T09:07:31.323Z</time></trkpt><trkpt lat="41.5494567" lon="13.056025"><ele>696.0</ele><time>2026-04-18T09:07:35.322Z</time></trkpt><trkpt lat="41.5495" lon="13.0559617"><ele>696.0</ele><time>2026-04-18T09:07:38.323Z</time></trkpt><trkpt lat="41.54955" lon="13.0559033"><ele>696.0</ele><time>2026-04-18T09:07:42.321Z</time></trkpt><trkpt lat="41.5496017" lon="13.0558417"><ele>696.5714285714286</ele><time>2026-04-18T09:07:46.321Z</time></trkpt><trkpt lat="41.5496633" lon="13.055785"><ele>697.1428571428571</ele><time>2026-04-18T09:07:52.322Z</time></trkpt><trkpt lat="41.5497233" lon="13.0557467"><ele>697.7142857142858</ele><time>2026-04-18T09:07:58.32Z</time></trkpt><trkpt lat="41.5497917" lon="13.0557283"><ele>698.2857142857142</ele><time>2026-04-18T09:08:02.323Z</time></trkpt><trkpt lat="41.549865" lon="13.0556933"><ele>698.8571428571429</ele><time>2026-04-18T09:08:06.322Z</time></trkpt><trkpt lat="41.5499283" lon="13.0556617"><ele>699.4285714285714</ele><time>2026-04-18T09:08:10.321Z</time></trkpt><trkpt lat="41.5500017" lon="13.05564"><ele>700.0</ele><time>2026-04-18T09:08:15.321Z</time></trkpt><trkpt lat="41.5500733" lon="13.0556033"><ele>700.0</ele><time>2026-04-18T09:08:19.321Z</time></trkpt><trkpt lat="41.5501483" lon="13.0555883"><ele>700.0</ele><time>2026-04-18T09:08:22.32Z</time></trkpt><trkpt lat="41.55021" lon="13.055565"><ele>700.0</ele><time>2026-04-18T09:08:25.321Z</time></trkpt><trkpt lat="41.5502733" lon="13.05555"><ele>700.0</ele><time>2026-04-18T09:08:28.321Z</time></trkpt><trkpt lat="41.5503417" lon="13.05553"><ele>700.0</ele><time>2026-04-18T09:08:31.328Z</time></trkpt><trkpt lat="41.550405" lon="13.0555267"><ele>700.0</ele><time>2026-04-18T09:08:34.321Z</time></trkpt><trkpt lat="41.55048" lon="13.0555233"><ele>700.0</ele><time>2026-04-18T09:08:39.322Z</time></trkpt><trkpt lat="41.550555" lon="13.0555217"><ele>701.0</ele><time>2026-04-18T09:08:45.321Z</time></trkpt><trkpt lat="41.5506367" lon="13.0555267"><ele>702.0</ele><time>2026-04-18T09:08:50.322Z</time></trkpt><trkpt lat="41.5507033" lon="13.0555517"><ele>703.0</ele><time>2026-04-18T09:08:54.322Z</time></trkpt><trkpt lat="41.5507767" lon="13.0555717"><ele>704.0</ele><time>2026-04-18T09:08:58.321Z</time></trkpt><trkpt lat="41.5508483" lon="13.0555867"><ele>705.0</ele><time>2026-04-18T09:09:02.322Z</time></trkpt><trkpt lat="41.5509233" lon="13.0555917"><ele>706.0</ele><time>2026-04-18T09:09:08.323Z</time></trkpt><trkpt lat="41.5509883" lon="13.05559"><ele>707.0</ele><time>2026-04-18T09:09:12.322Z</time></trkpt><trkpt lat="41.5510667" lon="13.0555917"><ele>707.0</ele><time>2026-04-18T09:09:17.323Z</time></trkpt><trkpt lat="41.55114" lon="13.0556033"><ele>707.0</ele><time>2026-04-18T09:09:21.321Z</time></trkpt><trkpt lat="41.5512117" lon="13.0556133"><ele>707.0</ele><time>2026-04-18T09:09:25.321Z</time></trkpt><trkpt lat="41.5512883" lon="13.0556367"><ele>707.0</ele><time>2026-04-18T09:09:29.322Z</time></trkpt><trkpt lat="41.5513517" lon="13.05564"><ele>707.0</ele><time>2026-04-18T09:09:32.322Z</time></trkpt><trkpt lat="41.551415" lon="13.05564"><ele>707.0</ele><time>2026-04-18T09:09:35.322Z</time></trkpt><trkpt lat="41.551485" lon="13.0556483"><ele>707.0</ele><time>2026-04-18T09:09:39.322Z</time></trkpt><trkpt lat="41.55155" lon="13.0556617"><ele>708.0</ele><time>2026-04-18T09:09:43.323Z</time></trkpt><trkpt lat="41.551615" lon="13.0556633"><ele>709.0</ele><time>2026-04-18T09:09:47.322Z</time></trkpt><trkpt lat="41.55169" lon="13.055695"><ele>710.0</ele><time>2026-04-18T09:09:52.323Z</time></trkpt><trkpt lat="41.5517617" lon="13.055705"><ele>711.0</ele><time>2026-04-18T09:09:56.32Z</time></trkpt><trkpt lat="41.55183" lon="13.0557017"><ele>712.0</ele><time>2026-04-18T09:10:00.323Z</time></trkpt><trkpt lat="41.5518967" lon="13.0557183"><ele>713.0</ele><time>2026-04-18T09:10:04.321Z</time></trkpt><trkpt lat="41.551965" lon="13.0557383"><ele>714.0</ele><time>2026-04-18T09:10:08.321Z</time></trkpt><trkpt lat="41.55205" lon="13.0557417"><ele>714.0</ele><time>2026-04-18T09:10:12.321Z</time></trkpt><trkpt lat="41.5521233" lon="13.0557667"><ele>714.0</ele><time>2026-04-18T09:10:16.322Z</time></trkpt><trkpt lat="41.5521867" lon="13.0557767"><ele>714.0</ele><time>2026-04-18T09:10:20.323Z</time></trkpt><trkpt lat="41.5522667" lon="13.0557833"><ele>714.0</ele><time>2026-04-18T09:10:24.323Z</time></trkpt><trkpt lat="41.5523417" lon="13.0558033"><ele>714.0</ele><time>2026-04-18T09:10:28.321Z</time></trkpt><trkpt lat="41.5524167" lon="13.055815"><ele>714.0</ele><time>2026-04-18T09:10:33.322Z</time></trkpt><trkpt lat="41.552485" lon="13.0558467"><ele>714.0</ele><time>2026-04-18T09:10:37.322Z</time></trkpt><trkpt lat="41.552545" lon="13.0558817"><ele>717.8571428571429</ele><time>2026-04-18T09:10:41.321Z</time></trkpt><trkpt lat="41.5526083" lon="13.05591"><ele>721.7142857142858</ele><time>2026-04-18T09:10:46.322Z</time></trkpt><trkpt lat="41.552685" lon="13.0559133"><ele>725.5714285714286</ele><time>2026-04-18T09:10:50.321Z</time></trkpt><trkpt lat="41.55275" lon="13.05592"><ele>729.4285714285714</ele><time>2026-04-18T09:10:54.321Z</time></trkpt><trkpt lat="41.5528267" lon="13.05595"><ele>733.2857142857143</ele><time>2026-04-18T09:10:58.322Z</time></trkpt><trkpt lat="41.5528933" lon="13.0559933"><ele>737.1428571428571</ele><time>2026-04-18T09:11:02.322Z</time></trkpt><trkpt lat="41.552955" lon="13.0560467"><ele>741.0</ele><time>2026-04-18T09:11:06.322Z</time></trkpt><trkpt lat="41.55302" lon="13.0560533"><ele>741.1428571428571</ele><time>2026-04-18T09:11:09.323Z</time></trkpt><trkpt lat="41.5530833" lon="13.0560483"><ele>741.2857142857143</ele><time>2026-04-18T09:11:12.322Z</time></trkpt><trkpt lat="41.55315" lon="13.0560433"><ele>741.4285714285714</ele><time>2026-04-18T09:11:15.322Z</time></trkpt><trkpt lat="41.5532283" lon="13.056065"><ele>741.5714285714286</ele><time>2026-04-18T09:11:19.321Z</time></trkpt><trkpt lat="41.5533" lon="13.0560867"><ele>741.7142857142858</ele><time>2026-04-18T09:11:23.322Z</time></trkpt><trkpt lat="41.5533717" lon="13.0561417"><ele>741.8571428571429</ele><time>2026-04-18T09:11:27.321Z</time></trkpt><trkpt lat="41.553445" lon="13.05618"><ele>742.0</ele><time>2026-04-18T09:11:31.322Z</time></trkpt><trkpt lat="41.5535167" lon="13.056165"><ele>742.0</ele><time>2026-04-18T09:11:35.323Z</time></trkpt><trkpt lat="41.5535967" lon="13.05615"><ele>742.0</ele><time>2026-04-18T09:11:39.321Z</time></trkpt><trkpt lat="41.5536833" lon="13.056165"><ele>742.0</ele><time>2026-04-18T09:11:43.322Z</time></trkpt><trkpt lat="41.5537533" lon="13.056165"><ele>742.0</ele><time>2026-04-18T09:11:46.322Z</time></trkpt><trkpt lat="41.55382" lon="13.05615"><ele>742.0</ele><time>2026-04-18T09:11:49.321Z</time></trkpt><trkpt lat="41.5538867" lon="13.056145"><ele>742.0</ele><time>2026-04-18T09:11:53.321Z</time></trkpt><trkpt lat="41.553955" lon="13.0561633"><ele>742.0</ele><time>2026-04-18T09:11:57.322Z</time></trkpt><trkpt lat="41.5540183" lon="13.056225"><ele>741.8571428571429</ele><time>2026-04-18T09:12:02.321Z</time></trkpt><trkpt lat="41.554085" lon="13.05627"><ele>741.7142857142858</ele><time>2026-04-18T09:12:07.321Z</time></trkpt><trkpt lat="41.5541367" lon="13.0563267"><ele>741.5714285714286</ele><time>2026-04-18T09:12:11.321Z</time></trkpt><trkpt lat="41.5541983" lon="13.0563567"><ele>741.4285714285714</ele><time>2026-04-18T09:12:15.322Z</time></trkpt><trkpt lat="41.5542533" lon="13.0564167"><ele>741.2857142857143</ele><time>2026-04-18T09:12:20.322Z</time></trkpt><trkpt lat="41.5543083" lon="13.0564617"><ele>741.1428571428571</ele><time>2026-04-18T09:12:24.32Z</time></trkpt><trkpt lat="41.554375" lon="13.0565117"><ele>741.0</ele><time>2026-04-18T09:12:28.322Z</time></trkpt><trkpt lat="41.5544483" lon="13.05655"><ele>741.0</ele><time>2026-04-18T09:12:32.323Z</time></trkpt><trkpt lat="41.5545117" lon="13.0565767"><ele>741.0</ele><time>2026-04-18T09:12:36.32Z</time></trkpt><trkpt lat="41.5545683" lon="13.0566217"><ele>741.0</ele><time>2026-04-18T09:12:40.322Z</time></trkpt><trkpt lat="41.554635" lon="13.0566617"><ele>741.0</ele><time>2026-04-18T09:12:45.321Z</time></trkpt><trkpt lat="41.5546983" lon="13.0567017"><ele>741.0</ele><time>2026-04-18T09:12:49.321Z</time></trkpt><trkpt lat="41.5547467" lon="13.0567583"><ele>741.0</ele><time>2026-04-18T09:12:53.32Z</time></trkpt><trkpt lat="41.5548167" lon="13.0568"><ele>741.0</ele><time>2026-04-18T09:12:57.322Z</time></trkpt><trkpt lat="41.5548733" lon="13.0568567"><ele>744.5714285714286</ele><time>2026-04-18T09:13:01.321Z</time></trkpt><trkpt lat="41.5549333" lon="13.0569183"><ele>748.1428571428572</ele><time>2026-04-18T09:13:05.321Z</time></trkpt><trkpt lat="41.5549767" lon="13.056985"><ele>751.7142857142858</ele><time>2026-04-18T09:13:09.322Z</time></trkpt><trkpt lat="41.5550167" lon="13.0570733"><ele>755.2857142857142</ele><time>2026-04-18T09:13:14.321Z</time></trkpt><trkpt lat="41.5550683" lon="13.0571283"><ele>758.8571428571429</ele><time>2026-04-18T09:13:18.321Z</time></trkpt><trkpt lat="41.5551217" lon="13.0571983"><ele>762.4285714285714</ele><time>2026-04-18T09:13:23.322Z</time></trkpt><trkpt lat="41.55516" lon="13.0572867"><ele>766.0</ele><time>2026-04-18T09:13:28.322Z</time></trkpt><trkpt lat="41.555195" lon="13.05736"><ele>766.0</ele><time>2026-04-18T09:13:32.321Z</time></trkpt><trkpt lat="41.555235" lon="13.0574283"><ele>766.0</ele><time>2026-04-18T09:13:36.322Z</time></trkpt><trkpt lat="41.5552733" lon="13.0575167"><ele>766.0</ele><time>2026-04-18T09:13:41.321Z</time></trkpt><trkpt lat="41.555335" lon="13.0575467"><ele>766.0</ele><time>2026-04-18T09:13:45.322Z</time></trkpt><trkpt lat="41.5553967" lon="13.0575183"><ele>766.0</ele><time>2026-04-18T09:13:48.322Z</time></trkpt><trkpt lat="41.5554583" lon="13.0574767"><ele>766.0</ele><time>2026-04-18T09:13:52.322Z</time></trkpt><trkpt lat="41.5554917" lon="13.057405"><ele>766.0</ele><time>2026-04-18T09:13:56.32Z</time></trkpt><trkpt lat="41.5555183" lon="13.0573067"><ele>769.2857142857142</ele><time>2026-04-18T09:14:00.321Z</time></trkpt><trkpt lat="41.555525" lon="13.0572133"><ele>772.5714285714286</ele><time>2026-04-18T09:14:04.323Z</time></trkpt><trkpt lat="41.5555333" lon="13.0571"><ele>775.8571428571429</ele><time>2026-04-18T09:14:07.322Z</time></trkpt><trkpt lat="41.5555333" lon="13.0570033"><ele>779.1428571428571</ele><time>2026-04-18T09:14:10.322Z</time></trkpt><trkpt lat="41.5555383" lon="13.0569133"><ele>782.4285714285714</ele><time>2026-04-18T09:14:13.32Z</time></trkpt><trkpt lat="41.55555" lon="13.0568033"><ele>785.7142857142857</ele><time>2026-04-18T09:14:17.321Z</time></trkpt><trkpt lat="41.55555" lon="13.0567167"><ele>789.0</ele><time>2026-04-18T09:14:20.321Z</time></trkpt><trkpt lat="41.55556" lon="13.05663"><ele>789.3333333333334</ele><time>2026-04-18T09:14:23.32Z</time></trkpt><trkpt lat="41.5555783" lon="13.0565217"><ele>789.6666666666667</ele><time>2026-04-18T09:14:28.323Z</time></trkpt><trkpt lat="41.5555783" lon="13.0564"><ele>790.0</ele><time>2026-04-18T09:14:31.322Z</time></trkpt><trkpt lat="41.55558" lon="13.0562783"><ele>790.3333333333334</ele><time>2026-04-18T09:14:34.323Z</time></trkpt><trkpt lat="41.55557" lon="13.05619"><ele>790.6666666666667</ele><time>2026-04-18T09:14:37.323Z</time></trkpt><trkpt lat="41.55556" lon="13.056105"><ele>791.0</ele><time>2026-04-18T09:14:40.323Z</time></trkpt><trkpt lat="41.5555533" lon="13.0560067"><ele>791.0</ele><time>2026-04-18T09:14:44.324Z</time></trkpt><trkpt lat="41.5555217" lon="13.0559233"><ele>791.0</ele><time>2026-04-18T09:14:48.322Z</time></trkpt><trkpt lat="41.5555017" lon="13.055825"><ele>791.0</ele><time>2026-04-18T09:14:52.322Z</time></trkpt><trkpt lat="41.55548" lon="13.0557383"><ele>791.0</ele><time>2026-04-18T09:14:55.321Z</time></trkpt><trkpt lat="41.5554583" lon="13.0556467"><ele>791.0</ele><time>2026-04-18T09:14:58.322Z</time></trkpt><trkpt lat="41.5554417" lon="13.05556"><ele>791.0</ele><time>2026-04-18T09:15:01.322Z</time></trkpt><trkpt lat="41.5554333" lon="13.0554633"><ele>791.0</ele><time>2026-04-18T09:15:04.321Z</time></trkpt><trkpt lat="41.555435" lon="13.0553683"><ele>792.0</ele><time>2026-04-18T09:15:07.321Z</time></trkpt><trkpt lat="41.5554283" lon="13.055265"><ele>793.0</ele><time>2026-04-18T09:15:11.322Z</time></trkpt><trkpt lat="41.5554183" lon="13.0551767"><ele>794.0</ele><time>2026-04-18T09:15:15.322Z</time></trkpt><trkpt lat="41.555395" lon="13.0550683"><ele>795.0</ele><time>2026-04-18T09:15:19.322Z</time></trkpt><trkpt lat="41.5553767" lon="13.0549833"><ele>796.0</ele><time>2026-04-18T09:15:22.322Z</time></trkpt><trkpt lat="41.5553583" lon="13.0548783"><ele>797.0</ele><time>2026-04-18T09:15:26.322Z</time></trkpt><trkpt lat="41.55534" lon="13.0547833"><ele>798.0</ele><time>2026-04-18T09:15:30.321Z</time></trkpt><trkpt lat="41.5553117" lon="13.0546883"><ele>793.7142857142857</ele><time>2026-04-18T09:15:34.321Z</time></trkpt><trkpt lat="41.5552783" lon="13.0545933"><ele>789.4285714285714</ele><time>2026-04-18T09:15:38.321Z</time></trkpt><trkpt lat="41.555255" lon="13.05449"><ele>785.1428571428571</ele><time>2026-04-18T09:15:42.322Z</time></trkpt><trkpt lat="41.555245" lon="13.0544"><ele>780.8571428571429</ele><time>2026-04-18T09:15:46.321Z</time></trkpt><trkpt lat="41.5552533" lon="13.0543067"><ele>776.5714285714286</ele><time>2026-04-18T09:15:50.321Z</time></trkpt><trkpt lat="41.55525" lon="13.0542217"><ele>772.2857142857142</ele><time>2026-04-18T09:15:53.322Z</time></trkpt><trkpt lat="41.5552317" lon="13.0541317"><ele>768.0</ele><time>2026-04-18T09:15:57.323Z</time></trkpt><trkpt lat="41.5552167" lon="13.054045"><ele>767.9999999999999</ele><time>2026-04-18T09:16:00.323Z</time></trkpt><trkpt lat="41.5551833" lon="13.0539467"><ele>768.0</ele><time>2026-04-18T09:16:04.322Z</time></trkpt><trkpt lat="41.5551483" lon="13.05386"><ele>768.0</ele><time>2026-04-18T09:16:09.322Z</time></trkpt><trkpt lat="41.555125" lon="13.05376"><ele>768.0</ele><time>2026-04-18T09:16:14.322Z</time></trkpt><trkpt lat="41.55514" lon="13.0536667"><ele>768.0</ele><time>2026-04-18T09:16:19.322Z</time></trkpt><trkpt lat="41.555195" lon="13.05362"><ele>767.9999999999999</ele><time>2026-04-18T09:16:26.321Z</time></trkpt><trkpt lat="41.555245" lon="13.0536817"><ele>768.0</ele><time>2026-04-18T09:16:31.322Z</time></trkpt><trkpt lat="41.55528" lon="13.053755"><ele>767.9999999999999</ele><time>2026-04-18T09:16:35.324Z</time></trkpt><trkpt lat="41.5552917" lon="13.0538533"><ele>768.0</ele><time>2026-04-18T09:16:40.322Z</time></trkpt><trkpt lat="41.555305" lon="13.0539583"><ele>768.0</ele><time>2026-04-18T09:16:45.323Z</time></trkpt><trkpt lat="41.5553283" lon="13.0540383"><ele>768.0</ele><time>2026-04-18T09:16:49.321Z</time></trkpt><trkpt lat="41.5553467" lon="13.0541317"><ele>768.0</ele><time>2026-04-18T09:16:54.321Z</time></trkpt><trkpt lat="41.55537" lon="13.0542317"><ele>767.9999999999999</ele><time>2026-04-18T09:16:59.322Z</time></trkpt><trkpt lat="41.5553817" lon="13.0543317"><ele>768.0</ele><time>2026-04-18T09:17:04.321Z</time></trkpt><trkpt lat="41.5554017" lon="13.054415"><ele>771.7142857142857</ele><time>2026-04-18T09:17:08.322Z</time></trkpt><trkpt lat="41.5554283" lon="13.0544933"><ele>775.4285714285714</ele><time>2026-04-18T09:17:12.322Z</time></trkpt><trkpt lat="41.5554567" lon="13.0545783"><ele>779.1428571428571</ele><time>2026-04-18T09:17:16.322Z</time></trkpt><trkpt lat="41.5554917" lon="13.0546767"><ele>782.8571428571429</ele><time>2026-04-18T09:17:20.321Z</time></trkpt><trkpt lat="41.5555183" lon="13.0547733"><ele>786.5714285714286</ele><time>2026-04-18T09:17:25.321Z</time></trkpt><trkpt lat="41.55555" lon="13.0548617"><ele>790.2857142857142</ele><time>2026-04-18T09:17:29.322Z</time></trkpt><trkpt lat="41.5555733" lon="13.0549483"><ele>794.0</ele><time>2026-04-18T09:17:33.322Z</time></trkpt><trkpt lat="41.5556" lon="13.055035"><ele>794.5714285714286</ele><time>2026-04-18T09:17:38.322Z</time></trkpt><trkpt lat="41.555625" lon="13.0551283"><ele>795.1428571428571</ele><time>2026-04-18T09:17:42.321Z</time></trkpt><trkpt lat="41.5556483" lon="13.0552183"><ele>795.7142857142858</ele><time>2026-04-18T09:17:46.323Z</time></trkpt><trkpt lat="41.55567" lon="13.055315"><ele>796.2857142857142</ele><time>2026-04-18T09:17:50.32Z</time></trkpt><trkpt lat="41.555685" lon="13.05541"><ele>796.8571428571429</ele><time>2026-04-18T09:17:54.322Z</time></trkpt><trkpt lat="41.5557" lon="13.05551"><ele>797.4285714285714</ele><time>2026-04-18T09:17:59.322Z</time></trkpt><trkpt lat="41.555705" lon="13.0555983"><ele>798.0</ele><time>2026-04-18T09:18:03.322Z</time></trkpt><trkpt lat="41.555695" lon="13.0556817"><ele>798.0</ele><time>2026-04-18T09:18:07.323Z</time></trkpt><trkpt lat="41.55572" lon="13.05578"><ele>798.0</ele><time>2026-04-18T09:18:12.32Z</time></trkpt><trkpt lat="41.5557383" lon="13.05587"><ele>798.0</ele><time>2026-04-18T09:18:16.321Z</time></trkpt><trkpt lat="41.55578" lon="13.0559667"><ele>798.0</ele><time>2026-04-18T09:18:20.321Z</time></trkpt><trkpt lat="41.5558183" lon="13.0560467"><ele>798.0</ele><time>2026-04-18T09:18:23.321Z</time></trkpt><trkpt lat="41.5558433" lon="13.0561383"><ele>798.0</ele><time>2026-04-18T09:18:27.321Z</time></trkpt><trkpt lat="41.5558733" lon="13.0562383"><ele>796.8333333333334</ele><time>2026-04-18T09:18:31.321Z</time></trkpt><trkpt lat="41.55591" lon="13.0563333"><ele>795.6666666666667</ele><time>2026-04-18T09:18:35.322Z</time></trkpt><trkpt lat="41.5559233" lon="13.0564433"><ele>794.5</ele><time>2026-04-18T09:18:39.321Z</time></trkpt><trkpt lat="41.555995" lon="13.0566033"><ele>793.3333333333334</ele><time>2026-04-18T09:19:25.323Z</time></trkpt><trkpt lat="41.5559933" lon="13.0566983"><ele>792.1666666666667</ele><time>2026-04-18T09:19:29.32Z</time></trkpt><trkpt lat="41.5560017" lon="13.0567917"><ele>791.0</ele><time>2026-04-18T09:19:34.32Z</time></trkpt><trkpt lat="41.5560217" lon="13.0568817"><ele>790.7142857142857</ele><time>2026-04-18T09:19:38.322Z</time></trkpt><trkpt lat="41.5560433" lon="13.0569617"><ele>790.4285714285714</ele><time>2026-04-18T09:19:42.321Z</time></trkpt><trkpt lat="41.5560517" lon="13.0570583"><ele>790.1428571428571</ele><time>2026-04-18T09:19:47.322Z</time></trkpt><trkpt lat="41.5560567" lon="13.057155"><ele>789.8571428571429</ele><time>2026-04-18T09:19:51.321Z</time></trkpt><trkpt lat="41.5560733" lon="13.0572617"><ele>789.5714285714286</ele><time>2026-04-18T09:19:55.321Z</time></trkpt><trkpt lat="41.55609" lon="13.0573433"><ele>789.2857142857142</ele><time>2026-04-18T09:19:58.321Z</time></trkpt><trkpt lat="41.556125" lon="13.0574433"><ele>789.0</ele><time>2026-04-18T09:20:03.323Z</time></trkpt><trkpt lat="41.5561583" lon="13.0575283"><ele>788.4285714285713</ele><time>2026-04-18T09:20:07.321Z</time></trkpt><trkpt lat="41.5562017" lon="13.0576083"><ele>787.8571428571429</ele><time>2026-04-18T09:20:12.321Z</time></trkpt><trkpt lat="41.5562333" lon="13.0576917"><ele>787.2857142857142</ele><time>2026-04-18T09:20:16.32Z</time></trkpt><trkpt lat="41.5562767" lon="13.0577533"><ele>786.7142857142857</ele><time>2026-04-18T09:20:19.322Z</time></trkpt><trkpt lat="41.5563233" lon="13.05785"><ele>786.1428571428571</ele><time>2026-04-18T09:20:24.321Z</time></trkpt><trkpt lat="41.5563533" lon="13.057925"><ele>785.5714285714286</ele><time>2026-04-18T09:20:28.322Z</time></trkpt><trkpt lat="41.55641" lon="13.0579833"><ele>785.0</ele><time>2026-04-18T09:20:32.322Z</time></trkpt><trkpt lat="41.55646" lon="13.058035"><ele>788.7142857142858</ele><time>2026-04-18T09:20:36.321Z</time></trkpt><trkpt lat="41.5565033" lon="13.0581"><ele>792.4285714285713</ele><time>2026-04-18T09:20:40.321Z</time></trkpt><trkpt lat="41.5565483" lon="13.0581667"><ele>796.1428571428571</ele><time>2026-04-18T09:20:45.322Z</time></trkpt><trkpt lat="41.556585" lon="13.0582383"><ele>799.8571428571429</ele><time>2026-04-18T09:20:54.322Z</time></trkpt><trkpt lat="41.5566067" lon="13.0583233"><ele>803.5714285714287</ele><time>2026-04-18T09:21:04.322Z</time></trkpt><trkpt lat="41.5565967" lon="13.0584067"><ele>807.2857142857142</ele><time>2026-04-18T09:21:09.322Z</time></trkpt><trkpt lat="41.5566" lon="13.05851"><ele>811.0</ele><time>2026-04-18T09:21:14.322Z</time></trkpt><trkpt lat="41.5566117" lon="13.0586117"><ele>811.0</ele><time>2026-04-18T09:21:18.322Z</time></trkpt><trkpt lat="41.55662" lon="13.0587167"><ele>811.0</ele><time>2026-04-18T09:21:22.321Z</time></trkpt><trkpt lat="41.5566133" lon="13.0588067"><ele>811.0</ele><time>2026-04-18T09:21:26.322Z</time></trkpt><trkpt lat="41.5565917" lon="13.0588883"><ele>811.0</ele><time>2026-04-18T09:21:31.322Z</time></trkpt><trkpt lat="41.5565717" lon="13.058975"><ele>811.0</ele><time>2026-04-18T09:21:36.322Z</time></trkpt><trkpt lat="41.5565633" lon="13.059065"><ele>811.0</ele><time>2026-04-18T09:21:40.322Z</time></trkpt><trkpt lat="41.5565583" lon="13.059165"><ele>811.0</ele><time>2026-04-18T09:21:45.322Z</time></trkpt><trkpt lat="41.556555" lon="13.05926"><ele>812.0</ele><time>2026-04-18T09:21:50.32Z</time></trkpt><trkpt lat="41.5565467" lon="13.0593467"><ele>813.0</ele><time>2026-04-18T09:21:55.322Z</time></trkpt><trkpt lat="41.5565167" lon="13.0594367"><ele>814.0</ele><time>2026-04-18T09:22:01.321Z</time></trkpt><trkpt lat="41.556475" lon="13.0595217"><ele>815.0</ele><time>2026-04-18T09:22:05.322Z</time></trkpt><trkpt lat="41.556435" lon="13.0595883"><ele>816.0</ele><time>2026-04-18T09:22:08.322Z</time></trkpt><trkpt lat="41.5563917" lon="13.0596717"><ele>817.0</ele><time>2026-04-18T09:22:11.321Z</time></trkpt><trkpt lat="41.5563517" lon="13.0597567"><ele>818.0</ele><time>2026-04-18T09:22:16.32Z</time></trkpt><trkpt lat="41.5563033" lon="13.059835"><ele>818.0</ele><time>2026-04-18T09:22:21.321Z</time></trkpt><trkpt lat="41.55624" lon="13.0598883"><ele>818.0</ele><time>2026-04-18T09:22:26.322Z</time></trkpt><trkpt lat="41.5561733" lon="13.0599383"><ele>818.0</ele><time>2026-04-18T09:22:31.322Z</time></trkpt><trkpt lat="41.55613" lon="13.0600033"><ele>818.0</ele><time>2026-04-18T09:22:36.323Z</time></trkpt><trkpt lat="41.5560517" lon="13.0600183"><ele>818.0</ele><time>2026-04-18T09:22:42.323Z</time></trkpt><trkpt lat="41.5559883" lon="13.0600567"><ele>818.0</ele><time>2026-04-18T09:22:47.321Z</time></trkpt><trkpt lat="41.5559233" lon="13.0600917"><ele>818.0</ele><time>2026-04-18T09:22:52.323Z</time></trkpt><trkpt lat="41.55585" lon="13.0601117"><ele>818.0</ele><time>2026-04-18T09:22:58.322Z</time></trkpt><trkpt lat="41.5557867" lon="13.0601483"><ele>818.0</ele><time>2026-04-18T09:23:03.324Z</time></trkpt><trkpt lat="41.5557267" lon="13.0601833"><ele>818.0</ele><time>2026-04-18T09:23:10.322Z</time></trkpt><trkpt lat="41.55567" lon="13.0602383"><ele>818.0</ele><time>2026-04-18T09:23:18.322Z</time></trkpt><trkpt lat="41.555595" lon="13.06022"><ele>818.0</ele><time>2026-04-18T09:23:24.322Z</time></trkpt><trkpt lat="41.55553" lon="13.0602083"><ele>818.0</ele><time>2026-04-18T09:23:29.323Z</time></trkpt><trkpt lat="41.555465" lon="13.06017"><ele>818.0</ele><time>2026-04-18T09:23:33.32Z</time></trkpt><trkpt lat="41.5554" lon="13.0601333"><ele>818.0000000000001</ele><time>2026-04-18T09:23:36.323Z</time></trkpt><trkpt lat="41.555335" lon="13.0600883"><ele>818.0</ele><time>2026-04-18T09:23:39.322Z</time></trkpt><trkpt lat="41.5552617" lon="13.0600317"><ele>818.0</ele><time>2026-04-18T09:23:43.322Z</time></trkpt><trkpt lat="41.5552033" lon="13.0599817"><ele>818.0</ele><time>2026-04-18T09:23:46.32Z</time></trkpt><trkpt lat="41.555145" lon="13.0599333"><ele>818.0000000000001</ele><time>2026-04-18T09:23:49.322Z</time></trkpt><trkpt lat="41.5550783" lon="13.0598833"><ele>818.0</ele><time>2026-04-18T09:23:52.321Z</time></trkpt><trkpt lat="41.5550033" lon="13.059855"><ele>818.0</ele><time>2026-04-18T09:23:55.323Z</time></trkpt><trkpt lat="41.5549333" lon="13.05984"><ele>818.0</ele><time>2026-04-18T09:23:58.322Z</time></trkpt><trkpt lat="41.5548617" lon="13.0598133"><ele>818.0</ele><time>2026-04-18T09:24:02.322Z</time></trkpt><trkpt lat="41.554795" lon="13.05976"><ele>818.0</ele><time>2026-04-18T09:24:06.321Z</time></trkpt><trkpt lat="41.5547467" lon="13.0597033"><ele>818.0</ele><time>2026-04-18T09:24:09.323Z</time></trkpt><trkpt lat="41.554705" lon="13.059635"><ele>818.0</ele><time>2026-04-18T09:24:12.323Z</time></trkpt><trkpt lat="41.5546583" lon="13.0595433"><ele>818.0</ele><time>2026-04-18T09:24:16.323Z</time></trkpt><trkpt lat="41.5546367" lon="13.05945"><ele>818.0</ele><time>2026-04-18T09:24:20.321Z</time></trkpt><trkpt lat="41.5546117" lon="13.0593517"><ele>818.0</ele><time>2026-04-18T09:24:24.322Z</time></trkpt><trkpt lat="41.55458" lon="13.0592483"><ele>818.0</ele><time>2026-04-18T09:24:28.322Z</time></trkpt><trkpt lat="41.55455" lon="13.0591617"><ele>818.0</ele><time>2026-04-18T09:24:31.322Z</time></trkpt><trkpt lat="41.5544967" lon="13.059115"><ele>818.0</ele><time>2026-04-18T09:24:34.322Z</time></trkpt><trkpt lat="41.554425" lon="13.05911"><ele>818.0</ele><time>2026-04-18T09:24:38.322Z</time></trkpt><trkpt lat="41.55436" lon="13.059115"><ele>818.0</ele><time>2026-04-18T09:24:41.322Z</time></trkpt><trkpt lat="41.5542883" lon="13.0591417"><ele>819.4285714285714</ele><time>2026-04-18T09:24:44.323Z</time></trkpt><trkpt lat="41.55422" lon="13.05917"><ele>820.8571428571429</ele><time>2026-04-18T09:24:47.322Z</time></trkpt><trkpt lat="41.554155" lon="13.059225"><ele>822.2857142857143</ele><time>2026-04-18T09:24:51.323Z</time></trkpt><trkpt lat="41.5541067" lon="13.0593033"><ele>823.7142857142858</ele><time>2026-04-18T09:24:56.321Z</time></trkpt><trkpt lat="41.5540867" lon="13.0593833"><ele>825.1428571428571</ele><time>2026-04-18T09:24:59.322Z</time></trkpt><trkpt lat="41.554075" lon="13.0594833"><ele>826.5714285714287</ele><time>2026-04-18T09:25:02.322Z</time></trkpt><trkpt lat="41.5540617" lon="13.05958"><ele>828.0</ele><time>2026-04-18T09:25:05.323Z</time></trkpt><trkpt lat="41.554045" lon="13.0596617"><ele>828.0000000000001</ele><time>2026-04-18T09:25:08.321Z</time></trkpt><trkpt lat="41.5540533" lon="13.0597767"><ele>828.0</ele><time>2026-04-18T09:25:11.322Z</time></trkpt><trkpt lat="41.55406" lon="13.059865"><ele>828.0</ele><time>2026-04-18T09:25:14.321Z</time></trkpt><trkpt lat="41.55409" lon="13.0599683"><ele>828.0</ele><time>2026-04-18T09:25:18.321Z</time></trkpt><trkpt lat="41.554115" lon="13.0600517"><ele>828.0</ele><time>2026-04-18T09:25:21.323Z</time></trkpt><trkpt lat="41.5541283" lon="13.0601383"><ele>828.0000000000001</ele><time>2026-04-18T09:25:24.323Z</time></trkpt><trkpt lat="41.55415" lon="13.06023"><ele>828.0</ele><time>2026-04-18T09:25:27.321Z</time></trkpt><trkpt lat="41.5541833" lon="13.060305"><ele>828.2857142857143</ele><time>2026-04-18T09:25:30.322Z</time></trkpt><trkpt lat="41.5542283" lon="13.060375"><ele>828.5714285714286</ele><time>2026-04-18T09:25:33.323Z</time></trkpt><trkpt lat="41.5542817" lon="13.06042"><ele>828.8571428571429</ele><time>2026-04-18T09:25:36.322Z</time></trkpt><trkpt lat="41.55435" lon="13.0603967"><ele>829.1428571428571</ele><time>2026-04-18T09:25:39.325Z</time></trkpt><trkpt lat="41.554415" lon="13.0603583"><ele>829.4285714285714</ele><time>2026-04-18T09:25:42.322Z</time></trkpt><trkpt lat="41.5544667" lon="13.0602867"><ele>829.7142857142858</ele><time>2026-04-18T09:25:46.322Z</time></trkpt><trkpt lat="41.5545117" lon="13.0602267"><ele>830.0</ele><time>2026-04-18T09:25:49.323Z</time></trkpt><trkpt lat="41.5545617" lon="13.0601683"><ele>830.0</ele><time>2026-04-18T09:25:52.322Z</time></trkpt><trkpt lat="41.5546183" lon="13.0601117"><ele>830.0</ele><time>2026-04-18T09:25:55.323Z</time></trkpt><trkpt lat="41.5546833" lon="13.0600817"><ele>830.0</ele><time>2026-04-18T09:25:59.321Z</time></trkpt><trkpt lat="41.55475" lon="13.060105"><ele>830.0</ele><time>2026-04-18T09:26:03.323Z</time></trkpt><trkpt lat="41.5548067" lon="13.060165"><ele>830.0</ele><time>2026-04-18T09:26:06.323Z</time></trkpt><trkpt lat="41.554865" lon="13.0602367"><ele>830.0</ele><time>2026-04-18T09:26:10.323Z</time></trkpt><trkpt lat="41.55492" lon="13.0603"><ele>830.0</ele><time>2026-04-18T09:26:14.323Z</time></trkpt><trkpt lat="41.554965" lon="13.0603683"><ele>830.0000000000001</ele><time>2026-04-18T09:26:18.322Z</time></trkpt><trkpt lat="41.5550233" lon="13.0604383"><ele>830.0</ele><time>2026-04-18T09:26:23.322Z</time></trkpt><trkpt lat="41.5550783" lon="13.0605067"><ele>830.0</ele><time>2026-04-18T09:26:28.322Z</time></trkpt><trkpt lat="41.555125" lon="13.0605783"><ele>830.0</ele><time>2026-04-18T09:26:33.323Z</time></trkpt><trkpt lat="41.55519" lon="13.06064"><ele>830.0000000000001</ele><time>2026-04-18T09:26:38.321Z</time></trkpt><trkpt lat="41.5552567" lon="13.0606967"><ele>830.0</ele><time>2026-04-18T09:26:42.322Z</time></trkpt><trkpt lat="41.5553083" lon="13.0607567"><ele>831.7142857142858</ele><time>2026-04-18T09:26:46.323Z</time></trkpt><trkpt lat="41.5553767" lon="13.06081"><ele>833.4285714285714</ele><time>2026-04-18T09:26:50.322Z</time></trkpt><trkpt lat="41.55545" lon="13.06085"><ele>835.1428571428571</ele><time>2026-04-18T09:26:54.322Z</time></trkpt><trkpt lat="41.5555133" lon="13.060895"><ele>836.8571428571429</ele><time>2026-04-18T09:26:57.322Z</time></trkpt><trkpt lat="41.5555817" lon="13.0609267"><ele>838.5714285714286</ele><time>2026-04-18T09:27:02.323Z</time></trkpt><trkpt lat="41.5556467" lon="13.0609367"><ele>840.2857142857143</ele><time>2026-04-18T09:27:07.323Z</time></trkpt><trkpt lat="41.55572" lon="13.060955"><ele>842.0</ele><time>2026-04-18T09:27:11.321Z</time></trkpt><trkpt lat="41.55579" lon="13.060965"><ele>842.0000000000001</ele><time>2026-04-18T09:27:14.322Z</time></trkpt><trkpt lat="41.5558567" lon="13.060985"><ele>842.0</ele><time>2026-04-18T09:27:17.322Z</time></trkpt><trkpt lat="41.5559283" lon="13.061005"><ele>842.0</ele><time>2026-04-18T09:27:21.321Z</time></trkpt><trkpt lat="41.5559967" lon="13.0610283"><ele>842.0</ele><time>2026-04-18T09:27:27.323Z</time></trkpt><trkpt lat="41.55607" lon="13.06105"><ele>842.0</ele><time>2026-04-18T09:27:32.32Z</time></trkpt><trkpt lat="41.55614" lon="13.0610233"><ele>842.0000000000001</ele><time>2026-04-18T09:27:37.319Z</time></trkpt><trkpt lat="41.5562183" lon="13.06103"><ele>842.0</ele><time>2026-04-18T09:27:42.321Z</time></trkpt><trkpt lat="41.556295" lon="13.061025"><ele>840.6666666666667</ele><time>2026-04-18T09:27:46.322Z</time></trkpt><trkpt lat="41.556375" lon="13.060985"><ele>839.3333333333334</ele><time>2026-04-18T09:27:50.322Z</time></trkpt><trkpt lat="41.556455" lon="13.0609433"><ele>838.0</ele><time>2026-04-18T09:27:53.32Z</time></trkpt><trkpt lat="41.556515" lon="13.0609083"><ele>836.6666666666667</ele><time>2026-04-18T09:27:56.322Z</time></trkpt><trkpt lat="41.5565917" lon="13.0608567"><ele>835.3333333333334</ele><time>2026-04-18T09:27:59.321Z</time></trkpt><trkpt lat="41.55666" lon="13.06079"><ele>834.0</ele><time>2026-04-18T09:28:03.321Z</time></trkpt><trkpt lat="41.5567283" lon="13.0607283"><ele>834.0</ele><time>2026-04-18T09:28:08.322Z</time></trkpt><trkpt lat="41.5567833" lon="13.060675"><ele>834.0</ele><time>2026-04-18T09:28:12.322Z</time></trkpt><trkpt lat="41.5568383" lon="13.06062"><ele>834.0</ele><time>2026-04-18T09:28:16.321Z</time></trkpt><trkpt lat="41.5569017" lon="13.060565"><ele>834.0</ele><time>2026-04-18T09:28:20.321Z</time></trkpt><trkpt lat="41.5569683" lon="13.0604917"><ele>834.0</ele><time>2026-04-18T09:28:24.322Z</time></trkpt><trkpt lat="41.557015" lon="13.0604317"><ele>834.0</ele><time>2026-04-18T09:28:27.321Z</time></trkpt><trkpt lat="41.5570633" lon="13.0603417"><ele>834.0</ele><time>2026-04-18T09:28:30.321Z</time></trkpt><trkpt lat="41.5571067" lon="13.0602667"><ele>836.6666666666666</ele><time>2026-04-18T09:28:33.322Z</time></trkpt><trkpt lat="41.5571567" lon="13.0601883"><ele>839.3333333333333</ele><time>2026-04-18T09:28:36.321Z</time></trkpt><trkpt lat="41.5572133" lon="13.06013"><ele>842.0</ele><time>2026-04-18T09:28:39.321Z</time></trkpt><trkpt lat="41.557265" lon="13.0600583"><ele>844.6666666666666</ele><time>2026-04-18T09:28:43.322Z</time></trkpt><trkpt lat="41.557315" lon="13.0599817"><ele>847.3333333333333</ele><time>2026-04-18T09:28:47.322Z</time></trkpt><trkpt lat="41.5573617" lon="13.0599067"><ele>850.0</ele><time>2026-04-18T09:28:51.321Z</time></trkpt><trkpt lat="41.5573867" lon="13.059805"><ele>850.0</ele><time>2026-04-18T09:28:55.321Z</time></trkpt><trkpt lat="41.5573967" lon="13.0596917"><ele>850.0</ele><time>2026-04-18T09:28:59.322Z</time></trkpt><trkpt lat="41.5574283" lon="13.0595883"><ele>850.0</ele><time>2026-04-18T09:29:03.321Z</time></trkpt><trkpt lat="41.5574633" lon="13.059505"><ele>850.0</ele><time>2026-04-18T09:29:06.321Z</time></trkpt><trkpt lat="41.557505" lon="13.05944"><ele>850.0</ele><time>2026-04-18T09:29:09.32Z</time></trkpt><trkpt lat="41.55756" lon="13.0593883"><ele>850.0</ele><time>2026-04-18T09:29:13.323Z</time></trkpt><trkpt lat="41.5576183" lon="13.0593467"><ele>850.0</ele><time>2026-04-18T09:29:17.322Z</time></trkpt><trkpt lat="41.557685" lon="13.0592967"><ele>850.0</ele><time>2026-04-18T09:29:22.321Z</time></trkpt><trkpt lat="41.5577467" lon="13.05925"><ele>850.0</ele><time>2026-04-18T09:29:26.322Z</time></trkpt><trkpt lat="41.5577967" lon="13.0591933"><ele>850.0</ele><time>2026-04-18T09:29:29.321Z</time></trkpt><trkpt lat="41.5578533" lon="13.059145"><ele>850.0</ele><time>2026-04-18T09:29:32.322Z</time></trkpt><trkpt lat="41.55793" lon="13.0591033"><ele>850.0</ele><time>2026-04-18T09:29:36.321Z</time></trkpt><trkpt lat="41.5579867" lon="13.0590617"><ele>850.0</ele><time>2026-04-18T09:29:39.322Z</time></trkpt><trkpt lat="41.558055" lon="13.0590117"><ele>850.0</ele><time>2026-04-18T09:29:43.32Z</time></trkpt><trkpt lat="41.558115" lon="13.058975"><ele>850.2857142857142</ele><time>2026-04-18T09:29:46.321Z</time></trkpt><trkpt lat="41.5581667" lon="13.0589217"><ele>850.5714285714286</ele><time>2026-04-18T09:29:49.323Z</time></trkpt><trkpt lat="41.5582233" lon="13.0588667"><ele>850.8571428571429</ele><time>2026-04-18T09:29:52.321Z</time></trkpt><trkpt lat="41.5582767" lon="13.0588083"><ele>851.1428571428571</ele><time>2026-04-18T09:29:55.321Z</time></trkpt><trkpt lat="41.55833" lon="13.0587533"><ele>851.4285714285714</ele><time>2026-04-18T09:29:58.321Z</time></trkpt><trkpt lat="41.5583883" lon="13.0586867"><ele>851.7142857142857</ele><time>2026-04-18T09:30:02.322Z</time></trkpt><trkpt lat="41.5584683" lon="13.0586817"><ele>852.0</ele><time>2026-04-18T09:30:08.322Z</time></trkpt><trkpt lat="41.5585383" lon="13.0586933"><ele>852.0</ele><time>2026-04-18T09:30:12.322Z</time></trkpt><trkpt lat="41.5585783" lon="13.0587733"><ele>852.0</ele><time>2026-04-18T09:30:17.324Z</time></trkpt><trkpt lat="41.55856" lon="13.058855"><ele>852.0</ele><time>2026-04-18T09:30:23.324Z</time></trkpt><trkpt lat="41.558595" lon="13.0587833"><ele>852.0</ele><time>2026-04-18T09:31:56.322Z</time></trkpt><trkpt lat="41.5585933" lon="13.058645"><ele>852.0</ele><time>2026-04-18T09:31:58.32Z</time></trkpt><trkpt lat="41.558575" lon="13.0585417"><ele>852.0</ele><time>2026-04-18T09:32:00.321Z</time></trkpt><trkpt lat="41.558525" lon="13.0584117"><ele>852.0</ele><time>2026-04-18T09:32:02.32Z</time></trkpt><trkpt lat="41.5584433" lon="13.0583383"><ele>852.0</ele><time>2026-04-18T09:32:04.322Z</time></trkpt><trkpt lat="41.558335" lon="13.0583067"><ele>852.0</ele><time>2026-04-18T09:32:06.321Z</time></trkpt><trkpt lat="41.5582667" lon="13.0583017"><ele>852.0</ele><time>2026-04-18T09:32:07.321Z</time></trkpt><trkpt lat="41.5581367" lon="13.05831"><ele>852.0</ele><time>2026-04-18T09:32:09.321Z</time></trkpt><trkpt lat="41.5580733" lon="13.0583"><ele>852.0</ele><time>2026-04-18T09:32:10.321Z</time></trkpt><trkpt lat="41.5580067" lon="13.0582967"><ele>852.0</ele><time>2026-04-18T09:32:11.321Z</time></trkpt><trkpt lat="41.5579033" lon="13.05831"><ele>852.0</ele><time>2026-04-18T09:32:13.322Z</time></trkpt><trkpt lat="41.557805" lon="13.0583167"><ele>852.0</ele><time>2026-04-18T09:32:15.322Z</time></trkpt><trkpt lat="41.5577117" lon="13.0583033"><ele>852.0</ele><time>2026-04-18T09:32:17.32Z</time></trkpt><trkpt lat="41.5576233" lon="13.0582817"><ele>852.3333333333334</ele><time>2026-04-18T09:32:19.322Z</time></trkpt><trkpt lat="41.5575467" lon="13.0582233"><ele>852.6666666666667</ele><time>2026-04-18T09:32:21.32Z</time></trkpt><trkpt lat="41.55748" lon="13.05816"><ele>853.0</ele><time>2026-04-18T09:32:23.321Z</time></trkpt><trkpt lat="41.557415" lon="13.0581233"><ele>853.3333333333334</ele><time>2026-04-18T09:32:24.321Z</time></trkpt><trkpt lat="41.55733" lon="13.058045"><ele>853.6666666666667</ele><time>2026-04-18T09:32:26.32Z</time></trkpt><trkpt lat="41.5572583" lon="13.0579783"><ele>854.0</ele><time>2026-04-18T09:32:28.321Z</time></trkpt><trkpt lat="41.5572033" lon="13.0579017"><ele>854.0000000000001</ele><time>2026-04-18T09:32:30.322Z</time></trkpt><trkpt lat="41.557165" lon="13.0578267"><ele>854.0</ele><time>2026-04-18T09:32:32.32Z</time></trkpt><trkpt lat="41.557125" lon="13.0577467"><ele>854.0</ele><time>2026-04-18T09:32:35.32Z</time></trkpt><trkpt lat="41.5570583" lon="13.0576817"><ele>854.0</ele><time>2026-04-18T09:32:38.321Z</time></trkpt><trkpt lat="41.5569967" lon="13.0576083"><ele>854.0000000000001</ele><time>2026-04-18T09:32:40.319Z</time></trkpt><trkpt lat="41.55693" lon="13.0575367"><ele>854.0</ele><time>2026-04-18T09:32:42.321Z</time></trkpt><trkpt lat="41.55688" lon="13.0574367"><ele>850.6666666666667</ele><time>2026-04-18T09:32:45.323Z</time></trkpt><trkpt lat="41.5568333" lon="13.05735"><ele>847.3333333333334</ele><time>2026-04-18T09:32:47.321Z</time></trkpt><trkpt lat="41.5568" lon="13.0572733"><ele>844.0</ele><time>2026-04-18T09:32:49.321Z</time></trkpt><trkpt lat="41.5567583" lon="13.0571933"><ele>840.6666666666667</ele><time>2026-04-18T09:32:51.322Z</time></trkpt><trkpt lat="41.55672" lon="13.0570833"><ele>837.3333333333334</ele><time>2026-04-18T09:32:54.321Z</time></trkpt><trkpt lat="41.5566867" lon="13.0569867"><ele>834.0</ele><time>2026-04-18T09:32:56.32Z</time></trkpt><trkpt lat="41.5566533" lon="13.0569083"><ele>834.0</ele><time>2026-04-18T09:32:58.323Z</time></trkpt><trkpt lat="41.5566033" lon="13.0568033"><ele>834.0</ele><time>2026-04-18T09:32:59.321Z</time></trkpt><trkpt lat="41.5565733" lon="13.056715"><ele>834.0</ele><time>2026-04-18T09:33:01.322Z</time></trkpt><trkpt lat="41.55653" lon="13.056645"><ele>834.0</ele><time>2026-04-18T09:33:02.322Z</time></trkpt><trkpt lat="41.5565033" lon="13.0565617"><ele>834.0</ele><time>2026-04-18T09:33:04.322Z</time></trkpt><trkpt lat="41.5564767" lon="13.05647"><ele>834.0</ele><time>2026-04-18T09:33:06.321Z</time></trkpt><trkpt lat="41.5564533" lon="13.056385"><ele>834.0</ele><time>2026-04-18T09:33:08.322Z</time></trkpt><trkpt lat="41.556425" lon="13.0562983"><ele>834.8333333333334</ele><time>2026-04-18T09:33:10.321Z</time></trkpt><trkpt lat="41.5563917" lon="13.056225"><ele>835.6666666666667</ele><time>2026-04-18T09:33:12.321Z</time></trkpt><trkpt lat="41.5563567" lon="13.056135"><ele>836.5</ele><time>2026-04-18T09:33:14.321Z</time></trkpt><trkpt lat="41.556325" lon="13.0560383"><ele>837.3333333333334</ele><time>2026-04-18T09:33:16.321Z</time></trkpt><trkpt lat="41.5563" lon="13.0559567"><ele>838.1666666666667</ele><time>2026-04-18T09:33:18.322Z</time></trkpt><trkpt lat="41.556225" lon="13.0558333"><ele>839.0</ele><time>2026-04-18T09:33:20.321Z</time></trkpt><trkpt lat="41.55619" lon="13.0557583"><ele>830.8000000000001</ele><time>2026-04-18T09:33:21.322Z</time></trkpt><trkpt lat="41.5561417" lon="13.055665"><ele>822.6</ele><time>2026-04-18T09:33:23.322Z</time></trkpt><trkpt lat="41.5561067" lon="13.055545"><ele>814.4</ele><time>2026-04-18T09:33:25.322Z</time></trkpt><trkpt lat="41.556065" lon="13.0553967"><ele>806.2</ele><time>2026-04-18T09:33:27.322Z</time></trkpt><trkpt lat="41.5560317" lon="13.055255"><ele>798.0</ele><time>2026-04-18T09:33:29.321Z</time></trkpt><trkpt lat="41.5559933" lon="13.055125"><ele>798.0</ele><time>2026-04-18T09:33:31.323Z</time></trkpt><trkpt lat="41.55595" lon="13.0550233"><ele>798.0</ele><time>2026-04-18T09:33:33.321Z</time></trkpt><trkpt lat="41.5559067" lon="13.05493"><ele>798.0</ele><time>2026-04-18T09:33:35.321Z</time></trkpt><trkpt lat="41.5558633" lon="13.0548117"><ele>798.0</ele><time>2026-04-18T09:33:37.322Z</time></trkpt><trkpt lat="41.5558283" lon="13.054665"><ele>798.0</ele><time>2026-04-18T09:33:39.321Z</time></trkpt><trkpt lat="41.5558017" lon="13.0545217"><ele>797.2</ele><time>2026-04-18T09:33:41.321Z</time></trkpt><trkpt lat="41.5557533" lon="13.0543967"><ele>796.4</ele><time>2026-04-18T09:33:43.322Z</time></trkpt><trkpt lat="41.5556933" lon="13.05427"><ele>795.6</ele><time>2026-04-18T09:33:45.322Z</time></trkpt><trkpt lat="41.5556433" lon="13.05415"><ele>794.8000000000001</ele><time>2026-04-18T09:33:47.322Z</time></trkpt><trkpt lat="41.5556033" lon="13.0540283"><ele>794.0</ele><time>2026-04-18T09:33:49.321Z</time></trkpt><trkpt lat="41.555595" lon="13.0538917"><ele>789.2</ele><time>2026-04-18T09:33:51.322Z</time></trkpt><trkpt lat="41.5555433" lon="13.053745"><ele>784.4000000000001</ele><time>2026-04-18T09:33:53.321Z</time></trkpt><trkpt lat="41.5555133" lon="13.05367"><ele>779.6</ele><time>2026-04-18T09:33:54.321Z</time></trkpt><trkpt lat="41.5554883" lon="13.0535617"><ele>774.8</ele><time>2026-04-18T09:33:56.32Z</time></trkpt><trkpt lat="41.5554483" lon="13.0534717"><ele>770.0</ele><time>2026-04-18T09:34:00.322Z</time></trkpt><trkpt lat="41.5553674" lon="13.0533815"><ele>770.0000000000001</ele><time>2026-04-18T09:36:41.321Z</time></trkpt><trkpt lat="41.5554513" lon="13.053364"><ele>770.0</ele><time>2026-04-18T09:37:07.322Z</time></trkpt><trkpt lat="41.5555373" lon="13.0533518"><ele>770.0</ele><time>2026-04-18T09:37:10.32Z</time></trkpt><trkpt lat="41.5556087" lon="13.0533369"><ele>770.0</ele><time>2026-04-18T09:37:12.32Z</time></trkpt><trkpt lat="41.5557062" lon="13.0533338"><ele>770.0000000000001</ele><time>2026-04-18T09:37:14.322Z</time></trkpt><trkpt lat="41.5558039" lon="13.0533398"><ele>770.0</ele><time>2026-04-18T09:37:16.321Z</time></trkpt><trkpt lat="41.5558919" lon="13.0533336"><ele>770.0000000000001</ele><time>2026-04-18T09:37:18.322Z</time></trkpt><trkpt lat="41.5559667" lon="13.0533175"><ele>770.0</ele><time>2026-04-18T09:37:20.322Z</time></trkpt><trkpt lat="41.556035" lon="13.0533007"><ele>770.0</ele><time>2026-04-18T09:37:22.321Z</time></trkpt><trkpt lat="41.5561234" lon="13.0532831"><ele>770.0</ele><time>2026-04-18T09:37:24.322Z</time></trkpt><trkpt lat="41.5562151" lon="13.0532451"><ele>770.0000000000001</ele><time>2026-04-18T09:37:26.321Z</time></trkpt><trkpt lat="41.5562837" lon="13.0532258"><ele>770.0</ele><time>2026-04-18T09:37:28.321Z</time></trkpt><trkpt lat="41.5563488" lon="13.053192"><ele>764.3333333333334</ele><time>2026-04-18T09:37:30.321Z</time></trkpt><trkpt lat="41.5563677" lon="13.0530751"><ele>758.6666666666667</ele><time>2026-04-18T09:37:34.322Z</time></trkpt><trkpt lat="41.5563083" lon="13.0529783"><ele>753.0</ele><time>2026-04-18T09:37:37.322Z</time></trkpt><trkpt lat="41.5562417" lon="13.0529433"><ele>747.3333333333334</ele><time>2026-04-18T09:37:39.323Z</time></trkpt><trkpt lat="41.5561617" lon="13.05291"><ele>741.6666666666667</ele><time>2026-04-18T09:37:41.322Z</time></trkpt><trkpt lat="41.556085" lon="13.052895"><ele>736.0</ele><time>2026-04-18T09:37:43.321Z</time></trkpt><trkpt lat="41.556" lon="13.05289"><ele>736.0</ele><time>2026-04-18T09:37:45.323Z</time></trkpt><trkpt lat="41.5559283" lon="13.052865"><ele>736.0</ele><time>2026-04-18T09:37:47.321Z</time></trkpt><trkpt lat="41.5558517" lon="13.0528633"><ele>736.0</ele><time>2026-04-18T09:37:51.322Z</time></trkpt><trkpt lat="41.55579" lon="13.052885"><ele>736.0</ele><time>2026-04-18T09:38:00.32Z</time></trkpt><trkpt lat="41.5557" lon="13.052925"><ele>736.0</ele><time>2026-04-18T09:38:53.323Z</time></trkpt><trkpt lat="41.5556317" lon="13.0529117"><ele>736.0</ele><time>2026-04-18T09:39:25.323Z</time></trkpt><trkpt lat="41.5555583" lon="13.052895"><ele>736.0</ele><time>2026-04-18T09:39:27.323Z</time></trkpt><trkpt lat="41.5554733" lon="13.0528433"><ele>736.0</ele><time>2026-04-18T09:39:29.321Z</time></trkpt><trkpt lat="41.5554283" lon="13.0527283"><ele>736.0</ele><time>2026-04-18T09:39:31.323Z</time></trkpt><trkpt lat="41.5553867" lon="13.0526217"><ele>736.0</ele><time>2026-04-18T09:39:33.322Z</time></trkpt><trkpt lat="41.55534" lon="13.0525233"><ele>736.0</ele><time>2026-04-18T09:39:35.322Z</time></trkpt><trkpt lat="41.5552817" lon="13.0524367"><ele>732.5</ele><time>2026-04-18T09:39:37.324Z</time></trkpt><trkpt lat="41.55523" lon="13.0523617"><ele>729.0</ele><time>2026-04-18T09:39:39.323Z</time></trkpt><trkpt lat="41.5551767" lon="13.0522933"><ele>725.5</ele><time>2026-04-18T09:39:41.321Z</time></trkpt><trkpt lat="41.5551083" lon="13.05224"><ele>722.0</ele><time>2026-04-18T09:39:43.322Z</time></trkpt><trkpt lat="41.5550467" lon="13.0521667"><ele>718.5</ele><time>2026-04-18T09:39:45.324Z</time></trkpt><trkpt lat="41.5549633" lon="13.0520867"><ele>715.0</ele><time>2026-04-18T09:39:47.324Z</time></trkpt><trkpt lat="41.5548783" lon="13.0520317"><ele>715.0</ele><time>2026-04-18T09:39:49.324Z</time></trkpt><trkpt lat="41.5548067" lon="13.05199"><ele>715.0</ele><time>2026-04-18T09:39:51.323Z</time></trkpt><trkpt lat="41.5547366" lon="13.0519359"><ele>715.0</ele><time>2026-04-18T09:39:53.322Z</time></trkpt><trkpt lat="41.5546736" lon="13.0518691"><ele>715.0</ele><time>2026-04-18T09:39:55.324Z</time></trkpt><trkpt lat="41.5546306" lon="13.0517975"><ele>715.0</ele><time>2026-04-18T09:39:57.324Z</time></trkpt><trkpt lat="41.5545912" lon="13.0517293"><ele>715.0</ele><time>2026-04-18T09:39:59.323Z</time></trkpt><trkpt lat="41.5545344" lon="13.0516778"><ele>715.0</ele><time>2026-04-18T09:40:01.323Z</time></trkpt><trkpt lat="41.5544681" lon="13.0516497"><ele>716.8571428571429</ele><time>2026-04-18T09:40:03.324Z</time></trkpt><trkpt lat="41.5543938" lon="13.0516248"><ele>718.7142857142857</ele><time>2026-04-18T09:40:06.323Z</time></trkpt><trkpt lat="41.5544035" lon="13.0515219"><ele>720.5714285714286</ele><time>2026-04-18T09:40:16.322Z</time></trkpt><trkpt lat="41.5543856" lon="13.051439"><ele>722.4285714285714</ele><time>2026-04-18T09:40:18.323Z</time></trkpt><trkpt lat="41.5543551" lon="13.0513625"><ele>724.2857142857142</ele><time>2026-04-18T09:40:20.324Z</time></trkpt><trkpt lat="41.5543283" lon="13.051281"><ele>726.1428571428571</ele><time>2026-04-18T09:40:22.324Z</time></trkpt><trkpt lat="41.5543009" lon="13.0511958"><ele>728.0</ele><time>2026-04-18T09:40:24.323Z</time></trkpt><trkpt lat="41.5542516" lon="13.051102"><ele>722.5</ele><time>2026-04-18T09:40:26.324Z</time></trkpt><trkpt lat="41.5541994" lon="13.0510188"><ele>717.0</ele><time>2026-04-18T09:40:28.324Z</time></trkpt><trkpt lat="41.5541391" lon="13.0509387"><ele>711.5</ele><time>2026-04-18T09:40:30.322Z</time></trkpt><trkpt lat="41.5540943" lon="13.050873"><ele>706.0</ele><time>2026-04-18T09:40:32.324Z</time></trkpt><trkpt lat="41.5540387" lon="13.0508046"><ele>700.5</ele><time>2026-04-18T09:40:34.323Z</time></trkpt><trkpt lat="41.5539538" lon="13.0507434"><ele>695.0</ele><time>2026-04-18T09:40:36.323Z</time></trkpt><trkpt lat="41.5538541" lon="13.0507037"><ele>689.2</ele><time>2026-04-18T09:40:38.323Z</time></trkpt><trkpt lat="41.5537427" lon="13.0506733"><ele>683.4</ele><time>2026-04-18T09:40:40.324Z</time></trkpt><trkpt lat="41.5536402" lon="13.050648"><ele>677.5999999999999</ele><time>2026-04-18T09:40:42.323Z</time></trkpt><trkpt lat="41.5535671" lon="13.050626"><ele>671.8</ele><time>2026-04-18T09:40:44.323Z</time></trkpt><trkpt lat="41.5534901" lon="13.0506133"><ele>666.0</ele><time>2026-04-18T09:40:46.322Z</time></trkpt><trkpt lat="41.553415" lon="13.0505578"><ele>666.0</ele><time>2026-04-18T09:40:49.323Z</time></trkpt><trkpt lat="41.5533712" lon="13.0504944"><ele>666.0</ele><time>2026-04-18T09:40:51.322Z</time></trkpt><trkpt lat="41.5532845" lon="13.0504299"><ele>666.0</ele><time>2026-04-18T09:40:54.323Z</time></trkpt><trkpt lat="41.5532076" lon="13.0503942"><ele>666.0</ele><time>2026-04-18T09:40:56.323Z</time></trkpt><trkpt lat="41.5531354" lon="13.0503746"><ele>666.0</ele><time>2026-04-18T09:40:58.323Z</time></trkpt><trkpt lat="41.5530583" lon="13.0503733"><ele>666.0</ele><time>2026-04-18T09:41:00.323Z</time></trkpt><trkpt lat="41.55297" lon="13.05038"><ele>666.0</ele><time>2026-04-18T09:41:02.323Z</time></trkpt><trkpt lat="41.55288" lon="13.05039"><ele>666.0</ele><time>2026-04-18T09:41:04.324Z</time></trkpt><trkpt lat="41.552875" lon="13.050305"><ele>666.0</ele><time>2026-04-18T09:41:14.321Z</time></trkpt><trkpt lat="41.5529533" lon="13.0502817"><ele>666.0</ele><time>2026-04-18T09:41:20.322Z</time></trkpt><trkpt lat="41.5530317" lon="13.0502583"><ele>666.0</ele><time>2026-04-18T09:41:23.321Z</time></trkpt><trkpt lat="41.5530617" lon="13.0501367"><ele>666.0</ele><time>2026-04-18T09:41:26.322Z</time></trkpt><trkpt lat="41.553055" lon="13.0500333"><ele>666.0</ele><time>2026-04-18T09:41:28.322Z</time></trkpt><trkpt lat="41.553005" lon="13.0499667"><ele>666.0</ele><time>2026-04-18T09:41:32.323Z</time></trkpt><trkpt lat="41.5529557" lon="13.0499057"><ele>666.0</ele><time>2026-04-18T09:41:35.321Z</time></trkpt><trkpt lat="41.552904" lon="13.0498531"><ele>666.0</ele><time>2026-04-18T09:41:37.323Z</time></trkpt><trkpt lat="41.552836" lon="13.0498143"><ele>666.0</ele><time>2026-04-18T09:41:39.32Z</time></trkpt><trkpt lat="41.5527716" lon="13.0497751"><ele>666.0</ele><time>2026-04-18T09:41:41.322Z</time></trkpt><trkpt lat="41.5527263" lon="13.0497093"><ele>666.0</ele><time>2026-04-18T09:41:44.322Z</time></trkpt><trkpt lat="41.5527207" lon="13.0496193"><ele>661.3333333333334</ele><time>2026-04-18T09:41:47.322Z</time></trkpt><trkpt lat="41.5527164" lon="13.0495223"><ele>656.6666666666666</ele><time>2026-04-18T09:41:49.323Z</time></trkpt><trkpt lat="41.5526853" lon="13.0494135"><ele>652.0</ele><time>2026-04-18T09:41:52.321Z</time></trkpt><trkpt lat="41.5526377" lon="13.0493323"><ele>647.3333333333333</ele><time>2026-04-18T09:41:55.323Z</time></trkpt><trkpt lat="41.5525842" lon="13.0492561"><ele>642.6666666666666</ele><time>2026-04-18T09:41:58.323Z</time></trkpt><trkpt lat="41.5525285" lon="13.0492083"><ele>638.0</ele><time>2026-04-18T09:42:01.324Z</time></trkpt><trkpt lat="41.5524819" lon="13.0491284"><ele>632.6666666666666</ele><time>2026-04-18T09:42:04.324Z</time></trkpt><trkpt lat="41.5524331" lon="13.0490363"><ele>627.3333333333333</ele><time>2026-04-18T09:42:07.324Z</time></trkpt><trkpt lat="41.5523965" lon="13.0489505"><ele>622.0</ele><time>2026-04-18T09:42:11.324Z</time></trkpt><trkpt lat="41.55244" lon="13.0488888"><ele>616.6666666666666</ele><time>2026-04-18T09:42:18.324Z</time></trkpt><trkpt lat="41.5524308" lon="13.0487841"><ele>611.3333333333334</ele><time>2026-04-18T09:42:25.323Z</time></trkpt><trkpt lat="41.5524029" lon="13.0486997"><ele>606.0</ele><time>2026-04-18T09:42:28.323Z</time></trkpt><trkpt lat="41.552361" lon="13.0486086"><ele>606.0</ele><time>2026-04-18T09:42:31.324Z</time></trkpt><trkpt lat="41.5523216" lon="13.04854"><ele>606.0</ele><time>2026-04-18T09:42:34.323Z</time></trkpt><trkpt lat="41.5522556" lon="13.0484813"><ele>606.0</ele><time>2026-04-18T09:42:38.322Z</time></trkpt><trkpt lat="41.5523182" lon="13.0484498"><ele>606.0</ele><time>2026-04-18T09:42:52.322Z</time></trkpt><trkpt lat="41.5523748" lon="13.0485144"><ele>606.0</ele><time>2026-04-18T09:42:56.323Z</time></trkpt><trkpt lat="41.5523725" lon="13.048411"><ele>606.0</ele><time>2026-04-18T09:43:11.322Z</time></trkpt><trkpt lat="41.5523717" lon="13.0483257"><ele>606.0</ele><time>2026-04-18T09:43:14.322Z</time></trkpt><trkpt lat="41.5523818" lon="13.0482372"><ele>602.8571428571429</ele><time>2026-04-18T09:43:17.324Z</time></trkpt><trkpt lat="41.5523197" lon="13.0481907"><ele>599.7142857142857</ele><time>2026-04-18T09:43:25.32Z</time></trkpt><trkpt lat="41.5523371" lon="13.0480889"><ele>596.5714285714286</ele><time>2026-04-18T09:44:41.321Z</time></trkpt><trkpt lat="41.5523755" lon="13.0480219"><ele>593.4285714285714</ele><time>2026-04-18T09:44:49.321Z</time></trkpt><trkpt lat="41.5523878" lon="13.0479214"><ele>590.2857142857143</ele><time>2026-04-18T09:44:53.322Z</time></trkpt><trkpt lat="41.5524088" lon="13.0478172"><ele>587.1428571428571</ele><time>2026-04-18T09:44:56.32Z</time></trkpt><trkpt lat="41.5523819" lon="13.0477384"><ele>584.0</ele><time>2026-04-18T09:45:06.322Z</time></trkpt><trkpt lat="41.5523433" lon="13.0476436"><ele>584.0</ele><time>2026-04-18T09:45:11.321Z</time></trkpt><trkpt lat="41.5523904" lon="13.047582"><ele>584.0</ele><time>2026-04-18T09:45:45.321Z</time></trkpt><trkpt lat="41.552442" lon="13.0475218"><ele>584.0</ele><time>2026-04-18T09:45:57.322Z</time></trkpt><trkpt lat="41.5525219" lon="13.0474838"><ele>584.0</ele><time>2026-04-18T09:46:49.323Z</time></trkpt><trkpt lat="41.5525732" lon="13.0474262"><ele>584.0</ele><time>2026-04-18T09:46:57.321Z</time></trkpt><trkpt lat="41.5525627" lon="13.0473428"><ele>584.0</ele><time>2026-04-18T09:47:05.32Z</time></trkpt><trkpt lat="41.5524914" lon="13.0473825"><ele>584.0</ele><time>2026-04-18T09:47:22.321Z</time></trkpt><trkpt lat="41.5524773" lon="13.0472871"><ele>581.1666666666666</ele><time>2026-04-18T09:58:47.323Z</time></trkpt><trkpt lat="41.5524627" lon="13.0471798"><ele>578.3333333333333</ele><time>2026-04-18T09:58:50.321Z</time></trkpt><trkpt lat="41.552434" lon="13.0470815"><ele>575.5</ele><time>2026-04-18T09:58:53.322Z</time></trkpt><trkpt lat="41.5523789" lon="13.0469937"><ele>572.6666666666666</ele><time>2026-04-18T09:58:56.322Z</time></trkpt><trkpt lat="41.5523365" lon="13.0469244"><ele>569.8333333333334</ele><time>2026-04-18T09:58:59.32Z</time></trkpt><trkpt lat="41.5522787" lon="13.0468507"><ele>567.0</ele><time>2026-04-18T09:59:03.324Z</time></trkpt><trkpt lat="41.5522011" lon="13.0468413"><ele>567.0</ele><time>2026-04-18T09:59:07.322Z</time></trkpt><trkpt lat="41.5521333" lon="13.0468552"><ele>567.0</ele><time>2026-04-18T09:59:10.323Z</time></trkpt><trkpt lat="41.5520635" lon="13.0468858"><ele>567.0</ele><time>2026-04-18T09:59:13.322Z</time></trkpt><trkpt lat="41.5519871" lon="13.0469145"><ele>567.0</ele><time>2026-04-18T09:59:17.324Z</time></trkpt><trkpt lat="41.5519227" lon="13.0469426"><ele>567.0</ele><time>2026-04-18T09:59:20.321Z</time></trkpt><trkpt lat="41.5518443" lon="13.0469883"><ele>567.0</ele><time>2026-04-18T09:59:24.322Z</time></trkpt><trkpt lat="41.5517844" lon="13.0470297"><ele>567.0</ele><time>2026-04-18T09:59:27.32Z</time></trkpt><trkpt lat="41.5517185" lon="13.0470864"><ele>567.0</ele><time>2026-04-18T09:59:31.322Z</time></trkpt><trkpt lat="41.5516678" lon="13.0471388"><ele>567.0</ele><time>2026-04-18T09:59:34.322Z</time></trkpt><trkpt lat="41.5516183" lon="13.0472133"><ele>567.0</ele><time>2026-04-18T09:59:38.324Z</time></trkpt><trkpt lat="41.5515733" lon="13.0473083"><ele>567.0</ele><time>2026-04-18T09:59:42.321Z</time></trkpt><trkpt lat="41.5515533" lon="13.0474117"><ele>567.0</ele><time>2026-04-18T09:59:46.321Z</time></trkpt><trkpt lat="41.5515467" lon="13.0475033"><ele>567.0</ele><time>2026-04-18T09:59:50.32Z</time></trkpt><trkpt lat="41.55152" lon="13.047605"><ele>569.1428571428571</ele><time>2026-04-18T09:59:54.323Z</time></trkpt><trkpt lat="41.5515033" lon="13.0476917"><ele>571.2857142857142</ele><time>2026-04-18T09:59:58.321Z</time></trkpt><trkpt lat="41.551485" lon="13.047775"><ele>573.4285714285714</ele><time>2026-04-18T10:00:03.32Z</time></trkpt><trkpt lat="41.5514717" lon="13.0478817"><ele>575.5714285714286</ele><time>2026-04-18T10:00:06.322Z</time></trkpt><trkpt lat="41.551435" lon="13.047965"><ele>577.7142857142857</ele><time>2026-04-18T10:00:10.322Z</time></trkpt><trkpt lat="41.5513833" lon="13.048035"><ele>579.8571428571429</ele><time>2026-04-18T10:00:14.322Z</time></trkpt><trkpt lat="41.5513267" lon="13.04812"><ele>582.0</ele><time>2026-04-18T10:00:18.32Z</time></trkpt><trkpt lat="41.5512783" lon="13.0481883"><ele>582.0</ele><time>2026-04-18T10:00:21.321Z</time></trkpt><trkpt lat="41.5512283" lon="13.048245"><ele>582.0</ele><time>2026-04-18T10:00:24.322Z</time></trkpt><trkpt lat="41.551175" lon="13.0483067"><ele>582.0</ele><time>2026-04-18T10:00:28.322Z</time></trkpt><trkpt lat="41.551115" lon="13.0483667"><ele>582.0</ele><time>2026-04-18T10:00:33.322Z</time></trkpt><trkpt lat="41.5510617" lon="13.048425"><ele>582.0</ele><time>2026-04-18T10:00:36.322Z</time></trkpt><trkpt lat="41.5510133" lon="13.0484967"><ele>582.0</ele><time>2026-04-18T10:00:39.322Z</time></trkpt><trkpt lat="41.5509683" lon="13.048575"><ele>582.0</ele><time>2026-04-18T10:00:43.321Z</time></trkpt><trkpt lat="41.5509217" lon="13.0486567"><ele>582.5714285714286</ele><time>2026-04-18T10:00:47.32Z</time></trkpt><trkpt lat="41.5508683" lon="13.0487317"><ele>583.1428571428571</ele><time>2026-04-18T10:00:50.321Z</time></trkpt><trkpt lat="41.55082" lon="13.0487967"><ele>583.7142857142857</ele><time>2026-04-18T10:00:53.322Z</time></trkpt><trkpt lat="41.5507617" lon="13.04886"><ele>584.2857142857142</ele><time>2026-04-18T10:00:57.322Z</time></trkpt><trkpt lat="41.5507033" lon="13.04892"><ele>584.8571428571429</ele><time>2026-04-18T10:01:00.322Z</time></trkpt><trkpt lat="41.550645" lon="13.048985"><ele>585.4285714285713</ele><time>2026-04-18T10:01:04.321Z</time></trkpt><trkpt lat="41.5505983" lon="13.0490467"><ele>586.0</ele><time>2026-04-18T10:01:07.322Z</time></trkpt><trkpt lat="41.5505467" lon="13.0491"><ele>585.7142857142857</ele><time>2026-04-18T10:01:10.322Z</time></trkpt><trkpt lat="41.55049" lon="13.0491533"><ele>585.4285714285714</ele><time>2026-04-18T10:01:13.321Z</time></trkpt><trkpt lat="41.55043" lon="13.0492117"><ele>585.1428571428571</ele><time>2026-04-18T10:01:16.323Z</time></trkpt><trkpt lat="41.5503717" lon="13.049275"><ele>584.8571428571429</ele><time>2026-04-18T10:01:19.322Z</time></trkpt><trkpt lat="41.55031" lon="13.0493433"><ele>584.5714285714286</ele><time>2026-04-18T10:01:23.324Z</time></trkpt><trkpt lat="41.550255" lon="13.0493967"><ele>584.2857142857142</ele><time>2026-04-18T10:01:26.324Z</time></trkpt><trkpt lat="41.5502017" lon="13.0494567"><ele>584.0</ele><time>2026-04-18T10:01:29.32Z</time></trkpt><trkpt lat="41.5501483" lon="13.049515"><ele>584.0</ele><time>2026-04-18T10:01:32.321Z</time></trkpt><trkpt lat="41.55009" lon="13.0495633"><ele>584.0</ele><time>2026-04-18T10:01:35.321Z</time></trkpt><trkpt lat="41.5500333" lon="13.0496433"><ele>584.0</ele><time>2026-04-18T10:01:39.323Z</time></trkpt><trkpt lat="41.54999" lon="13.0497283"><ele>584.0</ele><time>2026-04-18T10:01:43.323Z</time></trkpt><trkpt lat="41.5499433" lon="13.0497967"><ele>584.0</ele><time>2026-04-18T10:01:46.322Z</time></trkpt><trkpt lat="41.5499033" lon="13.0498767"><ele>584.0</ele><time>2026-04-18T10:01:49.321Z</time></trkpt><trkpt lat="41.5498783" lon="13.04996"><ele>584.0</ele><time>2026-04-18T10:01:52.323Z</time></trkpt><trkpt lat="41.549855" lon="13.05004"><ele>586.8571428571429</ele><time>2026-04-18T10:01:55.32Z</time></trkpt><trkpt lat="41.549835" lon="13.0501367"><ele>589.7142857142858</ele><time>2026-04-18T10:01:59.321Z</time></trkpt><trkpt lat="41.5498217" lon="13.0502217"><ele>592.5714285714287</ele><time>2026-04-18T10:02:02.322Z</time></trkpt><trkpt lat="41.5498333" lon="13.0503067"><ele>595.4285714285714</ele><time>2026-04-18T10:02:05.32Z</time></trkpt><trkpt lat="41.5498367" lon="13.0504133"><ele>598.2857142857143</ele><time>2026-04-18T10:02:09.323Z</time></trkpt><trkpt lat="41.5498567" lon="13.0505183"><ele>601.1428571428572</ele><time>2026-04-18T10:02:13.323Z</time></trkpt><trkpt lat="41.5498683" lon="13.0506133"><ele>604.0</ele><time>2026-04-18T10:02:17.322Z</time></trkpt><trkpt lat="41.5498717" lon="13.0507"><ele>605.6666666666667</ele><time>2026-04-18T10:02:20.323Z</time></trkpt><trkpt lat="41.549895" lon="13.0507933"><ele>607.3333333333334</ele><time>2026-04-18T10:02:24.323Z</time></trkpt><trkpt lat="41.5499183" lon="13.0508867"><ele>609.0</ele><time>2026-04-18T10:02:28.324Z</time></trkpt><trkpt lat="41.549945" lon="13.0509817"><ele>610.6666666666666</ele><time>2026-04-18T10:02:32.324Z</time></trkpt><trkpt lat="41.5499583" lon="13.05108"><ele>612.3333333333333</ele><time>2026-04-18T10:02:36.321Z</time></trkpt><trkpt lat="41.549985" lon="13.0511867"><ele>614.0</ele><time>2026-04-18T10:02:40.322Z</time></trkpt><trkpt lat="41.5500083" lon="13.0512783"><ele>613.9999999999999</ele><time>2026-04-18T10:02:44.321Z</time></trkpt><trkpt lat="41.550025" lon="13.0513817"><ele>614.0</ele><time>2026-04-18T10:02:48.322Z</time></trkpt><trkpt lat="41.550035" lon="13.0514883"><ele>614.0</ele><time>2026-04-18T10:02:52.323Z</time></trkpt><trkpt lat="41.550065" lon="13.051565"><ele>614.0</ele><time>2026-04-18T10:02:55.322Z</time></trkpt><trkpt lat="41.5500817" lon="13.0516483"><ele>614.0</ele><time>2026-04-18T10:02:58.322Z</time></trkpt><trkpt lat="41.55012" lon="13.051725"><ele>613.9999999999999</ele><time>2026-04-18T10:03:02.322Z</time></trkpt><trkpt lat="41.5501633" lon="13.0518217"><ele>614.0</ele><time>2026-04-18T10:03:06.323Z</time></trkpt><trkpt lat="41.5501933" lon="13.0519017"><ele>613.1428571428571</ele><time>2026-04-18T10:03:09.324Z</time></trkpt><trkpt lat="41.55024" lon="13.0519867"><ele>612.2857142857142</ele><time>2026-04-18T10:03:12.322Z</time></trkpt><trkpt lat="41.5502917" lon="13.0520383"><ele>611.4285714285713</ele><time>2026-04-18T10:03:15.323Z</time></trkpt><trkpt lat="41.5503417" lon="13.052095"><ele>610.5714285714286</ele><time>2026-04-18T10:03:18.323Z</time></trkpt><trkpt lat="41.5503933" lon="13.0521533"><ele>609.7142857142858</ele><time>2026-04-18T10:03:21.321Z</time></trkpt><trkpt lat="41.5504417" lon="13.0522133"><ele>608.8571428571428</ele><time>2026-04-18T10:03:24.323Z</time></trkpt><trkpt lat="41.5504967" lon="13.0522667"><ele>608.0</ele><time>2026-04-18T10:03:28.323Z</time></trkpt><trkpt lat="41.5505533" lon="13.0523167"><ele>611.5714285714286</ele><time>2026-04-18T10:03:31.323Z</time></trkpt><trkpt lat="41.5506083" lon="13.0523683"><ele>615.1428571428572</ele><time>2026-04-18T10:03:34.322Z</time></trkpt><trkpt lat="41.5506717" lon="13.05243"><ele>618.7142857142858</ele><time>2026-04-18T10:03:38.321Z</time></trkpt><trkpt lat="41.5507317" lon="13.052475"><ele>622.2857142857142</ele><time>2026-04-18T10:03:42.322Z</time></trkpt><trkpt lat="41.55081" lon="13.0525233"><ele>625.8571428571429</ele><time>2026-04-18T10:03:46.323Z</time></trkpt><trkpt lat="41.5508783" lon="13.0525767"><ele>629.4285714285714</ele><time>2026-04-18T10:03:50.323Z</time></trkpt><trkpt lat="41.5509217" lon="13.05264"><ele>633.0</ele><time>2026-04-18T10:03:53.322Z</time></trkpt><trkpt lat="41.5509633" lon="13.0527267"><ele>633.0</ele><time>2026-04-18T10:03:57.322Z</time></trkpt><trkpt lat="41.5509517" lon="13.0528117"><ele>633.0</ele><time>2026-04-18T10:04:01.323Z</time></trkpt><trkpt lat="41.5508933" lon="13.05286"><ele>633.0</ele><time>2026-04-18T10:04:04.321Z</time></trkpt><trkpt lat="41.55083" lon="13.0529067"><ele>633.0</ele><time>2026-04-18T10:04:08.324Z</time></trkpt><trkpt lat="41.550765" lon="13.0529533"><ele>633.0</ele><time>2026-04-18T10:04:12.322Z</time></trkpt><trkpt lat="41.5507083" lon="13.0530017"><ele>633.0</ele><time>2026-04-18T10:04:16.325Z</time></trkpt><trkpt lat="41.550655" lon="13.0530533"><ele>633.0</ele><time>2026-04-18T10:04:19.322Z</time></trkpt><trkpt lat="41.550595" lon="13.0531233"><ele>633.0</ele><time>2026-04-18T10:04:23.322Z</time></trkpt><trkpt lat="41.550535" lon="13.0531767"><ele>633.0</ele><time>2026-04-18T10:04:27.321Z</time></trkpt><trkpt lat="41.5504783" lon="13.0532367"><ele>633.0</ele><time>2026-04-18T10:04:31.323Z</time></trkpt><trkpt lat="41.5504167" lon="13.0532633"><ele>633.0</ele><time>2026-04-18T10:04:35.321Z</time></trkpt><trkpt lat="41.55034" lon="13.05328"><ele>633.0</ele><time>2026-04-18T10:04:40.322Z</time></trkpt><trkpt lat="41.5502567" lon="13.0532883"><ele>633.0</ele><time>2026-04-18T10:04:43.323Z</time></trkpt><trkpt lat="41.550175" lon="13.0533"><ele>633.2857142857142</ele><time>2026-04-18T10:04:46.323Z</time></trkpt><trkpt lat="41.5500983" lon="13.05331"><ele>633.5714285714286</ele><time>2026-04-18T10:04:49.323Z</time></trkpt><trkpt lat="41.5500317" lon="13.053325"><ele>633.8571428571429</ele><time>2026-04-18T10:04:53.322Z</time></trkpt><trkpt lat="41.5499683" lon="13.0533183"><ele>634.1428571428571</ele><time>2026-04-18T10:04:56.323Z</time></trkpt><trkpt lat="41.5499" lon="13.05332"><ele>634.4285714285714</ele><time>2026-04-18T10:05:00.322Z</time></trkpt><trkpt lat="41.549835" lon="13.0533383"><ele>634.7142857142857</ele><time>2026-04-18T10:05:05.322Z</time></trkpt><trkpt lat="41.549765" lon="13.0533333"><ele>635.0</ele><time>2026-04-18T10:05:10.322Z</time></trkpt><trkpt lat="41.5496933" lon="13.05333"><ele>634.9999999999999</ele><time>2026-04-18T10:05:14.321Z</time></trkpt><trkpt lat="41.5496233" lon="13.053315"><ele>635.0</ele><time>2026-04-18T10:05:19.322Z</time></trkpt><trkpt lat="41.5495467" lon="13.0533133"><ele>635.0</ele><time>2026-04-18T10:05:23.322Z</time></trkpt><trkpt lat="41.5494733" lon="13.053295"><ele>635.0</ele><time>2026-04-18T10:05:26.322Z</time></trkpt><trkpt lat="41.549395" lon="13.05329"><ele>635.0</ele><time>2026-04-18T10:05:29.323Z</time></trkpt><trkpt lat="41.549325" lon="13.0532833"><ele>634.9999999999999</ele><time>2026-04-18T10:05:32.322Z</time></trkpt><trkpt lat="41.5492533" lon="13.0532967"><ele>635.0</ele><time>2026-04-18T10:05:35.321Z</time></trkpt><trkpt lat="41.5491683" lon="13.053315"><ele>635.4285714285713</ele><time>2026-04-18T10:05:38.321Z</time></trkpt><trkpt lat="41.5491033" lon="13.05334"><ele>635.8571428571429</ele><time>2026-04-18T10:05:41.321Z</time></trkpt><trkpt lat="41.54904" lon="13.0533533"><ele>636.2857142857142</ele><time>2026-04-18T10:05:44.322Z</time></trkpt><trkpt lat="41.548965" lon="13.0533667"><ele>636.7142857142857</ele><time>2026-04-18T10:05:47.321Z</time></trkpt><trkpt lat="41.5489017" lon="13.0533917"><ele>637.1428571428571</ele><time>2026-04-18T10:05:50.323Z</time></trkpt><trkpt lat="41.5488367" lon="13.0534283"><ele>637.5714285714286</ele><time>2026-04-18T10:05:54.322Z</time></trkpt><trkpt lat="41.5487783" lon="13.05346"><ele>638.0</ele><time>2026-04-18T10:05:57.322Z</time></trkpt><trkpt lat="41.54873" lon="13.0535317"><ele>635.1666666666666</ele><time>2026-04-18T10:06:01.323Z</time></trkpt><trkpt lat="41.5486667" lon="13.0535817"><ele>632.3333333333333</ele><time>2026-04-18T10:06:05.321Z</time></trkpt><trkpt lat="41.5486183" lon="13.0536567"><ele>629.5</ele><time>2026-04-18T10:06:09.323Z</time></trkpt><trkpt lat="41.5485533" lon="13.0537017"><ele>626.6666666666666</ele><time>2026-04-18T10:06:12.322Z</time></trkpt><trkpt lat="41.5484967" lon="13.0537717"><ele>623.8333333333334</ele><time>2026-04-18T10:06:15.325Z</time></trkpt><trkpt lat="41.5484367" lon="13.05385"><ele>621.0</ele><time>2026-04-18T10:06:19.322Z</time></trkpt><trkpt lat="41.548385" lon="13.0539133"><ele>620.9999999999999</ele><time>2026-04-18T10:06:22.321Z</time></trkpt><trkpt lat="41.5483367" lon="13.0539867"><ele>621.0</ele><time>2026-04-18T10:06:25.322Z</time></trkpt><trkpt lat="41.54829" lon="13.0540633"><ele>621.0</ele><time>2026-04-18T10:06:28.321Z</time></trkpt><trkpt lat="41.5482583" lon="13.05415"><ele>621.0</ele><time>2026-04-18T10:06:32.324Z</time></trkpt><trkpt lat="41.5482317" lon="13.0542333"><ele>621.0</ele><time>2026-04-18T10:06:36.324Z</time></trkpt><trkpt lat="41.5482" lon="13.05432"><ele>620.9999999999999</ele><time>2026-04-18T10:06:40.321Z</time></trkpt><trkpt lat="41.5481883" lon="13.0544183"><ele>621.0</ele><time>2026-04-18T10:06:44.321Z</time></trkpt><trkpt lat="41.54816" lon="13.0545067"><ele>624.2857142857142</ele><time>2026-04-18T10:06:47.321Z</time></trkpt><trkpt lat="41.5481333" lon="13.0545917"><ele>627.5714285714286</ele><time>2026-04-18T10:06:51.322Z</time></trkpt><trkpt lat="41.5480917" lon="13.0546717"><ele>630.8571428571429</ele><time>2026-04-18T10:06:55.322Z</time></trkpt><trkpt lat="41.5480683" lon="13.0547567"><ele>634.1428571428571</ele><time>2026-04-18T10:06:58.324Z</time></trkpt><trkpt lat="41.5480417" lon="13.05485"><ele>637.4285714285714</ele><time>2026-04-18T10:07:01.321Z</time></trkpt><trkpt lat="41.5480283" lon="13.054945"><ele>640.7142857142857</ele><time>2026-04-18T10:07:04.322Z</time></trkpt><trkpt lat="41.5480217" lon="13.05503"><ele>644.0</ele><time>2026-04-18T10:07:07.321Z</time></trkpt><trkpt lat="41.5480117" lon="13.0551183"><ele>646.4285714285714</ele><time>2026-04-18T10:07:10.321Z</time></trkpt><trkpt lat="41.54801" lon="13.0552117"><ele>648.8571428571429</ele><time>2026-04-18T10:07:13.322Z</time></trkpt><trkpt lat="41.5480083" lon="13.055305"><ele>651.2857142857142</ele><time>2026-04-18T10:07:16.321Z</time></trkpt><trkpt lat="41.5480017" lon="13.0553933"><ele>653.7142857142858</ele><time>2026-04-18T10:07:19.322Z</time></trkpt><trkpt lat="41.5480133" lon="13.055495"><ele>656.1428571428571</ele><time>2026-04-18T10:07:23.322Z</time></trkpt><trkpt lat="41.548035" lon="13.055585"><ele>658.5714285714286</ele><time>2026-04-18T10:07:26.321Z</time></trkpt><trkpt lat="41.5480567" lon="13.0556817"><ele>661.0</ele><time>2026-04-18T10:07:30.323Z</time></trkpt><trkpt lat="41.548075" lon="13.0557633"><ele>661.8571428571429</ele><time>2026-04-18T10:07:33.321Z</time></trkpt><trkpt lat="41.5481017" lon="13.0558517"><ele>662.7142857142858</ele><time>2026-04-18T10:07:37.323Z</time></trkpt><trkpt lat="41.5481167" lon="13.0559383"><ele>663.5714285714287</ele><time>2026-04-18T10:07:41.321Z</time></trkpt><trkpt lat="41.5481333" lon="13.0560233"><ele>664.4285714285714</ele><time>2026-04-18T10:07:45.322Z</time></trkpt><trkpt lat="41.54815" lon="13.0561233"><ele>665.2857142857143</ele><time>2026-04-18T10:07:49.322Z</time></trkpt><trkpt lat="41.54818" lon="13.0561983"><ele>666.1428571428572</ele><time>2026-04-18T10:07:52.322Z</time></trkpt><trkpt lat="41.548205" lon="13.0562783"><ele>667.0</ele><time>2026-04-18T10:07:55.324Z</time></trkpt><trkpt lat="41.548215" lon="13.05639"><ele>667.0</ele><time>2026-04-18T10:07:59.324Z</time></trkpt><trkpt lat="41.548215" lon="13.0564983"><ele>667.0</ele><time>2026-04-18T10:08:03.322Z</time></trkpt><trkpt lat="41.548225" lon="13.056605"><ele>667.0</ele><time>2026-04-18T10:08:07.321Z</time></trkpt><trkpt lat="41.54822" lon="13.0567117"><ele>667.0</ele><time>2026-04-18T10:08:11.321Z</time></trkpt><trkpt lat="41.5482267" lon="13.0568"><ele>667.0</ele><time>2026-04-18T10:08:14.321Z</time></trkpt><trkpt lat="41.54826" lon="13.0569"><ele>667.0</ele><time>2026-04-18T10:08:18.321Z</time></trkpt><trkpt lat="41.548305" lon="13.0569633"><ele>667.0000000000001</ele><time>2026-04-18T10:08:21.323Z</time></trkpt><trkpt lat="41.548385" lon="13.056965"><ele>667.0</ele><time>2026-04-18T10:08:26.324Z</time></trkpt><trkpt lat="41.5484367" lon="13.0569067"><ele>667.0</ele><time>2026-04-18T10:08:30.321Z</time></trkpt><trkpt lat="41.5484733" lon="13.0568133"><ele>667.0</ele><time>2026-04-18T10:08:35.322Z</time></trkpt><trkpt lat="41.5484983" lon="13.0567217"><ele>667.0</ele><time>2026-04-18T10:08:39.322Z</time></trkpt><trkpt lat="41.5485017" lon="13.0566117"><ele>667.0000000000001</ele><time>2026-04-18T10:08:43.322Z</time></trkpt><trkpt lat="41.5484883" lon="13.0565233"><ele>667.0</ele><time>2026-04-18T10:08:46.322Z</time></trkpt><trkpt lat="41.5484833" lon="13.056435"><ele>667.0000000000001</ele><time>2026-04-18T10:08:49.322Z</time></trkpt><trkpt lat="41.548485" lon="13.0563317"><ele>667.0</ele><time>2026-04-18T10:08:53.324Z</time></trkpt><trkpt lat="41.5484817" lon="13.056245"><ele>667.0</ele><time>2026-04-18T10:08:57.323Z</time></trkpt><trkpt lat="41.5484867" lon="13.056155"><ele>667.0</ele><time>2026-04-18T10:09:02.321Z</time></trkpt><trkpt lat="41.5485033" lon="13.0560717"><ele>667.0</ele><time>2026-04-18T10:09:07.322Z</time></trkpt><trkpt lat="41.5484967" lon="13.055985"><ele>667.0000000000001</ele><time>2026-04-18T10:09:11.321Z</time></trkpt><trkpt lat="41.5485167" lon="13.0558783"><ele>667.0</ele><time>2026-04-18T10:09:15.323Z</time></trkpt><trkpt lat="41.5485433" lon="13.0557933"><ele>666.1428571428572</ele><time>2026-04-18T10:09:19.322Z</time></trkpt><trkpt lat="41.5485683" lon="13.055715"><ele>665.2857142857143</ele><time>2026-04-18T10:09:23.321Z</time></trkpt><trkpt lat="41.5486183" lon="13.0556433"><ele>664.4285714285714</ele><time>2026-04-18T10:09:28.32Z</time></trkpt><trkpt lat="41.5486683" lon="13.055575"><ele>663.5714285714287</ele><time>2026-04-18T10:09:33.323Z</time></trkpt><trkpt lat="41.548715" lon="13.0555133"><ele>662.7142857142858</ele><time>2026-04-18T10:09:38.322Z</time></trkpt><trkpt lat="41.5487583" lon="13.0554417"><ele>661.8571428571429</ele><time>2026-04-18T10:09:42.323Z</time></trkpt><trkpt lat="41.5487983" lon="13.055355"><ele>661.0</ele><time>2026-04-18T10:09:46.323Z</time></trkpt><trkpt lat="41.5488383" lon="13.0552717"><ele>661.2857142857142</ele><time>2026-04-18T10:09:50.321Z</time></trkpt><trkpt lat="41.54888" lon="13.055195"><ele>661.5714285714286</ele><time>2026-04-18T10:09:53.321Z</time></trkpt><trkpt lat="41.5489283" lon="13.0550983"><ele>661.8571428571429</ele><time>2026-04-18T10:09:56.322Z</time></trkpt><trkpt lat="41.54896" lon="13.0550217"><ele>662.1428571428571</ele><time>2026-04-18T10:09:59.322Z</time></trkpt><trkpt lat="41.5489983" lon="13.054945"><ele>662.4285714285714</ele><time>2026-04-18T10:10:03.321Z</time></trkpt><trkpt lat="41.549055" lon="13.054905"><ele>662.7142857142857</ele><time>2026-04-18T10:10:09.322Z</time></trkpt><trkpt lat="41.5490917" lon="13.0549767"><ele>663.0</ele><time>2026-04-18T10:10:16.324Z</time></trkpt><trkpt lat="41.5490567" lon="13.0550483"><ele>666.2857142857142</ele><time>2026-04-18T10:10:20.322Z</time></trkpt><trkpt lat="41.549005" lon="13.0550967"><ele>669.5714285714286</ele><time>2026-04-18T10:10:24.323Z</time></trkpt><trkpt lat="41.5489433" lon="13.055165"><ele>672.8571428571429</ele><time>2026-04-18T10:10:28.321Z</time></trkpt><trkpt lat="41.5489017" lon="13.05523"><ele>676.1428571428571</ele><time>2026-04-18T10:10:31.323Z</time></trkpt><trkpt lat="41.5488583" lon="13.055295"><ele>679.4285714285714</ele><time>2026-04-18T10:10:35.321Z</time></trkpt><trkpt lat="41.5488183" lon="13.055375"><ele>682.7142857142857</ele><time>2026-04-18T10:10:40.322Z</time></trkpt><trkpt lat="41.548775" lon="13.0554567"><ele>686.0</ele><time>2026-04-18T10:10:45.322Z</time></trkpt><trkpt lat="41.5487567" lon="13.055545"><ele>686.0</ele><time>2026-04-18T10:10:49.322Z</time></trkpt><trkpt lat="41.5487283" lon="13.0556467"><ele>686.0</ele><time>2026-04-18T10:10:53.321Z</time></trkpt><trkpt lat="41.5487283" lon="13.0557517"><ele>686.0</ele><time>2026-04-18T10:10:57.323Z</time></trkpt><trkpt lat="41.5487167" lon="13.0558433"><ele>686.0</ele><time>2026-04-18T10:11:00.322Z</time></trkpt><trkpt lat="41.54872" lon="13.055955"><ele>686.0</ele><time>2026-04-18T10:11:04.321Z</time></trkpt><trkpt lat="41.5487317" lon="13.0560633"><ele>686.0</ele><time>2026-04-18T10:11:08.32Z</time></trkpt><trkpt lat="41.5487467" lon="13.056145"><ele>687.4285714285714</ele><time>2026-04-18T10:11:11.321Z</time></trkpt><trkpt lat="41.548765" lon="13.0562517"><ele>688.8571428571429</ele><time>2026-04-18T10:11:15.321Z</time></trkpt><trkpt lat="41.54878" lon="13.0563383"><ele>690.2857142857142</ele><time>2026-04-18T10:11:18.322Z</time></trkpt><trkpt lat="41.5488033" lon="13.0564167"><ele>691.7142857142858</ele><time>2026-04-18T10:11:20.322Z</time></trkpt><trkpt lat="41.548845" lon="13.0565017"><ele>693.1428571428571</ele><time>2026-04-18T10:11:23.322Z</time></trkpt><trkpt lat="41.5488933" lon="13.05659"><ele>694.5714285714286</ele><time>2026-04-18T10:11:27.321Z</time></trkpt><trkpt lat="41.5489383" lon="13.05667"><ele>696.0</ele><time>2026-04-18T10:11:31.324Z</time></trkpt><trkpt lat="41.54898" lon="13.05674"><ele>696.0</ele><time>2026-04-18T10:11:35.321Z</time></trkpt><trkpt lat="41.5490183" lon="13.0568283"><ele>696.0</ele><time>2026-04-18T10:11:40.322Z</time></trkpt><trkpt lat="41.549045" lon="13.05691"><ele>696.0</ele><time>2026-04-18T10:11:44.322Z</time></trkpt><trkpt lat="41.5490683" lon="13.0570067"><ele>696.0</ele><time>2026-04-18T10:11:48.322Z</time></trkpt><trkpt lat="41.5490817" lon="13.0571033"><ele>696.0</ele><time>2026-04-18T10:11:52.321Z</time></trkpt><trkpt lat="41.5491083" lon="13.0572083"><ele>696.0</ele><time>2026-04-18T10:11:56.319Z</time></trkpt><trkpt lat="41.5491467" lon="13.0572967"><ele>696.0</ele><time>2026-04-18T10:12:00.321Z</time></trkpt><trkpt lat="41.5491667" lon="13.0573917"><ele>696.0</ele><time>2026-04-18T10:12:04.321Z</time></trkpt><trkpt lat="41.5492" lon="13.0574733"><ele>696.0</ele><time>2026-04-18T10:12:07.324Z</time></trkpt><trkpt lat="41.549255" lon="13.0575483"><ele>696.0</ele><time>2026-04-18T10:12:10.324Z</time></trkpt><trkpt lat="41.549325" lon="13.0576017"><ele>696.0</ele><time>2026-04-18T10:12:13.324Z</time></trkpt><trkpt lat="41.549405" lon="13.0575833"><ele>696.0</ele><time>2026-04-18T10:12:17.323Z</time></trkpt><trkpt lat="41.5494583" lon="13.057505"><ele>696.0</ele><time>2026-04-18T10:12:21.321Z</time></trkpt><trkpt lat="41.54948" lon="13.0574233"><ele>696.0</ele><time>2026-04-18T10:12:24.321Z</time></trkpt><trkpt lat="41.5494767" lon="13.0573317"><ele>696.0</ele><time>2026-04-18T10:12:27.322Z</time></trkpt><trkpt lat="41.5494583" lon="13.05724"><ele>696.0</ele><time>2026-04-18T10:12:30.322Z</time></trkpt><trkpt lat="41.5494217" lon="13.05715"><ele>696.0</ele><time>2026-04-18T10:12:34.322Z</time></trkpt><trkpt lat="41.5493967" lon="13.05705"><ele>696.0</ele><time>2026-04-18T10:12:38.321Z</time></trkpt><trkpt lat="41.549365" lon="13.0569517"><ele>696.0</ele><time>2026-04-18T10:12:42.321Z</time></trkpt><trkpt lat="41.549345" lon="13.0568383"><ele>696.0</ele><time>2026-04-18T10:12:46.323Z</time></trkpt><trkpt lat="41.5493233" lon="13.0567367"><ele>696.0</ele><time>2026-04-18T10:12:50.322Z</time></trkpt><trkpt lat="41.549305" lon="13.0566483"><ele>696.0</ele><time>2026-04-18T10:12:54.321Z</time></trkpt><trkpt lat="41.5493067" lon="13.0565517"><ele>696.0</ele><time>2026-04-18T10:12:58.322Z</time></trkpt><trkpt lat="41.5493067" lon="13.0564533"><ele>696.0</ele><time>2026-04-18T10:13:02.321Z</time></trkpt><trkpt lat="41.549325" lon="13.0563517"><ele>696.0</ele><time>2026-04-18T10:13:07.322Z</time></trkpt><trkpt lat="41.5493483" lon="13.0562583"><ele>696.0</ele><time>2026-04-18T10:13:12.32Z</time></trkpt><trkpt lat="41.5493867" lon="13.0561833"><ele>696.0</ele><time>2026-04-18T10:13:18.321Z</time></trkpt><trkpt lat="41.5494417" lon="13.05611"><ele>696.0</ele><time>2026-04-18T10:13:25.322Z</time></trkpt><trkpt lat="41.5494933" lon="13.056055"><ele>696.0</ele><time>2026-04-18T10:13:29.32Z</time></trkpt><trkpt lat="41.5495383" lon="13.0559883"><ele>696.0</ele><time>2026-04-18T10:13:33.322Z</time></trkpt><trkpt lat="41.54959" lon="13.0559217"><ele>696.0</ele><time>2026-04-18T10:13:37.322Z</time></trkpt><trkpt lat="41.54965" lon="13.0558667"><ele>696.0</ele><time>2026-04-18T10:13:42.324Z</time></trkpt><trkpt lat="41.5497017" lon="13.0558167"><ele>696.0</ele><time>2026-04-18T10:13:46.321Z</time></trkpt><trkpt lat="41.5497733" lon="13.0557617"><ele>696.5714285714286</ele><time>2026-04-18T10:13:51.321Z</time></trkpt><trkpt lat="41.549835" lon="13.0557317"><ele>697.1428571428571</ele><time>2026-04-18T10:13:55.322Z</time></trkpt><trkpt lat="41.5499083" lon="13.05572"><ele>697.7142857142858</ele><time>2026-04-18T10:13:59.322Z</time></trkpt><trkpt lat="41.5499783" lon="13.055705"><ele>698.2857142857142</ele><time>2026-04-18T10:14:04.322Z</time></trkpt><trkpt lat="41.5500417" lon="13.0556783"><ele>698.8571428571429</ele><time>2026-04-18T10:14:08.322Z</time></trkpt><trkpt lat="41.5501017" lon="13.05563"><ele>699.4285714285714</ele><time>2026-04-18T10:14:12.322Z</time></trkpt><trkpt lat="41.5501667" lon="13.0555933"><ele>700.0</ele><time>2026-04-18T10:14:18.322Z</time></trkpt><trkpt lat="41.5502317" lon="13.0555783"><ele>700.0</ele><time>2026-04-18T10:14:22.322Z</time></trkpt><trkpt lat="41.5503083" lon="13.055565"><ele>700.0</ele><time>2026-04-18T10:14:27.322Z</time></trkpt><trkpt lat="41.5503733" lon="13.055555"><ele>700.0</ele><time>2026-04-18T10:14:31.323Z</time></trkpt><trkpt lat="41.5504467" lon="13.0555783"><ele>700.0</ele><time>2026-04-18T10:14:36.323Z</time></trkpt><trkpt lat="41.5505117" lon="13.055575"><ele>700.0</ele><time>2026-04-18T10:14:40.321Z</time></trkpt><trkpt lat="41.550585" lon="13.0555683"><ele>700.0</ele><time>2026-04-18T10:14:44.321Z</time></trkpt><trkpt lat="41.5506617" lon="13.055565"><ele>700.0</ele><time>2026-04-18T10:14:49.322Z</time></trkpt><trkpt lat="41.5507383" lon="13.0555517"><ele>701.0</ele><time>2026-04-18T10:14:53.32Z</time></trkpt><trkpt lat="41.5508067" lon="13.0555533"><ele>702.0</ele><time>2026-04-18T10:14:57.322Z</time></trkpt><trkpt lat="41.5508683" lon="13.0555767"><ele>703.0</ele><time>2026-04-18T10:15:00.322Z</time></trkpt><trkpt lat="41.5509367" lon="13.0555917"><ele>704.0</ele><time>2026-04-18T10:15:03.321Z</time></trkpt><trkpt lat="41.551015" lon="13.0555717"><ele>705.0</ele><time>2026-04-18T10:15:07.322Z</time></trkpt><trkpt lat="41.5510967" lon="13.05557"><ele>706.0</ele><time>2026-04-18T10:15:11.321Z</time></trkpt><trkpt lat="41.5511783" lon="13.0555867"><ele>707.0</ele><time>2026-04-18T10:15:15.321Z</time></trkpt><trkpt lat="41.551255" lon="13.0556"><ele>708.2857142857143</ele><time>2026-04-18T10:15:18.322Z</time></trkpt><trkpt lat="41.5513267" lon="13.0556033"><ele>709.5714285714286</ele><time>2026-04-18T10:15:23.321Z</time></trkpt><trkpt lat="41.551395" lon="13.0555917"><ele>710.8571428571429</ele><time>2026-04-18T10:15:27.321Z</time></trkpt><trkpt lat="41.5514617" lon="13.05558"><ele>712.1428571428571</ele><time>2026-04-18T10:15:31.322Z</time></trkpt><trkpt lat="41.5515367" lon="13.0555967"><ele>713.4285714285714</ele><time>2026-04-18T10:15:35.32Z</time></trkpt><trkpt lat="41.551615" lon="13.055635"><ele>714.7142857142858</ele><time>2026-04-18T10:15:39.321Z</time></trkpt><trkpt lat="41.551675" lon="13.0556617"><ele>716.0</ele><time>2026-04-18T10:15:43.321Z</time></trkpt><trkpt lat="41.5517383" lon="13.0556683"><ele>716.0000000000001</ele><time>2026-04-18T10:15:47.321Z</time></trkpt><trkpt lat="41.5518183" lon="13.055695"><ele>716.0</ele><time>2026-04-18T10:15:52.322Z</time></trkpt><trkpt lat="41.551895" lon="13.0557067"><ele>716.0</ele><time>2026-04-18T10:15:56.322Z</time></trkpt><trkpt lat="41.5519583" lon="13.05572"><ele>716.0</ele><time>2026-04-18T10:16:00.322Z</time></trkpt><trkpt lat="41.5520233" lon="13.0557183"><ele>716.0</ele><time>2026-04-18T10:16:05.321Z</time></trkpt><trkpt lat="41.5520933" lon="13.055705"><ele>716.0000000000001</ele><time>2026-04-18T10:16:09.321Z</time></trkpt><trkpt lat="41.5521567" lon="13.055685"><ele>716.0</ele><time>2026-04-18T10:16:15.322Z</time></trkpt><trkpt lat="41.55222" lon="13.0557067"><ele>715.6666666666666</ele><time>2026-04-18T10:16:21.321Z</time></trkpt><trkpt lat="41.55231" lon="13.055725"><ele>715.3333333333333</ele><time>2026-04-18T10:21:35.321Z</time></trkpt><trkpt lat="41.5523733" lon="13.05576"><ele>715.0</ele><time>2026-04-18T10:21:40.321Z</time></trkpt><trkpt lat="41.5524417" lon="13.0557983"><ele>714.6666666666666</ele><time>2026-04-18T10:21:44.321Z</time></trkpt><trkpt lat="41.5525067" lon="13.0558333"><ele>714.3333333333334</ele><time>2026-04-18T10:21:48.322Z</time></trkpt><trkpt lat="41.5525733" lon="13.0558667"><ele>714.0</ele><time>2026-04-18T10:21:52.322Z</time></trkpt><trkpt lat="41.552655" lon="13.055875"><ele>718.5</ele><time>2026-04-18T10:21:56.322Z</time></trkpt><trkpt lat="41.5527367" lon="13.0559"><ele>723.0</ele><time>2026-04-18T10:22:00.322Z</time></trkpt><trkpt lat="41.5528183" lon="13.05592"><ele>727.5</ele><time>2026-04-18T10:22:04.322Z</time></trkpt><trkpt lat="41.5528933" lon="13.0559317"><ele>732.0</ele><time>2026-04-18T10:22:08.323Z</time></trkpt><trkpt lat="41.5529633" lon="13.05596"><ele>736.5</ele><time>2026-04-18T10:22:12.322Z</time></trkpt><trkpt lat="41.5530433" lon="13.0559533"><ele>741.0</ele><time>2026-04-18T10:22:17.322Z</time></trkpt><trkpt lat="41.55311" lon="13.0559467"><ele>741.1428571428571</ele><time>2026-04-18T10:22:21.322Z</time></trkpt><trkpt lat="41.55319" lon="13.0559567"><ele>741.2857142857143</ele><time>2026-04-18T10:22:25.323Z</time></trkpt><trkpt lat="41.5532533" lon="13.05598"><ele>741.4285714285714</ele><time>2026-04-18T10:22:28.322Z</time></trkpt><trkpt lat="41.55332" lon="13.0560233"><ele>741.5714285714286</ele><time>2026-04-18T10:22:31.323Z</time></trkpt><trkpt lat="41.55339" lon="13.056035"><ele>741.7142857142858</ele><time>2026-04-18T10:22:35.323Z</time></trkpt><trkpt lat="41.55347" lon="13.0560583"><ele>741.8571428571429</ele><time>2026-04-18T10:22:39.322Z</time></trkpt><trkpt lat="41.5535333" lon="13.056075"><ele>742.0</ele><time>2026-04-18T10:22:42.322Z</time></trkpt><trkpt lat="41.5536017" lon="13.0560717"><ele>742.0</ele><time>2026-04-18T10:22:46.322Z</time></trkpt><trkpt lat="41.5536833" lon="13.0560533"><ele>742.0</ele><time>2026-04-18T10:22:49.323Z</time></trkpt><trkpt lat="41.55376" lon="13.056035"><ele>742.0</ele><time>2026-04-18T10:22:52.322Z</time></trkpt><trkpt lat="41.5538233" lon="13.0560383"><ele>742.0</ele><time>2026-04-18T10:22:55.322Z</time></trkpt><trkpt lat="41.5538917" lon="13.0560467"><ele>742.0</ele><time>2026-04-18T10:22:58.324Z</time></trkpt><trkpt lat="41.5539517" lon="13.056075"><ele>742.0</ele><time>2026-04-18T10:23:01.323Z</time></trkpt><trkpt lat="41.5540233" lon="13.0561017"><ele>742.0</ele><time>2026-04-18T10:23:06.324Z</time></trkpt><trkpt lat="41.5540867" lon="13.0561417"><ele>741.8571428571429</ele><time>2026-04-18T10:23:10.324Z</time></trkpt><trkpt lat="41.5541483" lon="13.0561983"><ele>741.7142857142858</ele><time>2026-04-18T10:23:15.322Z</time></trkpt><trkpt lat="41.5542067" lon="13.05625"><ele>741.5714285714286</ele><time>2026-04-18T10:23:19.322Z</time></trkpt><trkpt lat="41.5542667" lon="13.05629"><ele>741.4285714285714</ele><time>2026-04-18T10:23:24.321Z</time></trkpt><trkpt lat="41.55434" lon="13.0563317"><ele>741.2857142857143</ele><time>2026-04-18T10:23:29.321Z</time></trkpt><trkpt lat="41.5544" lon="13.05639"><ele>741.1428571428571</ele><time>2026-04-18T10:23:33.321Z</time></trkpt><trkpt lat="41.5544567" lon="13.05646"><ele>741.0</ele><time>2026-04-18T10:23:37.321Z</time></trkpt><trkpt lat="41.5545167" lon="13.0565117"><ele>743.1428571428571</ele><time>2026-04-18T10:23:40.321Z</time></trkpt><trkpt lat="41.5545667" lon="13.0565817"><ele>745.2857142857143</ele><time>2026-04-18T10:23:44.321Z</time></trkpt><trkpt lat="41.55463" lon="13.0566267"><ele>747.4285714285714</ele><time>2026-04-18T10:23:48.323Z</time></trkpt><trkpt lat="41.5546817" lon="13.0566767"><ele>749.5714285714286</ele><time>2026-04-18T10:23:52.321Z</time></trkpt><trkpt lat="41.5547533" lon="13.056735"><ele>751.7142857142858</ele><time>2026-04-18T10:23:56.321Z</time></trkpt><trkpt lat="41.5548117" lon="13.0567817"><ele>753.8571428571429</ele><time>2026-04-18T10:23:59.321Z</time></trkpt><trkpt lat="41.554865" lon="13.0568283"><ele>756.0</ele><time>2026-04-18T10:24:02.32Z</time></trkpt><trkpt lat="41.5549283" lon="13.0568883"><ele>757.4285714285714</ele><time>2026-04-18T10:24:06.32Z</time></trkpt><trkpt lat="41.5549967" lon="13.05694"><ele>758.8571428571429</ele><time>2026-04-18T10:24:10.321Z</time></trkpt><trkpt lat="41.5550483" lon="13.057"><ele>760.2857142857142</ele><time>2026-04-18T10:24:13.322Z</time></trkpt><trkpt lat="41.5550983" lon="13.0570767"><ele>761.7142857142858</ele><time>2026-04-18T10:24:17.322Z</time></trkpt><trkpt lat="41.5551467" lon="13.0571433"><ele>763.1428571428571</ele><time>2026-04-18T10:24:21.322Z</time></trkpt><trkpt lat="41.55519" lon="13.05722"><ele>764.5714285714286</ele><time>2026-04-18T10:24:26.321Z</time></trkpt><trkpt lat="41.555235" lon="13.0573033"><ele>766.0</ele><time>2026-04-18T10:24:31.322Z</time></trkpt><trkpt lat="41.5552917" lon="13.0573783"><ele>766.0</ele><time>2026-04-18T10:24:35.32Z</time></trkpt><trkpt lat="41.555355" lon="13.0574333"><ele>766.0</ele><time>2026-04-18T10:24:40.322Z</time></trkpt><trkpt lat="41.5554233" lon="13.0574217"><ele>766.0</ele><time>2026-04-18T10:24:45.323Z</time></trkpt><trkpt lat="41.5554667" lon="13.05735"><ele>766.0</ele><time>2026-04-18T10:24:48.322Z</time></trkpt><trkpt lat="41.5555017" lon="13.05728"><ele>766.0</ele><time>2026-04-18T10:24:51.323Z</time></trkpt><trkpt lat="41.5555383" lon="13.0572033"><ele>766.0</ele><time>2026-04-18T10:24:54.321Z</time></trkpt><trkpt lat="41.55557" lon="13.0571083"><ele>766.0</ele><time>2026-04-18T10:24:59.321Z</time></trkpt><trkpt lat="41.5555683" lon="13.0570033"><ele>769.2857142857142</ele><time>2026-04-18T10:25:03.323Z</time></trkpt><trkpt lat="41.5555633" lon="13.056915"><ele>772.5714285714286</ele><time>2026-04-18T10:25:06.323Z</time></trkpt><trkpt lat="41.5555617" lon="13.05681"><ele>775.8571428571429</ele><time>2026-04-18T10:25:09.323Z</time></trkpt><trkpt lat="41.555555" lon="13.05672"><ele>779.1428571428571</ele><time>2026-04-18T10:25:13.323Z</time></trkpt><trkpt lat="41.5555633" lon="13.0566317"><ele>782.4285714285714</ele><time>2026-04-18T10:25:17.322Z</time></trkpt><trkpt lat="41.5555617" lon="13.0565417"><ele>785.7142857142857</ele><time>2026-04-18T10:25:20.321Z</time></trkpt><trkpt lat="41.5555567" lon="13.05644"><ele>789.0</ele><time>2026-04-18T10:25:23.321Z</time></trkpt><trkpt lat="41.55555" lon="13.05634"><ele>789.2857142857142</ele><time>2026-04-18T10:25:26.321Z</time></trkpt><trkpt lat="41.5555433" lon="13.056235"><ele>789.5714285714286</ele><time>2026-04-18T10:25:29.321Z</time></trkpt><trkpt lat="41.555535" lon="13.0561417"><ele>789.8571428571429</ele><time>2026-04-18T10:25:32.321Z</time></trkpt><trkpt lat="41.55553" lon="13.056055"><ele>790.1428571428571</ele><time>2026-04-18T10:25:35.322Z</time></trkpt><trkpt lat="41.5555233" lon="13.0559583"><ele>790.4285714285714</ele><time>2026-04-18T10:25:39.323Z</time></trkpt><trkpt lat="41.5554983" lon="13.055865"><ele>790.7142857142857</ele><time>2026-04-18T10:25:42.321Z</time></trkpt><trkpt lat="41.5554767" lon="13.0557567"><ele>791.0</ele><time>2026-04-18T10:25:46.322Z</time></trkpt><trkpt lat="41.5554717" lon="13.0556517"><ele>792.0</ele><time>2026-04-18T10:25:49.323Z</time></trkpt><trkpt lat="41.5554467" lon="13.0555717"><ele>793.0</ele><time>2026-04-18T10:25:52.324Z</time></trkpt><trkpt lat="41.5554317" lon="13.0554667"><ele>794.0</ele><time>2026-04-18T10:25:56.322Z</time></trkpt><trkpt lat="41.55543" lon="13.0553583"><ele>795.0</ele><time>2026-04-18T10:26:00.323Z</time></trkpt><trkpt lat="41.555425" lon="13.0552717"><ele>796.0</ele><time>2026-04-18T10:26:03.323Z</time></trkpt><trkpt lat="41.5554067" lon="13.055175"><ele>797.0</ele><time>2026-04-18T10:26:06.323Z</time></trkpt><trkpt lat="41.5553917" lon="13.0550717"><ele>798.0</ele><time>2026-04-18T10:26:10.323Z</time></trkpt><trkpt lat="41.5553833" lon="13.0549883"><ele>793.7142857142857</ele><time>2026-04-18T10:26:13.322Z</time></trkpt><trkpt lat="41.5553633" lon="13.0549"><ele>789.4285714285714</ele><time>2026-04-18T10:26:17.321Z</time></trkpt><trkpt lat="41.55534" lon="13.054795"><ele>785.1428571428571</ele><time>2026-04-18T10:26:21.323Z</time></trkpt><trkpt lat="41.5553283" lon="13.0547067"><ele>780.8571428571429</ele><time>2026-04-18T10:26:24.322Z</time></trkpt><trkpt lat="41.5553017" lon="13.05462"><ele>776.5714285714286</ele><time>2026-04-18T10:26:28.321Z</time></trkpt><trkpt lat="41.5552967" lon="13.0545133"><ele>772.2857142857142</ele><time>2026-04-18T10:26:32.322Z</time></trkpt><trkpt lat="41.5552933" lon="13.05442"><ele>768.0</ele><time>2026-04-18T10:26:36.323Z</time></trkpt><trkpt lat="41.5552833" lon="13.054325"><ele>767.9999999999999</ele><time>2026-04-18T10:26:40.323Z</time></trkpt><trkpt lat="41.5552717" lon="13.0542233"><ele>768.0</ele><time>2026-04-18T10:26:44.322Z</time></trkpt><trkpt lat="41.5552667" lon="13.0541333"><ele>768.0</ele><time>2026-04-18T10:26:47.322Z</time></trkpt><trkpt lat="41.5552417" lon="13.05404"><ele>768.0</ele><time>2026-04-18T10:26:51.322Z</time></trkpt><trkpt lat="41.5551967" lon="13.05396"><ele>768.0</ele><time>2026-04-18T10:26:55.324Z</time></trkpt><trkpt lat="41.555165" lon="13.0538867"><ele>767.9999999999999</ele><time>2026-04-18T10:26:58.322Z</time></trkpt><trkpt lat="41.5551333" lon="13.0537883"><ele>768.0</ele><time>2026-04-18T10:27:02.323Z</time></trkpt><trkpt lat="41.5551217" lon="13.0536933"><ele>767.9999999999999</ele><time>2026-04-18T10:27:06.324Z</time></trkpt><trkpt lat="41.5551683" lon="13.05362"><ele>768.0</ele><time>2026-04-18T10:27:11.324Z</time></trkpt><trkpt lat="41.5552317" lon="13.0536233"><ele>768.0</ele><time>2026-04-18T10:27:15.321Z</time></trkpt><trkpt lat="41.5552767" lon="13.0536883"><ele>768.0</ele><time>2026-04-18T10:27:21.323Z</time></trkpt><trkpt lat="41.55529" lon="13.05379"><ele>768.0</ele><time>2026-04-18T10:27:25.32Z</time></trkpt><trkpt lat="41.5553" lon="13.053875"><ele>767.9999999999999</ele><time>2026-04-18T10:27:28.322Z</time></trkpt><trkpt lat="41.5553133" lon="13.0539717"><ele>768.0</ele><time>2026-04-18T10:27:32.321Z</time></trkpt><trkpt lat="41.5553183" lon="13.054065"><ele>767.9999999999999</ele><time>2026-04-18T10:27:36.323Z</time></trkpt><trkpt lat="41.5553467" lon="13.054145"><ele>768.0</ele><time>2026-04-18T10:27:40.324Z</time></trkpt><trkpt lat="41.5553767" lon="13.05423"><ele>768.0</ele><time>2026-04-18T10:27:44.322Z</time></trkpt><trkpt lat="41.5553983" lon="13.05433"><ele>768.0</ele><time>2026-04-18T10:27:49.322Z</time></trkpt><trkpt lat="41.5554217" lon="13.05442"><ele>768.0</ele><time>2026-04-18T10:27:53.321Z</time></trkpt><trkpt lat="41.5554333" lon="13.0545083"><ele>767.9999999999999</ele><time>2026-04-18T10:27:56.323Z</time></trkpt><trkpt lat="41.5554667" lon="13.0545933"><ele>768.0</ele><time>2026-04-18T10:28:00.323Z</time></trkpt><trkpt lat="41.5554933" lon="13.0546883"><ele>771.7142857142857</ele><time>2026-04-18T10:28:04.322Z</time></trkpt><trkpt lat="41.555515" lon="13.0547917"><ele>775.4285714285714</ele><time>2026-04-18T10:28:08.324Z</time></trkpt><trkpt lat="41.5555283" lon="13.0548833"><ele>779.1428571428571</ele><time>2026-04-18T10:28:11.322Z</time></trkpt><trkpt lat="41.5555417" lon="13.054985"><ele>782.8571428571429</ele><time>2026-04-18T10:28:15.322Z</time></trkpt><trkpt lat="41.55556" lon="13.0550833"><ele>786.5714285714286</ele><time>2026-04-18T10:28:19.321Z</time></trkpt><trkpt lat="41.5555833" lon="13.0551667"><ele>790.2857142857142</ele><time>2026-04-18T10:28:23.322Z</time></trkpt><trkpt lat="41.5556083" lon="13.0552633"><ele>794.0</ele><time>2026-04-18T10:28:27.323Z</time></trkpt><trkpt lat="41.5556267" lon="13.055355"><ele>793.5714285714286</ele><time>2026-04-18T10:28:31.323Z</time></trkpt><trkpt lat="41.5556617" lon="13.055435"><ele>793.1428571428571</ele><time>2026-04-18T10:28:35.322Z</time></trkpt><trkpt lat="41.55568" lon="13.05552"><ele>792.7142857142858</ele><time>2026-04-18T10:28:39.322Z</time></trkpt><trkpt lat="41.555715" lon="13.0556217"><ele>792.2857142857142</ele><time>2026-04-18T10:28:43.321Z</time></trkpt><trkpt lat="41.5557383" lon="13.055725"><ele>791.8571428571429</ele><time>2026-04-18T10:28:46.322Z</time></trkpt><trkpt lat="41.5557667" lon="13.0558217"><ele>791.4285714285714</ele><time>2026-04-18T10:28:49.322Z</time></trkpt><trkpt lat="41.5557867" lon="13.0559033"><ele>791.0</ele><time>2026-04-18T10:28:52.322Z</time></trkpt><trkpt lat="41.5558" lon="13.0560017"><ele>791.0</ele><time>2026-04-18T10:28:56.322Z</time></trkpt><trkpt lat="41.5558183" lon="13.0560883"><ele>791.0</ele><time>2026-04-18T10:28:59.322Z</time></trkpt><trkpt lat="41.55584" lon="13.0561767"><ele>791.0</ele><time>2026-04-18T10:29:02.321Z</time></trkpt><trkpt lat="41.55586" lon="13.05626"><ele>791.0</ele><time>2026-04-18T10:29:05.321Z</time></trkpt><trkpt lat="41.55589" lon="13.0563617"><ele>791.0</ele><time>2026-04-18T10:29:09.323Z</time></trkpt><trkpt lat="41.555905" lon="13.0564567"><ele>791.0</ele><time>2026-04-18T10:29:13.321Z</time></trkpt><trkpt lat="41.5559367" lon="13.05655"><ele>791.0</ele><time>2026-04-18T10:29:17.322Z</time></trkpt><trkpt lat="41.555955" lon="13.0566533"><ele>790.7142857142857</ele><time>2026-04-18T10:29:21.323Z</time></trkpt><trkpt lat="41.5559817" lon="13.0567433"><ele>790.4285714285714</ele><time>2026-04-18T10:29:24.322Z</time></trkpt><trkpt lat="41.5560117" lon="13.0568333"><ele>790.1428571428571</ele><time>2026-04-18T10:29:27.32Z</time></trkpt><trkpt lat="41.5560417" lon="13.05693"><ele>789.8571428571429</ele><time>2026-04-18T10:29:31.322Z</time></trkpt><trkpt lat="41.55606" lon="13.0570183"><ele>789.5714285714286</ele><time>2026-04-18T10:29:35.321Z</time></trkpt><trkpt lat="41.5560733" lon="13.05711"><ele>789.2857142857142</ele><time>2026-04-18T10:29:40.322Z</time></trkpt><trkpt lat="41.5560717" lon="13.0572233"><ele>789.0</ele><time>2026-04-18T10:29:44.322Z</time></trkpt><trkpt lat="41.5560917" lon="13.05732"><ele>789.0</ele><time>2026-04-18T10:29:48.321Z</time></trkpt><trkpt lat="41.5561333" lon="13.0574017"><ele>789.0</ele><time>2026-04-18T10:29:52.322Z</time></trkpt><trkpt lat="41.55617" lon="13.0574967"><ele>789.0</ele><time>2026-04-18T10:29:56.322Z</time></trkpt><trkpt lat="41.55621" lon="13.0575683"><ele>789.0</ele><time>2026-04-18T10:29:59.321Z</time></trkpt><trkpt lat="41.5562617" lon="13.0576717"><ele>789.0</ele><time>2026-04-18T10:30:02.321Z</time></trkpt><trkpt lat="41.5563067" lon="13.057755"><ele>789.0</ele><time>2026-04-18T10:30:05.322Z</time></trkpt><trkpt lat="41.5563467" lon="13.0578383"><ele>792.1428571428571</ele><time>2026-04-18T10:30:09.323Z</time></trkpt><trkpt lat="41.556385" lon="13.05791"><ele>795.2857142857142</ele><time>2026-04-18T10:30:12.322Z</time></trkpt><trkpt lat="41.556445" lon="13.0579933"><ele>798.4285714285713</ele><time>2026-04-18T10:30:16.322Z</time></trkpt><trkpt lat="41.5565033" lon="13.0580483"><ele>801.5714285714286</ele><time>2026-04-18T10:30:19.322Z</time></trkpt><trkpt lat="41.5565583" lon="13.0581067"><ele>804.7142857142858</ele><time>2026-04-18T10:30:22.323Z</time></trkpt><trkpt lat="41.5566133" lon="13.0581733"><ele>807.8571428571428</ele><time>2026-04-18T10:30:26.324Z</time></trkpt><trkpt lat="41.5566483" lon="13.0582483"><ele>811.0</ele><time>2026-04-18T10:30:31.321Z</time></trkpt><trkpt lat="41.5566267" lon="13.0583283"><ele>811.0</ele><time>2026-04-18T10:30:36.322Z</time></trkpt><trkpt lat="41.5565983" lon="13.058425"><ele>811.0</ele><time>2026-04-18T10:30:41.322Z</time></trkpt><trkpt lat="41.5565583" lon="13.0585"><ele>811.0</ele><time>2026-04-18T10:30:47.321Z</time></trkpt><trkpt lat="41.556555" lon="13.0585883"><ele>811.0</ele><time>2026-04-18T10:30:50.321Z</time></trkpt><trkpt lat="41.556545" lon="13.0587017"><ele>811.0</ele><time>2026-04-18T10:30:54.322Z</time></trkpt><trkpt lat="41.5565367" lon="13.0587933"><ele>811.0</ele><time>2026-04-18T10:30:57.322Z</time></trkpt><trkpt lat="41.5565267" lon="13.0588867"><ele>811.0</ele><time>2026-04-18T10:31:00.322Z</time></trkpt><trkpt lat="41.556515" lon="13.0589933"><ele>811.0</ele><time>2026-04-18T10:31:04.322Z</time></trkpt><trkpt lat="41.55652" lon="13.05908"><ele>811.0</ele><time>2026-04-18T10:31:08.322Z</time></trkpt><trkpt lat="41.5565167" lon="13.059185"><ele>811.0</ele><time>2026-04-18T10:31:12.321Z</time></trkpt><trkpt lat="41.5565067" lon="13.0592767"><ele>811.0</ele><time>2026-04-18T10:31:15.321Z</time></trkpt><trkpt lat="41.5564883" lon="13.0593583"><ele>811.0</ele><time>2026-04-18T10:31:18.322Z</time></trkpt><trkpt lat="41.5564783" lon="13.05945"><ele>811.0</ele><time>2026-04-18T10:31:21.321Z</time></trkpt><trkpt lat="41.556465" lon="13.0595483"><ele>811.0</ele><time>2026-04-18T10:31:25.322Z</time></trkpt><trkpt lat="41.556425" lon="13.0596233"><ele>812.0</ele><time>2026-04-18T10:31:30.321Z</time></trkpt><trkpt lat="41.5564017" lon="13.0597017"><ele>813.0</ele><time>2026-04-18T10:31:34.321Z</time></trkpt><trkpt lat="41.55636" lon="13.0597717"><ele>814.0</ele><time>2026-04-18T10:31:39.321Z</time></trkpt><trkpt lat="41.5563133" lon="13.0598283"><ele>815.0</ele><time>2026-04-18T10:31:42.322Z</time></trkpt><trkpt lat="41.5562617" lon="13.0598967"><ele>816.0</ele><time>2026-04-18T10:31:45.321Z</time></trkpt><trkpt lat="41.5562017" lon="13.0599483"><ele>817.0</ele><time>2026-04-18T10:31:50.321Z</time></trkpt><trkpt lat="41.5561367" lon="13.06001"><ele>818.0</ele><time>2026-04-18T10:31:54.321Z</time></trkpt><trkpt lat="41.55607" lon="13.06006"><ele>818.0000000000001</ele><time>2026-04-18T10:31:58.323Z</time></trkpt><trkpt lat="41.5560083" lon="13.0601083"><ele>818.0</ele><time>2026-04-18T10:32:02.322Z</time></trkpt><trkpt lat="41.5559333" lon="13.0601533"><ele>818.0</ele><time>2026-04-18T10:32:06.322Z</time></trkpt><trkpt lat="41.5558733" lon="13.06022"><ele>818.0</ele><time>2026-04-18T10:32:10.323Z</time></trkpt><trkpt lat="41.5558033" lon="13.06027"><ele>818.0000000000001</ele><time>2026-04-18T10:32:15.322Z</time></trkpt><trkpt lat="41.55573" lon="13.060305"><ele>818.0</ele><time>2026-04-18T10:32:19.321Z</time></trkpt><trkpt lat="41.5556617" lon="13.0603383"><ele>818.0</ele><time>2026-04-18T10:32:23.322Z</time></trkpt><trkpt lat="41.5555967" lon="13.0603283"><ele>818.0</ele><time>2026-04-18T10:32:33.322Z</time></trkpt><trkpt lat="41.5555533" lon="13.0602617"><ele>818.0</ele><time>2026-04-18T10:32:39.323Z</time></trkpt><trkpt lat="41.5555217" lon="13.0601783"><ele>818.0</ele><time>2026-04-18T10:32:44.322Z</time></trkpt><trkpt lat="41.5554683" lon="13.06012"><ele>818.0</ele><time>2026-04-18T10:32:48.321Z</time></trkpt><trkpt lat="41.5554017" lon="13.0600633"><ele>818.0</ele><time>2026-04-18T10:32:51.322Z</time></trkpt><trkpt lat="41.5553317" lon="13.06001"><ele>818.0</ele><time>2026-04-18T10:32:54.322Z</time></trkpt><trkpt lat="41.555255" lon="13.0599483"><ele>818.0000000000001</ele><time>2026-04-18T10:32:57.323Z</time></trkpt><trkpt lat="41.55518" lon="13.0598817"><ele>818.0</ele><time>2026-04-18T10:33:00.321Z</time></trkpt><trkpt lat="41.5550983" lon="13.0598383"><ele>818.0</ele><time>2026-04-18T10:33:03.322Z</time></trkpt><trkpt lat="41.5550183" lon="13.059815"><ele>818.0</ele><time>2026-04-18T10:33:06.321Z</time></trkpt><trkpt lat="41.5549433" lon="13.0597967"><ele>818.0000000000001</ele><time>2026-04-18T10:33:09.321Z</time></trkpt><trkpt lat="41.5548733" lon="13.0597583"><ele>818.0</ele><time>2026-04-18T10:33:12.322Z</time></trkpt><trkpt lat="41.55481" lon="13.0597067"><ele>818.0000000000001</ele><time>2026-04-18T10:33:16.322Z</time></trkpt><trkpt lat="41.5547883" lon="13.0596"><ele>818.0</ele><time>2026-04-18T10:33:20.322Z</time></trkpt><trkpt lat="41.55475" lon="13.05952"><ele>818.0</ele><time>2026-04-18T10:33:23.321Z</time></trkpt><trkpt lat="41.5547033" lon="13.0594367"><ele>818.0</ele><time>2026-04-18T10:33:27.323Z</time></trkpt><trkpt lat="41.5546883" lon="13.059345"><ele>818.0000000000001</ele><time>2026-04-18T10:33:31.322Z</time></trkpt><trkpt lat="41.55466" lon="13.0592633"><ele>818.0</ele><time>2026-04-18T10:33:39.322Z</time></trkpt><trkpt lat="41.5545467" lon="13.0592217"><ele>818.0</ele><time>2026-04-18T10:35:28.321Z</time></trkpt><trkpt lat="41.5545867" lon="13.059145"><ele>818.0</ele><time>2026-04-18T10:37:31.323Z</time></trkpt><trkpt lat="41.5545983" lon="13.059045"><ele>818.0</ele><time>2026-04-18T10:37:34.322Z</time></trkpt><trkpt lat="41.55459" lon="13.0589417"><ele>818.0</ele><time>2026-04-18T10:37:36.322Z</time></trkpt><trkpt lat="41.5545717" lon="13.0588533"><ele>818.0</ele><time>2026-04-18T10:37:38.322Z</time></trkpt><trkpt lat="41.5545733" lon="13.0587567"><ele>818.0</ele><time>2026-04-18T10:37:40.322Z</time></trkpt><trkpt lat="41.55458" lon="13.0586683"><ele>818.0</ele><time>2026-04-18T10:37:42.322Z</time></trkpt><trkpt lat="41.5545783" lon="13.058555"><ele>815.3333333333334</ele><time>2026-04-18T10:37:45.323Z</time></trkpt><trkpt lat="41.554585" lon="13.05843"><ele>812.6666666666667</ele><time>2026-04-18T10:37:48.323Z</time></trkpt><trkpt lat="41.554595" lon="13.0583417"><ele>810.0</ele><time>2026-04-18T10:37:50.323Z</time></trkpt><trkpt lat="41.5545867" lon="13.0582333"><ele>807.3333333333333</ele><time>2026-04-18T10:37:52.322Z</time></trkpt><trkpt lat="41.5545633" lon="13.0581467"><ele>804.6666666666666</ele><time>2026-04-18T10:37:54.323Z</time></trkpt><trkpt lat="41.5545583" lon="13.0580233"><ele>802.0</ele><time>2026-04-18T10:37:57.323Z</time></trkpt><trkpt lat="41.5545083" lon="13.05791"><ele>800.8333333333333</ele><time>2026-04-18T10:38:00.322Z</time></trkpt><trkpt lat="41.55444" lon="13.057885"><ele>799.6666666666666</ele><time>2026-04-18T10:38:02.323Z</time></trkpt><trkpt lat="41.554375" lon="13.0578933"><ele>798.5</ele><time>2026-04-18T10:38:03.323Z</time></trkpt><trkpt lat="41.5542817" lon="13.0578883"><ele>797.3333333333333</ele><time>2026-04-18T10:38:05.323Z</time></trkpt><trkpt lat="41.5541867" lon="13.0579"><ele>796.1666666666666</ele><time>2026-04-18T10:38:07.321Z</time></trkpt><trkpt lat="41.5541" lon="13.0578967"><ele>795.0</ele><time>2026-04-18T10:38:09.322Z</time></trkpt><trkpt lat="41.5539967" lon="13.0578783"><ele>795.0</ele><time>2026-04-18T10:38:11.322Z</time></trkpt><trkpt lat="41.5538967" lon="13.0578633"><ele>795.0</ele><time>2026-04-18T10:38:13.323Z</time></trkpt><trkpt lat="41.5538033" lon="13.0578417"><ele>795.0</ele><time>2026-04-18T10:38:15.323Z</time></trkpt><trkpt lat="41.55373" lon="13.0577617"><ele>795.0</ele><time>2026-04-18T10:38:17.323Z</time></trkpt><trkpt lat="41.553665" lon="13.0576783"><ele>795.0</ele><time>2026-04-18T10:38:20.322Z</time></trkpt><trkpt lat="41.5537133" lon="13.0576117"><ele>795.0</ele><time>2026-04-18T10:38:25.322Z</time></trkpt><trkpt lat="41.5537817" lon="13.0575767"><ele>795.0</ele><time>2026-04-18T10:38:27.323Z</time></trkpt><trkpt lat="41.5538583" lon="13.0575617"><ele>795.0</ele><time>2026-04-18T10:38:30.322Z</time></trkpt><trkpt lat="41.5539233" lon="13.05752"><ele>795.0</ele><time>2026-04-18T10:38:33.323Z</time></trkpt><trkpt lat="41.553905" lon="13.0573783"><ele>795.0</ele><time>2026-04-18T10:38:36.322Z</time></trkpt><trkpt lat="41.5538483" lon="13.0572633"><ele>795.0</ele><time>2026-04-18T10:38:38.323Z</time></trkpt><trkpt lat="41.5538117" lon="13.0571917"><ele>791.0</ele><time>2026-04-18T10:38:40.322Z</time></trkpt><trkpt lat="41.55375" lon="13.0571467"><ele>787.0</ele><time>2026-04-18T10:38:42.321Z</time></trkpt><trkpt lat="41.55367" lon="13.0571317"><ele>783.0</ele><time>2026-04-18T10:38:44.321Z</time></trkpt><trkpt lat="41.5535717" lon="13.057115"><ele>779.0</ele><time>2026-04-18T10:38:46.323Z</time></trkpt><trkpt lat="41.553495" lon="13.0570817"><ele>775.0</ele><time>2026-04-18T10:38:48.324Z</time></trkpt><trkpt lat="41.5534017" lon="13.05704"><ele>771.0</ele><time>2026-04-18T10:38:50.324Z</time></trkpt><trkpt lat="41.5533117" lon="13.0570317"><ele>770.8333333333334</ele><time>2026-04-18T10:38:52.322Z</time></trkpt><trkpt lat="41.5532467" lon="13.0570283"><ele>770.6666666666667</ele><time>2026-04-18T10:38:53.324Z</time></trkpt><trkpt lat="41.5531733" lon="13.057055"><ele>770.5</ele><time>2026-04-18T10:38:55.322Z</time></trkpt><trkpt lat="41.55309" lon="13.0570767"><ele>770.3333333333334</ele><time>2026-04-18T10:38:57.322Z</time></trkpt><trkpt lat="41.5530183" lon="13.0570917"><ele>770.1666666666667</ele><time>2026-04-18T10:38:59.322Z</time></trkpt><trkpt lat="41.5529367" lon="13.0571217"><ele>770.0</ele><time>2026-04-18T10:39:01.323Z</time></trkpt><trkpt lat="41.5528317" lon="13.057145"><ele>769.5000000000001</ele><time>2026-04-18T10:39:03.322Z</time></trkpt><trkpt lat="41.5527317" lon="13.0571333"><ele>769.0</ele><time>2026-04-18T10:39:05.322Z</time></trkpt><trkpt lat="41.5526617" lon="13.0570967"><ele>768.5</ele><time>2026-04-18T10:39:07.322Z</time></trkpt><trkpt lat="41.5526033" lon="13.0570633"><ele>768.0</ele><time>2026-04-18T10:39:09.323Z</time></trkpt><trkpt lat="41.552535" lon="13.0569917"><ele>767.5</ele><time>2026-04-18T10:39:12.322Z</time></trkpt><trkpt lat="41.5524767" lon="13.0569367"><ele>767.0</ele><time>2026-04-18T10:39:16.322Z</time></trkpt><trkpt lat="41.5524567" lon="13.056835"><ele>767.0</ele><time>2026-04-18T10:39:23.323Z</time></trkpt><trkpt lat="41.5524" lon="13.056785"><ele>767.0</ele><time>2026-04-18T10:39:25.322Z</time></trkpt><trkpt lat="41.5523317" lon="13.0567133"><ele>767.0</ele><time>2026-04-18T10:39:27.322Z</time></trkpt><trkpt lat="41.55228" lon="13.05661"><ele>767.0</ele><time>2026-04-18T10:39:29.321Z</time></trkpt><trkpt lat="41.5522067" lon="13.0565533"><ele>767.0</ele><time>2026-04-18T10:39:31.321Z</time></trkpt><trkpt lat="41.5521067" lon="13.05652"><ele>767.0</ele><time>2026-04-18T10:39:33.323Z</time></trkpt><trkpt lat="41.55202" lon="13.0564833"><ele>761.4000000000001</ele><time>2026-04-18T10:39:35.322Z</time></trkpt><trkpt lat="41.5519233" lon="13.0564667"><ele>755.8000000000001</ele><time>2026-04-18T10:39:37.323Z</time></trkpt><trkpt lat="41.5518233" lon="13.05646"><ele>750.2</ele><time>2026-04-18T10:39:39.323Z</time></trkpt><trkpt lat="41.5517167" lon="13.0564483"><ele>744.6</ele><time>2026-04-18T10:39:41.323Z</time></trkpt><trkpt lat="41.5516283" lon="13.0564317"><ele>739.0</ele><time>2026-04-18T10:39:43.322Z</time></trkpt><trkpt lat="41.5515267" lon="13.0564283"><ele>739.0</ele><time>2026-04-18T10:39:45.325Z</time></trkpt><trkpt lat="41.5514183" lon="13.0564117"><ele>739.0</ele><time>2026-04-18T10:39:47.322Z</time></trkpt><trkpt lat="41.5512983" lon="13.05639"><ele>739.0</ele><time>2026-04-18T10:39:49.322Z</time></trkpt><trkpt lat="41.5512333" lon="13.0563817"><ele>739.0</ele><time>2026-04-18T10:39:50.322Z</time></trkpt><trkpt lat="41.55117" lon="13.056385"><ele>739.0</ele><time>2026-04-18T10:39:51.323Z</time></trkpt><trkpt lat="41.5510667" lon="13.0563967"><ele>737.8333333333334</ele><time>2026-04-18T10:39:53.323Z</time></trkpt><trkpt lat="41.5509783" lon="13.0564067"><ele>736.6666666666667</ele><time>2026-04-18T10:39:55.323Z</time></trkpt><trkpt lat="41.550885" lon="13.0564333"><ele>735.5</ele><time>2026-04-18T10:39:57.324Z</time></trkpt><trkpt lat="41.550805" lon="13.0564783"><ele>734.3333333333334</ele><time>2026-04-18T10:39:59.322Z</time></trkpt><trkpt lat="41.5507417" lon="13.056535"><ele>733.1666666666666</ele><time>2026-04-18T10:40:01.323Z</time></trkpt><trkpt lat="41.550685" lon="13.0565933"><ele>732.0</ele><time>2026-04-18T10:40:03.323Z</time></trkpt><trkpt lat="41.55063" lon="13.0566567"><ele>732.0</ele><time>2026-04-18T10:40:05.322Z</time></trkpt><trkpt lat="41.5505717" lon="13.05672"><ele>732.0</ele><time>2026-04-18T10:40:07.321Z</time></trkpt><trkpt lat="41.5505483" lon="13.0566367"><ele>732.0</ele><time>2026-04-18T10:40:15.323Z</time></trkpt><trkpt lat="41.5505483" lon="13.0565233"><ele>732.0</ele><time>2026-04-18T10:40:18.321Z</time></trkpt><trkpt lat="41.5505467" lon="13.0564217"><ele>732.0</ele><time>2026-04-18T10:40:20.323Z</time></trkpt><trkpt lat="41.5505567" lon="13.05632"><ele>732.0</ele><time>2026-04-18T10:40:22.322Z</time></trkpt><trkpt lat="41.5505717" lon="13.056195"><ele>732.0</ele><time>2026-04-18T10:40:24.323Z</time></trkpt><trkpt lat="41.55053" lon="13.0560683"><ele>732.0</ele><time>2026-04-18T10:40:26.323Z</time></trkpt><trkpt lat="41.5504833" lon="13.0559917"><ele>732.0</ele><time>2026-04-18T10:40:30.321Z</time></trkpt><trkpt lat="41.5504633" lon="13.0558933"><ele>732.0</ele><time>2026-04-18T10:40:33.322Z</time></trkpt><trkpt lat="41.5504333" lon="13.0557767"><ele>732.0</ele><time>2026-04-18T10:40:36.322Z</time></trkpt><trkpt lat="41.5504283" lon="13.05567"><ele>732.0</ele><time>2026-04-18T10:40:39.322Z</time></trkpt><trkpt lat="41.5504167" lon="13.0555783"><ele>727.8333333333334</ele><time>2026-04-18T10:40:43.323Z</time></trkpt><trkpt lat="41.5502883" lon="13.05549"><ele>723.6666666666666</ele><time>2026-04-18T10:41:38.323Z</time></trkpt><trkpt lat="41.5503517" lon="13.05547"><ele>719.5</ele><time>2026-04-18T10:43:35.322Z</time></trkpt><trkpt lat="41.55043" lon="13.0554733"><ele>715.3333333333333</ele><time>2026-04-18T10:43:38.323Z</time></trkpt><trkpt lat="41.5505217" lon="13.0554567"><ele>711.1666666666666</ele><time>2026-04-18T10:43:41.323Z</time></trkpt><trkpt lat="41.5505883" lon="13.0554383"><ele>707.0</ele><time>2026-04-18T10:43:43.323Z</time></trkpt><trkpt lat="41.5506533" lon="13.0554133"><ele>707.0</ele><time>2026-04-18T10:43:45.323Z</time></trkpt><trkpt lat="41.5507233" lon="13.0553617"><ele>707.0</ele><time>2026-04-18T10:43:47.322Z</time></trkpt><trkpt lat="41.5507917" lon="13.0553133"><ele>707.0</ele><time>2026-04-18T10:43:49.324Z</time></trkpt><trkpt lat="41.5508717" lon="13.05528"><ele>707.0</ele><time>2026-04-18T10:43:52.323Z</time></trkpt><trkpt lat="41.550955" lon="13.0552567"><ele>707.0</ele><time>2026-04-18T10:43:55.322Z</time></trkpt><trkpt lat="41.5510317" lon="13.0552367"><ele>707.0</ele><time>2026-04-18T10:43:57.322Z</time></trkpt><trkpt lat="41.551105" lon="13.0552317"><ele>707.0</ele><time>2026-04-18T10:43:59.322Z</time></trkpt><trkpt lat="41.5511717" lon="13.0552183"><ele>707.0</ele><time>2026-04-18T10:44:01.323Z</time></trkpt><trkpt lat="41.55127" lon="13.0552"><ele>707.0</ele><time>2026-04-18T10:44:03.324Z</time></trkpt><trkpt lat="41.5513367" lon="13.055185"><ele>707.0</ele><time>2026-04-18T10:44:05.323Z</time></trkpt><trkpt lat="41.551415" lon="13.05516"><ele>707.0</ele><time>2026-04-18T10:44:07.323Z</time></trkpt><trkpt lat="41.5514933" lon="13.0551433"><ele>707.0</ele><time>2026-04-18T10:44:09.322Z</time></trkpt><trkpt lat="41.5515783" lon="13.05513"><ele>708.5</ele><time>2026-04-18T10:44:11.322Z</time></trkpt><trkpt lat="41.5516567" lon="13.055125"><ele>710.0</ele><time>2026-04-18T10:44:13.322Z</time></trkpt><trkpt lat="41.551735" lon="13.05507"><ele>711.5</ele><time>2026-04-18T10:44:14.323Z</time></trkpt><trkpt lat="41.5518" lon="13.0550533"><ele>713.0</ele><time>2026-04-18T10:44:15.322Z</time></trkpt><trkpt lat="41.551905" lon="13.0550533"><ele>714.5</ele><time>2026-04-18T10:44:17.322Z</time></trkpt><trkpt lat="41.5519583" lon="13.0549883"><ele>716.0</ele><time>2026-04-18T10:44:19.322Z</time></trkpt><trkpt lat="41.5519583" lon="13.0548967"><ele>711.0</ele><time>2026-04-18T10:44:22.322Z</time></trkpt><trkpt lat="41.551875" lon="13.0548083"><ele>706.0</ele><time>2026-04-18T10:44:25.323Z</time></trkpt><trkpt lat="41.5518033" lon="13.0547417"><ele>701.0</ele><time>2026-04-18T10:44:27.322Z</time></trkpt><trkpt lat="41.551745" lon="13.05468"><ele>696.0</ele><time>2026-04-18T10:44:29.322Z</time></trkpt><trkpt lat="41.5516867" lon="13.0546433"><ele>691.0</ele><time>2026-04-18T10:44:31.322Z</time></trkpt><trkpt lat="41.5516183" lon="13.054595"><ele>686.0</ele><time>2026-04-18T10:44:33.323Z</time></trkpt><trkpt lat="41.55156" lon="13.0545267"><ele>686.0</ele><time>2026-04-18T10:44:36.323Z</time></trkpt><trkpt lat="41.551615" lon="13.0544817"><ele>686.0</ele><time>2026-04-18T10:44:44.322Z</time></trkpt><trkpt lat="41.5516067" lon="13.0543717"><ele>686.0</ele><time>2026-04-18T10:44:47.322Z</time></trkpt><trkpt lat="41.55158" lon="13.0542617"><ele>686.0</ele><time>2026-04-18T10:44:50.322Z</time></trkpt><trkpt lat="41.5515268" lon="13.0542149"><ele>686.0</ele><time>2026-04-18T10:44:53.321Z</time></trkpt><trkpt lat="41.5515226" lon="13.0540989"><ele>686.0</ele><time>2026-04-18T10:45:00.322Z</time></trkpt><trkpt lat="41.5514846" lon="13.0540095"><ele>683.1428571428571</ele><time>2026-04-18T10:45:03.322Z</time></trkpt><trkpt lat="41.5514383" lon="13.053951"><ele>680.2857142857142</ele><time>2026-04-18T10:45:07.324Z</time></trkpt><trkpt lat="41.5513979" lon="13.0538569"><ele>677.4285714285714</ele><time>2026-04-18T10:45:12.323Z</time></trkpt><trkpt lat="41.5513455" lon="13.0538062"><ele>674.5714285714286</ele><time>2026-04-18T10:45:15.323Z</time></trkpt><trkpt lat="41.5512736" lon="13.0537495"><ele>671.7142857142857</ele><time>2026-04-18T10:45:19.322Z</time></trkpt><trkpt lat="41.5512411" lon="13.0536603"><ele>668.8571428571429</ele><time>2026-04-18T10:45:26.323Z</time></trkpt><trkpt lat="41.5512196" lon="13.0535709"><ele>666.0</ele><time>2026-04-18T10:45:31.323Z</time></trkpt><trkpt lat="41.5512035" lon="13.0534605"><ele>662.3333333333334</ele><time>2026-04-18T10:45:34.322Z</time></trkpt><trkpt lat="41.5511699" lon="13.0533643"><ele>658.6666666666666</ele><time>2026-04-18T10:45:37.323Z</time></trkpt><trkpt lat="41.5511097" lon="13.0533236"><ele>655.0</ele><time>2026-04-18T10:45:40.322Z</time></trkpt><trkpt lat="41.5510513" lon="13.0532843"><ele>651.3333333333333</ele><time>2026-04-18T10:45:45.323Z</time></trkpt><trkpt lat="41.5510269" lon="13.0531837"><ele>647.6666666666666</ele><time>2026-04-18T10:45:57.322Z</time></trkpt><trkpt lat="41.5509843" lon="13.0530947"><ele>644.0</ele><time>2026-04-18T10:45:59.321Z</time></trkpt><trkpt lat="41.5509506" lon="13.052986"><ele>642.4285714285714</ele><time>2026-04-18T10:46:01.323Z</time></trkpt><trkpt lat="41.5509383" lon="13.0528936"><ele>640.8571428571429</ele><time>2026-04-18T10:46:04.322Z</time></trkpt><trkpt lat="41.5509306" lon="13.0527953"><ele>639.2857142857142</ele><time>2026-04-18T10:46:08.32Z</time></trkpt><trkpt lat="41.5509285" lon="13.0527032"><ele>637.7142857142858</ele><time>2026-04-18T10:46:15.322Z</time></trkpt><trkpt lat="41.5509954" lon="13.0527345"><ele>636.1428571428571</ele><time>2026-04-18T10:49:23.321Z</time></trkpt><trkpt lat="41.5509388" lon="13.0527874"><ele>634.5714285714286</ele><time>2026-04-18T10:52:02.322Z</time></trkpt><trkpt lat="41.5508796" lon="13.0528659"><ele>633.0</ele><time>2026-04-18T10:52:05.321Z</time></trkpt><trkpt lat="41.5508104" lon="13.0528994"><ele>633.0</ele><time>2026-04-18T10:52:08.321Z</time></trkpt><trkpt lat="41.5507306" lon="13.0529246"><ele>633.0</ele><time>2026-04-18T10:52:11.321Z</time></trkpt><trkpt lat="41.55065" lon="13.0529983"><ele>633.0</ele><time>2026-04-18T10:52:14.322Z</time></trkpt><trkpt lat="41.5505767" lon="13.05307"><ele>633.0</ele><time>2026-04-18T10:52:17.321Z</time></trkpt><trkpt lat="41.55051" lon="13.0531217"><ele>633.0</ele><time>2026-04-18T10:52:20.321Z</time></trkpt><trkpt lat="41.5504383" lon="13.053165"><ele>633.0</ele><time>2026-04-18T10:52:23.32Z</time></trkpt><trkpt lat="41.5503783" lon="13.0532133"><ele>633.2857142857142</ele><time>2026-04-18T10:52:26.321Z</time></trkpt><trkpt lat="41.5503233" lon="13.05326"><ele>633.5714285714286</ele><time>2026-04-18T10:52:29.321Z</time></trkpt><trkpt lat="41.550255" lon="13.053315"><ele>633.8571428571429</ele><time>2026-04-18T10:52:32.322Z</time></trkpt><trkpt lat="41.5501733" lon="13.053345"><ele>634.1428571428571</ele><time>2026-04-18T10:52:35.32Z</time></trkpt><trkpt lat="41.5501083" lon="13.05333"><ele>634.4285714285714</ele><time>2026-04-18T10:52:39.321Z</time></trkpt><trkpt lat="41.5500367" lon="13.0533167"><ele>634.7142857142857</ele><time>2026-04-18T10:52:42.321Z</time></trkpt><trkpt lat="41.5499717" lon="13.05332"><ele>635.0</ele><time>2026-04-18T10:52:44.32Z</time></trkpt><trkpt lat="41.54988" lon="13.053305"><ele>634.9999999999999</ele><time>2026-04-18T10:52:47.321Z</time></trkpt><trkpt lat="41.5498" lon="13.0533083"><ele>635.0</ele><time>2026-04-18T10:52:50.323Z</time></trkpt><trkpt lat="41.5497317" lon="13.05329"><ele>635.0</ele><time>2026-04-18T10:52:53.321Z</time></trkpt><trkpt lat="41.5496517" lon="13.0532767"><ele>635.0</ele><time>2026-04-18T10:52:57.323Z</time></trkpt><trkpt lat="41.5495867" lon="13.0532633"><ele>635.0</ele><time>2026-04-18T10:53:00.321Z</time></trkpt><trkpt lat="41.5495233" lon="13.0532617"><ele>634.9999999999999</ele><time>2026-04-18T10:53:02.321Z</time></trkpt><trkpt lat="41.54944" lon="13.05325"><ele>635.0</ele><time>2026-04-18T10:53:06.323Z</time></trkpt><trkpt lat="41.5493767" lon="13.053255"><ele>635.5</ele><time>2026-04-18T10:53:08.322Z</time></trkpt><trkpt lat="41.5493133" lon="13.0532633"><ele>636.0</ele><time>2026-04-18T10:53:10.323Z</time></trkpt><trkpt lat="41.54923" lon="13.05328"><ele>636.5</ele><time>2026-04-18T10:53:13.322Z</time></trkpt><trkpt lat="41.5491417" lon="13.053295"><ele>637.0</ele><time>2026-04-18T10:53:16.323Z</time></trkpt><trkpt lat="41.5490517" lon="13.053325"><ele>637.5</ele><time>2026-04-18T10:53:19.322Z</time></trkpt><trkpt lat="41.5489617" lon="13.0533617"><ele>638.0</ele><time>2026-04-18T10:53:22.322Z</time></trkpt><trkpt lat="41.5489033" lon="13.0533967"><ele>638.0</ele><time>2026-04-18T10:53:24.321Z</time></trkpt><trkpt lat="41.548825" lon="13.053445"><ele>638.0</ele><time>2026-04-18T10:53:27.322Z</time></trkpt><trkpt lat="41.54876" lon="13.0535067"><ele>638.0</ele><time>2026-04-18T10:53:30.322Z</time></trkpt><trkpt lat="41.5487033" lon="13.0535583"><ele>638.0</ele><time>2026-04-18T10:53:33.323Z</time></trkpt><trkpt lat="41.548725" lon="13.0536883"><ele>638.0</ele><time>2026-04-18T10:54:01.32Z</time></trkpt><trkpt lat="41.5486667" lon="13.0537367"><ele>638.0</ele><time>2026-04-18T10:54:50.323Z</time></trkpt><trkpt lat="41.5485933" lon="13.0537983"><ele>638.8571428571429</ele><time>2026-04-18T10:54:54.321Z</time></trkpt><trkpt lat="41.54854" lon="13.05385"><ele>639.7142857142857</ele><time>2026-04-18T10:54:56.322Z</time></trkpt><trkpt lat="41.548485" lon="13.053905"><ele>640.5714285714286</ele><time>2026-04-18T10:54:58.32Z</time></trkpt><trkpt lat="41.5484183" lon="13.0539683"><ele>641.4285714285714</ele><time>2026-04-18T10:55:00.323Z</time></trkpt><trkpt lat="41.5483517" lon="13.0540267"><ele>642.2857142857142</ele><time>2026-04-18T10:55:02.323Z</time></trkpt><trkpt lat="41.5483033" lon="13.0540933"><ele>643.1428571428571</ele><time>2026-04-18T10:55:04.323Z</time></trkpt><trkpt lat="41.5482633" lon="13.05416"><ele>644.0</ele><time>2026-04-18T10:55:06.323Z</time></trkpt><trkpt lat="41.5482333" lon="13.0542683"><ele>644.0</ele><time>2026-04-18T10:55:09.322Z</time></trkpt><trkpt lat="41.54822" lon="13.0543583"><ele>644.0</ele><time>2026-04-18T10:55:11.322Z</time></trkpt><trkpt lat="41.5482167" lon="13.0544517"><ele>644.0</ele><time>2026-04-18T10:55:13.324Z</time></trkpt><trkpt lat="41.5481817" lon="13.05456"><ele>644.0</ele><time>2026-04-18T10:55:16.322Z</time></trkpt><trkpt lat="41.548125" lon="13.0546617"><ele>644.0</ele><time>2026-04-18T10:55:19.322Z</time></trkpt><trkpt lat="41.5480767" lon="13.0547317"><ele>644.0</ele><time>2026-04-18T10:55:21.322Z</time></trkpt><trkpt lat="41.548045" lon="13.0548133"><ele>644.0</ele><time>2026-04-18T10:55:23.325Z</time></trkpt><trkpt lat="41.5480217" lon="13.054915"><ele>644.0</ele><time>2026-04-18T10:55:25.324Z</time></trkpt><trkpt lat="41.5480033" lon="13.0550117"><ele>644.0</ele><time>2026-04-18T10:55:27.324Z</time></trkpt><trkpt lat="41.5479917" lon="13.05511"><ele>644.0</ele><time>2026-04-18T10:55:29.324Z</time></trkpt><trkpt lat="41.5479867" lon="13.0552133"><ele>644.0</ele><time>2026-04-18T10:55:31.324Z</time></trkpt><trkpt lat="41.54799" lon="13.0553083"><ele>644.0</ele><time>2026-04-18T10:55:33.325Z</time></trkpt><trkpt lat="41.5480017" lon="13.055405"><ele>646.4285714285714</ele><time>2026-04-18T10:55:35.323Z</time></trkpt><trkpt lat="41.5480233" lon="13.0555"><ele>648.8571428571429</ele><time>2026-04-18T10:55:37.324Z</time></trkpt><trkpt lat="41.5480417" lon="13.0555917"><ele>651.2857142857142</ele><time>2026-04-18T10:55:39.324Z</time></trkpt><trkpt lat="41.5480617" lon="13.0556833"><ele>653.7142857142858</ele><time>2026-04-18T10:55:41.324Z</time></trkpt><trkpt lat="41.548095" lon="13.0557983"><ele>656.1428571428571</ele><time>2026-04-18T10:55:44.321Z</time></trkpt><trkpt lat="41.5481167" lon="13.05588"><ele>658.5714285714286</ele><time>2026-04-18T10:55:46.321Z</time></trkpt><trkpt lat="41.5481333" lon="13.0559717"><ele>661.0</ele><time>2026-04-18T10:55:48.322Z</time></trkpt><trkpt lat="41.5481633" lon="13.0560567"><ele>661.2857142857142</ele><time>2026-04-18T10:55:50.323Z</time></trkpt><trkpt lat="41.54818" lon="13.0561483"><ele>661.5714285714286</ele><time>2026-04-18T10:55:52.322Z</time></trkpt><trkpt lat="41.5481917" lon="13.0562467"><ele>661.8571428571429</ele><time>2026-04-18T10:55:54.321Z</time></trkpt><trkpt lat="41.5482067" lon="13.0563333"><ele>662.1428571428571</ele><time>2026-04-18T10:55:56.321Z</time></trkpt><trkpt lat="41.5482133" lon="13.0564267"><ele>662.4285714285714</ele><time>2026-04-18T10:55:58.322Z</time></trkpt><trkpt lat="41.5482233" lon="13.05654"><ele>662.7142857142857</ele><time>2026-04-18T10:56:00.323Z</time></trkpt><trkpt lat="41.548225" lon="13.0566383"><ele>663.0</ele><time>2026-04-18T10:56:02.322Z</time></trkpt><trkpt lat="41.5482333" lon="13.0567317"><ele>662.9999999999999</ele><time>2026-04-18T10:56:04.324Z</time></trkpt><trkpt lat="41.5482433" lon="13.05683"><ele>663.0</ele><time>2026-04-18T10:56:06.323Z</time></trkpt><trkpt lat="41.5482783" lon="13.0569133"><ele>663.0</ele><time>2026-04-18T10:56:08.322Z</time></trkpt><trkpt lat="41.5483383" lon="13.0569617"><ele>663.0</ele><time>2026-04-18T10:56:10.321Z</time></trkpt><trkpt lat="41.548405" lon="13.056945"><ele>663.0</ele><time>2026-04-18T10:56:12.324Z</time></trkpt><trkpt lat="41.5484567" lon="13.0568717"><ele>662.9999999999999</ele><time>2026-04-18T10:56:14.325Z</time></trkpt><trkpt lat="41.5484717" lon="13.0567817"><ele>663.0</ele><time>2026-04-18T10:56:16.323Z</time></trkpt><trkpt lat="41.548455" lon="13.0566667"><ele>663.6666666666666</ele><time>2026-04-18T10:56:19.322Z</time></trkpt><trkpt lat="41.5484533" lon="13.0565817"><ele>664.3333333333334</ele><time>2026-04-18T10:56:22.325Z</time></trkpt><trkpt lat="41.54845" lon="13.056475"><ele>665.0</ele><time>2026-04-18T10:56:25.323Z</time></trkpt><trkpt lat="41.54845" lon="13.0563517"><ele>665.6666666666667</ele><time>2026-04-18T10:56:28.324Z</time></trkpt><trkpt lat="41.5484483" lon="13.0562667"><ele>666.3333333333334</ele><time>2026-04-18T10:56:30.324Z</time></trkpt><trkpt lat="41.54846" lon="13.0561433"><ele>667.0</ele><time>2026-04-18T10:56:33.323Z</time></trkpt><trkpt lat="41.5484667" lon="13.05605"><ele>667.0000000000001</ele><time>2026-04-18T10:56:35.321Z</time></trkpt><trkpt lat="41.5484883" lon="13.0559633"><ele>667.0</ele><time>2026-04-18T10:56:37.323Z</time></trkpt><trkpt lat="41.5484983" lon="13.055865"><ele>667.0</ele><time>2026-04-18T10:56:40.323Z</time></trkpt><trkpt lat="41.5484983" lon="13.0557533"><ele>667.0</ele><time>2026-04-18T10:56:43.326Z</time></trkpt><trkpt lat="41.54853" lon="13.0556633"><ele>667.0</ele><time>2026-04-18T10:56:46.322Z</time></trkpt><trkpt lat="41.5485983" lon="13.0556017"><ele>667.0000000000001</ele><time>2026-04-18T10:56:49.322Z</time></trkpt><trkpt lat="41.54865" lon="13.0555483"><ele>667.0</ele><time>2026-04-18T10:56:52.321Z</time></trkpt><trkpt lat="41.5487" lon="13.0554633"><ele>666.3333333333334</ele><time>2026-04-18T10:56:55.321Z</time></trkpt><trkpt lat="41.54875" lon="13.0553717"><ele>665.6666666666667</ele><time>2026-04-18T10:56:58.323Z</time></trkpt><trkpt lat="41.5487967" lon="13.0552733"><ele>665.0</ele><time>2026-04-18T10:57:01.322Z</time></trkpt><trkpt lat="41.548845" lon="13.0551683"><ele>664.3333333333334</ele><time>2026-04-18T10:57:04.319Z</time></trkpt><trkpt lat="41.548885" lon="13.0550567"><ele>663.6666666666666</ele><time>2026-04-18T10:57:07.323Z</time></trkpt><trkpt lat="41.5489133" lon="13.0549783"><ele>663.0</ele><time>2026-04-18T10:57:09.323Z</time></trkpt><trkpt lat="41.548985" lon="13.0549033"><ele>663.0</ele><time>2026-04-18T10:57:12.323Z</time></trkpt><trkpt lat="41.5490567" lon="13.0549133"><ele>663.0</ele><time>2026-04-18T10:57:15.323Z</time></trkpt><trkpt lat="41.54907" lon="13.0550167"><ele>663.0</ele><time>2026-04-18T10:57:20.32Z</time></trkpt><trkpt lat="41.5490133" lon="13.0550917"><ele>663.0</ele><time>2026-04-18T10:57:23.324Z</time></trkpt><trkpt lat="41.5489683" lon="13.0551617"><ele>663.0</ele><time>2026-04-18T10:57:26.324Z</time></trkpt><trkpt lat="41.548915" lon="13.05524"><ele>663.0</ele><time>2026-04-18T10:57:30.325Z</time></trkpt><trkpt lat="41.5488633" lon="13.0553133"><ele>666.8333333333334</ele><time>2026-04-18T10:57:33.323Z</time></trkpt><trkpt lat="41.5488283" lon="13.0554033"><ele>670.6666666666666</ele><time>2026-04-18T10:57:36.323Z</time></trkpt><trkpt lat="41.5487867" lon="13.0555033"><ele>674.5</ele><time>2026-04-18T10:57:39.323Z</time></trkpt><trkpt lat="41.5487483" lon="13.0556283"><ele>678.3333333333333</ele><time>2026-04-18T10:57:42.323Z</time></trkpt><trkpt lat="41.5487283" lon="13.055725"><ele>682.1666666666666</ele><time>2026-04-18T10:57:44.321Z</time></trkpt><trkpt lat="41.548725" lon="13.0558317"><ele>686.0</ele><time>2026-04-18T10:57:46.324Z</time></trkpt><trkpt lat="41.54874" lon="13.0559617"><ele>687.6666666666666</ele><time>2026-04-18T10:57:49.322Z</time></trkpt><trkpt lat="41.548755" lon="13.056065"><ele>689.3333333333333</ele><time>2026-04-18T10:57:51.323Z</time></trkpt><trkpt lat="41.5487783" lon="13.0561683"><ele>691.0</ele><time>2026-04-18T10:57:53.322Z</time></trkpt><trkpt lat="41.5488" lon="13.0562667"><ele>692.6666666666666</ele><time>2026-04-18T10:57:55.324Z</time></trkpt><trkpt lat="41.54883" lon="13.05635"><ele>694.3333333333334</ele><time>2026-04-18T10:57:57.322Z</time></trkpt><trkpt lat="41.5488583" lon="13.0564317"><ele>696.0</ele><time>2026-04-18T10:57:59.321Z</time></trkpt><trkpt lat="41.548895" lon="13.0565467"><ele>696.0</ele><time>2026-04-18T10:58:02.323Z</time></trkpt><trkpt lat="41.5489283" lon="13.0566317"><ele>696.0</ele><time>2026-04-18T10:58:04.322Z</time></trkpt><trkpt lat="41.5489667" lon="13.0567167"><ele>696.0</ele><time>2026-04-18T10:58:06.322Z</time></trkpt><trkpt lat="41.5490017" lon="13.0567933"><ele>696.0</ele><time>2026-04-18T10:58:08.323Z</time></trkpt><trkpt lat="41.549035" lon="13.0568717"><ele>696.0</ele><time>2026-04-18T10:58:10.324Z</time></trkpt><trkpt lat="41.54907" lon="13.0569517"><ele>696.0</ele><time>2026-04-18T10:58:12.323Z</time></trkpt><trkpt lat="41.5491033" lon="13.0570267"><ele>696.0</ele><time>2026-04-18T10:58:14.324Z</time></trkpt><trkpt lat="41.5491333" lon="13.05711"><ele>696.0</ele><time>2026-04-18T10:58:16.324Z</time></trkpt><trkpt lat="41.5491633" lon="13.057185"><ele>696.0</ele><time>2026-04-18T10:58:18.322Z</time></trkpt><trkpt lat="41.5491983" lon="13.057295"><ele>696.0</ele><time>2026-04-18T10:58:21.321Z</time></trkpt><trkpt lat="41.5492283" lon="13.0573717"><ele>696.0</ele><time>2026-04-18T10:58:23.321Z</time></trkpt><trkpt lat="41.549255" lon="13.05745"><ele>696.0</ele><time>2026-04-18T10:58:25.326Z</time></trkpt><trkpt lat="41.5492933" lon="13.0575217"><ele>696.0</ele><time>2026-04-18T10:58:27.325Z</time></trkpt><trkpt lat="41.5493467" lon="13.0575683"><ele>696.0</ele><time>2026-04-18T10:58:29.321Z</time></trkpt><trkpt lat="41.5494167" lon="13.0575617"><ele>696.0</ele><time>2026-04-18T10:58:31.323Z</time></trkpt><trkpt lat="41.5494717" lon="13.05747"><ele>696.0</ele><time>2026-04-18T10:58:34.321Z</time></trkpt><trkpt lat="41.5494683" lon="13.05738"><ele>696.0</ele><time>2026-04-18T10:58:36.323Z</time></trkpt><trkpt lat="41.54945" lon="13.057295"><ele>696.0</ele><time>2026-04-18T10:58:38.323Z</time></trkpt><trkpt lat="41.5494267" lon="13.0572083"><ele>696.0</ele><time>2026-04-18T10:58:40.323Z</time></trkpt><trkpt lat="41.5494017" lon="13.057125"><ele>696.0</ele><time>2026-04-18T10:58:42.324Z</time></trkpt><trkpt lat="41.5493783" lon="13.0570467"><ele>696.0</ele><time>2026-04-18T10:58:44.325Z</time></trkpt><trkpt lat="41.549365" lon="13.0569583"><ele>696.0</ele><time>2026-04-18T10:58:46.324Z</time></trkpt><trkpt lat="41.5493467" lon="13.0568683"><ele>696.0</ele><time>2026-04-18T10:58:48.321Z</time></trkpt><trkpt lat="41.5493233" lon="13.056785"><ele>696.0</ele><time>2026-04-18T10:58:50.322Z</time></trkpt><trkpt lat="41.5493033" lon="13.056695"><ele>696.0</ele><time>2026-04-18T10:58:52.322Z</time></trkpt><trkpt lat="41.549285" lon="13.0566"><ele>696.0</ele><time>2026-04-18T10:58:54.322Z</time></trkpt><trkpt lat="41.5492783" lon="13.0565117"><ele>696.0</ele><time>2026-04-18T10:58:56.323Z</time></trkpt><trkpt lat="41.5492917" lon="13.0564083"><ele>696.0</ele><time>2026-04-18T10:58:59.322Z</time></trkpt><trkpt lat="41.54931" lon="13.0563267"><ele>696.0</ele><time>2026-04-18T10:59:01.323Z</time></trkpt><trkpt lat="41.5493467" lon="13.05622"><ele>696.0</ele><time>2026-04-18T10:59:04.322Z</time></trkpt><trkpt lat="41.5493817" lon="13.0561417"><ele>696.0</ele><time>2026-04-18T10:59:06.323Z</time></trkpt><trkpt lat="41.549435" lon="13.056065"><ele>696.0</ele><time>2026-04-18T10:59:09.324Z</time></trkpt><trkpt lat="41.5494917" lon="13.0559917"><ele>696.0</ele><time>2026-04-18T10:59:12.322Z</time></trkpt><trkpt lat="41.5495417" lon="13.05594"><ele>696.0</ele><time>2026-04-18T10:59:14.322Z</time></trkpt><trkpt lat="41.5495983" lon="13.0558833"><ele>696.0</ele><time>2026-04-18T10:59:16.322Z</time></trkpt><trkpt lat="41.549675" lon="13.0558183"><ele>696.6666666666666</ele><time>2026-04-18T10:59:19.323Z</time></trkpt><trkpt lat="41.54973" lon="13.0557717"><ele>697.3333333333334</ele><time>2026-04-18T10:59:21.322Z</time></trkpt><trkpt lat="41.5497883" lon="13.0557383"><ele>698.0</ele><time>2026-04-18T10:59:23.323Z</time></trkpt><trkpt lat="41.5498633" lon="13.055695"><ele>698.6666666666667</ele><time>2026-04-18T10:59:26.325Z</time></trkpt><trkpt lat="41.5499417" lon="13.0556383"><ele>699.3333333333334</ele><time>2026-04-18T10:59:29.321Z</time></trkpt><trkpt lat="41.5500017" lon="13.05561"><ele>700.0</ele><time>2026-04-18T10:59:31.323Z</time></trkpt><trkpt lat="41.5500817" lon="13.055565"><ele>700.0</ele><time>2026-04-18T10:59:34.324Z</time></trkpt><trkpt lat="41.5501583" lon="13.05553"><ele>700.0</ele><time>2026-04-18T10:59:37.324Z</time></trkpt><trkpt lat="41.55023" lon="13.0554883"><ele>700.0</ele><time>2026-04-18T10:59:41.322Z</time></trkpt><trkpt lat="41.5502967" lon="13.0554833"><ele>700.0</ele><time>2026-04-18T10:59:45.324Z</time></trkpt><trkpt lat="41.5503767" lon="13.055475"><ele>700.0</ele><time>2026-04-18T10:59:49.323Z</time></trkpt><trkpt lat="41.5504483" lon="13.0554717"><ele>700.0</ele><time>2026-04-18T10:59:52.323Z</time></trkpt><trkpt lat="41.5505233" lon="13.055475"><ele>701.1666666666667</ele><time>2026-04-18T10:59:55.323Z</time></trkpt><trkpt lat="41.5506" lon="13.05547"><ele>702.3333333333334</ele><time>2026-04-18T10:59:58.321Z</time></trkpt><trkpt lat="41.5506733" lon="13.0554683"><ele>703.5</ele><time>2026-04-18T11:00:01.324Z</time></trkpt><trkpt lat="41.55078" lon="13.055485"><ele>704.6666666666666</ele><time>2026-04-18T11:00:07.322Z</time></trkpt><trkpt lat="41.5508583" lon="13.0554917"><ele>705.8333333333333</ele><time>2026-04-18T11:00:09.322Z</time></trkpt><trkpt lat="41.55095" lon="13.055495"><ele>707.0</ele><time>2026-04-18T11:00:23.324Z</time></trkpt><trkpt lat="41.5510567" lon="13.0555967"><ele>707.0</ele><time>2026-04-18T11:03:08.323Z</time></trkpt><trkpt lat="41.5510883" lon="13.0554867"><ele>707.0</ele><time>2026-04-18T11:05:22.322Z</time></trkpt><trkpt lat="41.5511633" lon="13.055485"><ele>707.0</ele><time>2026-04-18T11:06:20.321Z</time></trkpt><trkpt lat="41.5512433" lon="13.05551"><ele>707.0</ele><time>2026-04-18T11:06:24.321Z</time></trkpt><trkpt lat="41.5513067" lon="13.05553"><ele>707.0</ele><time>2026-04-18T11:06:27.322Z</time></trkpt><trkpt lat="41.5513733" lon="13.0555567"><ele>707.0</ele><time>2026-04-18T11:06:30.322Z</time></trkpt><trkpt lat="41.5514433" lon="13.0555633"><ele>708.5</ele><time>2026-04-18T11:06:33.321Z</time></trkpt><trkpt lat="41.5515133" lon="13.055565"><ele>710.0</ele><time>2026-04-18T11:06:36.322Z</time></trkpt><trkpt lat="41.5515867" lon="13.0555867"><ele>711.5</ele><time>2026-04-18T11:06:39.321Z</time></trkpt><trkpt lat="41.55167" lon="13.0556117"><ele>713.0</ele><time>2026-04-18T11:06:42.321Z</time></trkpt><trkpt lat="41.551755" lon="13.055625"><ele>714.5</ele><time>2026-04-18T11:06:45.322Z</time></trkpt><trkpt lat="41.5518333" lon="13.0556383"><ele>716.0</ele><time>2026-04-18T11:06:48.322Z</time></trkpt><trkpt lat="41.5519" lon="13.0556383"><ele>716.0000000000001</ele><time>2026-04-18T11:06:51.322Z</time></trkpt><trkpt lat="41.5519867" lon="13.05566"><ele>716.0</ele><time>2026-04-18T11:06:55.321Z</time></trkpt><trkpt lat="41.5520617" lon="13.055675"><ele>716.0</ele><time>2026-04-18T11:06:58.322Z</time></trkpt><trkpt lat="41.5521283" lon="13.055665"><ele>716.0</ele><time>2026-04-18T11:07:00.323Z</time></trkpt><trkpt lat="41.5521933" lon="13.0556683"><ele>716.0</ele><time>2026-04-18T11:07:02.321Z</time></trkpt><trkpt lat="41.5522683" lon="13.0556983"><ele>716.0000000000001</ele><time>2026-04-18T11:07:05.322Z</time></trkpt><trkpt lat="41.5523417" lon="13.0556967"><ele>716.0</ele><time>2026-04-18T11:07:08.323Z</time></trkpt><trkpt lat="41.552425" lon="13.0557"><ele>715.7142857142858</ele><time>2026-04-18T11:07:11.322Z</time></trkpt><trkpt lat="41.5524917" lon="13.055705"><ele>715.4285714285714</ele><time>2026-04-18T11:07:14.322Z</time></trkpt><trkpt lat="41.5525617" lon="13.0557067"><ele>715.1428571428571</ele><time>2026-04-18T11:07:17.321Z</time></trkpt><trkpt lat="41.5526417" lon="13.0557233"><ele>714.8571428571429</ele><time>2026-04-18T11:07:20.321Z</time></trkpt><trkpt lat="41.55271" lon="13.0557517"><ele>714.5714285714286</ele><time>2026-04-18T11:07:23.322Z</time></trkpt><trkpt lat="41.5527817" lon="13.0557883"><ele>714.2857142857143</ele><time>2026-04-18T11:07:26.322Z</time></trkpt><trkpt lat="41.5528467" lon="13.05581"><ele>714.0</ele><time>2026-04-18T11:07:29.322Z</time></trkpt><trkpt lat="41.5529133" lon="13.0558233"><ele>718.0</ele><time>2026-04-18T11:07:32.322Z</time></trkpt><trkpt lat="41.552975" lon="13.055805"><ele>722.0</ele><time>2026-04-18T11:07:34.322Z</time></trkpt><trkpt lat="41.5530583" lon="13.0558067"><ele>726.0</ele><time>2026-04-18T11:07:37.322Z</time></trkpt><trkpt lat="41.5531233" lon="13.055815"><ele>730.0</ele><time>2026-04-18T11:07:40.321Z</time></trkpt><trkpt lat="41.5531917" lon="13.055845"><ele>734.0</ele><time>2026-04-18T11:07:43.322Z</time></trkpt><trkpt lat="41.5532667" lon="13.0558567"><ele>738.0</ele><time>2026-04-18T11:07:46.322Z</time></trkpt><trkpt lat="41.5533367" lon="13.0558733"><ele>742.0</ele><time>2026-04-18T11:07:49.322Z</time></trkpt><trkpt lat="41.5534233" lon="13.0558933"><ele>742.0</ele><time>2026-04-18T11:07:52.321Z</time></trkpt><trkpt lat="41.5535067" lon="13.0559233"><ele>742.0</ele><time>2026-04-18T11:07:55.323Z</time></trkpt><trkpt lat="41.5535683" lon="13.055945"><ele>742.0</ele><time>2026-04-18T11:07:57.321Z</time></trkpt><trkpt lat="41.5536483" lon="13.05595"><ele>742.0</ele><time>2026-04-18T11:08:00.321Z</time></trkpt><trkpt lat="41.553735" lon="13.05594"><ele>742.0</ele><time>2026-04-18T11:08:03.322Z</time></trkpt><trkpt lat="41.5538167" lon="13.0559583"><ele>742.0</ele><time>2026-04-18T11:08:06.322Z</time></trkpt><trkpt lat="41.5538933" lon="13.05599"><ele>741.8333333333334</ele><time>2026-04-18T11:08:09.321Z</time></trkpt><trkpt lat="41.55397" lon="13.0560317"><ele>741.6666666666667</ele><time>2026-04-18T11:08:12.323Z</time></trkpt><trkpt lat="41.5540417" lon="13.056075"><ele>741.5</ele><time>2026-04-18T11:08:15.321Z</time></trkpt><trkpt lat="41.5541117" lon="13.0561117"><ele>741.3333333333334</ele><time>2026-04-18T11:08:18.322Z</time></trkpt><trkpt lat="41.55418" lon="13.0561733"><ele>741.1666666666666</ele><time>2026-04-18T11:08:21.322Z</time></trkpt><trkpt lat="41.5542533" lon="13.0562217"><ele>741.0</ele><time>2026-04-18T11:08:24.322Z</time></trkpt><trkpt lat="41.55432" lon="13.0562717"><ele>741.0</ele><time>2026-04-18T11:08:27.322Z</time></trkpt><trkpt lat="41.55439" lon="13.0563317"><ele>741.0</ele><time>2026-04-18T11:08:30.322Z</time></trkpt><trkpt lat="41.5544567" lon="13.0564033"><ele>741.0</ele><time>2026-04-18T11:08:33.321Z</time></trkpt><trkpt lat="41.5545217" lon="13.0564617"><ele>741.0</ele><time>2026-04-18T11:08:36.322Z</time></trkpt><trkpt lat="41.5545867" lon="13.0565367"><ele>741.0</ele><time>2026-04-18T11:08:39.322Z</time></trkpt><trkpt lat="41.55466" lon="13.0565933"><ele>741.0</ele><time>2026-04-18T11:08:42.322Z</time></trkpt><trkpt lat="41.5547283" lon="13.0566433"><ele>745.1666666666666</ele><time>2026-04-18T11:08:45.322Z</time></trkpt><trkpt lat="41.5547983" lon="13.0567233"><ele>749.3333333333334</ele><time>2026-04-18T11:08:48.32Z</time></trkpt><trkpt lat="41.5548533" lon="13.05677"><ele>753.5</ele><time>2026-04-18T11:08:50.321Z</time></trkpt><trkpt lat="41.5549283" lon="13.0568367"><ele>757.6666666666667</ele><time>2026-04-18T11:08:53.32Z</time></trkpt><trkpt lat="41.554995" lon="13.0569117"><ele>761.8333333333334</ele><time>2026-04-18T11:08:56.321Z</time></trkpt><trkpt lat="41.555035" lon="13.056985"><ele>766.0</ele><time>2026-04-18T11:08:59.322Z</time></trkpt><trkpt lat="41.55508" lon="13.0570617"><ele>766.0</ele><time>2026-04-18T11:09:02.321Z</time></trkpt><trkpt lat="41.5551367" lon="13.05714"><ele>766.0</ele><time>2026-04-18T11:09:06.321Z</time></trkpt><trkpt lat="41.55519" lon="13.0572217"><ele>766.0</ele><time>2026-04-18T11:09:10.322Z</time></trkpt><trkpt lat="41.5552467" lon="13.0572883"><ele>766.0</ele><time>2026-04-18T11:09:14.323Z</time></trkpt><trkpt lat="41.555305" lon="13.0573633"><ele>766.0</ele><time>2026-04-18T11:09:18.323Z</time></trkpt><trkpt lat="41.5553717" lon="13.0573767"><ele>766.0</ele><time>2026-04-18T11:09:22.322Z</time></trkpt><trkpt lat="41.55542" lon="13.0573217"><ele>769.8333333333334</ele><time>2026-04-18T11:09:25.322Z</time></trkpt><trkpt lat="41.5554583" lon="13.0572483"><ele>773.6666666666667</ele><time>2026-04-18T11:09:28.321Z</time></trkpt><trkpt lat="41.5555083" lon="13.05716"><ele>777.5</ele><time>2026-04-18T11:09:31.323Z</time></trkpt><trkpt lat="41.555525" lon="13.0570633"><ele>781.3333333333334</ele><time>2026-04-18T11:09:35.323Z</time></trkpt><trkpt lat="41.5555483" lon="13.0569633"><ele>785.1666666666666</ele><time>2026-04-18T11:09:38.322Z</time></trkpt><trkpt lat="41.5555817" lon="13.056885"><ele>789.0</ele><time>2026-04-18T11:09:40.323Z</time></trkpt><trkpt lat="41.5555967" lon="13.0567617"><ele>789.0</ele><time>2026-04-18T11:09:43.32Z</time></trkpt><trkpt lat="41.555605" lon="13.0566383"><ele>789.0</ele><time>2026-04-18T11:09:46.323Z</time></trkpt><trkpt lat="41.5555933" lon="13.0565033"><ele>789.0</ele><time>2026-04-18T11:09:49.321Z</time></trkpt><trkpt lat="41.555575" lon="13.05641"><ele>789.0</ele><time>2026-04-18T11:09:51.322Z</time></trkpt><trkpt lat="41.555555" lon="13.0563233"><ele>789.0</ele><time>2026-04-18T11:09:53.322Z</time></trkpt><trkpt lat="41.55555" lon="13.0562367"><ele>789.0</ele><time>2026-04-18T11:09:55.323Z</time></trkpt><trkpt lat="41.55554" lon="13.0561317"><ele>789.3333333333334</ele><time>2026-04-18T11:09:58.322Z</time></trkpt><trkpt lat="41.5555317" lon="13.0560367"><ele>789.6666666666667</ele><time>2026-04-18T11:10:01.322Z</time></trkpt><trkpt lat="41.5555133" lon="13.0559333"><ele>790.0</ele><time>2026-04-18T11:10:04.323Z</time></trkpt><trkpt lat="41.55549" lon="13.0558367"><ele>790.3333333333334</ele><time>2026-04-18T11:10:07.323Z</time></trkpt><trkpt lat="41.5554633" lon="13.0557367"><ele>790.6666666666667</ele><time>2026-04-18T11:10:10.323Z</time></trkpt><trkpt lat="41.5554667" lon="13.05563"><ele>791.0</ele><time>2026-04-18T11:10:13.322Z</time></trkpt><trkpt lat="41.5554633" lon="13.0555083"><ele>792.1666666666667</ele><time>2026-04-18T11:10:16.322Z</time></trkpt><trkpt lat="41.555435" lon="13.0554033"><ele>793.3333333333334</ele><time>2026-04-18T11:10:19.323Z</time></trkpt><trkpt lat="41.55541" lon="13.0552867"><ele>794.5</ele><time>2026-04-18T11:10:22.323Z</time></trkpt><trkpt lat="41.5553967" lon="13.0551767"><ele>795.6666666666667</ele><time>2026-04-18T11:10:25.323Z</time></trkpt><trkpt lat="41.5553817" lon="13.0550567"><ele>796.8333333333334</ele><time>2026-04-18T11:10:28.323Z</time></trkpt><trkpt lat="41.555365" lon="13.0549517"><ele>798.0</ele><time>2026-04-18T11:10:31.323Z</time></trkpt><trkpt lat="41.5553483" lon="13.0548467"><ele>793.0</ele><time>2026-04-18T11:10:34.322Z</time></trkpt><trkpt lat="41.5553367" lon="13.05474"><ele>788.0</ele><time>2026-04-18T11:10:37.322Z</time></trkpt><trkpt lat="41.55533" lon="13.0546317"><ele>783.0</ele><time>2026-04-18T11:10:40.322Z</time></trkpt><trkpt lat="41.555315" lon="13.0545367"><ele>778.0</ele><time>2026-04-18T11:10:43.321Z</time></trkpt><trkpt lat="41.555295" lon="13.0544317"><ele>773.0</ele><time>2026-04-18T11:10:47.321Z</time></trkpt><trkpt lat="41.5552933" lon="13.0543433"><ele>768.0</ele><time>2026-04-18T11:10:50.322Z</time></trkpt><trkpt lat="41.55527" lon="13.054235"><ele>768.0</ele><time>2026-04-18T11:10:54.323Z</time></trkpt><trkpt lat="41.5552367" lon="13.0541417"><ele>768.0</ele><time>2026-04-18T11:10:57.323Z</time></trkpt><trkpt lat="41.5552033" lon="13.0540283"><ele>768.0</ele><time>2026-04-18T11:11:00.323Z</time></trkpt><trkpt lat="41.5551533" lon="13.0539283"><ele>768.0</ele><time>2026-04-18T11:11:03.323Z</time></trkpt><trkpt lat="41.5551167" lon="13.053845"><ele>768.0</ele><time>2026-04-18T11:11:06.323Z</time></trkpt><trkpt lat="41.5551" lon="13.0537467"><ele>768.0</ele><time>2026-04-18T11:11:09.323Z</time></trkpt><trkpt lat="41.5551417" lon="13.0536667"><ele>768.0</ele><time>2026-04-18T11:11:13.323Z</time></trkpt><trkpt lat="41.5552167" lon="13.0536767"><ele>768.0</ele><time>2026-04-18T11:11:17.323Z</time></trkpt><trkpt lat="41.5552717" lon="13.05363"><ele>768.0</ele><time>2026-04-18T11:12:43.323Z</time></trkpt><trkpt lat="41.5553133" lon="13.0535283"><ele>768.0</ele><time>2026-04-18T11:13:12.322Z</time></trkpt><trkpt lat="41.5553467" lon="13.053445"><ele>768.0</ele><time>2026-04-18T11:13:19.323Z</time></trkpt><trkpt lat="41.5553567" lon="13.05335"><ele>768.0</ele><time>2026-04-18T11:13:24.323Z</time></trkpt><trkpt lat="41.5552933" lon="13.0532667"><ele>764.6666666666666</ele><time>2026-04-18T11:13:27.322Z</time></trkpt><trkpt lat="41.555225" lon="13.0532217"><ele>761.3333333333334</ele><time>2026-04-18T11:13:29.324Z</time></trkpt><trkpt lat="41.555165" lon="13.0531483"><ele>758.0</ele><time>2026-04-18T11:13:32.322Z</time></trkpt><trkpt lat="41.55514" lon="13.0530333"><ele>754.6666666666667</ele><time>2026-04-18T11:13:35.321Z</time></trkpt><trkpt lat="41.5551248" lon="13.0529423"><ele>751.3333333333334</ele><time>2026-04-18T11:13:37.323Z</time></trkpt><trkpt lat="41.5551062" lon="13.0528405"><ele>748.0</ele><time>2026-04-18T11:13:39.322Z</time></trkpt><trkpt lat="41.5550704" lon="13.0527386"><ele>748.0</ele><time>2026-04-18T11:13:41.32Z</time></trkpt><trkpt lat="41.5550245" lon="13.0526526"><ele>748.0</ele><time>2026-04-18T11:13:43.322Z</time></trkpt><trkpt lat="41.5549671" lon="13.052575"><ele>748.0</ele><time>2026-04-18T11:13:45.324Z</time></trkpt><trkpt lat="41.5549117" lon="13.0525083"><ele>748.0</ele><time>2026-04-18T11:13:47.322Z</time></trkpt><trkpt lat="41.5548208" lon="13.052412"><ele>748.0</ele><time>2026-04-18T11:13:49.325Z</time></trkpt><trkpt lat="41.5547652" lon="13.0523593"><ele>748.0</ele><time>2026-04-18T11:13:50.323Z</time></trkpt><trkpt lat="41.554667" lon="13.0522773"><ele>744.6666666666667</ele><time>2026-04-18T11:13:52.322Z</time></trkpt><trkpt lat="41.554583" lon="13.0521981"><ele>741.3333333333334</ele><time>2026-04-18T11:13:54.323Z</time></trkpt><trkpt lat="41.5545178" lon="13.0521276"><ele>738.0</ele><time>2026-04-18T11:13:56.323Z</time></trkpt><trkpt lat="41.5544367" lon="13.0520681"><ele>734.6666666666666</ele><time>2026-04-18T11:13:58.323Z</time></trkpt><trkpt lat="41.5543568" lon="13.0520207"><ele>731.3333333333333</ele><time>2026-04-18T11:14:00.322Z</time></trkpt><trkpt lat="41.5543022" lon="13.0519589"><ele>728.0</ele><time>2026-04-18T11:14:02.322Z</time></trkpt><trkpt lat="41.5542521" lon="13.0518941"><ele>728.0</ele><time>2026-04-18T11:14:04.323Z</time></trkpt><trkpt lat="41.5541874" lon="13.0518516"><ele>728.0</ele><time>2026-04-18T11:14:06.322Z</time></trkpt><trkpt lat="41.5541191" lon="13.0517944"><ele>728.0</ele><time>2026-04-18T11:14:08.321Z</time></trkpt><trkpt lat="41.5540431" lon="13.0517182"><ele>728.0</ele><time>2026-04-18T11:14:10.323Z</time></trkpt><trkpt lat="41.5539694" lon="13.0516558"><ele>728.0</ele><time>2026-04-18T11:14:12.321Z</time></trkpt><trkpt lat="41.5539014" lon="13.0516244"><ele>728.0</ele><time>2026-04-18T11:14:14.324Z</time></trkpt><trkpt lat="41.5538228" lon="13.0516276"><ele>728.0</ele><time>2026-04-18T11:14:16.323Z</time></trkpt><trkpt lat="41.5537556" lon="13.0516414"><ele>728.0</ele><time>2026-04-18T11:14:17.322Z</time></trkpt><trkpt lat="41.5536468" lon="13.0516464"><ele>728.0</ele><time>2026-04-18T11:14:19.323Z</time></trkpt><trkpt lat="41.5535684" lon="13.0516292"><ele>728.0</ele><time>2026-04-18T11:14:21.323Z</time></trkpt><trkpt lat="41.5535172" lon="13.0515797"><ele>728.0</ele><time>2026-04-18T11:14:23.322Z</time></trkpt><trkpt lat="41.5534481" lon="13.0515099"><ele>728.0</ele><time>2026-04-18T11:14:26.322Z</time></trkpt><trkpt lat="41.5533937" lon="13.0514298"><ele>723.6666666666666</ele><time>2026-04-18T11:14:29.321Z</time></trkpt><trkpt lat="41.5533139" lon="13.0513962"><ele>719.3333333333333</ele><time>2026-04-18T11:14:33.322Z</time></trkpt><trkpt lat="41.553231" lon="13.0513475"><ele>715.0</ele><time>2026-04-18T11:14:36.321Z</time></trkpt><trkpt lat="41.5531735" lon="13.0512802"><ele>710.6666666666666</ele><time>2026-04-18T11:14:38.321Z</time></trkpt><trkpt lat="41.5531055" lon="13.0512053"><ele>706.3333333333334</ele><time>2026-04-18T11:14:40.323Z</time></trkpt><trkpt lat="41.5530343" lon="13.0511625"><ele>702.0</ele><time>2026-04-18T11:14:42.323Z</time></trkpt><trkpt lat="41.5529696" lon="13.0511577"><ele>700.2</ele><time>2026-04-18T11:14:44.322Z</time></trkpt><trkpt lat="41.5528657" lon="13.0511642"><ele>698.4000000000001</ele><time>2026-04-18T11:14:46.322Z</time></trkpt><trkpt lat="41.5527688" lon="13.0511706"><ele>696.5999999999999</ele><time>2026-04-18T11:14:48.324Z</time></trkpt><trkpt lat="41.5526932" lon="13.0511953"><ele>694.8</ele><time>2026-04-18T11:14:50.322Z</time></trkpt><trkpt lat="41.5526105" lon="13.0512286"><ele>693.0</ele><time>2026-04-18T11:14:52.321Z</time></trkpt><trkpt lat="41.5525235" lon="13.0512541"><ele>693.0</ele><time>2026-04-18T11:14:54.323Z</time></trkpt><trkpt lat="41.552424" lon="13.0513039"><ele>693.0</ele><time>2026-04-18T11:14:56.321Z</time></trkpt><trkpt lat="41.552352" lon="13.0513689"><ele>693.0</ele><time>2026-04-18T11:14:58.321Z</time></trkpt><trkpt lat="41.5522786" lon="13.0514271"><ele>693.0</ele><time>2026-04-18T11:15:00.324Z</time></trkpt><trkpt lat="41.5522158" lon="13.0514732"><ele>693.0</ele><time>2026-04-18T11:15:02.322Z</time></trkpt><trkpt lat="41.5521357" lon="13.0515443"><ele>693.0</ele><time>2026-04-18T11:15:04.324Z</time></trkpt><trkpt lat="41.5520746" lon="13.051625"><ele>695.5</ele><time>2026-04-18T11:15:06.322Z</time></trkpt><trkpt lat="41.5520482" lon="13.0517287"><ele>698.0</ele><time>2026-04-18T11:15:08.323Z</time></trkpt><trkpt lat="41.5520406" lon="13.0518403"><ele>700.5</ele><time>2026-04-18T11:15:10.322Z</time></trkpt><trkpt lat="41.5520589" lon="13.0519558"><ele>703.0</ele><time>2026-04-18T11:15:12.323Z</time></trkpt><trkpt lat="41.5520673" lon="13.0520429"><ele>705.5</ele><time>2026-04-18T11:15:14.322Z</time></trkpt><trkpt lat="41.5520688" lon="13.0521398"><ele>708.0</ele><time>2026-04-18T11:15:16.324Z</time></trkpt><trkpt lat="41.5520633" lon="13.0522433"><ele>708.0</ele><time>2026-04-18T11:15:18.321Z</time></trkpt><trkpt lat="41.5520517" lon="13.0523433"><ele>708.0</ele><time>2026-04-18T11:15:20.322Z</time></trkpt><trkpt lat="41.5520633" lon="13.05243"><ele>708.0</ele><time>2026-04-18T11:15:22.321Z</time></trkpt><trkpt lat="41.552055" lon="13.0525417"><ele>708.0</ele><time>2026-04-18T11:15:24.322Z</time></trkpt><trkpt lat="41.552055" lon="13.0526583"><ele>708.0</ele><time>2026-04-18T11:15:26.322Z</time></trkpt><trkpt lat="41.552075" lon="13.0527667"><ele>708.0</ele><time>2026-04-18T11:15:28.32Z</time></trkpt><trkpt lat="41.5520983" lon="13.05288"><ele>707.8</ele><time>2026-04-18T11:15:30.323Z</time></trkpt><trkpt lat="41.5521233" lon="13.0529817"><ele>707.5999999999999</ele><time>2026-04-18T11:15:32.322Z</time></trkpt><trkpt lat="41.5521483" lon="13.0530783"><ele>707.4000000000001</ele><time>2026-04-18T11:15:34.321Z</time></trkpt><trkpt lat="41.5521983" lon="13.0532233"><ele>707.2</ele><time>2026-04-18T11:15:36.323Z</time></trkpt><trkpt lat="41.5522533" lon="13.05335"><ele>707.0</ele><time>2026-04-18T11:15:38.321Z</time></trkpt><trkpt lat="41.552285" lon="13.0534333"><ele>705.2857142857143</ele><time>2026-04-18T11:15:40.322Z</time></trkpt><trkpt lat="41.5523217" lon="13.05351"><ele>703.5714285714286</ele><time>2026-04-18T11:15:43.323Z</time></trkpt><trkpt lat="41.5523367" lon="13.0536"><ele>701.8571428571429</ele><time>2026-04-18T11:15:49.322Z</time></trkpt><trkpt lat="41.552275" lon="13.0536333"><ele>700.1428571428571</ele><time>2026-04-18T11:15:57.322Z</time></trkpt><trkpt lat="41.55221" lon="13.0536267"><ele>698.4285714285714</ele><time>2026-04-18T11:16:00.323Z</time></trkpt><trkpt lat="41.55215" lon="13.0535933"><ele>696.7142857142858</ele><time>2026-04-18T11:16:03.323Z</time></trkpt><trkpt lat="41.5520783" lon="13.0535533"><ele>695.0</ele><time>2026-04-18T11:16:06.323Z</time></trkpt><trkpt lat="41.5520183" lon="13.0535033"><ele>691.0</ele><time>2026-04-18T11:16:09.323Z</time></trkpt><trkpt lat="41.55195" lon="13.0534367"><ele>687.0</ele><time>2026-04-18T11:16:13.322Z</time></trkpt><trkpt lat="41.551895" lon="13.0533917"><ele>683.0</ele><time>2026-04-18T11:16:16.322Z</time></trkpt><trkpt lat="41.5518217" lon="13.0533683"><ele>679.0</ele><time>2026-04-18T11:16:19.322Z</time></trkpt><trkpt lat="41.5517517" lon="13.053345"><ele>675.0</ele><time>2026-04-18T11:16:22.323Z</time></trkpt><trkpt lat="41.55166" lon="13.053305"><ele>671.0</ele><time>2026-04-18T11:16:25.321Z</time></trkpt><trkpt lat="41.5515767" lon="13.05328"><ele>671.0</ele><time>2026-04-18T11:16:28.322Z</time></trkpt><trkpt lat="41.55151" lon="13.0532483"><ele>671.0</ele><time>2026-04-18T11:16:31.322Z</time></trkpt><trkpt lat="41.5514467" lon="13.05322"><ele>671.0</ele><time>2026-04-18T11:16:34.322Z</time></trkpt><trkpt lat="41.5513867" lon="13.0531683"><ele>671.0</ele><time>2026-04-18T11:16:37.323Z</time></trkpt><trkpt lat="41.5513183" lon="13.05312"><ele>671.0</ele><time>2026-04-18T11:16:40.322Z</time></trkpt><trkpt lat="41.5512583" lon="13.053045"><ele>671.0</ele><time>2026-04-18T11:16:43.322Z</time></trkpt><trkpt lat="41.551155" lon="13.0529867"><ele>663.4</ele><time>2026-04-18T11:16:46.322Z</time></trkpt><trkpt lat="41.5510517" lon="13.0529867"><ele>655.8</ele><time>2026-04-18T11:16:48.322Z</time></trkpt><trkpt lat="41.550955" lon="13.0529783"><ele>648.1999999999999</ele><time>2026-04-18T11:16:50.322Z</time></trkpt><trkpt lat="41.5508933" lon="13.05295"><ele>640.5999999999999</ele><time>2026-04-18T11:16:54.322Z</time></trkpt><trkpt lat="41.550785" lon="13.052825"><ele>633.0</ele><time>2026-04-18T11:17:47.323Z</time></trkpt><trkpt lat="41.5508417" lon="13.052725"><ele>633.0</ele><time>2026-04-18T11:18:20.322Z</time></trkpt><trkpt lat="41.5507883" lon="13.0526367"><ele>633.0</ele><time>2026-04-18T11:18:23.322Z</time></trkpt><trkpt lat="41.5507267" lon="13.0525867"><ele>633.0</ele><time>2026-04-18T11:18:25.323Z</time></trkpt><trkpt lat="41.550645" lon="13.0525383"><ele>633.0</ele><time>2026-04-18T11:18:27.321Z</time></trkpt><trkpt lat="41.5505433" lon="13.0524883"><ele>633.0</ele><time>2026-04-18T11:18:29.323Z</time></trkpt><trkpt lat="41.55045" lon="13.052415"><ele>628.8333333333334</ele><time>2026-04-18T11:18:31.322Z</time></trkpt><trkpt lat="41.5503667" lon="13.0523117"><ele>624.6666666666666</ele><time>2026-04-18T11:18:33.324Z</time></trkpt><trkpt lat="41.5503267" lon="13.0522467"><ele>620.5</ele><time>2026-04-18T11:18:34.322Z</time></trkpt><trkpt lat="41.55029" lon="13.0521767"><ele>616.3333333333333</ele><time>2026-04-18T11:18:35.324Z</time></trkpt><trkpt lat="41.5502383" lon="13.052105"><ele>612.1666666666666</ele><time>2026-04-18T11:18:36.325Z</time></trkpt><trkpt lat="41.5501867" lon="13.052035"><ele>608.0</ele><time>2026-04-18T11:18:37.322Z</time></trkpt><trkpt lat="41.5501417" lon="13.05195"><ele>608.0</ele><time>2026-04-18T11:18:38.321Z</time></trkpt><trkpt lat="41.5500933" lon="13.05186"><ele>608.0</ele><time>2026-04-18T11:18:39.323Z</time></trkpt><trkpt lat="41.550055" lon="13.05176"><ele>608.0</ele><time>2026-04-18T11:18:40.322Z</time></trkpt><trkpt lat="41.5500333" lon="13.0516133"><ele>608.0</ele><time>2026-04-18T11:18:41.321Z</time></trkpt><trkpt lat="41.550025" lon="13.05149"><ele>608.0</ele><time>2026-04-18T11:18:42.322Z</time></trkpt><trkpt lat="41.550015" lon="13.051365"><ele>607.1999999999999</ele><time>2026-04-18T11:18:43.323Z</time></trkpt><trkpt lat="41.5500067" lon="13.0512467"><ele>606.4</ele><time>2026-04-18T11:18:44.322Z</time></trkpt><trkpt lat="41.550005" lon="13.0511283"><ele>605.5999999999999</ele><time>2026-04-18T11:18:45.322Z</time></trkpt><trkpt lat="41.5499967" lon="13.051005"><ele>604.8</ele><time>2026-04-18T11:18:46.321Z</time></trkpt><trkpt lat="41.54997" lon="13.0508833"><ele>604.0</ele><time>2026-04-18T11:18:47.324Z</time></trkpt><trkpt lat="41.5499367" lon="13.0507683"><ele>604.0</ele><time>2026-04-18T11:18:48.324Z</time></trkpt><trkpt lat="41.5499067" lon="13.05065"><ele>604.0</ele><time>2026-04-18T11:18:49.324Z</time></trkpt><trkpt lat="41.5498833" lon="13.0505367"><ele>604.0</ele><time>2026-04-18T11:18:50.322Z</time></trkpt><trkpt lat="41.5498617" lon="13.0504067"><ele>604.0</ele><time>2026-04-18T11:18:51.322Z</time></trkpt><trkpt lat="41.5498567" lon="13.0502767"><ele>604.0</ele><time>2026-04-18T11:18:52.321Z</time></trkpt><trkpt lat="41.549855" lon="13.050145"><ele>604.0</ele><time>2026-04-18T11:18:53.322Z</time></trkpt><trkpt lat="41.5498717" lon="13.05001"><ele>604.0</ele><time>2026-04-18T11:18:54.323Z</time></trkpt><trkpt lat="41.5498967" lon="13.0498867"><ele>604.0</ele><time>2026-04-18T11:18:55.321Z</time></trkpt><trkpt lat="41.54994" lon="13.049775"><ele>604.0</ele><time>2026-04-18T11:18:56.322Z</time></trkpt><trkpt lat="41.549985" lon="13.0496717"><ele>604.0</ele><time>2026-04-18T11:18:57.323Z</time></trkpt><trkpt lat="41.5500467" lon="13.04959"><ele>604.8333333333334</ele><time>2026-04-18T11:18:58.321Z</time></trkpt><trkpt lat="41.5501" lon="13.0495083"><ele>605.6666666666667</ele><time>2026-04-18T11:18:59.322Z</time></trkpt><trkpt lat="41.5501633" lon="13.0494367"><ele>606.5</ele><time>2026-04-18T11:19:00.321Z</time></trkpt><trkpt lat="41.5502317" lon="13.0493667"><ele>607.3333333333334</ele><time>2026-04-18T11:19:01.321Z</time></trkpt><trkpt lat="41.550295" lon="13.0493"><ele>608.1666666666666</ele><time>2026-04-18T11:19:02.321Z</time></trkpt><trkpt lat="41.55036" lon="13.0492367"><ele>609.0</ele><time>2026-04-18T11:19:03.322Z</time></trkpt><trkpt lat="41.550425" lon="13.049175"><ele>605.1666666666666</ele><time>2026-04-18T11:19:04.322Z</time></trkpt><trkpt lat="41.5504917" lon="13.04911"><ele>601.3333333333334</ele><time>2026-04-18T11:19:05.321Z</time></trkpt><trkpt lat="41.5505583" lon="13.04904"><ele>597.5</ele><time>2026-04-18T11:19:06.322Z</time></trkpt><trkpt lat="41.550615" lon="13.048965"><ele>593.6666666666667</ele><time>2026-04-18T11:19:07.322Z</time></trkpt><trkpt lat="41.55067" lon="13.0488917"><ele>589.8333333333334</ele><time>2026-04-18T11:19:08.322Z</time></trkpt><trkpt lat="41.5507283" lon="13.0488167"><ele>586.0</ele><time>2026-04-18T11:19:09.322Z</time></trkpt><trkpt lat="41.550795" lon="13.048745"><ele>586.0</ele><time>2026-04-18T11:19:10.322Z</time></trkpt><trkpt lat="41.5508667" lon="13.04867"><ele>586.0</ele><time>2026-04-18T11:19:11.321Z</time></trkpt><trkpt lat="41.5509417" lon="13.0485833"><ele>586.0</ele><time>2026-04-18T11:19:12.323Z</time></trkpt><trkpt lat="41.5510117" lon="13.0485017"><ele>586.0</ele><time>2026-04-18T11:19:13.324Z</time></trkpt><trkpt lat="41.5510817" lon="13.0484183"><ele>586.0</ele><time>2026-04-18T11:19:14.324Z</time></trkpt><trkpt lat="41.5511517" lon="13.04833"><ele>585.2</ele><time>2026-04-18T11:19:15.325Z</time></trkpt><trkpt lat="41.551225" lon="13.0482417"><ele>584.4000000000001</ele><time>2026-04-18T11:19:16.321Z</time></trkpt><trkpt lat="41.5512983" lon="13.0481617"><ele>583.6</ele><time>2026-04-18T11:19:17.322Z</time></trkpt><trkpt lat="41.5513733" lon="13.048075"><ele>582.8000000000001</ele><time>2026-04-18T11:19:18.322Z</time></trkpt><trkpt lat="41.5514417" lon="13.0479817"><ele>582.0</ele><time>2026-04-18T11:19:19.325Z</time></trkpt><trkpt lat="41.551495" lon="13.0478633"><ele>582.0</ele><time>2026-04-18T11:19:20.324Z</time></trkpt><trkpt lat="41.5515233" lon="13.0477333"><ele>582.0</ele><time>2026-04-18T11:19:21.325Z</time></trkpt><trkpt lat="41.5515383" lon="13.0475833"><ele>582.0</ele><time>2026-04-18T11:19:22.323Z</time></trkpt><trkpt lat="41.5515617" lon="13.0474383"><ele>582.0</ele><time>2026-04-18T11:19:23.324Z</time></trkpt><trkpt lat="41.5515967" lon="13.0472933"><ele>582.0</ele><time>2026-04-18T11:19:24.322Z</time></trkpt><trkpt lat="41.5516567" lon="13.0471483"><ele>578.25</ele><time>2026-04-18T11:19:25.323Z</time></trkpt><trkpt lat="41.5517217" lon="13.0470117"><ele>574.5</ele><time>2026-04-18T11:19:26.321Z</time></trkpt><trkpt lat="41.55183" lon="13.0469467"><ele>570.75</ele><time>2026-04-18T11:19:27.322Z</time></trkpt><trkpt lat="41.5519483" lon="13.0469"><ele>567.0</ele><time>2026-04-18T11:19:28.324Z</time></trkpt><trkpt lat="41.5520517" lon="13.0468533"><ele>567.0</ele><time>2026-04-18T11:19:29.324Z</time></trkpt><trkpt lat="41.5521483" lon="13.04682"><ele>567.0</ele><time>2026-04-18T11:19:30.321Z</time></trkpt><trkpt lat="41.552245" lon="13.0468083"><ele>567.0</ele><time>2026-04-18T11:19:31.321Z</time></trkpt><trkpt lat="41.55234" lon="13.04682"><ele>567.0</ele><time>2026-04-18T11:19:32.321Z</time></trkpt><trkpt lat="41.5524233" lon="13.0468817"><ele>567.0</ele><time>2026-04-18T11:19:33.323Z</time></trkpt><trkpt lat="41.5524933" lon="13.046955"><ele>567.0</ele><time>2026-04-18T11:19:34.324Z</time></trkpt><trkpt lat="41.5525483" lon="13.0470567"><ele>567.0</ele><time>2026-04-18T11:19:35.321Z</time></trkpt><trkpt lat="41.5526" lon="13.04715"><ele>567.0</ele><time>2026-04-18T11:19:36.323Z</time></trkpt><trkpt lat="41.55263" lon="13.0473133"><ele>567.0</ele><time>2026-04-18T11:19:37.322Z</time></trkpt><trkpt lat="41.5526683" lon="13.04742"><ele>567.0</ele><time>2026-04-18T11:19:38.322Z</time></trkpt><trkpt lat="41.5526983" lon="13.0475317"><ele>570.4</ele><time>2026-04-18T11:19:39.323Z</time></trkpt><trkpt lat="41.5527467" lon="13.047615"><ele>573.8000000000001</ele><time>2026-04-18T11:19:40.321Z</time></trkpt><trkpt lat="41.5527917" lon="13.0476833"><ele>577.2</ele><time>2026-04-18T11:19:41.322Z</time></trkpt><trkpt lat="41.5528383" lon="13.0477433"><ele>580.6</ele><time>2026-04-18T11:19:42.323Z</time></trkpt><trkpt lat="41.552945" lon="13.0478033"><ele>584.0</ele><time>2026-04-18T11:19:44.324Z</time></trkpt><trkpt lat="41.55301" lon="13.0476517"><ele>585.8</ele><time>2026-04-18T11:19:46.323Z</time></trkpt><trkpt lat="41.5530083" lon="13.0474817"><ele>587.5999999999999</ele><time>2026-04-18T11:19:48.323Z</time></trkpt><trkpt lat="41.553015" lon="13.047385"><ele>589.4</ele><time>2026-04-18T11:19:49.321Z</time></trkpt><trkpt lat="41.5530167" lon="13.0472883"><ele>591.1999999999999</ele><time>2026-04-18T11:19:50.321Z</time></trkpt><trkpt lat="41.5530217" lon="13.0471333"><ele>593.0</ele><time>2026-04-18T11:19:52.323Z</time></trkpt><trkpt lat="41.55303" lon="13.0470083"><ele>594.0</ele><time>2026-04-18T11:19:54.322Z</time></trkpt><trkpt lat="41.5530267" lon="13.0468767"><ele>594.0</ele><time>2026-04-18T11:19:56.324Z</time></trkpt><trkpt lat="41.5530133" lon="13.046775"><ele>594.0</ele><time>2026-04-18T11:19:58.323Z</time></trkpt><trkpt lat="41.5530117" lon="13.04668"><ele>594.0</ele><time>2026-04-18T11:20:00.321Z</time></trkpt><trkpt lat="41.5529917" lon="13.046585"><ele>590.0</ele><time>2026-04-18T11:20:03.324Z</time></trkpt><trkpt lat="41.5528917" lon="13.0465567"><ele>590.0</ele><time>2026-04-18T11:21:31.323Z</time></trkpt></trkseg></trk></gpx>